<?xml version="1.0" encoding="utf-8"?><gpx version="1.1" creator="Strava GPX downloader (https://chrome.google.com/webstore/detail/strava-gpx-downloader/pnglhfabfkchkadgnkfacoakincdpeeg)" xmlns="http://www.topografix.com/GPX/1/1" xmlns:xsi="http://www.w3.org/2001/XMLSchema-instance" xsi:schemaLocation="http://www.topografix.com/GPX/1/1 http://www.topografix.com/GPX/1/1/gpx.xsd" xmlns:gpxtpx="http://www.garmin.com/xmlschemas/TrackPointExtension/v1"><metadata><time>1970-01-01T00:00:00.000Z</time><link href="https://www.strava.com/activities/2324258848/"><text>Strava</text></link></metadata><trk><name>Sunday Hash</name><type>Ride</type><trkseg><trkpt lat="14.707953" lon="101.19219"><ele>192.4</ele><time>1970-01-01T00:00:00.000Z</time></trkpt><trkpt lat="14.707986" lon="101.192187"><ele>192.3</ele><time>1970-01-01T00:00:02.000Z</time></trkpt><trkpt lat="14.708004" lon="101.192163"><ele>192.3</ele><time>1970-01-01T00:00:11.000Z</time></trkpt><trkpt lat="14.708033" lon="101.192136"><ele>192.1</ele><time>1970-01-01T00:00:13.000Z</time></trkpt><trkpt lat="14.708066" lon="101.192111"><ele>192</ele><time>1970-01-01T00:00:14.000Z</time></trkpt><trkpt lat="14.708091" lon="101.192069"><ele>192</ele><time>1970-01-01T00:00:16.000Z</time></trkpt><trkpt lat="14.708099" lon="101.192023"><ele>192.2</ele><time>1970-01-01T00:00:18.000Z</time></trkpt><trkpt lat="14.708073" lon="101.192003"><ele>192.7</ele><time>1970-01-01T00:00:20.000Z</time></trkpt><trkpt lat="14.708038" lon="101.192015"><ele>192.8</ele><time>1970-01-01T00:00:22.000Z</time></trkpt><trkpt lat="14.70801" lon="101.192054"><ele>192.6</ele><time>1970-01-01T00:00:24.000Z</time></trkpt><trkpt lat="14.708" lon="101.192104"><ele>192.4</ele><time>1970-01-01T00:00:26.000Z</time></trkpt><trkpt lat="14.708012" lon="101.192145"><ele>192.4</ele><time>1970-01-01T00:00:28.000Z</time></trkpt><trkpt lat="14.708041" lon="101.19215"><ele>192.1</ele><time>1970-01-01T00:00:30.000Z</time></trkpt><trkpt lat="14.708065" lon="101.192117"><ele>192</ele><time>1970-01-01T00:00:32.000Z</time></trkpt><trkpt lat="14.708054" lon="101.192091"><ele>192.2</ele><time>1970-01-01T00:00:35.000Z</time></trkpt><trkpt lat="14.708031" lon="101.192113"><ele>192.1</ele><time>1970-01-01T00:00:38.000Z</time></trkpt><trkpt lat="14.70806" lon="101.192113"><ele>192.1</ele><time>1970-01-01T00:00:43.000Z</time></trkpt><trkpt lat="14.708084" lon="101.192099"><ele>192</ele><time>1970-01-01T00:01:08.000Z</time></trkpt><trkpt lat="14.7081" lon="101.192077"><ele>192</ele><time>1970-01-01T00:01:10.000Z</time></trkpt><trkpt lat="14.708116" lon="101.192038"><ele>192.2</ele><time>1970-01-01T00:01:12.000Z</time></trkpt><trkpt lat="14.708137" lon="101.191988"><ele>192.7</ele><time>1970-01-01T00:01:14.000Z</time></trkpt><trkpt lat="14.708151" lon="101.19196"><ele>193.3</ele><time>1970-01-01T00:01:15.000Z</time></trkpt><trkpt lat="14.708165" lon="101.191929"><ele>194</ele><time>1970-01-01T00:01:16.000Z</time></trkpt><trkpt lat="14.708176" lon="101.191893"><ele>194</ele><time>1970-01-01T00:01:17.000Z</time></trkpt><trkpt lat="14.708186" lon="101.191862"><ele>194.6</ele><time>1970-01-01T00:01:18.000Z</time></trkpt><trkpt lat="14.708197" lon="101.191835"><ele>195.2</ele><time>1970-01-01T00:01:19.000Z</time></trkpt><trkpt lat="14.708219" lon="101.19181"><ele>195.2</ele><time>1970-01-01T00:01:20.000Z</time></trkpt><trkpt lat="14.708253" lon="101.191795"><ele>195.5</ele><time>1970-01-01T00:01:21.000Z</time></trkpt><trkpt lat="14.708294" lon="101.191787"><ele>195.2</ele><time>1970-01-01T00:01:22.000Z</time></trkpt><trkpt lat="14.70834" lon="101.191784"><ele>194.8</ele><time>1970-01-01T00:01:23.000Z</time></trkpt><trkpt lat="14.708384" lon="101.191786"><ele>194.5</ele><time>1970-01-01T00:01:24.000Z</time></trkpt><trkpt lat="14.708429" lon="101.191791"><ele>194.4</ele><time>1970-01-01T00:01:25.000Z</time></trkpt><trkpt lat="14.708473" lon="101.1918"><ele>194.4</ele><time>1970-01-01T00:01:26.000Z</time></trkpt><trkpt lat="14.708517" lon="101.191811"><ele>193.9</ele><time>1970-01-01T00:01:27.000Z</time></trkpt><trkpt lat="14.708554" lon="101.191827"><ele>193.9</ele><time>1970-01-01T00:01:28.000Z</time></trkpt><trkpt lat="14.708589" lon="101.191843"><ele>193.8</ele><time>1970-01-01T00:01:29.000Z</time></trkpt><trkpt lat="14.70863" lon="101.191856"><ele>193.1</ele><time>1970-01-01T00:01:30.000Z</time></trkpt><trkpt lat="14.70867" lon="101.191867"><ele>192.8</ele><time>1970-01-01T00:01:31.000Z</time></trkpt><trkpt lat="14.708711" lon="101.191867"><ele>192.5</ele><time>1970-01-01T00:01:32.000Z</time></trkpt><trkpt lat="14.708752" lon="101.191862"><ele>192.3</ele><time>1970-01-01T00:01:33.000Z</time></trkpt><trkpt lat="14.708782" lon="101.191854"><ele>192.2</ele><time>1970-01-01T00:01:34.000Z</time></trkpt><trkpt lat="14.708807" lon="101.191842"><ele>192.7</ele><time>1970-01-01T00:01:35.000Z</time></trkpt><trkpt lat="14.708836" lon="101.191825"><ele>192.6</ele><time>1970-01-01T00:01:36.000Z</time></trkpt><trkpt lat="14.708869" lon="101.191804"><ele>193</ele><time>1970-01-01T00:01:37.000Z</time></trkpt><trkpt lat="14.708903" lon="101.191783"><ele>192.7</ele><time>1970-01-01T00:01:38.000Z</time></trkpt><trkpt lat="14.708934" lon="101.191762"><ele>192.9</ele><time>1970-01-01T00:01:39.000Z</time></trkpt><trkpt lat="14.708962" lon="101.191746"><ele>192.4</ele><time>1970-01-01T00:01:40.000Z</time></trkpt><trkpt lat="14.708991" lon="101.191731"><ele>191.9</ele><time>1970-01-01T00:01:41.000Z</time></trkpt><trkpt lat="14.709028" lon="101.19171"><ele>191.5</ele><time>1970-01-01T00:01:42.000Z</time></trkpt><trkpt lat="14.709071" lon="101.191682"><ele>191.1</ele><time>1970-01-01T00:01:43.000Z</time></trkpt><trkpt lat="14.709108" lon="101.191656"><ele>191</ele><time>1970-01-01T00:01:44.000Z</time></trkpt><trkpt lat="14.709138" lon="101.191636"><ele>191</ele><time>1970-01-01T00:01:45.000Z</time></trkpt><trkpt lat="14.709169" lon="101.191614"><ele>191.1</ele><time>1970-01-01T00:01:46.000Z</time></trkpt><trkpt lat="14.709201" lon="101.19159"><ele>191.1</ele><time>1970-01-01T00:01:47.000Z</time></trkpt><trkpt lat="14.709235" lon="101.19156"><ele>191</ele><time>1970-01-01T00:01:48.000Z</time></trkpt><trkpt lat="14.709267" lon="101.191526"><ele>191</ele><time>1970-01-01T00:01:49.000Z</time></trkpt><trkpt lat="14.70929" lon="101.191486"><ele>191.1</ele><time>1970-01-01T00:01:50.000Z</time></trkpt><trkpt lat="14.709284" lon="101.191398"><ele>191.5</ele><time>1970-01-01T00:01:51.000Z</time></trkpt><trkpt lat="14.709283" lon="101.191337"><ele>191.6</ele><time>1970-01-01T00:01:52.000Z</time></trkpt><trkpt lat="14.709308" lon="101.19128"><ele>191.8</ele><time>1970-01-01T00:01:53.000Z</time></trkpt><trkpt lat="14.709332" lon="101.191234"><ele>191.6</ele><time>1970-01-01T00:01:54.000Z</time></trkpt><trkpt lat="14.709383" lon="101.191189"><ele>191.3</ele><time>1970-01-01T00:01:55.000Z</time></trkpt><trkpt lat="14.70942" lon="101.19115"><ele>191.2</ele><time>1970-01-01T00:01:56.000Z</time></trkpt><trkpt lat="14.709457" lon="101.191109"><ele>191.1</ele><time>1970-01-01T00:01:57.000Z</time></trkpt><trkpt lat="14.709465" lon="101.191081"><ele>191.2</ele><time>1970-01-01T00:01:58.000Z</time></trkpt><trkpt lat="14.709485" lon="101.191043"><ele>191.2</ele><time>1970-01-01T00:01:59.000Z</time></trkpt><trkpt lat="14.709537" lon="101.191017"><ele>191.2</ele><time>1970-01-01T00:02:00.000Z</time></trkpt><trkpt lat="14.709597" lon="101.190997"><ele>191.1</ele><time>1970-01-01T00:02:01.000Z</time></trkpt><trkpt lat="14.709635" lon="101.190976"><ele>191</ele><time>1970-01-01T00:02:02.000Z</time></trkpt><trkpt lat="14.709683" lon="101.190962"><ele>191</ele><time>1970-01-01T00:02:03.000Z</time></trkpt><trkpt lat="14.709719" lon="101.190935"><ele>191</ele><time>1970-01-01T00:02:04.000Z</time></trkpt><trkpt lat="14.709763" lon="101.190899"><ele>191</ele><time>1970-01-01T00:02:05.000Z</time></trkpt><trkpt lat="14.709789" lon="101.190843"><ele>190.9</ele><time>1970-01-01T00:02:06.000Z</time></trkpt><trkpt lat="14.709825" lon="101.190799"><ele>190.8</ele><time>1970-01-01T00:02:07.000Z</time></trkpt><trkpt lat="14.709902" lon="101.190774"><ele>190.5</ele><time>1970-01-01T00:02:09.000Z</time></trkpt><trkpt lat="14.709929" lon="101.190786"><ele>190.2</ele><time>1970-01-01T00:02:10.000Z</time></trkpt><trkpt lat="14.709957" lon="101.190795"><ele>190</ele><time>1970-01-01T00:02:11.000Z</time></trkpt><trkpt lat="14.71" lon="101.190818"><ele>189.9</ele><time>1970-01-01T00:02:12.000Z</time></trkpt><trkpt lat="14.710031" lon="101.19083"><ele>189.8</ele><time>1970-01-01T00:02:13.000Z</time></trkpt><trkpt lat="14.710056" lon="101.190844"><ele>189.6</ele><time>1970-01-01T00:02:14.000Z</time></trkpt><trkpt lat="14.710084" lon="101.19085"><ele>189.5</ele><time>1970-01-01T00:02:15.000Z</time></trkpt><trkpt lat="14.710122" lon="101.190827"><ele>189.4</ele><time>1970-01-01T00:02:16.000Z</time></trkpt><trkpt lat="14.710144" lon="101.190791"><ele>189.5</ele><time>1970-01-01T00:02:17.000Z</time></trkpt><trkpt lat="14.710161" lon="101.190766"><ele>189.5</ele><time>1970-01-01T00:02:18.000Z</time></trkpt><trkpt lat="14.710178" lon="101.190733"><ele>189.6</ele><time>1970-01-01T00:02:19.000Z</time></trkpt><trkpt lat="14.71019" lon="101.190691"><ele>189.7</ele><time>1970-01-01T00:02:20.000Z</time></trkpt><trkpt lat="14.710194" lon="101.190647"><ele>189.7</ele><time>1970-01-01T00:02:21.000Z</time></trkpt><trkpt lat="14.71019" lon="101.190599"><ele>189.6</ele><time>1970-01-01T00:02:22.000Z</time></trkpt><trkpt lat="14.710161" lon="101.19052"><ele>189.3</ele><time>1970-01-01T00:02:23.000Z</time></trkpt><trkpt lat="14.71016" lon="101.190473"><ele>189</ele><time>1970-01-01T00:02:24.000Z</time></trkpt><trkpt lat="14.710162" lon="101.190424"><ele>188.7</ele><time>1970-01-01T00:02:25.000Z</time></trkpt><trkpt lat="14.710162" lon="101.190374"><ele>188.5</ele><time>1970-01-01T00:02:26.000Z</time></trkpt><trkpt lat="14.710165" lon="101.190321"><ele>188.4</ele><time>1970-01-01T00:02:27.000Z</time></trkpt><trkpt lat="14.710163" lon="101.190264"><ele>188.4</ele><time>1970-01-01T00:02:28.000Z</time></trkpt><trkpt lat="14.710163" lon="101.190209"><ele>188.5</ele><time>1970-01-01T00:02:29.000Z</time></trkpt><trkpt lat="14.710173" lon="101.190159"><ele>188.7</ele><time>1970-01-01T00:02:30.000Z</time></trkpt><trkpt lat="14.710179" lon="101.190105"><ele>188.8</ele><time>1970-01-01T00:02:31.000Z</time></trkpt><trkpt lat="14.710194" lon="101.190048"><ele>188.9</ele><time>1970-01-01T00:02:32.000Z</time></trkpt><trkpt lat="14.710194" lon="101.189996"><ele>188.7</ele><time>1970-01-01T00:02:33.000Z</time></trkpt><trkpt lat="14.710199" lon="101.189941"><ele>188.5</ele><time>1970-01-01T00:02:34.000Z</time></trkpt><trkpt lat="14.710202" lon="101.189887"><ele>188.3</ele><time>1970-01-01T00:02:35.000Z</time></trkpt><trkpt lat="14.71021" lon="101.189835"><ele>188.1</ele><time>1970-01-01T00:02:36.000Z</time></trkpt><trkpt lat="14.710216" lon="101.18978"><ele>188</ele><time>1970-01-01T00:02:37.000Z</time></trkpt><trkpt lat="14.71022" lon="101.189725"><ele>188.1</ele><time>1970-01-01T00:02:38.000Z</time></trkpt><trkpt lat="14.710224" lon="101.189671"><ele>188.1</ele><time>1970-01-01T00:02:39.000Z</time></trkpt><trkpt lat="14.710239" lon="101.189616"><ele>187.9</ele><time>1970-01-01T00:02:40.000Z</time></trkpt><trkpt lat="14.710254" lon="101.189568"><ele>187.7</ele><time>1970-01-01T00:02:41.000Z</time></trkpt><trkpt lat="14.710267" lon="101.189518"><ele>187.5</ele><time>1970-01-01T00:02:42.000Z</time></trkpt><trkpt lat="14.710284" lon="101.189469"><ele>187.3</ele><time>1970-01-01T00:02:43.000Z</time></trkpt><trkpt lat="14.710309" lon="101.189419"><ele>187.1</ele><time>1970-01-01T00:02:44.000Z</time></trkpt><trkpt lat="14.710328" lon="101.189366"><ele>187.1</ele><time>1970-01-01T00:02:45.000Z</time></trkpt><trkpt lat="14.710346" lon="101.189323"><ele>187.2</ele><time>1970-01-01T00:02:46.000Z</time></trkpt><trkpt lat="14.71036" lon="101.189275"><ele>187.3</ele><time>1970-01-01T00:02:47.000Z</time></trkpt><trkpt lat="14.710384" lon="101.189224"><ele>187.6</ele><time>1970-01-01T00:02:48.000Z</time></trkpt><trkpt lat="14.710396" lon="101.189184"><ele>187.9</ele><time>1970-01-01T00:02:49.000Z</time></trkpt><trkpt lat="14.710414" lon="101.18914"><ele>188</ele><time>1970-01-01T00:02:50.000Z</time></trkpt><trkpt lat="14.71043" lon="101.18909"><ele>188.1</ele><time>1970-01-01T00:02:51.000Z</time></trkpt><trkpt lat="14.710453" lon="101.189041"><ele>188.1</ele><time>1970-01-01T00:02:52.000Z</time></trkpt><trkpt lat="14.710486" lon="101.188997"><ele>188.1</ele><time>1970-01-01T00:02:53.000Z</time></trkpt><trkpt lat="14.710501" lon="101.188956"><ele>188.1</ele><time>1970-01-01T00:02:54.000Z</time></trkpt><trkpt lat="14.710525" lon="101.188906"><ele>188.1</ele><time>1970-01-01T00:02:55.000Z</time></trkpt><trkpt lat="14.710551" lon="101.188871"><ele>188.1</ele><time>1970-01-01T00:02:56.000Z</time></trkpt><trkpt lat="14.710569" lon="101.188828"><ele>188.1</ele><time>1970-01-01T00:02:57.000Z</time></trkpt><trkpt lat="14.710591" lon="101.188785"><ele>188.2</ele><time>1970-01-01T00:02:58.000Z</time></trkpt><trkpt lat="14.710614" lon="101.188742"><ele>188.3</ele><time>1970-01-01T00:02:59.000Z</time></trkpt><trkpt lat="14.710635" lon="101.188699"><ele>188.5</ele><time>1970-01-01T00:03:00.000Z</time></trkpt><trkpt lat="14.710657" lon="101.188661"><ele>188.4</ele><time>1970-01-01T00:03:01.000Z</time></trkpt><trkpt lat="14.710678" lon="101.188637"><ele>188.4</ele><time>1970-01-01T00:03:02.000Z</time></trkpt><trkpt lat="14.710699" lon="101.18861"><ele>188.3</ele><time>1970-01-01T00:03:03.000Z</time></trkpt><trkpt lat="14.710725" lon="101.188573"><ele>188.3</ele><time>1970-01-01T00:03:04.000Z</time></trkpt><trkpt lat="14.710745" lon="101.188542"><ele>188.3</ele><time>1970-01-01T00:03:05.000Z</time></trkpt><trkpt lat="14.710777" lon="101.188524"><ele>187.9</ele><time>1970-01-01T00:03:06.000Z</time></trkpt><trkpt lat="14.710818" lon="101.188519"><ele>187.6</ele><time>1970-01-01T00:03:07.000Z</time></trkpt><trkpt lat="14.710856" lon="101.188532"><ele>187.4</ele><time>1970-01-01T00:03:08.000Z</time></trkpt><trkpt lat="14.71089" lon="101.188548"><ele>187.4</ele><time>1970-01-01T00:03:09.000Z</time></trkpt><trkpt lat="14.710931" lon="101.188568"><ele>187.5</ele><time>1970-01-01T00:03:10.000Z</time></trkpt><trkpt lat="14.710973" lon="101.188587"><ele>187.6</ele><time>1970-01-01T00:03:11.000Z</time></trkpt><trkpt lat="14.711013" lon="101.188606"><ele>187.6</ele><time>1970-01-01T00:03:12.000Z</time></trkpt><trkpt lat="14.71105" lon="101.188625"><ele>187.6</ele><time>1970-01-01T00:03:13.000Z</time></trkpt><trkpt lat="14.711089" lon="101.188646"><ele>187.3</ele><time>1970-01-01T00:03:14.000Z</time></trkpt><trkpt lat="14.711132" lon="101.188671"><ele>187.3</ele><time>1970-01-01T00:03:15.000Z</time></trkpt><trkpt lat="14.711173" lon="101.188692"><ele>187.3</ele><time>1970-01-01T00:03:16.000Z</time></trkpt><trkpt lat="14.711223" lon="101.188719"><ele>187.6</ele><time>1970-01-01T00:03:17.000Z</time></trkpt><trkpt lat="14.711272" lon="101.188739"><ele>187.7</ele><time>1970-01-01T00:03:18.000Z</time></trkpt><trkpt lat="14.711321" lon="101.188758"><ele>187.7</ele><time>1970-01-01T00:03:19.000Z</time></trkpt><trkpt lat="14.711369" lon="101.18878"><ele>187.5</ele><time>1970-01-01T00:03:20.000Z</time></trkpt><trkpt lat="14.711422" lon="101.188804"><ele>187.4</ele><time>1970-01-01T00:03:21.000Z</time></trkpt><trkpt lat="14.711472" lon="101.188829"><ele>187.4</ele><time>1970-01-01T00:03:22.000Z</time></trkpt><trkpt lat="14.711515" lon="101.188858"><ele>187.5</ele><time>1970-01-01T00:03:23.000Z</time></trkpt><trkpt lat="14.711573" lon="101.18888"><ele>187.4</ele><time>1970-01-01T00:03:24.000Z</time></trkpt><trkpt lat="14.711625" lon="101.188908"><ele>187.2</ele><time>1970-01-01T00:03:25.000Z</time></trkpt><trkpt lat="14.711674" lon="101.18894"><ele>186.7</ele><time>1970-01-01T00:03:26.000Z</time></trkpt><trkpt lat="14.711728" lon="101.188964"><ele>186.7</ele><time>1970-01-01T00:03:27.000Z</time></trkpt><trkpt lat="14.711775" lon="101.188991"><ele>186.7</ele><time>1970-01-01T00:03:28.000Z</time></trkpt><trkpt lat="14.711828" lon="101.189012"><ele>187</ele><time>1970-01-01T00:03:29.000Z</time></trkpt><trkpt lat="14.711875" lon="101.18904"><ele>187.1</ele><time>1970-01-01T00:03:30.000Z</time></trkpt><trkpt lat="14.71192" lon="101.189066"><ele>187</ele><time>1970-01-01T00:03:31.000Z</time></trkpt><trkpt lat="14.711967" lon="101.189092"><ele>186.9</ele><time>1970-01-01T00:03:32.000Z</time></trkpt><trkpt lat="14.71201" lon="101.189114"><ele>186.5</ele><time>1970-01-01T00:03:33.000Z</time></trkpt><trkpt lat="14.712062" lon="101.18914"><ele>186.5</ele><time>1970-01-01T00:03:34.000Z</time></trkpt><trkpt lat="14.712107" lon="101.189161"><ele>186.4</ele><time>1970-01-01T00:03:35.000Z</time></trkpt><trkpt lat="14.712152" lon="101.189183"><ele>186.4</ele><time>1970-01-01T00:03:36.000Z</time></trkpt><trkpt lat="14.712197" lon="101.189198"><ele>186.4</ele><time>1970-01-01T00:03:37.000Z</time></trkpt><trkpt lat="14.712241" lon="101.189212"><ele>186.3</ele><time>1970-01-01T00:03:38.000Z</time></trkpt><trkpt lat="14.712281" lon="101.189243"><ele>186.1</ele><time>1970-01-01T00:03:39.000Z</time></trkpt><trkpt lat="14.712329" lon="101.18927"><ele>185.9</ele><time>1970-01-01T00:03:40.000Z</time></trkpt><trkpt lat="14.712366" lon="101.189296"><ele>185.5</ele><time>1970-01-01T00:03:41.000Z</time></trkpt><trkpt lat="14.712403" lon="101.189321"><ele>185.4</ele><time>1970-01-01T00:03:42.000Z</time></trkpt><trkpt lat="14.712444" lon="101.189347"><ele>185.4</ele><time>1970-01-01T00:03:43.000Z</time></trkpt><trkpt lat="14.712484" lon="101.189378"><ele>185.4</ele><time>1970-01-01T00:03:44.000Z</time></trkpt><trkpt lat="14.712526" lon="101.189394"><ele>185.4</ele><time>1970-01-01T00:03:45.000Z</time></trkpt><trkpt lat="14.712571" lon="101.189414"><ele>185.2</ele><time>1970-01-01T00:03:46.000Z</time></trkpt><trkpt lat="14.712608" lon="101.189444"><ele>185.2</ele><time>1970-01-01T00:03:47.000Z</time></trkpt><trkpt lat="14.712645" lon="101.189469"><ele>185.3</ele><time>1970-01-01T00:03:48.000Z</time></trkpt><trkpt lat="14.712682" lon="101.189484"><ele>185.3</ele><time>1970-01-01T00:03:49.000Z</time></trkpt><trkpt lat="14.712712" lon="101.189507"><ele>185.4</ele><time>1970-01-01T00:03:50.000Z</time></trkpt><trkpt lat="14.712746" lon="101.189528"><ele>185.5</ele><time>1970-01-01T00:03:51.000Z</time></trkpt><trkpt lat="14.712778" lon="101.189555"><ele>185.5</ele><time>1970-01-01T00:03:52.000Z</time></trkpt><trkpt lat="14.712819" lon="101.189577"><ele>185.5</ele><time>1970-01-01T00:03:53.000Z</time></trkpt><trkpt lat="14.712862" lon="101.189602"><ele>185.5</ele><time>1970-01-01T00:03:54.000Z</time></trkpt><trkpt lat="14.712903" lon="101.18962"><ele>185.3</ele><time>1970-01-01T00:03:55.000Z</time></trkpt><trkpt lat="14.712951" lon="101.189649"><ele>185.1</ele><time>1970-01-01T00:03:56.000Z</time></trkpt><trkpt lat="14.712999" lon="101.189674"><ele>184.8</ele><time>1970-01-01T00:03:57.000Z</time></trkpt><trkpt lat="14.713052" lon="101.189695"><ele>184.2</ele><time>1970-01-01T00:03:58.000Z</time></trkpt><trkpt lat="14.713102" lon="101.18972"><ele>184.1</ele><time>1970-01-01T00:03:59.000Z</time></trkpt><trkpt lat="14.713151" lon="101.189738"><ele>183.9</ele><time>1970-01-01T00:04:00.000Z</time></trkpt><trkpt lat="14.713195" lon="101.189768"><ele>184.1</ele><time>1970-01-01T00:04:01.000Z</time></trkpt><trkpt lat="14.713241" lon="101.189792"><ele>184.1</ele><time>1970-01-01T00:04:02.000Z</time></trkpt><trkpt lat="14.713287" lon="101.189817"><ele>183.9</ele><time>1970-01-01T00:04:03.000Z</time></trkpt><trkpt lat="14.713334" lon="101.189837"><ele>183.7</ele><time>1970-01-01T00:04:04.000Z</time></trkpt><trkpt lat="14.713373" lon="101.189858"><ele>183.5</ele><time>1970-01-01T00:04:05.000Z</time></trkpt><trkpt lat="14.713413" lon="101.189884"><ele>183.7</ele><time>1970-01-01T00:04:06.000Z</time></trkpt><trkpt lat="14.713449" lon="101.189906"><ele>184</ele><time>1970-01-01T00:04:07.000Z</time></trkpt><trkpt lat="14.713486" lon="101.189925"><ele>184.6</ele><time>1970-01-01T00:04:08.000Z</time></trkpt><trkpt lat="14.713524" lon="101.189944"><ele>184.9</ele><time>1970-01-01T00:04:09.000Z</time></trkpt><trkpt lat="14.713559" lon="101.189967"><ele>185.5</ele><time>1970-01-01T00:04:10.000Z</time></trkpt><trkpt lat="14.713598" lon="101.189982"><ele>185.7</ele><time>1970-01-01T00:04:11.000Z</time></trkpt><trkpt lat="14.713633" lon="101.190009"><ele>186.2</ele><time>1970-01-01T00:04:12.000Z</time></trkpt><trkpt lat="14.713675" lon="101.190029"><ele>186.4</ele><time>1970-01-01T00:04:13.000Z</time></trkpt><trkpt lat="14.713708" lon="101.190057"><ele>186.6</ele><time>1970-01-01T00:04:14.000Z</time></trkpt><trkpt lat="14.713748" lon="101.190073"><ele>186.8</ele><time>1970-01-01T00:04:15.000Z</time></trkpt><trkpt lat="14.713789" lon="101.190092"><ele>187.3</ele><time>1970-01-01T00:04:16.000Z</time></trkpt><trkpt lat="14.713832" lon="101.190105"><ele>187.5</ele><time>1970-01-01T00:04:17.000Z</time></trkpt><trkpt lat="14.713876" lon="101.190114"><ele>188.1</ele><time>1970-01-01T00:04:18.000Z</time></trkpt><trkpt lat="14.713919" lon="101.190121"><ele>188.4</ele><time>1970-01-01T00:04:19.000Z</time></trkpt><trkpt lat="14.713963" lon="101.190118"><ele>188.7</ele><time>1970-01-01T00:04:20.000Z</time></trkpt><trkpt lat="14.714023" lon="101.190067"><ele>188.7</ele><time>1970-01-01T00:04:21.000Z</time></trkpt><trkpt lat="14.714071" lon="101.190049"><ele>188.8</ele><time>1970-01-01T00:04:22.000Z</time></trkpt><trkpt lat="14.714113" lon="101.190026"><ele>188.5</ele><time>1970-01-01T00:04:23.000Z</time></trkpt><trkpt lat="14.71416" lon="101.190008"><ele>188.5</ele><time>1970-01-01T00:04:24.000Z</time></trkpt><trkpt lat="14.714203" lon="101.189989"><ele>188.2</ele><time>1970-01-01T00:04:25.000Z</time></trkpt><trkpt lat="14.714245" lon="101.189964"><ele>188.2</ele><time>1970-01-01T00:04:26.000Z</time></trkpt><trkpt lat="14.714287" lon="101.189934"><ele>187.9</ele><time>1970-01-01T00:04:27.000Z</time></trkpt><trkpt lat="14.71432" lon="101.189912"><ele>187.6</ele><time>1970-01-01T00:04:28.000Z</time></trkpt><trkpt lat="14.714361" lon="101.189889"><ele>187.6</ele><time>1970-01-01T00:04:29.000Z</time></trkpt><trkpt lat="14.714404" lon="101.18987"><ele>187.5</ele><time>1970-01-01T00:04:30.000Z</time></trkpt><trkpt lat="14.71445" lon="101.189854"><ele>187.7</ele><time>1970-01-01T00:04:31.000Z</time></trkpt><trkpt lat="14.714493" lon="101.189844"><ele>188</ele><time>1970-01-01T00:04:32.000Z</time></trkpt><trkpt lat="14.714524" lon="101.189838"><ele>188.3</ele><time>1970-01-01T00:04:33.000Z</time></trkpt><trkpt lat="14.714561" lon="101.189836"><ele>188.4</ele><time>1970-01-01T00:04:37.000Z</time></trkpt><trkpt lat="14.714529" lon="101.189849"><ele>188.3</ele><time>1970-01-01T00:04:41.000Z</time></trkpt><trkpt lat="14.714492" lon="101.189839"><ele>188</ele><time>1970-01-01T00:04:43.000Z</time></trkpt><trkpt lat="14.71445" lon="101.189832"><ele>187.7</ele><time>1970-01-01T00:04:45.000Z</time></trkpt><trkpt lat="14.714421" lon="101.189839"><ele>187.7</ele><time>1970-01-01T00:04:46.000Z</time></trkpt><trkpt lat="14.714384" lon="101.189858"><ele>187.5</ele><time>1970-01-01T00:04:47.000Z</time></trkpt><trkpt lat="14.714333" lon="101.189919"><ele>187.9</ele><time>1970-01-01T00:04:48.000Z</time></trkpt><trkpt lat="14.7143" lon="101.189957"><ele>187.9</ele><time>1970-01-01T00:04:49.000Z</time></trkpt><trkpt lat="14.714271" lon="101.190003"><ele>188.2</ele><time>1970-01-01T00:04:50.000Z</time></trkpt><trkpt lat="14.71426" lon="101.190048"><ele>188.7</ele><time>1970-01-01T00:04:51.000Z</time></trkpt><trkpt lat="14.714261" lon="101.190096"><ele>188.9</ele><time>1970-01-01T00:04:52.000Z</time></trkpt><trkpt lat="14.714257" lon="101.19014"><ele>189.1</ele><time>1970-01-01T00:04:53.000Z</time></trkpt><trkpt lat="14.714249" lon="101.190182"><ele>189.3</ele><time>1970-01-01T00:04:54.000Z</time></trkpt><trkpt lat="14.714239" lon="101.19022"><ele>189.6</ele><time>1970-01-01T00:04:55.000Z</time></trkpt><trkpt lat="14.714234" lon="101.19026"><ele>189.6</ele><time>1970-01-01T00:04:56.000Z</time></trkpt><trkpt lat="14.714221" lon="101.190302"><ele>189.9</ele><time>1970-01-01T00:04:57.000Z</time></trkpt><trkpt lat="14.714215" lon="101.190341"><ele>190.1</ele><time>1970-01-01T00:04:58.000Z</time></trkpt><trkpt lat="14.714198" lon="101.190385"><ele>190.4</ele><time>1970-01-01T00:04:59.000Z</time></trkpt><trkpt lat="14.714177" lon="101.19041"><ele>190.7</ele><time>1970-01-01T00:05:00.000Z</time></trkpt><trkpt lat="14.714161" lon="101.190441"><ele>191</ele><time>1970-01-01T00:05:01.000Z</time></trkpt><trkpt lat="14.714149" lon="101.190475"><ele>191</ele><time>1970-01-01T00:05:02.000Z</time></trkpt><trkpt lat="14.714139" lon="101.190511"><ele>191.2</ele><time>1970-01-01T00:05:03.000Z</time></trkpt><trkpt lat="14.714131" lon="101.190541"><ele>191.3</ele><time>1970-01-01T00:05:04.000Z</time></trkpt><trkpt lat="14.714125" lon="101.19057"><ele>191.4</ele><time>1970-01-01T00:05:05.000Z</time></trkpt><trkpt lat="14.714119" lon="101.190601"><ele>191.4</ele><time>1970-01-01T00:05:06.000Z</time></trkpt><trkpt lat="14.714112" lon="101.190634"><ele>191.3</ele><time>1970-01-01T00:05:07.000Z</time></trkpt><trkpt lat="14.714105" lon="101.19067"><ele>191.3</ele><time>1970-01-01T00:05:08.000Z</time></trkpt><trkpt lat="14.714096" lon="101.190705"><ele>191.2</ele><time>1970-01-01T00:05:09.000Z</time></trkpt><trkpt lat="14.714088" lon="101.19074"><ele>191.1</ele><time>1970-01-01T00:05:10.000Z</time></trkpt><trkpt lat="14.714079" lon="101.190775"><ele>191.1</ele><time>1970-01-01T00:05:11.000Z</time></trkpt><trkpt lat="14.714071" lon="101.190807"><ele>191.1</ele><time>1970-01-01T00:05:12.000Z</time></trkpt><trkpt lat="14.714064" lon="101.19084"><ele>191.1</ele><time>1970-01-01T00:05:13.000Z</time></trkpt><trkpt lat="14.714056" lon="101.190873"><ele>191.2</ele><time>1970-01-01T00:05:14.000Z</time></trkpt><trkpt lat="14.714047" lon="101.190906"><ele>191.4</ele><time>1970-01-01T00:05:15.000Z</time></trkpt><trkpt lat="14.714037" lon="101.19094"><ele>191.6</ele><time>1970-01-01T00:05:16.000Z</time></trkpt><trkpt lat="14.714027" lon="101.190975"><ele>191.8</ele><time>1970-01-01T00:05:17.000Z</time></trkpt><trkpt lat="14.714017" lon="101.191011"><ele>192.1</ele><time>1970-01-01T00:05:18.000Z</time></trkpt><trkpt lat="14.714006" lon="101.191046"><ele>192.5</ele><time>1970-01-01T00:05:19.000Z</time></trkpt><trkpt lat="14.713996" lon="101.19108"><ele>193.1</ele><time>1970-01-01T00:05:20.000Z</time></trkpt><trkpt lat="14.713985" lon="101.191113"><ele>193.1</ele><time>1970-01-01T00:05:21.000Z</time></trkpt><trkpt lat="14.713974" lon="101.191146"><ele>193.5</ele><time>1970-01-01T00:05:22.000Z</time></trkpt><trkpt lat="14.713962" lon="101.191178"><ele>193.8</ele><time>1970-01-01T00:05:23.000Z</time></trkpt><trkpt lat="14.713948" lon="101.19121"><ele>193.9</ele><time>1970-01-01T00:05:24.000Z</time></trkpt><trkpt lat="14.713934" lon="101.191246"><ele>193.9</ele><time>1970-01-01T00:05:25.000Z</time></trkpt><trkpt lat="14.713922" lon="101.191283"><ele>194.3</ele><time>1970-01-01T00:05:26.000Z</time></trkpt><trkpt lat="14.713914" lon="101.191318"><ele>194.5</ele><time>1970-01-01T00:05:27.000Z</time></trkpt><trkpt lat="14.713911" lon="101.191354"><ele>195</ele><time>1970-01-01T00:05:28.000Z</time></trkpt><trkpt lat="14.713917" lon="101.191389"><ele>195.5</ele><time>1970-01-01T00:05:29.000Z</time></trkpt><trkpt lat="14.713934" lon="101.19142"><ele>195.4</ele><time>1970-01-01T00:05:30.000Z</time></trkpt><trkpt lat="14.713959" lon="101.191447"><ele>195.6</ele><time>1970-01-01T00:05:31.000Z</time></trkpt><trkpt lat="14.713992" lon="101.191471"><ele>195.8</ele><time>1970-01-01T00:05:32.000Z</time></trkpt><trkpt lat="14.714029" lon="101.191492"><ele>195.8</ele><time>1970-01-01T00:05:33.000Z</time></trkpt><trkpt lat="14.714072" lon="101.191509"><ele>196.1</ele><time>1970-01-01T00:05:34.000Z</time></trkpt><trkpt lat="14.714117" lon="101.191521"><ele>196.2</ele><time>1970-01-01T00:05:35.000Z</time></trkpt><trkpt lat="14.714163" lon="101.191531"><ele>196.2</ele><time>1970-01-01T00:05:36.000Z</time></trkpt><trkpt lat="14.714206" lon="101.19154"><ele>196.2</ele><time>1970-01-01T00:05:37.000Z</time></trkpt><trkpt lat="14.714248" lon="101.191551"><ele>195.8</ele><time>1970-01-01T00:05:38.000Z</time></trkpt><trkpt lat="14.714289" lon="101.191561"><ele>195.8</ele><time>1970-01-01T00:05:39.000Z</time></trkpt><trkpt lat="14.714331" lon="101.19157"><ele>195.3</ele><time>1970-01-01T00:05:40.000Z</time></trkpt><trkpt lat="14.714372" lon="101.19158"><ele>195.3</ele><time>1970-01-01T00:05:41.000Z</time></trkpt><trkpt lat="14.714412" lon="101.191592"><ele>195.1</ele><time>1970-01-01T00:05:42.000Z</time></trkpt><trkpt lat="14.714452" lon="101.191607"><ele>195</ele><time>1970-01-01T00:05:43.000Z</time></trkpt><trkpt lat="14.71449" lon="101.191624"><ele>195.1</ele><time>1970-01-01T00:05:44.000Z</time></trkpt><trkpt lat="14.714529" lon="101.191642"><ele>195.1</ele><time>1970-01-01T00:05:45.000Z</time></trkpt><trkpt lat="14.714566" lon="101.191659"><ele>195.1</ele><time>1970-01-01T00:05:46.000Z</time></trkpt><trkpt lat="14.714603" lon="101.191676"><ele>195.1</ele><time>1970-01-01T00:05:47.000Z</time></trkpt><trkpt lat="14.714639" lon="101.19169"><ele>195.1</ele><time>1970-01-01T00:05:48.000Z</time></trkpt><trkpt lat="14.714676" lon="101.191703"><ele>195.1</ele><time>1970-01-01T00:05:49.000Z</time></trkpt><trkpt lat="14.714713" lon="101.191717"><ele>195.3</ele><time>1970-01-01T00:05:50.000Z</time></trkpt><trkpt lat="14.714751" lon="101.191732"><ele>195.5</ele><time>1970-01-01T00:05:51.000Z</time></trkpt><trkpt lat="14.714787" lon="101.191747"><ele>195.5</ele><time>1970-01-01T00:05:52.000Z</time></trkpt><trkpt lat="14.714825" lon="101.191761"><ele>195.8</ele><time>1970-01-01T00:05:53.000Z</time></trkpt><trkpt lat="14.714863" lon="101.191775"><ele>196.1</ele><time>1970-01-01T00:05:54.000Z</time></trkpt><trkpt lat="14.714901" lon="101.191789"><ele>196.4</ele><time>1970-01-01T00:05:55.000Z</time></trkpt><trkpt lat="14.71494" lon="101.191804"><ele>196.8</ele><time>1970-01-01T00:05:56.000Z</time></trkpt><trkpt lat="14.714981" lon="101.191818"><ele>197</ele><time>1970-01-01T00:05:57.000Z</time></trkpt><trkpt lat="14.715032" lon="101.191822"><ele>197.3</ele><time>1970-01-01T00:05:58.000Z</time></trkpt><trkpt lat="14.71507" lon="101.19184"><ele>197.4</ele><time>1970-01-01T00:05:59.000Z</time></trkpt><trkpt lat="14.715111" lon="101.191858"><ele>197.3</ele><time>1970-01-01T00:06:00.000Z</time></trkpt><trkpt lat="14.715153" lon="101.191873"><ele>197.3</ele><time>1970-01-01T00:06:01.000Z</time></trkpt><trkpt lat="14.715196" lon="101.191891"><ele>197.2</ele><time>1970-01-01T00:06:02.000Z</time></trkpt><trkpt lat="14.715237" lon="101.191908"><ele>197.2</ele><time>1970-01-01T00:06:03.000Z</time></trkpt><trkpt lat="14.715284" lon="101.19192"><ele>197.3</ele><time>1970-01-01T00:06:04.000Z</time></trkpt><trkpt lat="14.715329" lon="101.191929"><ele>197.2</ele><time>1970-01-01T00:06:05.000Z</time></trkpt><trkpt lat="14.715373" lon="101.191942"><ele>196.6</ele><time>1970-01-01T00:06:06.000Z</time></trkpt><trkpt lat="14.71542" lon="101.191946"><ele>196.1</ele><time>1970-01-01T00:06:07.000Z</time></trkpt><trkpt lat="14.715463" lon="101.191956"><ele>195.7</ele><time>1970-01-01T00:06:08.000Z</time></trkpt><trkpt lat="14.715511" lon="101.191971"><ele>195.2</ele><time>1970-01-01T00:06:09.000Z</time></trkpt><trkpt lat="14.715544" lon="101.191982"><ele>194.9</ele><time>1970-01-01T00:06:10.000Z</time></trkpt><trkpt lat="14.71559" lon="101.191992"><ele>194.7</ele><time>1970-01-01T00:06:12.000Z</time></trkpt><trkpt lat="14.715653" lon="101.192001"><ele>194.6</ele><time>1970-01-01T00:06:14.000Z</time></trkpt><trkpt lat="14.715688" lon="101.192008"><ele>194.6</ele><time>1970-01-01T00:06:15.000Z</time></trkpt><trkpt lat="14.715727" lon="101.192011"><ele>194.6</ele><time>1970-01-01T00:06:16.000Z</time></trkpt><trkpt lat="14.715766" lon="101.192013"><ele>194.7</ele><time>1970-01-01T00:06:17.000Z</time></trkpt><trkpt lat="14.715801" lon="101.192014"><ele>194.7</ele><time>1970-01-01T00:06:18.000Z</time></trkpt><trkpt lat="14.715837" lon="101.192017"><ele>194.7</ele><time>1970-01-01T00:06:19.000Z</time></trkpt><trkpt lat="14.715874" lon="101.192023"><ele>194.9</ele><time>1970-01-01T00:06:20.000Z</time></trkpt><trkpt lat="14.715913" lon="101.192031"><ele>194.6</ele><time>1970-01-01T00:06:21.000Z</time></trkpt><trkpt lat="14.715951" lon="101.192037"><ele>194.3</ele><time>1970-01-01T00:06:22.000Z</time></trkpt><trkpt lat="14.715989" lon="101.19204"><ele>194.3</ele><time>1970-01-01T00:06:23.000Z</time></trkpt><trkpt lat="14.716028" lon="101.192041"><ele>194.1</ele><time>1970-01-01T00:06:24.000Z</time></trkpt><trkpt lat="14.716068" lon="101.192039"><ele>193.9</ele><time>1970-01-01T00:06:25.000Z</time></trkpt><trkpt lat="14.716107" lon="101.192034"><ele>193.9</ele><time>1970-01-01T00:06:26.000Z</time></trkpt><trkpt lat="14.716141" lon="101.192025"><ele>193.8</ele><time>1970-01-01T00:06:27.000Z</time></trkpt><trkpt lat="14.716179" lon="101.191987"><ele>193.6</ele><time>1970-01-01T00:06:29.000Z</time></trkpt><trkpt lat="14.71619" lon="101.191954"><ele>193.5</ele><time>1970-01-01T00:06:30.000Z</time></trkpt><trkpt lat="14.716197" lon="101.191919"><ele>193.4</ele><time>1970-01-01T00:06:31.000Z</time></trkpt><trkpt lat="14.716203" lon="101.191887"><ele>193.3</ele><time>1970-01-01T00:06:32.000Z</time></trkpt><trkpt lat="14.716212" lon="101.191856"><ele>193.4</ele><time>1970-01-01T00:06:33.000Z</time></trkpt><trkpt lat="14.716223" lon="101.191825"><ele>193.4</ele><time>1970-01-01T00:06:34.000Z</time></trkpt><trkpt lat="14.716233" lon="101.191794"><ele>193.3</ele><time>1970-01-01T00:06:35.000Z</time></trkpt><trkpt lat="14.716243" lon="101.191762"><ele>193.3</ele><time>1970-01-01T00:06:36.000Z</time></trkpt><trkpt lat="14.716254" lon="101.191729"><ele>193.2</ele><time>1970-01-01T00:06:37.000Z</time></trkpt><trkpt lat="14.716268" lon="101.191697"><ele>193.2</ele><time>1970-01-01T00:06:38.000Z</time></trkpt><trkpt lat="14.716285" lon="101.191663"><ele>193.1</ele><time>1970-01-01T00:06:39.000Z</time></trkpt><trkpt lat="14.716303" lon="101.191625"><ele>193.1</ele><time>1970-01-01T00:06:40.000Z</time></trkpt><trkpt lat="14.716319" lon="101.191585"><ele>193.2</ele><time>1970-01-01T00:06:41.000Z</time></trkpt><trkpt lat="14.716334" lon="101.191543"><ele>193.3</ele><time>1970-01-01T00:06:42.000Z</time></trkpt><trkpt lat="14.71635" lon="101.191499"><ele>193.4</ele><time>1970-01-01T00:06:43.000Z</time></trkpt><trkpt lat="14.716369" lon="101.191448"><ele>193.4</ele><time>1970-01-01T00:06:44.000Z</time></trkpt><trkpt lat="14.716379" lon="101.1914"><ele>193.4</ele><time>1970-01-01T00:06:45.000Z</time></trkpt><trkpt lat="14.716392" lon="101.191351"><ele>193.4</ele><time>1970-01-01T00:06:46.000Z</time></trkpt><trkpt lat="14.716407" lon="101.191307"><ele>193.4</ele><time>1970-01-01T00:06:47.000Z</time></trkpt><trkpt lat="14.716422" lon="101.191265"><ele>193.4</ele><time>1970-01-01T00:06:48.000Z</time></trkpt><trkpt lat="14.716441" lon="101.19122"><ele>193.4</ele><time>1970-01-01T00:06:49.000Z</time></trkpt><trkpt lat="14.716459" lon="101.191173"><ele>193.4</ele><time>1970-01-01T00:06:50.000Z</time></trkpt><trkpt lat="14.716475" lon="101.191124"><ele>193.6</ele><time>1970-01-01T00:06:51.000Z</time></trkpt><trkpt lat="14.716492" lon="101.191075"><ele>193.9</ele><time>1970-01-01T00:06:52.000Z</time></trkpt><trkpt lat="14.716509" lon="101.19102"><ele>193.9</ele><time>1970-01-01T00:06:53.000Z</time></trkpt><trkpt lat="14.716545" lon="101.190967"><ele>194</ele><time>1970-01-01T00:06:54.000Z</time></trkpt><trkpt lat="14.716586" lon="101.190914"><ele>194.1</ele><time>1970-01-01T00:06:55.000Z</time></trkpt><trkpt lat="14.71663" lon="101.190869"><ele>193.9</ele><time>1970-01-01T00:06:56.000Z</time></trkpt><trkpt lat="14.716669" lon="101.190835"><ele>194.1</ele><time>1970-01-01T00:06:57.000Z</time></trkpt><trkpt lat="14.716728" lon="101.190805"><ele>194.4</ele><time>1970-01-01T00:06:58.000Z</time></trkpt><trkpt lat="14.716787" lon="101.190792"><ele>194.4</ele><time>1970-01-01T00:06:59.000Z</time></trkpt><trkpt lat="14.716844" lon="101.190782"><ele>194.3</ele><time>1970-01-01T00:07:00.000Z</time></trkpt><trkpt lat="14.716903" lon="101.190776"><ele>194</ele><time>1970-01-01T00:07:01.000Z</time></trkpt><trkpt lat="14.71696" lon="101.190769"><ele>193.7</ele><time>1970-01-01T00:07:02.000Z</time></trkpt><trkpt lat="14.717018" lon="101.190769"><ele>193.2</ele><time>1970-01-01T00:07:03.000Z</time></trkpt><trkpt lat="14.717071" lon="101.190771"><ele>192.5</ele><time>1970-01-01T00:07:04.000Z</time></trkpt><trkpt lat="14.71712" lon="101.190775"><ele>192.2</ele><time>1970-01-01T00:07:05.000Z</time></trkpt><trkpt lat="14.71717" lon="101.190776"><ele>191.9</ele><time>1970-01-01T00:07:06.000Z</time></trkpt><trkpt lat="14.717215" lon="101.190779"><ele>191.5</ele><time>1970-01-01T00:07:07.000Z</time></trkpt><trkpt lat="14.717264" lon="101.190773"><ele>190.9</ele><time>1970-01-01T00:07:08.000Z</time></trkpt><trkpt lat="14.717305" lon="101.19077"><ele>190.6</ele><time>1970-01-01T00:07:09.000Z</time></trkpt><trkpt lat="14.717339" lon="101.190765"><ele>190.7</ele><time>1970-01-01T00:07:10.000Z</time></trkpt><trkpt lat="14.71738" lon="101.190729"><ele>190.6</ele><time>1970-01-01T00:07:11.000Z</time></trkpt><trkpt lat="14.717411" lon="101.190708"><ele>190.5</ele><time>1970-01-01T00:07:12.000Z</time></trkpt><trkpt lat="14.717446" lon="101.190713"><ele>190.5</ele><time>1970-01-01T00:07:13.000Z</time></trkpt><trkpt lat="14.717483" lon="101.190688"><ele>190.6</ele><time>1970-01-01T00:07:14.000Z</time></trkpt><trkpt lat="14.717521" lon="101.190661"><ele>190.7</ele><time>1970-01-01T00:07:15.000Z</time></trkpt><trkpt lat="14.717567" lon="101.190635"><ele>190.7</ele><time>1970-01-01T00:07:16.000Z</time></trkpt><trkpt lat="14.71761" lon="101.190618"><ele>190.8</ele><time>1970-01-01T00:07:17.000Z</time></trkpt><trkpt lat="14.717649" lon="101.190598"><ele>190.9</ele><time>1970-01-01T00:07:18.000Z</time></trkpt><trkpt lat="14.717687" lon="101.190578"><ele>190.8</ele><time>1970-01-01T00:07:19.000Z</time></trkpt><trkpt lat="14.717715" lon="101.190566"><ele>190.8</ele><time>1970-01-01T00:07:20.000Z</time></trkpt><trkpt lat="14.717745" lon="101.190548"><ele>190.6</ele><time>1970-01-01T00:07:21.000Z</time></trkpt><trkpt lat="14.717775" lon="101.190538"><ele>190.4</ele><time>1970-01-01T00:07:22.000Z</time></trkpt><trkpt lat="14.717824" lon="101.190531"><ele>190</ele><time>1970-01-01T00:07:24.000Z</time></trkpt><trkpt lat="14.717854" lon="101.190516"><ele>189.7</ele><time>1970-01-01T00:07:26.000Z</time></trkpt><trkpt lat="14.717901" lon="101.190506"><ele>189.2</ele><time>1970-01-01T00:07:30.000Z</time></trkpt><trkpt lat="14.717934" lon="101.190496"><ele>189</ele><time>1970-01-01T00:07:31.000Z</time></trkpt><trkpt lat="14.71797" lon="101.190482"><ele>188.7</ele><time>1970-01-01T00:07:32.000Z</time></trkpt><trkpt lat="14.718009" lon="101.190461"><ele>188.6</ele><time>1970-01-01T00:07:33.000Z</time></trkpt><trkpt lat="14.71805" lon="101.190437"><ele>188.6</ele><time>1970-01-01T00:07:34.000Z</time></trkpt><trkpt lat="14.718115" lon="101.190376"><ele>189.3</ele><time>1970-01-01T00:07:35.000Z</time></trkpt><trkpt lat="14.718161" lon="101.190331"><ele>189.9</ele><time>1970-01-01T00:07:36.000Z</time></trkpt><trkpt lat="14.718202" lon="101.190322"><ele>190.3</ele><time>1970-01-01T00:07:37.000Z</time></trkpt><trkpt lat="14.718251" lon="101.190312"><ele>190.6</ele><time>1970-01-01T00:07:38.000Z</time></trkpt><trkpt lat="14.718293" lon="101.190311"><ele>190.7</ele><time>1970-01-01T00:07:39.000Z</time></trkpt><trkpt lat="14.718338" lon="101.190304"><ele>190.8</ele><time>1970-01-01T00:07:40.000Z</time></trkpt><trkpt lat="14.718383" lon="101.190295"><ele>191.2</ele><time>1970-01-01T00:07:41.000Z</time></trkpt><trkpt lat="14.718424" lon="101.190286"><ele>191.6</ele><time>1970-01-01T00:07:42.000Z</time></trkpt><trkpt lat="14.718472" lon="101.190278"><ele>191.5</ele><time>1970-01-01T00:07:43.000Z</time></trkpt><trkpt lat="14.718515" lon="101.190272"><ele>191.3</ele><time>1970-01-01T00:07:44.000Z</time></trkpt><trkpt lat="14.718545" lon="101.19027"><ele>191.1</ele><time>1970-01-01T00:07:45.000Z</time></trkpt><trkpt lat="14.718582" lon="101.190254"><ele>191.1</ele><time>1970-01-01T00:07:46.000Z</time></trkpt><trkpt lat="14.718613" lon="101.19023"><ele>191.4</ele><time>1970-01-01T00:07:47.000Z</time></trkpt><trkpt lat="14.718662" lon="101.190216"><ele>191.6</ele><time>1970-01-01T00:07:48.000Z</time></trkpt><trkpt lat="14.718696" lon="101.19019"><ele>191.4</ele><time>1970-01-01T00:07:49.000Z</time></trkpt><trkpt lat="14.718729" lon="101.190165"><ele>191.1</ele><time>1970-01-01T00:07:50.000Z</time></trkpt><trkpt lat="14.718763" lon="101.19014"><ele>190.8</ele><time>1970-01-01T00:07:51.000Z</time></trkpt><trkpt lat="14.718797" lon="101.190115"><ele>190.9</ele><time>1970-01-01T00:07:52.000Z</time></trkpt><trkpt lat="14.718839" lon="101.190093"><ele>191</ele><time>1970-01-01T00:07:53.000Z</time></trkpt><trkpt lat="14.718883" lon="101.190071"><ele>191</ele><time>1970-01-01T00:07:54.000Z</time></trkpt><trkpt lat="14.718932" lon="101.190042"><ele>190.9</ele><time>1970-01-01T00:07:55.000Z</time></trkpt><trkpt lat="14.718988" lon="101.190015"><ele>190.6</ele><time>1970-01-01T00:07:56.000Z</time></trkpt><trkpt lat="14.719045" lon="101.189976"><ele>189.3</ele><time>1970-01-01T00:07:57.000Z</time></trkpt><trkpt lat="14.719095" lon="101.189937"><ele>188.6</ele><time>1970-01-01T00:07:58.000Z</time></trkpt><trkpt lat="14.71915" lon="101.189899"><ele>187.9</ele><time>1970-01-01T00:07:59.000Z</time></trkpt><trkpt lat="14.719205" lon="101.189853"><ele>186.7</ele><time>1970-01-01T00:08:00.000Z</time></trkpt><trkpt lat="14.71926" lon="101.189812"><ele>185.7</ele><time>1970-01-01T00:08:01.000Z</time></trkpt><trkpt lat="14.719312" lon="101.189774"><ele>185.4</ele><time>1970-01-01T00:08:02.000Z</time></trkpt><trkpt lat="14.719358" lon="101.189738"><ele>184.9</ele><time>1970-01-01T00:08:03.000Z</time></trkpt><trkpt lat="14.719401" lon="101.189699"><ele>184.4</ele><time>1970-01-01T00:08:04.000Z</time></trkpt><trkpt lat="14.719441" lon="101.189652"><ele>184.1</ele><time>1970-01-01T00:08:05.000Z</time></trkpt><trkpt lat="14.719483" lon="101.189601"><ele>184.4</ele><time>1970-01-01T00:08:06.000Z</time></trkpt><trkpt lat="14.719515" lon="101.189553"><ele>184.6</ele><time>1970-01-01T00:08:07.000Z</time></trkpt><trkpt lat="14.719547" lon="101.189509"><ele>184.9</ele><time>1970-01-01T00:08:08.000Z</time></trkpt><trkpt lat="14.719578" lon="101.189469"><ele>185.3</ele><time>1970-01-01T00:08:09.000Z</time></trkpt><trkpt lat="14.719614" lon="101.189429"><ele>186.2</ele><time>1970-01-01T00:08:10.000Z</time></trkpt><trkpt lat="14.719662" lon="101.189393"><ele>187.5</ele><time>1970-01-01T00:08:11.000Z</time></trkpt><trkpt lat="14.719701" lon="101.189363"><ele>187.5</ele><time>1970-01-01T00:08:12.000Z</time></trkpt><trkpt lat="14.719716" lon="101.189325"><ele>187.5</ele><time>1970-01-01T00:08:13.000Z</time></trkpt><trkpt lat="14.719748" lon="101.189298"><ele>188.9</ele><time>1970-01-01T00:08:14.000Z</time></trkpt><trkpt lat="14.719775" lon="101.189273"><ele>189.4</ele><time>1970-01-01T00:08:15.000Z</time></trkpt><trkpt lat="14.719812" lon="101.189239"><ele>189.8</ele><time>1970-01-01T00:08:16.000Z</time></trkpt><trkpt lat="14.71984" lon="101.1892"><ele>190.4</ele><time>1970-01-01T00:08:17.000Z</time></trkpt><trkpt lat="14.719883" lon="101.189174"><ele>191.3</ele><time>1970-01-01T00:08:18.000Z</time></trkpt><trkpt lat="14.719927" lon="101.189145"><ele>191.8</ele><time>1970-01-01T00:08:19.000Z</time></trkpt><trkpt lat="14.719964" lon="101.189111"><ele>191.9</ele><time>1970-01-01T00:08:20.000Z</time></trkpt><trkpt lat="14.720009" lon="101.189052"><ele>192.3</ele><time>1970-01-01T00:08:22.000Z</time></trkpt><trkpt lat="14.720043" lon="101.189015"><ele>192.7</ele><time>1970-01-01T00:08:23.000Z</time></trkpt><trkpt lat="14.720074" lon="101.188972"><ele>193</ele><time>1970-01-01T00:08:24.000Z</time></trkpt><trkpt lat="14.720104" lon="101.188935"><ele>193.1</ele><time>1970-01-01T00:08:25.000Z</time></trkpt><trkpt lat="14.720137" lon="101.188893"><ele>193</ele><time>1970-01-01T00:08:26.000Z</time></trkpt><trkpt lat="14.72017" lon="101.188857"><ele>193</ele><time>1970-01-01T00:08:27.000Z</time></trkpt><trkpt lat="14.720195" lon="101.18882"><ele>192.9</ele><time>1970-01-01T00:08:28.000Z</time></trkpt><trkpt lat="14.720237" lon="101.188785"><ele>192.9</ele><time>1970-01-01T00:08:29.000Z</time></trkpt><trkpt lat="14.720267" lon="101.18875"><ele>193</ele><time>1970-01-01T00:08:30.000Z</time></trkpt><trkpt lat="14.720308" lon="101.188709"><ele>192.8</ele><time>1970-01-01T00:08:31.000Z</time></trkpt><trkpt lat="14.720347" lon="101.188679"><ele>192.7</ele><time>1970-01-01T00:08:32.000Z</time></trkpt><trkpt lat="14.720382" lon="101.188647"><ele>192.5</ele><time>1970-01-01T00:08:33.000Z</time></trkpt><trkpt lat="14.720419" lon="101.188611"><ele>192.6</ele><time>1970-01-01T00:08:34.000Z</time></trkpt><trkpt lat="14.720453" lon="101.188578"><ele>192.8</ele><time>1970-01-01T00:08:35.000Z</time></trkpt><trkpt lat="14.720487" lon="101.188547"><ele>193.5</ele><time>1970-01-01T00:08:36.000Z</time></trkpt><trkpt lat="14.720522" lon="101.188518"><ele>194.3</ele><time>1970-01-01T00:08:37.000Z</time></trkpt><trkpt lat="14.720564" lon="101.18849"><ele>194</ele><time>1970-01-01T00:08:38.000Z</time></trkpt><trkpt lat="14.720613" lon="101.188467"><ele>194</ele><time>1970-01-01T00:08:39.000Z</time></trkpt><trkpt lat="14.720656" lon="101.18845"><ele>194.4</ele><time>1970-01-01T00:08:40.000Z</time></trkpt><trkpt lat="14.720695" lon="101.188434"><ele>194.5</ele><time>1970-01-01T00:08:41.000Z</time></trkpt><trkpt lat="14.720738" lon="101.188429"><ele>194.6</ele><time>1970-01-01T00:08:42.000Z</time></trkpt><trkpt lat="14.720793" lon="101.188434"><ele>194.4</ele><time>1970-01-01T00:08:43.000Z</time></trkpt><trkpt lat="14.720846" lon="101.188436"><ele>194</ele><time>1970-01-01T00:08:44.000Z</time></trkpt><trkpt lat="14.720891" lon="101.188441"><ele>193.5</ele><time>1970-01-01T00:08:45.000Z</time></trkpt><trkpt lat="14.720938" lon="101.18845"><ele>192.9</ele><time>1970-01-01T00:08:46.000Z</time></trkpt><trkpt lat="14.720979" lon="101.18845"><ele>192.3</ele><time>1970-01-01T00:08:47.000Z</time></trkpt><trkpt lat="14.721021" lon="101.188454"><ele>191.7</ele><time>1970-01-01T00:08:48.000Z</time></trkpt><trkpt lat="14.721062" lon="101.188447"><ele>191</ele><time>1970-01-01T00:08:49.000Z</time></trkpt><trkpt lat="14.721092" lon="101.188469"><ele>190.6</ele><time>1970-01-01T00:08:50.000Z</time></trkpt><trkpt lat="14.721149" lon="101.188454"><ele>190.3</ele><time>1970-01-01T00:08:51.000Z</time></trkpt><trkpt lat="14.721191" lon="101.18845"><ele>190.5</ele><time>1970-01-01T00:08:52.000Z</time></trkpt><trkpt lat="14.721234" lon="101.188466"><ele>190.9</ele><time>1970-01-01T00:08:53.000Z</time></trkpt><trkpt lat="14.721282" lon="101.188469"><ele>192</ele><time>1970-01-01T00:08:54.000Z</time></trkpt><trkpt lat="14.72133" lon="101.188476"><ele>193.5</ele><time>1970-01-01T00:08:55.000Z</time></trkpt><trkpt lat="14.721373" lon="101.18848"><ele>194</ele><time>1970-01-01T00:08:56.000Z</time></trkpt><trkpt lat="14.721415" lon="101.188486"><ele>194.3</ele><time>1970-01-01T00:08:57.000Z</time></trkpt><trkpt lat="14.72146" lon="101.18849"><ele>194.5</ele><time>1970-01-01T00:08:58.000Z</time></trkpt><trkpt lat="14.721508" lon="101.188493"><ele>194.6</ele><time>1970-01-01T00:08:59.000Z</time></trkpt><trkpt lat="14.721545" lon="101.188499"><ele>194.7</ele><time>1970-01-01T00:09:00.000Z</time></trkpt><trkpt lat="14.721615" lon="101.18849"><ele>194.8</ele><time>1970-01-01T00:09:01.000Z</time></trkpt><trkpt lat="14.721669" lon="101.188491"><ele>194.8</ele><time>1970-01-01T00:09:02.000Z</time></trkpt><trkpt lat="14.72172" lon="101.1885"><ele>194.5</ele><time>1970-01-01T00:09:03.000Z</time></trkpt><trkpt lat="14.721763" lon="101.188514"><ele>193.9</ele><time>1970-01-01T00:09:04.000Z</time></trkpt><trkpt lat="14.721802" lon="101.188537"><ele>193.9</ele><time>1970-01-01T00:09:05.000Z</time></trkpt><trkpt lat="14.721854" lon="101.188554"><ele>194.3</ele><time>1970-01-01T00:09:06.000Z</time></trkpt><trkpt lat="14.721907" lon="101.188568"><ele>193.9</ele><time>1970-01-01T00:09:07.000Z</time></trkpt><trkpt lat="14.72196" lon="101.188581"><ele>193.2</ele><time>1970-01-01T00:09:08.000Z</time></trkpt><trkpt lat="14.722016" lon="101.188593"><ele>192.1</ele><time>1970-01-01T00:09:09.000Z</time></trkpt><trkpt lat="14.722084" lon="101.188593"><ele>190.8</ele><time>1970-01-01T00:09:10.000Z</time></trkpt><trkpt lat="14.722181" lon="101.188561"><ele>188.9</ele><time>1970-01-01T00:09:11.000Z</time></trkpt><trkpt lat="14.722226" lon="101.188591"><ele>188.1</ele><time>1970-01-01T00:09:12.000Z</time></trkpt><trkpt lat="14.722267" lon="101.188614"><ele>187.5</ele><time>1970-01-01T00:09:13.000Z</time></trkpt><trkpt lat="14.722312" lon="101.188625"><ele>187</ele><time>1970-01-01T00:09:14.000Z</time></trkpt><trkpt lat="14.722357" lon="101.188636"><ele>186.4</ele><time>1970-01-01T00:09:15.000Z</time></trkpt><trkpt lat="14.722423" lon="101.188663"><ele>186.2</ele><time>1970-01-01T00:09:16.000Z</time></trkpt><trkpt lat="14.722493" lon="101.188701"><ele>185.9</ele><time>1970-01-01T00:09:17.000Z</time></trkpt><trkpt lat="14.722566" lon="101.188715"><ele>185.2</ele><time>1970-01-01T00:09:18.000Z</time></trkpt><trkpt lat="14.722641" lon="101.188736"><ele>184.5</ele><time>1970-01-01T00:09:19.000Z</time></trkpt><trkpt lat="14.722729" lon="101.188737"><ele>184.2</ele><time>1970-01-01T00:09:20.000Z</time></trkpt><trkpt lat="14.722805" lon="101.188766"><ele>183.9</ele><time>1970-01-01T00:09:21.000Z</time></trkpt><trkpt lat="14.722903" lon="101.188775"><ele>183.9</ele><time>1970-01-01T00:09:22.000Z</time></trkpt><trkpt lat="14.722978" lon="101.188818"><ele>183.9</ele><time>1970-01-01T00:09:23.000Z</time></trkpt><trkpt lat="14.723049" lon="101.188836"><ele>183.6</ele><time>1970-01-01T00:09:24.000Z</time></trkpt><trkpt lat="14.72305" lon="101.188924"><ele>183.4</ele><time>1970-01-01T00:09:25.000Z</time></trkpt><trkpt lat="14.723048" lon="101.188966"><ele>183.5</ele><time>1970-01-01T00:09:26.000Z</time></trkpt><trkpt lat="14.72306" lon="101.189019"><ele>183.8</ele><time>1970-01-01T00:09:27.000Z</time></trkpt><trkpt lat="14.723087" lon="101.189065"><ele>183.9</ele><time>1970-01-01T00:09:28.000Z</time></trkpt><trkpt lat="14.723106" lon="101.189096"><ele>184</ele><time>1970-01-01T00:09:29.000Z</time></trkpt><trkpt lat="14.723127" lon="101.189125"><ele>184.3</ele><time>1970-01-01T00:09:30.000Z</time></trkpt><trkpt lat="14.72318" lon="101.189146"><ele>184.8</ele><time>1970-01-01T00:09:32.000Z</time></trkpt><trkpt lat="14.723211" lon="101.189154"><ele>185</ele><time>1970-01-01T00:09:33.000Z</time></trkpt><trkpt lat="14.723231" lon="101.189188"><ele>185.3</ele><time>1970-01-01T00:09:34.000Z</time></trkpt><trkpt lat="14.723273" lon="101.189242"><ele>185.5</ele><time>1970-01-01T00:09:35.000Z</time></trkpt><trkpt lat="14.723297" lon="101.189278"><ele>185.6</ele><time>1970-01-01T00:09:36.000Z</time></trkpt><trkpt lat="14.723312" lon="101.189314"><ele>185.6</ele><time>1970-01-01T00:09:37.000Z</time></trkpt><trkpt lat="14.723326" lon="101.189347"><ele>185.7</ele><time>1970-01-01T00:09:38.000Z</time></trkpt><trkpt lat="14.723338" lon="101.189373"><ele>185.8</ele><time>1970-01-01T00:09:39.000Z</time></trkpt><trkpt lat="14.723353" lon="101.189397"><ele>186</ele><time>1970-01-01T00:09:42.000Z</time></trkpt><trkpt lat="14.723368" lon="101.189437"><ele>186.4</ele><time>1970-01-01T00:09:45.000Z</time></trkpt><trkpt lat="14.723385" lon="101.189486"><ele>186.3</ele><time>1970-01-01T00:09:47.000Z</time></trkpt><trkpt lat="14.723397" lon="101.189527"><ele>186.1</ele><time>1970-01-01T00:09:48.000Z</time></trkpt><trkpt lat="14.723406" lon="101.189569"><ele>186.2</ele><time>1970-01-01T00:09:49.000Z</time></trkpt><trkpt lat="14.72341" lon="101.189604"><ele>186.3</ele><time>1970-01-01T00:09:50.000Z</time></trkpt><trkpt lat="14.723413" lon="101.189636"><ele>186.4</ele><time>1970-01-01T00:09:51.000Z</time></trkpt><trkpt lat="14.723415" lon="101.18967"><ele>186.4</ele><time>1970-01-01T00:09:52.000Z</time></trkpt><trkpt lat="14.723416" lon="101.189713"><ele>186.5</ele><time>1970-01-01T00:09:54.000Z</time></trkpt><trkpt lat="14.723415" lon="101.189763"><ele>186.7</ele><time>1970-01-01T00:09:56.000Z</time></trkpt><trkpt lat="14.723408" lon="101.189792"><ele>186.8</ele><time>1970-01-01T00:09:57.000Z</time></trkpt><trkpt lat="14.723396" lon="101.189843"><ele>187.1</ele><time>1970-01-01T00:09:59.000Z</time></trkpt><trkpt lat="14.72339" lon="101.189873"><ele>187.3</ele><time>1970-01-01T00:10:00.000Z</time></trkpt><trkpt lat="14.723384" lon="101.189903"><ele>187.5</ele><time>1970-01-01T00:10:01.000Z</time></trkpt><trkpt lat="14.723386" lon="101.189939"><ele>187.8</ele><time>1970-01-01T00:10:03.000Z</time></trkpt><trkpt lat="14.723397" lon="101.189976"><ele>188.1</ele><time>1970-01-01T00:10:06.000Z</time></trkpt><trkpt lat="14.723409" lon="101.190016"><ele>188.4</ele><time>1970-01-01T00:10:09.000Z</time></trkpt><trkpt lat="14.723418" lon="101.190047"><ele>188.6</ele><time>1970-01-01T00:10:12.000Z</time></trkpt><trkpt lat="14.723427" lon="101.190077"><ele>188.7</ele><time>1970-01-01T00:10:16.000Z</time></trkpt><trkpt lat="14.723424" lon="101.190108"><ele>188.8</ele><time>1970-01-01T00:10:18.000Z</time></trkpt><trkpt lat="14.72342" lon="101.190147"><ele>189</ele><time>1970-01-01T00:10:20.000Z</time></trkpt><trkpt lat="14.723412" lon="101.190208"><ele>190.1</ele><time>1970-01-01T00:10:22.000Z</time></trkpt><trkpt lat="14.723404" lon="101.190256"><ele>190.5</ele><time>1970-01-01T00:10:23.000Z</time></trkpt><trkpt lat="14.723395" lon="101.190312"><ele>190.4</ele><time>1970-01-01T00:10:24.000Z</time></trkpt><trkpt lat="14.723385" lon="101.190368"><ele>190</ele><time>1970-01-01T00:10:25.000Z</time></trkpt><trkpt lat="14.723381" lon="101.190408"><ele>189.7</ele><time>1970-01-01T00:10:26.000Z</time></trkpt><trkpt lat="14.723383" lon="101.190451"><ele>189.5</ele><time>1970-01-01T00:10:28.000Z</time></trkpt><trkpt lat="14.723382" lon="101.190483"><ele>189.4</ele><time>1970-01-01T00:10:30.000Z</time></trkpt><trkpt lat="14.723372" lon="101.190539"><ele>189.3</ele><time>1970-01-01T00:10:32.000Z</time></trkpt><trkpt lat="14.723375" lon="101.190572"><ele>188.9</ele><time>1970-01-01T00:10:33.000Z</time></trkpt><trkpt lat="14.723382" lon="101.190604"><ele>188.3</ele><time>1970-01-01T00:10:34.000Z</time></trkpt><trkpt lat="14.723388" lon="101.19064"><ele>188.1</ele><time>1970-01-01T00:10:35.000Z</time></trkpt><trkpt lat="14.723397" lon="101.190679"><ele>188.3</ele><time>1970-01-01T00:10:36.000Z</time></trkpt><trkpt lat="14.723405" lon="101.190717"><ele>188.4</ele><time>1970-01-01T00:10:37.000Z</time></trkpt><trkpt lat="14.723414" lon="101.190759"><ele>188.4</ele><time>1970-01-01T00:10:38.000Z</time></trkpt><trkpt lat="14.723418" lon="101.190792"><ele>188.4</ele><time>1970-01-01T00:10:39.000Z</time></trkpt><trkpt lat="14.723416" lon="101.19082"><ele>188</ele><time>1970-01-01T00:10:40.000Z</time></trkpt><trkpt lat="14.723415" lon="101.190859"><ele>187.2</ele><time>1970-01-01T00:10:41.000Z</time></trkpt><trkpt lat="14.723419" lon="101.190904"><ele>186.3</ele><time>1970-01-01T00:10:42.000Z</time></trkpt><trkpt lat="14.72343" lon="101.190954"><ele>185.6</ele><time>1970-01-01T00:10:43.000Z</time></trkpt><trkpt lat="14.723442" lon="101.190997"><ele>184.8</ele><time>1970-01-01T00:10:44.000Z</time></trkpt><trkpt lat="14.723451" lon="101.191032"><ele>184</ele><time>1970-01-01T00:10:45.000Z</time></trkpt><trkpt lat="14.723461" lon="101.191066"><ele>183.2</ele><time>1970-01-01T00:10:46.000Z</time></trkpt><trkpt lat="14.723474" lon="101.191101"><ele>182.7</ele><time>1970-01-01T00:10:47.000Z</time></trkpt><trkpt lat="14.723486" lon="101.191137"><ele>182.2</ele><time>1970-01-01T00:10:48.000Z</time></trkpt><trkpt lat="14.7235" lon="101.191168"><ele>181.9</ele><time>1970-01-01T00:10:49.000Z</time></trkpt><trkpt lat="14.723515" lon="101.191197"><ele>181.7</ele><time>1970-01-01T00:10:50.000Z</time></trkpt><trkpt lat="14.723532" lon="101.191226"><ele>181.5</ele><time>1970-01-01T00:10:51.000Z</time></trkpt><trkpt lat="14.723551" lon="101.191257"><ele>181.5</ele><time>1970-01-01T00:10:52.000Z</time></trkpt><trkpt lat="14.723567" lon="101.191288"><ele>181.4</ele><time>1970-01-01T00:10:53.000Z</time></trkpt><trkpt lat="14.723583" lon="101.191318"><ele>181.4</ele><time>1970-01-01T00:10:54.000Z</time></trkpt><trkpt lat="14.7236" lon="101.191344"><ele>181.4</ele><time>1970-01-01T00:10:55.000Z</time></trkpt><trkpt lat="14.72364" lon="101.191356"><ele>181.2</ele><time>1970-01-01T00:10:57.000Z</time></trkpt><trkpt lat="14.723674" lon="101.191363"><ele>180.9</ele><time>1970-01-01T00:10:58.000Z</time></trkpt><trkpt lat="14.723711" lon="101.191371"><ele>180.5</ele><time>1970-01-01T00:10:59.000Z</time></trkpt><trkpt lat="14.723753" lon="101.191377"><ele>180</ele><time>1970-01-01T00:11:00.000Z</time></trkpt><trkpt lat="14.723796" lon="101.191383"><ele>179.7</ele><time>1970-01-01T00:11:01.000Z</time></trkpt><trkpt lat="14.723835" lon="101.191391"><ele>179.5</ele><time>1970-01-01T00:11:02.000Z</time></trkpt><trkpt lat="14.723869" lon="101.191405"><ele>179.7</ele><time>1970-01-01T00:11:03.000Z</time></trkpt><trkpt lat="14.723901" lon="101.19142"><ele>180</ele><time>1970-01-01T00:11:04.000Z</time></trkpt><trkpt lat="14.723929" lon="101.191435"><ele>180.2</ele><time>1970-01-01T00:11:05.000Z</time></trkpt><trkpt lat="14.723956" lon="101.191449"><ele>180.6</ele><time>1970-01-01T00:11:06.000Z</time></trkpt><trkpt lat="14.724006" lon="101.191464"><ele>180.7</ele><time>1970-01-01T00:11:08.000Z</time></trkpt><trkpt lat="14.724035" lon="101.191472"><ele>180.7</ele><time>1970-01-01T00:11:09.000Z</time></trkpt><trkpt lat="14.724073" lon="101.191483"><ele>180.6</ele><time>1970-01-01T00:11:10.000Z</time></trkpt><trkpt lat="14.724115" lon="101.1915"><ele>180.5</ele><time>1970-01-01T00:11:11.000Z</time></trkpt><trkpt lat="14.724157" lon="101.191519"><ele>180.3</ele><time>1970-01-01T00:11:12.000Z</time></trkpt><trkpt lat="14.724199" lon="101.191539"><ele>180</ele><time>1970-01-01T00:11:13.000Z</time></trkpt><trkpt lat="14.724244" lon="101.191554"><ele>179.9</ele><time>1970-01-01T00:11:14.000Z</time></trkpt><trkpt lat="14.724284" lon="101.191564"><ele>179.7</ele><time>1970-01-01T00:11:15.000Z</time></trkpt><trkpt lat="14.724319" lon="101.191565"><ele>179.6</ele><time>1970-01-01T00:11:16.000Z</time></trkpt><trkpt lat="14.724346" lon="101.191563"><ele>179.2</ele><time>1970-01-01T00:11:17.000Z</time></trkpt><trkpt lat="14.72438" lon="101.191562"><ele>178.6</ele><time>1970-01-01T00:11:19.000Z</time></trkpt><trkpt lat="14.724416" lon="101.191567"><ele>178.3</ele><time>1970-01-01T00:11:21.000Z</time></trkpt><trkpt lat="14.724455" lon="101.191563"><ele>177.9</ele><time>1970-01-01T00:11:23.000Z</time></trkpt><trkpt lat="14.724495" lon="101.191553"><ele>177.9</ele><time>1970-01-01T00:11:25.000Z</time></trkpt><trkpt lat="14.724534" lon="101.191543"><ele>177.9</ele><time>1970-01-01T00:11:27.000Z</time></trkpt><trkpt lat="14.724579" lon="101.191529"><ele>178</ele><time>1970-01-01T00:11:29.000Z</time></trkpt><trkpt lat="14.724624" lon="101.191513"><ele>178.1</ele><time>1970-01-01T00:11:31.000Z</time></trkpt><trkpt lat="14.724652" lon="101.191497"><ele>178.1</ele><time>1970-01-01T00:11:32.000Z</time></trkpt><trkpt lat="14.724676" lon="101.191481"><ele>178</ele><time>1970-01-01T00:11:33.000Z</time></trkpt><trkpt lat="14.724707" lon="101.191463"><ele>177.9</ele><time>1970-01-01T00:11:34.000Z</time></trkpt><trkpt lat="14.724745" lon="101.191444"><ele>177.8</ele><time>1970-01-01T00:11:35.000Z</time></trkpt><trkpt lat="14.724785" lon="101.191425"><ele>177.5</ele><time>1970-01-01T00:11:36.000Z</time></trkpt><trkpt lat="14.724823" lon="101.191408"><ele>177.2</ele><time>1970-01-01T00:11:37.000Z</time></trkpt><trkpt lat="14.724851" lon="101.191393"><ele>177.1</ele><time>1970-01-01T00:11:38.000Z</time></trkpt><trkpt lat="14.724891" lon="101.191369"><ele>176.9</ele><time>1970-01-01T00:11:40.000Z</time></trkpt><trkpt lat="14.724931" lon="101.19135"><ele>176.7</ele><time>1970-01-01T00:11:42.000Z</time></trkpt><trkpt lat="14.724979" lon="101.191336"><ele>176.5</ele><time>1970-01-01T00:11:44.000Z</time></trkpt><trkpt lat="14.725007" lon="101.191329"><ele>176.4</ele><time>1970-01-01T00:11:45.000Z</time></trkpt><trkpt lat="14.725041" lon="101.191321"><ele>176.4</ele><time>1970-01-01T00:11:46.000Z</time></trkpt><trkpt lat="14.725075" lon="101.19131"><ele>176.4</ele><time>1970-01-01T00:11:47.000Z</time></trkpt><trkpt lat="14.725111" lon="101.191298"><ele>176</ele><time>1970-01-01T00:11:48.000Z</time></trkpt><trkpt lat="14.725149" lon="101.191286"><ele>175.6</ele><time>1970-01-01T00:11:49.000Z</time></trkpt><trkpt lat="14.725194" lon="101.191268"><ele>175.1</ele><time>1970-01-01T00:11:50.000Z</time></trkpt><trkpt lat="14.725242" lon="101.191245"><ele>174.5</ele><time>1970-01-01T00:11:51.000Z</time></trkpt><trkpt lat="14.725285" lon="101.191232"><ele>174.4</ele><time>1970-01-01T00:11:52.000Z</time></trkpt><trkpt lat="14.725321" lon="101.191227"><ele>174.5</ele><time>1970-01-01T00:11:53.000Z</time></trkpt><trkpt lat="14.725357" lon="101.19123"><ele>175</ele><time>1970-01-01T00:11:54.000Z</time></trkpt><trkpt lat="14.725399" lon="101.19124"><ele>175.4</ele><time>1970-01-01T00:11:55.000Z</time></trkpt><trkpt lat="14.725445" lon="101.191254"><ele>175.4</ele><time>1970-01-01T00:11:56.000Z</time></trkpt><trkpt lat="14.725494" lon="101.191273"><ele>175.6</ele><time>1970-01-01T00:11:57.000Z</time></trkpt><trkpt lat="14.725577" lon="101.191333"><ele>175.4</ele><time>1970-01-01T00:11:58.000Z</time></trkpt><trkpt lat="14.725633" lon="101.191349"><ele>175.2</ele><time>1970-01-01T00:11:59.000Z</time></trkpt><trkpt lat="14.725674" lon="101.191376"><ele>175.1</ele><time>1970-01-01T00:12:00.000Z</time></trkpt><trkpt lat="14.725728" lon="101.1914"><ele>175.2</ele><time>1970-01-01T00:12:01.000Z</time></trkpt><trkpt lat="14.725767" lon="101.191428"><ele>175.3</ele><time>1970-01-01T00:12:02.000Z</time></trkpt><trkpt lat="14.725809" lon="101.191459"><ele>175.3</ele><time>1970-01-01T00:12:03.000Z</time></trkpt><trkpt lat="14.725867" lon="101.191459"><ele>175.1</ele><time>1970-01-01T00:12:04.000Z</time></trkpt><trkpt lat="14.725914" lon="101.191481"><ele>174.8</ele><time>1970-01-01T00:12:05.000Z</time></trkpt><trkpt lat="14.725962" lon="101.191498"><ele>174.3</ele><time>1970-01-01T00:12:06.000Z</time></trkpt><trkpt lat="14.726003" lon="101.19153"><ele>173.8</ele><time>1970-01-01T00:12:07.000Z</time></trkpt><trkpt lat="14.726056" lon="101.191549"><ele>173.6</ele><time>1970-01-01T00:12:08.000Z</time></trkpt><trkpt lat="14.726103" lon="101.191587"><ele>173.5</ele><time>1970-01-01T00:12:09.000Z</time></trkpt><trkpt lat="14.726134" lon="101.191617"><ele>173.4</ele><time>1970-01-01T00:12:10.000Z</time></trkpt><trkpt lat="14.726164" lon="101.19165"><ele>173.2</ele><time>1970-01-01T00:12:11.000Z</time></trkpt><trkpt lat="14.726188" lon="101.191689"><ele>172.9</ele><time>1970-01-01T00:12:12.000Z</time></trkpt><trkpt lat="14.726194" lon="101.191745"><ele>173</ele><time>1970-01-01T00:12:13.000Z</time></trkpt><trkpt lat="14.726197" lon="101.191796"><ele>173.1</ele><time>1970-01-01T00:12:14.000Z</time></trkpt><trkpt lat="14.72622" lon="101.191854"><ele>173.4</ele><time>1970-01-01T00:12:15.000Z</time></trkpt><trkpt lat="14.726255" lon="101.191904"><ele>173.4</ele><time>1970-01-01T00:12:16.000Z</time></trkpt><trkpt lat="14.726301" lon="101.191931"><ele>173.4</ele><time>1970-01-01T00:12:17.000Z</time></trkpt><trkpt lat="14.726348" lon="101.191966"><ele>173.4</ele><time>1970-01-01T00:12:18.000Z</time></trkpt><trkpt lat="14.726395" lon="101.192018"><ele>173.3</ele><time>1970-01-01T00:12:19.000Z</time></trkpt><trkpt lat="14.726454" lon="101.192011"><ele>173.2</ele><time>1970-01-01T00:12:20.000Z</time></trkpt><trkpt lat="14.726518" lon="101.192037"><ele>173</ele><time>1970-01-01T00:12:21.000Z</time></trkpt><trkpt lat="14.726574" lon="101.192056"><ele>172.4</ele><time>1970-01-01T00:12:22.000Z</time></trkpt><trkpt lat="14.726635" lon="101.19209"><ele>171.7</ele><time>1970-01-01T00:12:23.000Z</time></trkpt><trkpt lat="14.726699" lon="101.192094"><ele>171</ele><time>1970-01-01T00:12:24.000Z</time></trkpt><trkpt lat="14.726742" lon="101.192094"><ele>170.6</ele><time>1970-01-01T00:12:25.000Z</time></trkpt><trkpt lat="14.726817" lon="101.192062"><ele>170.6</ele><time>1970-01-01T00:12:26.000Z</time></trkpt><trkpt lat="14.72684" lon="101.192045"><ele>170.6</ele><time>1970-01-01T00:12:27.000Z</time></trkpt><trkpt lat="14.726866" lon="101.192058"><ele>170.6</ele><time>1970-01-01T00:12:28.000Z</time></trkpt><trkpt lat="14.726861" lon="101.192109"><ele>170.8</ele><time>1970-01-01T00:12:30.000Z</time></trkpt><trkpt lat="14.726859" lon="101.192165"><ele>171.2</ele><time>1970-01-01T00:12:31.000Z</time></trkpt><trkpt lat="14.726852" lon="101.192213"><ele>171.5</ele><time>1970-01-01T00:12:32.000Z</time></trkpt><trkpt lat="14.72686" lon="101.192245"><ele>171.6</ele><time>1970-01-01T00:12:33.000Z</time></trkpt><trkpt lat="14.726869" lon="101.192284"><ele>171.9</ele><time>1970-01-01T00:12:34.000Z</time></trkpt><trkpt lat="14.726878" lon="101.192311"><ele>172</ele><time>1970-01-01T00:12:35.000Z</time></trkpt><trkpt lat="14.72688" lon="101.192346"><ele>172.2</ele><time>1970-01-01T00:12:36.000Z</time></trkpt><trkpt lat="14.72688" lon="101.192381"><ele>172.4</ele><time>1970-01-01T00:12:37.000Z</time></trkpt><trkpt lat="14.72688" lon="101.192415"><ele>172.5</ele><time>1970-01-01T00:12:38.000Z</time></trkpt><trkpt lat="14.726881" lon="101.192447"><ele>172.6</ele><time>1970-01-01T00:12:39.000Z</time></trkpt><trkpt lat="14.726882" lon="101.19248"><ele>172.6</ele><time>1970-01-01T00:12:40.000Z</time></trkpt><trkpt lat="14.726883" lon="101.192513"><ele>172.7</ele><time>1970-01-01T00:12:41.000Z</time></trkpt><trkpt lat="14.726885" lon="101.192544"><ele>172.9</ele><time>1970-01-01T00:12:42.000Z</time></trkpt><trkpt lat="14.726887" lon="101.192578"><ele>173</ele><time>1970-01-01T00:12:43.000Z</time></trkpt><trkpt lat="14.72689" lon="101.19261"><ele>173.2</ele><time>1970-01-01T00:12:44.000Z</time></trkpt><trkpt lat="14.72689" lon="101.192647"><ele>173.6</ele><time>1970-01-01T00:12:45.000Z</time></trkpt><trkpt lat="14.726889" lon="101.192685"><ele>174</ele><time>1970-01-01T00:12:46.000Z</time></trkpt><trkpt lat="14.726887" lon="101.192715"><ele>174.3</ele><time>1970-01-01T00:12:47.000Z</time></trkpt><trkpt lat="14.726885" lon="101.192766"><ele>174.7</ele><time>1970-01-01T00:12:49.000Z</time></trkpt><trkpt lat="14.726884" lon="101.19282"><ele>175.1</ele><time>1970-01-01T00:12:51.000Z</time></trkpt><trkpt lat="14.726882" lon="101.192868"><ele>175.5</ele><time>1970-01-01T00:12:53.000Z</time></trkpt><trkpt lat="14.726889" lon="101.192924"><ele>175.9</ele><time>1970-01-01T00:12:55.000Z</time></trkpt><trkpt lat="14.726896" lon="101.192958"><ele>176.2</ele><time>1970-01-01T00:12:56.000Z</time></trkpt><trkpt lat="14.726904" lon="101.192993"><ele>176.4</ele><time>1970-01-01T00:12:57.000Z</time></trkpt><trkpt lat="14.726914" lon="101.193031"><ele>176.4</ele><time>1970-01-01T00:12:58.000Z</time></trkpt><trkpt lat="14.726929" lon="101.19307"><ele>176.4</ele><time>1970-01-01T00:12:59.000Z</time></trkpt><trkpt lat="14.726949" lon="101.19311"><ele>176.4</ele><time>1970-01-01T00:13:00.000Z</time></trkpt><trkpt lat="14.726969" lon="101.193149"><ele>176.4</ele><time>1970-01-01T00:13:01.000Z</time></trkpt><trkpt lat="14.726989" lon="101.19319"><ele>176.5</ele><time>1970-01-01T00:13:02.000Z</time></trkpt><trkpt lat="14.727007" lon="101.193234"><ele>176.4</ele><time>1970-01-01T00:13:03.000Z</time></trkpt><trkpt lat="14.727023" lon="101.193301"><ele>176.4</ele><time>1970-01-01T00:13:04.000Z</time></trkpt><trkpt lat="14.72703" lon="101.193361"><ele>176.5</ele><time>1970-01-01T00:13:05.000Z</time></trkpt><trkpt lat="14.727038" lon="101.193432"><ele>176.6</ele><time>1970-01-01T00:13:06.000Z</time></trkpt><trkpt lat="14.727039" lon="101.193508"><ele>176.4</ele><time>1970-01-01T00:13:07.000Z</time></trkpt><trkpt lat="14.727043" lon="101.193578"><ele>175.9</ele><time>1970-01-01T00:13:08.000Z</time></trkpt><trkpt lat="14.727044" lon="101.193656"><ele>174.8</ele><time>1970-01-01T00:13:09.000Z</time></trkpt><trkpt lat="14.727045" lon="101.193736"><ele>173.5</ele><time>1970-01-01T00:13:10.000Z</time></trkpt><trkpt lat="14.727048" lon="101.193819"><ele>172.8</ele><time>1970-01-01T00:13:11.000Z</time></trkpt><trkpt lat="14.727053" lon="101.193904"><ele>172.4</ele><time>1970-01-01T00:13:12.000Z</time></trkpt><trkpt lat="14.727057" lon="101.193987"><ele>171.9</ele><time>1970-01-01T00:13:13.000Z</time></trkpt><trkpt lat="14.727071" lon="101.194065"><ele>171.3</ele><time>1970-01-01T00:13:14.000Z</time></trkpt><trkpt lat="14.727076" lon="101.194134"><ele>171.1</ele><time>1970-01-01T00:13:15.000Z</time></trkpt><trkpt lat="14.727089" lon="101.19421"><ele>171.1</ele><time>1970-01-01T00:13:16.000Z</time></trkpt><trkpt lat="14.727093" lon="101.194292"><ele>171.2</ele><time>1970-01-01T00:13:17.000Z</time></trkpt><trkpt lat="14.7271" lon="101.194356"><ele>171.1</ele><time>1970-01-01T00:13:18.000Z</time></trkpt><trkpt lat="14.727099" lon="101.194412"><ele>170.9</ele><time>1970-01-01T00:13:19.000Z</time></trkpt><trkpt lat="14.727096" lon="101.194468"><ele>170.8</ele><time>1970-01-01T00:13:20.000Z</time></trkpt><trkpt lat="14.727099" lon="101.194535"><ele>170.8</ele><time>1970-01-01T00:13:21.000Z</time></trkpt><trkpt lat="14.727102" lon="101.194592"><ele>170.9</ele><time>1970-01-01T00:13:22.000Z</time></trkpt><trkpt lat="14.727104" lon="101.194656"><ele>170.9</ele><time>1970-01-01T00:13:23.000Z</time></trkpt><trkpt lat="14.727111" lon="101.194718"><ele>171.2</ele><time>1970-01-01T00:13:24.000Z</time></trkpt><trkpt lat="14.727117" lon="101.194774"><ele>171.6</ele><time>1970-01-01T00:13:25.000Z</time></trkpt><trkpt lat="14.727118" lon="101.194819"><ele>172.1</ele><time>1970-01-01T00:13:26.000Z</time></trkpt><trkpt lat="14.727125" lon="101.194861"><ele>172.6</ele><time>1970-01-01T00:13:27.000Z</time></trkpt><trkpt lat="14.727128" lon="101.194912"><ele>173.4</ele><time>1970-01-01T00:13:28.000Z</time></trkpt><trkpt lat="14.727129" lon="101.194955"><ele>174.1</ele><time>1970-01-01T00:13:29.000Z</time></trkpt><trkpt lat="14.72713" lon="101.195022"><ele>174.9</ele><time>1970-01-01T00:13:31.000Z</time></trkpt><trkpt lat="14.727136" lon="101.195067"><ele>175.3</ele><time>1970-01-01T00:13:32.000Z</time></trkpt><trkpt lat="14.727138" lon="101.195121"><ele>175.6</ele><time>1970-01-01T00:13:33.000Z</time></trkpt><trkpt lat="14.727135" lon="101.195171"><ele>175.7</ele><time>1970-01-01T00:13:34.000Z</time></trkpt><trkpt lat="14.72714" lon="101.195227"><ele>175.7</ele><time>1970-01-01T00:13:35.000Z</time></trkpt><trkpt lat="14.727136" lon="101.195287"><ele>175.6</ele><time>1970-01-01T00:13:36.000Z</time></trkpt><trkpt lat="14.727139" lon="101.19533"><ele>175.4</ele><time>1970-01-01T00:13:37.000Z</time></trkpt><trkpt lat="14.727141" lon="101.195383"><ele>174.8</ele><time>1970-01-01T00:13:38.000Z</time></trkpt><trkpt lat="14.727137" lon="101.195424"><ele>174.5</ele><time>1970-01-01T00:13:39.000Z</time></trkpt><trkpt lat="14.727141" lon="101.195472"><ele>174.2</ele><time>1970-01-01T00:13:40.000Z</time></trkpt><trkpt lat="14.727145" lon="101.195517"><ele>173.9</ele><time>1970-01-01T00:13:41.000Z</time></trkpt><trkpt lat="14.72715" lon="101.195571"><ele>173.4</ele><time>1970-01-01T00:13:42.000Z</time></trkpt><trkpt lat="14.727148" lon="101.195611"><ele>173.2</ele><time>1970-01-01T00:13:43.000Z</time></trkpt><trkpt lat="14.72715" lon="101.19567"><ele>173</ele><time>1970-01-01T00:13:44.000Z</time></trkpt><trkpt lat="14.727154" lon="101.195712"><ele>173</ele><time>1970-01-01T00:13:45.000Z</time></trkpt><trkpt lat="14.727156" lon="101.195754"><ele>173.1</ele><time>1970-01-01T00:13:46.000Z</time></trkpt><trkpt lat="14.727157" lon="101.195792"><ele>173.1</ele><time>1970-01-01T00:13:47.000Z</time></trkpt><trkpt lat="14.727156" lon="101.195834"><ele>173.1</ele><time>1970-01-01T00:13:48.000Z</time></trkpt><trkpt lat="14.727154" lon="101.195879"><ele>173.1</ele><time>1970-01-01T00:13:49.000Z</time></trkpt><trkpt lat="14.727153" lon="101.195927"><ele>173.1</ele><time>1970-01-01T00:13:50.000Z</time></trkpt><trkpt lat="14.727152" lon="101.195977"><ele>173.1</ele><time>1970-01-01T00:13:51.000Z</time></trkpt><trkpt lat="14.727151" lon="101.196027"><ele>173.2</ele><time>1970-01-01T00:13:52.000Z</time></trkpt><trkpt lat="14.72715" lon="101.196078"><ele>173.5</ele><time>1970-01-01T00:13:53.000Z</time></trkpt><trkpt lat="14.72715" lon="101.196128"><ele>174</ele><time>1970-01-01T00:13:54.000Z</time></trkpt><trkpt lat="14.72715" lon="101.196174"><ele>174.7</ele><time>1970-01-01T00:13:55.000Z</time></trkpt><trkpt lat="14.72715" lon="101.196219"><ele>175.7</ele><time>1970-01-01T00:13:56.000Z</time></trkpt><trkpt lat="14.727148" lon="101.196267"><ele>176.6</ele><time>1970-01-01T00:13:57.000Z</time></trkpt><trkpt lat="14.727144" lon="101.196308"><ele>177.3</ele><time>1970-01-01T00:13:58.000Z</time></trkpt><trkpt lat="14.727139" lon="101.196344"><ele>177.9</ele><time>1970-01-01T00:13:59.000Z</time></trkpt><trkpt lat="14.727134" lon="101.196382"><ele>178.5</ele><time>1970-01-01T00:14:00.000Z</time></trkpt><trkpt lat="14.727135" lon="101.196422"><ele>179.2</ele><time>1970-01-01T00:14:01.000Z</time></trkpt><trkpt lat="14.727148" lon="101.196461"><ele>179.3</ele><time>1970-01-01T00:14:02.000Z</time></trkpt><trkpt lat="14.72718" lon="101.19649"><ele>179.3</ele><time>1970-01-01T00:14:03.000Z</time></trkpt><trkpt lat="14.727225" lon="101.196504"><ele>179.3</ele><time>1970-01-01T00:14:04.000Z</time></trkpt><trkpt lat="14.727273" lon="101.196505"><ele>179.4</ele><time>1970-01-01T00:14:05.000Z</time></trkpt><trkpt lat="14.727319" lon="101.196502"><ele>179.4</ele><time>1970-01-01T00:14:06.000Z</time></trkpt><trkpt lat="14.727363" lon="101.196501"><ele>179.1</ele><time>1970-01-01T00:14:07.000Z</time></trkpt><trkpt lat="14.727407" lon="101.196501"><ele>178.9</ele><time>1970-01-01T00:14:08.000Z</time></trkpt><trkpt lat="14.727456" lon="101.1965"><ele>179.4</ele><time>1970-01-01T00:14:09.000Z</time></trkpt><trkpt lat="14.727506" lon="101.196499"><ele>179.2</ele><time>1970-01-01T00:14:10.000Z</time></trkpt><trkpt lat="14.727556" lon="101.196501"><ele>178.8</ele><time>1970-01-01T00:14:11.000Z</time></trkpt><trkpt lat="14.727626" lon="101.196488"><ele>179.2</ele><time>1970-01-01T00:14:12.000Z</time></trkpt><trkpt lat="14.727676" lon="101.196495"><ele>179.2</ele><time>1970-01-01T00:14:13.000Z</time></trkpt><trkpt lat="14.727733" lon="101.196509"><ele>179</ele><time>1970-01-01T00:14:14.000Z</time></trkpt><trkpt lat="14.727779" lon="101.196536"><ele>179.2</ele><time>1970-01-01T00:14:15.000Z</time></trkpt><trkpt lat="14.727824" lon="101.196566"><ele>179.3</ele><time>1970-01-01T00:14:16.000Z</time></trkpt><trkpt lat="14.727854" lon="101.196594"><ele>179.1</ele><time>1970-01-01T00:14:17.000Z</time></trkpt><trkpt lat="14.727892" lon="101.196612"><ele>178.8</ele><time>1970-01-01T00:14:18.000Z</time></trkpt><trkpt lat="14.727938" lon="101.196643"><ele>178.9</ele><time>1970-01-01T00:14:19.000Z</time></trkpt><trkpt lat="14.727986" lon="101.196665"><ele>179.3</ele><time>1970-01-01T00:14:20.000Z</time></trkpt><trkpt lat="14.728037" lon="101.196676"><ele>179.4</ele><time>1970-01-01T00:14:21.000Z</time></trkpt><trkpt lat="14.72809" lon="101.196684"><ele>179.7</ele><time>1970-01-01T00:14:22.000Z</time></trkpt><trkpt lat="14.728147" lon="101.196678"><ele>180</ele><time>1970-01-01T00:14:23.000Z</time></trkpt><trkpt lat="14.728196" lon="101.196675"><ele>181</ele><time>1970-01-01T00:14:24.000Z</time></trkpt><trkpt lat="14.728242" lon="101.196664"><ele>181.5</ele><time>1970-01-01T00:14:25.000Z</time></trkpt><trkpt lat="14.728298" lon="101.196657"><ele>182</ele><time>1970-01-01T00:14:26.000Z</time></trkpt><trkpt lat="14.72833" lon="101.19666"><ele>182.4</ele><time>1970-01-01T00:14:27.000Z</time></trkpt><trkpt lat="14.72838" lon="101.196645"><ele>181.7</ele><time>1970-01-01T00:14:29.000Z</time></trkpt><trkpt lat="14.728412" lon="101.196634"><ele>181.9</ele><time>1970-01-01T00:14:31.000Z</time></trkpt><trkpt lat="14.728466" lon="101.196621"><ele>182.1</ele><time>1970-01-01T00:14:33.000Z</time></trkpt><trkpt lat="14.72851" lon="101.196635"><ele>182.2</ele><time>1970-01-01T00:14:35.000Z</time></trkpt><trkpt lat="14.728553" lon="101.196629"><ele>182.4</ele><time>1970-01-01T00:14:37.000Z</time></trkpt><trkpt lat="14.728581" lon="101.196626"><ele>182.6</ele><time>1970-01-01T00:14:38.000Z</time></trkpt><trkpt lat="14.728628" lon="101.196617"><ele>182.9</ele><time>1970-01-01T00:14:40.000Z</time></trkpt><trkpt lat="14.728652" lon="101.196604"><ele>182.2</ele><time>1970-01-01T00:14:41.000Z</time></trkpt><trkpt lat="14.728677" lon="101.196582"><ele>182.2</ele><time>1970-01-01T00:14:42.000Z</time></trkpt><trkpt lat="14.728701" lon="101.196556"><ele>181.7</ele><time>1970-01-01T00:14:43.000Z</time></trkpt><trkpt lat="14.728724" lon="101.196528"><ele>181.7</ele><time>1970-01-01T00:14:44.000Z</time></trkpt><trkpt lat="14.728747" lon="101.196497"><ele>181.3</ele><time>1970-01-01T00:14:45.000Z</time></trkpt><trkpt lat="14.72877" lon="101.196464"><ele>180.6</ele><time>1970-01-01T00:14:46.000Z</time></trkpt><trkpt lat="14.728793" lon="101.196428"><ele>180.4</ele><time>1970-01-01T00:14:47.000Z</time></trkpt><trkpt lat="14.728816" lon="101.196393"><ele>179.7</ele><time>1970-01-01T00:14:48.000Z</time></trkpt><trkpt lat="14.72884" lon="101.196358"><ele>180.4</ele><time>1970-01-01T00:14:49.000Z</time></trkpt><trkpt lat="14.728865" lon="101.196322"><ele>180.6</ele><time>1970-01-01T00:14:50.000Z</time></trkpt><trkpt lat="14.728892" lon="101.196285"><ele>179.8</ele><time>1970-01-01T00:14:51.000Z</time></trkpt><trkpt lat="14.728921" lon="101.196233"><ele>179.8</ele><time>1970-01-01T00:14:52.000Z</time></trkpt><trkpt lat="14.728955" lon="101.19619"><ele>179.7</ele><time>1970-01-01T00:14:53.000Z</time></trkpt><trkpt lat="14.728984" lon="101.196152"><ele>179.6</ele><time>1970-01-01T00:14:54.000Z</time></trkpt><trkpt lat="14.729014" lon="101.196119"><ele>178.7</ele><time>1970-01-01T00:14:55.000Z</time></trkpt><trkpt lat="14.72904" lon="101.196086"><ele>178.8</ele><time>1970-01-01T00:14:56.000Z</time></trkpt><trkpt lat="14.729071" lon="101.196056"><ele>179.7</ele><time>1970-01-01T00:14:57.000Z</time></trkpt><trkpt lat="14.729116" lon="101.196031"><ele>179.7</ele><time>1970-01-01T00:14:58.000Z</time></trkpt><trkpt lat="14.729149" lon="101.195999"><ele>179.6</ele><time>1970-01-01T00:14:59.000Z</time></trkpt><trkpt lat="14.729179" lon="101.195964"><ele>178.6</ele><time>1970-01-01T00:15:00.000Z</time></trkpt><trkpt lat="14.729219" lon="101.195925"><ele>178</ele><time>1970-01-01T00:15:01.000Z</time></trkpt><trkpt lat="14.729269" lon="101.195887"><ele>178.5</ele><time>1970-01-01T00:15:02.000Z</time></trkpt><trkpt lat="14.729314" lon="101.195851"><ele>177.5</ele><time>1970-01-01T00:15:03.000Z</time></trkpt><trkpt lat="14.729365" lon="101.195821"><ele>176.5</ele><time>1970-01-01T00:15:04.000Z</time></trkpt><trkpt lat="14.729422" lon="101.195795"><ele>175.4</ele><time>1970-01-01T00:15:05.000Z</time></trkpt><trkpt lat="14.729487" lon="101.195775"><ele>175.9</ele><time>1970-01-01T00:15:06.000Z</time></trkpt><trkpt lat="14.72954" lon="101.195756"><ele>176.3</ele><time>1970-01-01T00:15:07.000Z</time></trkpt><trkpt lat="14.729604" lon="101.195737"><ele>175.1</ele><time>1970-01-01T00:15:08.000Z</time></trkpt><trkpt lat="14.729671" lon="101.195736"><ele>175.4</ele><time>1970-01-01T00:15:09.000Z</time></trkpt><trkpt lat="14.729735" lon="101.195725"><ele>175.9</ele><time>1970-01-01T00:15:10.000Z</time></trkpt><trkpt lat="14.729802" lon="101.195701"><ele>174.5</ele><time>1970-01-01T00:15:11.000Z</time></trkpt><trkpt lat="14.72987" lon="101.195682"><ele>175.3</ele><time>1970-01-01T00:15:12.000Z</time></trkpt><trkpt lat="14.729945" lon="101.195644"><ele>175</ele><time>1970-01-01T00:15:13.000Z</time></trkpt><trkpt lat="14.730019" lon="101.195625"><ele>174.4</ele><time>1970-01-01T00:15:14.000Z</time></trkpt><trkpt lat="14.730099" lon="101.195616"><ele>175.2</ele><time>1970-01-01T00:15:15.000Z</time></trkpt><trkpt lat="14.73018" lon="101.195608"><ele>176</ele><time>1970-01-01T00:15:16.000Z</time></trkpt><trkpt lat="14.730253" lon="101.195598"><ele>176.8</ele><time>1970-01-01T00:15:17.000Z</time></trkpt><trkpt lat="14.730329" lon="101.195602"><ele>177.6</ele><time>1970-01-01T00:15:18.000Z</time></trkpt><trkpt lat="14.730395" lon="101.195594"><ele>178.3</ele><time>1970-01-01T00:15:19.000Z</time></trkpt><trkpt lat="14.730458" lon="101.195581"><ele>177</ele><time>1970-01-01T00:15:20.000Z</time></trkpt><trkpt lat="14.730519" lon="101.195563"><ele>177.3</ele><time>1970-01-01T00:15:21.000Z</time></trkpt><trkpt lat="14.730577" lon="101.195548"><ele>177.4</ele><time>1970-01-01T00:15:22.000Z</time></trkpt><trkpt lat="14.730624" lon="101.195532"><ele>176.3</ele><time>1970-01-01T00:15:23.000Z</time></trkpt><trkpt lat="14.730662" lon="101.195522"><ele>176.6</ele><time>1970-01-01T00:15:24.000Z</time></trkpt><trkpt lat="14.730695" lon="101.195504"><ele>177</ele><time>1970-01-01T00:15:25.000Z</time></trkpt><trkpt lat="14.730722" lon="101.195485"><ele>175.9</ele><time>1970-01-01T00:15:26.000Z</time></trkpt><trkpt lat="14.730747" lon="101.195473"><ele>176.5</ele><time>1970-01-01T00:15:28.000Z</time></trkpt><trkpt lat="14.730775" lon="101.19547"><ele>177</ele><time>1970-01-01T00:15:34.000Z</time></trkpt><trkpt lat="14.730755" lon="101.19549"><ele>176.5</ele><time>1970-01-01T00:20:49.000Z</time></trkpt><trkpt lat="14.730716" lon="101.195498"><ele>177.1</ele><time>1970-01-01T00:20:52.000Z</time></trkpt><trkpt lat="14.730665" lon="101.195518"><ele>176.6</ele><time>1970-01-01T00:20:54.000Z</time></trkpt><trkpt lat="14.730633" lon="101.195531"><ele>176.3</ele><time>1970-01-01T00:20:55.000Z</time></trkpt><trkpt lat="14.730593" lon="101.195544"><ele>177.4</ele><time>1970-01-01T00:20:56.000Z</time></trkpt><trkpt lat="14.730548" lon="101.195558"><ele>177.3</ele><time>1970-01-01T00:20:57.000Z</time></trkpt><trkpt lat="14.730502" lon="101.195569"><ele>177.2</ele><time>1970-01-01T00:20:58.000Z</time></trkpt><trkpt lat="14.730456" lon="101.195576"><ele>177</ele><time>1970-01-01T00:20:59.000Z</time></trkpt><trkpt lat="14.730412" lon="101.195582"><ele>176.8</ele><time>1970-01-01T00:21:00.000Z</time></trkpt><trkpt lat="14.730367" lon="101.195588"><ele>178</ele><time>1970-01-01T00:21:01.000Z</time></trkpt><trkpt lat="14.730323" lon="101.195593"><ele>177.6</ele><time>1970-01-01T00:21:02.000Z</time></trkpt><trkpt lat="14.730283" lon="101.195599"><ele>177.2</ele><time>1970-01-01T00:21:03.000Z</time></trkpt><trkpt lat="14.730243" lon="101.195602"><ele>176.8</ele><time>1970-01-01T00:21:04.000Z</time></trkpt><trkpt lat="14.730201" lon="101.195602"><ele>176.4</ele><time>1970-01-01T00:21:05.000Z</time></trkpt><trkpt lat="14.730156" lon="101.195602"><ele>176</ele><time>1970-01-01T00:21:06.000Z</time></trkpt><trkpt lat="14.730091" lon="101.195605"><ele>175.3</ele><time>1970-01-01T00:21:07.000Z</time></trkpt><trkpt lat="14.730054" lon="101.195601"><ele>174.9</ele><time>1970-01-01T00:21:08.000Z</time></trkpt><trkpt lat="14.730022" lon="101.195612"><ele>174.9</ele><time>1970-01-01T00:21:09.000Z</time></trkpt><trkpt lat="14.729973" lon="101.19562"><ele>173.9</ele><time>1970-01-01T00:21:10.000Z</time></trkpt><trkpt lat="14.72993" lon="101.195632"><ele>174.5</ele><time>1970-01-01T00:21:11.000Z</time></trkpt><trkpt lat="14.729894" lon="101.195639"><ele>174</ele><time>1970-01-01T00:21:12.000Z</time></trkpt><trkpt lat="14.729854" lon="101.19565"><ele>173.5</ele><time>1970-01-01T00:21:13.000Z</time></trkpt><trkpt lat="14.729809" lon="101.195672"><ele>174.6</ele><time>1970-01-01T00:21:14.000Z</time></trkpt><trkpt lat="14.729768" lon="101.195686"><ele>174.3</ele><time>1970-01-01T00:21:15.000Z</time></trkpt><trkpt lat="14.729719" lon="101.195704"><ele>174</ele><time>1970-01-01T00:21:16.000Z</time></trkpt><trkpt lat="14.72968" lon="101.195708"><ele>173.9</ele><time>1970-01-01T00:21:17.000Z</time></trkpt><trkpt lat="14.729643" lon="101.195721"><ele>175.4</ele><time>1970-01-01T00:21:18.000Z</time></trkpt><trkpt lat="14.729613" lon="101.195733"><ele>175.4</ele><time>1970-01-01T00:21:19.000Z</time></trkpt><trkpt lat="14.729584" lon="101.195745"><ele>175.2</ele><time>1970-01-01T00:21:20.000Z</time></trkpt><trkpt lat="14.729545" lon="101.195761"><ele>176.4</ele><time>1970-01-01T00:21:21.000Z</time></trkpt><trkpt lat="14.72951" lon="101.195771"><ele>176.1</ele><time>1970-01-01T00:21:22.000Z</time></trkpt><trkpt lat="14.729468" lon="101.195785"><ele>175.8</ele><time>1970-01-01T00:21:23.000Z</time></trkpt><trkpt lat="14.729423" lon="101.195803"><ele>176.8</ele><time>1970-01-01T00:21:24.000Z</time></trkpt><trkpt lat="14.729384" lon="101.195814"><ele>176.6</ele><time>1970-01-01T00:21:25.000Z</time></trkpt><trkpt lat="14.729344" lon="101.195828"><ele>176.4</ele><time>1970-01-01T00:21:26.000Z</time></trkpt><trkpt lat="14.729309" lon="101.195844"><ele>177.7</ele><time>1970-01-01T00:21:27.000Z</time></trkpt><trkpt lat="14.729272" lon="101.195867"><ele>177.3</ele><time>1970-01-01T00:21:28.000Z</time></trkpt><trkpt lat="14.729234" lon="101.195892"><ele>178.7</ele><time>1970-01-01T00:21:29.000Z</time></trkpt><trkpt lat="14.729199" lon="101.195918"><ele>178.2</ele><time>1970-01-01T00:21:30.000Z</time></trkpt><trkpt lat="14.729165" lon="101.195945"><ele>178.7</ele><time>1970-01-01T00:21:31.000Z</time></trkpt><trkpt lat="14.729135" lon="101.195973"><ele>179</ele><time>1970-01-01T00:21:32.000Z</time></trkpt><trkpt lat="14.729108" lon="101.195998"><ele>179</ele><time>1970-01-01T00:21:33.000Z</time></trkpt><trkpt lat="14.729085" lon="101.19602"><ele>179</ele><time>1970-01-01T00:21:34.000Z</time></trkpt><trkpt lat="14.729044" lon="101.196057"><ele>179</ele><time>1970-01-01T00:21:36.000Z</time></trkpt><trkpt lat="14.72902" lon="101.196079"><ele>178.1</ele><time>1970-01-01T00:21:37.000Z</time></trkpt><trkpt lat="14.728996" lon="101.196101"><ele>178.9</ele><time>1970-01-01T00:21:38.000Z</time></trkpt><trkpt lat="14.728969" lon="101.196126"><ele>178.1</ele><time>1970-01-01T00:21:39.000Z</time></trkpt><trkpt lat="14.728943" lon="101.196153"><ele>179</ele><time>1970-01-01T00:21:40.000Z</time></trkpt><trkpt lat="14.728915" lon="101.196182"><ele>178.2</ele><time>1970-01-01T00:21:41.000Z</time></trkpt><trkpt lat="14.728887" lon="101.196213"><ele>178.3</ele><time>1970-01-01T00:21:42.000Z</time></trkpt><trkpt lat="14.72886" lon="101.196247"><ele>179.1</ele><time>1970-01-01T00:21:43.000Z</time></trkpt><trkpt lat="14.728834" lon="101.196279"><ele>179.1</ele><time>1970-01-01T00:21:44.000Z</time></trkpt><trkpt lat="14.728811" lon="101.19631"><ele>178.4</ele><time>1970-01-01T00:21:45.000Z</time></trkpt><trkpt lat="14.728787" lon="101.19634"><ele>179.1</ele><time>1970-01-01T00:21:46.000Z</time></trkpt><trkpt lat="14.728764" lon="101.19637"><ele>179.3</ele><time>1970-01-01T00:21:47.000Z</time></trkpt><trkpt lat="14.728742" lon="101.196398"><ele>179.3</ele><time>1970-01-01T00:21:48.000Z</time></trkpt><trkpt lat="14.72872" lon="101.196428"><ele>179.6</ele><time>1970-01-01T00:21:49.000Z</time></trkpt><trkpt lat="14.728699" lon="101.196456"><ele>180.3</ele><time>1970-01-01T00:21:50.000Z</time></trkpt><trkpt lat="14.728675" lon="101.196483"><ele>179.9</ele><time>1970-01-01T00:21:51.000Z</time></trkpt><trkpt lat="14.728649" lon="101.19651"><ele>180.3</ele><time>1970-01-01T00:21:52.000Z</time></trkpt><trkpt lat="14.728624" lon="101.196535"><ele>181.2</ele><time>1970-01-01T00:21:53.000Z</time></trkpt><trkpt lat="14.7286" lon="101.196557"><ele>180.9</ele><time>1970-01-01T00:21:54.000Z</time></trkpt><trkpt lat="14.728579" lon="101.196576"><ele>181.9</ele><time>1970-01-01T00:21:55.000Z</time></trkpt><trkpt lat="14.728551" lon="101.196597"><ele>181.7</ele><time>1970-01-01T00:21:57.000Z</time></trkpt><trkpt lat="14.728522" lon="101.196613"><ele>181.5</ele><time>1970-01-01T00:21:59.000Z</time></trkpt><trkpt lat="14.728494" lon="101.196625"><ele>182.5</ele><time>1970-01-01T00:22:01.000Z</time></trkpt><trkpt lat="14.728453" lon="101.196638"><ele>182.4</ele><time>1970-01-01T00:22:03.000Z</time></trkpt><trkpt lat="14.728424" lon="101.196644"><ele>182.2</ele><time>1970-01-01T00:22:04.000Z</time></trkpt><trkpt lat="14.728383" lon="101.196652"><ele>182</ele><time>1970-01-01T00:22:05.000Z</time></trkpt><trkpt lat="14.728322" lon="101.196659"><ele>182.7</ele><time>1970-01-01T00:22:06.000Z</time></trkpt><trkpt lat="14.728271" lon="101.196668"><ele>181.8</ele><time>1970-01-01T00:22:07.000Z</time></trkpt><trkpt lat="14.728226" lon="101.196676"><ele>181.3</ele><time>1970-01-01T00:22:08.000Z</time></trkpt><trkpt lat="14.728181" lon="101.196681"><ele>180.8</ele><time>1970-01-01T00:22:09.000Z</time></trkpt><trkpt lat="14.728137" lon="101.196686"><ele>180.4</ele><time>1970-01-01T00:22:10.000Z</time></trkpt><trkpt lat="14.728107" lon="101.196677"><ele>180</ele><time>1970-01-01T00:22:11.000Z</time></trkpt><trkpt lat="14.728067" lon="101.196669"><ele>179.8</ele><time>1970-01-01T00:22:13.000Z</time></trkpt><trkpt lat="14.728033" lon="101.196671"><ele>179.8</ele><time>1970-01-01T00:22:15.000Z</time></trkpt><trkpt lat="14.727983" lon="101.196676"><ele>179.7</ele><time>1970-01-01T00:22:46.000Z</time></trkpt><trkpt lat="14.727995" lon="101.196713"><ele>180.2</ele><time>1970-01-01T00:22:51.000Z</time></trkpt><trkpt lat="14.728013" lon="101.196741"><ele>180.2</ele><time>1970-01-01T00:22:53.000Z</time></trkpt><trkpt lat="14.728031" lon="101.196772"><ele>180.8</ele><time>1970-01-01T00:22:55.000Z</time></trkpt><trkpt lat="14.728047" lon="101.196819"><ele>181.3</ele><time>1970-01-01T00:22:57.000Z</time></trkpt><trkpt lat="14.728056" lon="101.196852"><ele>181.7</ele><time>1970-01-01T00:22:58.000Z</time></trkpt><trkpt lat="14.728062" lon="101.196885"><ele>182.2</ele><time>1970-01-01T00:22:59.000Z</time></trkpt><trkpt lat="14.728095" lon="101.196883"><ele>182.4</ele><time>1970-01-01T00:23:03.000Z</time></trkpt><trkpt lat="14.728119" lon="101.196902"><ele>182.8</ele><time>1970-01-01T00:23:05.000Z</time></trkpt><trkpt lat="14.728125" lon="101.196945"><ele>183.2</ele><time>1970-01-01T00:23:07.000Z</time></trkpt><trkpt lat="14.72812" lon="101.19698"><ele>183.5</ele><time>1970-01-01T00:23:08.000Z</time></trkpt><trkpt lat="14.728113" lon="101.197015"><ele>183.7</ele><time>1970-01-01T00:23:09.000Z</time></trkpt><trkpt lat="14.728103" lon="101.19705"><ele>184.3</ele><time>1970-01-01T00:23:10.000Z</time></trkpt><trkpt lat="14.728095" lon="101.197086"><ele>184.9</ele><time>1970-01-01T00:23:11.000Z</time></trkpt><trkpt lat="14.728086" lon="101.197123"><ele>185.5</ele><time>1970-01-01T00:23:12.000Z</time></trkpt><trkpt lat="14.728077" lon="101.197154"><ele>186</ele><time>1970-01-01T00:23:13.000Z</time></trkpt><trkpt lat="14.728071" lon="101.197182"><ele>186.4</ele><time>1970-01-01T00:23:14.000Z</time></trkpt><trkpt lat="14.72806" lon="101.197235"><ele>187.1</ele><time>1970-01-01T00:23:16.000Z</time></trkpt><trkpt lat="14.728055" lon="101.197279"><ele>187.5</ele><time>1970-01-01T00:23:18.000Z</time></trkpt><trkpt lat="14.728057" lon="101.197316"><ele>187.8</ele><time>1970-01-01T00:23:20.000Z</time></trkpt><trkpt lat="14.728067" lon="101.197357"><ele>187.7</ele><time>1970-01-01T00:23:23.000Z</time></trkpt><trkpt lat="14.728078" lon="101.197398"><ele>187.6</ele><time>1970-01-01T00:23:25.000Z</time></trkpt><trkpt lat="14.728079" lon="101.197434"><ele>187.6</ele><time>1970-01-01T00:23:27.000Z</time></trkpt><trkpt lat="14.728075" lon="101.197473"><ele>187.5</ele><time>1970-01-01T00:23:29.000Z</time></trkpt><trkpt lat="14.728073" lon="101.197502"><ele>187.5</ele><time>1970-01-01T00:23:31.000Z</time></trkpt><trkpt lat="14.72807" lon="101.19754"><ele>187.8</ele><time>1970-01-01T00:23:33.000Z</time></trkpt><trkpt lat="14.728082" lon="101.197576"><ele>188.1</ele><time>1970-01-01T00:23:35.000Z</time></trkpt><trkpt lat="14.728094" lon="101.197605"><ele>188.2</ele><time>1970-01-01T00:23:37.000Z</time></trkpt><trkpt lat="14.728117" lon="101.197633"><ele>188.2</ele><time>1970-01-01T00:23:39.000Z</time></trkpt><trkpt lat="14.728133" lon="101.197663"><ele>188.2</ele><time>1970-01-01T00:23:41.000Z</time></trkpt><trkpt lat="14.728141" lon="101.1977"><ele>188.2</ele><time>1970-01-01T00:23:43.000Z</time></trkpt><trkpt lat="14.72815" lon="101.197742"><ele>188.2</ele><time>1970-01-01T00:23:45.000Z</time></trkpt><trkpt lat="14.728162" lon="101.197778"><ele>188.2</ele><time>1970-01-01T00:23:48.000Z</time></trkpt><trkpt lat="14.728171" lon="101.197816"><ele>188.2</ele><time>1970-01-01T00:23:51.000Z</time></trkpt><trkpt lat="14.728187" lon="101.197842"><ele>188.3</ele><time>1970-01-01T00:23:53.000Z</time></trkpt><trkpt lat="14.72821" lon="101.19786"><ele>188.4</ele><time>1970-01-01T00:23:58.000Z</time></trkpt><trkpt lat="14.728226" lon="101.197886"><ele>188.8</ele><time>1970-01-01T00:24:07.000Z</time></trkpt><trkpt lat="14.728251" lon="101.197897"><ele>189.2</ele><time>1970-01-01T00:24:11.000Z</time></trkpt><trkpt lat="14.728279" lon="101.197907"><ele>189.7</ele><time>1970-01-01T00:24:14.000Z</time></trkpt><trkpt lat="14.72831" lon="101.197914"><ele>189.8</ele><time>1970-01-01T00:24:17.000Z</time></trkpt><trkpt lat="14.728316" lon="101.197947"><ele>190</ele><time>1970-01-01T00:24:23.000Z</time></trkpt><trkpt lat="14.728329" lon="101.197981"><ele>190.1</ele><time>1970-01-01T00:24:26.000Z</time></trkpt><trkpt lat="14.728328" lon="101.198018"><ele>190.2</ele><time>1970-01-01T00:24:28.000Z</time></trkpt><trkpt lat="14.728331" lon="101.198047"><ele>190.3</ele><time>1970-01-01T00:24:29.000Z</time></trkpt><trkpt lat="14.728333" lon="101.198077"><ele>190.4</ele><time>1970-01-01T00:24:30.000Z</time></trkpt><trkpt lat="14.728329" lon="101.198107"><ele>190.8</ele><time>1970-01-01T00:24:31.000Z</time></trkpt><trkpt lat="14.728331" lon="101.198137"><ele>191.2</ele><time>1970-01-01T00:24:32.000Z</time></trkpt><trkpt lat="14.728335" lon="101.198164"><ele>191.5</ele><time>1970-01-01T00:24:33.000Z</time></trkpt><trkpt lat="14.728348" lon="101.198191"><ele>191.7</ele><time>1970-01-01T00:24:34.000Z</time></trkpt><trkpt lat="14.728362" lon="101.198217"><ele>191.7</ele><time>1970-01-01T00:24:35.000Z</time></trkpt><trkpt lat="14.728377" lon="101.198244"><ele>191.6</ele><time>1970-01-01T00:24:36.000Z</time></trkpt><trkpt lat="14.728394" lon="101.198296"><ele>192</ele><time>1970-01-01T00:24:38.000Z</time></trkpt><trkpt lat="14.728399" lon="101.198326"><ele>192.3</ele><time>1970-01-01T00:24:39.000Z</time></trkpt><trkpt lat="14.7284" lon="101.198355"><ele>192.6</ele><time>1970-01-01T00:24:40.000Z</time></trkpt><trkpt lat="14.728398" lon="101.198392"><ele>192.3</ele><time>1970-01-01T00:24:42.000Z</time></trkpt><trkpt lat="14.728353" lon="101.198427"><ele>191.7</ele><time>1970-01-01T00:24:44.000Z</time></trkpt><trkpt lat="14.72832" lon="101.198433"><ele>191.6</ele><time>1970-01-01T00:24:45.000Z</time></trkpt><trkpt lat="14.728288" lon="101.198431"><ele>191.2</ele><time>1970-01-01T00:24:46.000Z</time></trkpt><trkpt lat="14.728258" lon="101.198424"><ele>190.8</ele><time>1970-01-01T00:24:47.000Z</time></trkpt><trkpt lat="14.728232" lon="101.198415"><ele>190.5</ele><time>1970-01-01T00:24:48.000Z</time></trkpt><trkpt lat="14.728198" lon="101.198405"><ele>190.2</ele><time>1970-01-01T00:24:49.000Z</time></trkpt><trkpt lat="14.728159" lon="101.198394"><ele>189.9</ele><time>1970-01-01T00:24:50.000Z</time></trkpt><trkpt lat="14.728115" lon="101.198386"><ele>189.7</ele><time>1970-01-01T00:24:51.000Z</time></trkpt><trkpt lat="14.728075" lon="101.198382"><ele>189.6</ele><time>1970-01-01T00:24:52.000Z</time></trkpt><trkpt lat="14.728043" lon="101.198385"><ele>189.6</ele><time>1970-01-01T00:24:53.000Z</time></trkpt><trkpt lat="14.728018" lon="101.198394"><ele>189.7</ele><time>1970-01-01T00:24:54.000Z</time></trkpt><trkpt lat="14.727993" lon="101.198411"><ele>189.5</ele><time>1970-01-01T00:24:55.000Z</time></trkpt><trkpt lat="14.727966" lon="101.198428"><ele>189.1</ele><time>1970-01-01T00:24:56.000Z</time></trkpt><trkpt lat="14.727933" lon="101.198441"><ele>188.6</ele><time>1970-01-01T00:24:57.000Z</time></trkpt><trkpt lat="14.727893" lon="101.198442"><ele>188.3</ele><time>1970-01-01T00:24:58.000Z</time></trkpt><trkpt lat="14.727814" lon="101.198412"><ele>187.8</ele><time>1970-01-01T00:24:59.000Z</time></trkpt><trkpt lat="14.727739" lon="101.198392"><ele>187.7</ele><time>1970-01-01T00:25:00.000Z</time></trkpt><trkpt lat="14.727673" lon="101.198393"><ele>188</ele><time>1970-01-01T00:25:01.000Z</time></trkpt><trkpt lat="14.72764" lon="101.198459"><ele>188.9</ele><time>1970-01-01T00:25:02.000Z</time></trkpt><trkpt lat="14.727571" lon="101.198497"><ele>189.7</ele><time>1970-01-01T00:25:03.000Z</time></trkpt><trkpt lat="14.727594" lon="101.198577"><ele>190.4</ele><time>1970-01-01T00:25:04.000Z</time></trkpt><trkpt lat="14.727586" lon="101.198626"><ele>190.6</ele><time>1970-01-01T00:25:05.000Z</time></trkpt><trkpt lat="14.727577" lon="101.198682"><ele>190.9</ele><time>1970-01-01T00:25:06.000Z</time></trkpt><trkpt lat="14.727577" lon="101.198722"><ele>191.1</ele><time>1970-01-01T00:25:07.000Z</time></trkpt><trkpt lat="14.72757" lon="101.198764"><ele>191.3</ele><time>1970-01-01T00:25:08.000Z</time></trkpt><trkpt lat="14.727556" lon="101.198805"><ele>191.5</ele><time>1970-01-01T00:25:09.000Z</time></trkpt><trkpt lat="14.727538" lon="101.198852"><ele>191.7</ele><time>1970-01-01T00:25:10.000Z</time></trkpt><trkpt lat="14.727527" lon="101.198887"><ele>191.8</ele><time>1970-01-01T00:25:11.000Z</time></trkpt><trkpt lat="14.727515" lon="101.198931"><ele>192</ele><time>1970-01-01T00:25:12.000Z</time></trkpt><trkpt lat="14.727502" lon="101.198973"><ele>192.4</ele><time>1970-01-01T00:25:13.000Z</time></trkpt><trkpt lat="14.727484" lon="101.199014"><ele>192.9</ele><time>1970-01-01T00:25:14.000Z</time></trkpt><trkpt lat="14.727464" lon="101.199052"><ele>193.3</ele><time>1970-01-01T00:25:15.000Z</time></trkpt><trkpt lat="14.727442" lon="101.199091"><ele>193.7</ele><time>1970-01-01T00:25:16.000Z</time></trkpt><trkpt lat="14.727428" lon="101.199131"><ele>193.9</ele><time>1970-01-01T00:25:17.000Z</time></trkpt><trkpt lat="14.727421" lon="101.199164"><ele>193.8</ele><time>1970-01-01T00:25:18.000Z</time></trkpt><trkpt lat="14.727417" lon="101.199194"><ele>193.7</ele><time>1970-01-01T00:25:19.000Z</time></trkpt><trkpt lat="14.727409" lon="101.199221"><ele>193.4</ele><time>1970-01-01T00:25:20.000Z</time></trkpt><trkpt lat="14.727363" lon="101.199244"><ele>192.8</ele><time>1970-01-01T00:25:22.000Z</time></trkpt><trkpt lat="14.727333" lon="101.199239"><ele>192.8</ele><time>1970-01-01T00:25:23.000Z</time></trkpt><trkpt lat="14.727303" lon="101.199239"><ele>192.9</ele><time>1970-01-01T00:25:24.000Z</time></trkpt><trkpt lat="14.727274" lon="101.19925"><ele>193.1</ele><time>1970-01-01T00:25:25.000Z</time></trkpt><trkpt lat="14.727249" lon="101.19927"><ele>193.2</ele><time>1970-01-01T00:25:26.000Z</time></trkpt><trkpt lat="14.727227" lon="101.199295"><ele>193.1</ele><time>1970-01-01T00:25:27.000Z</time></trkpt><trkpt lat="14.727209" lon="101.199319"><ele>193.1</ele><time>1970-01-01T00:25:28.000Z</time></trkpt><trkpt lat="14.727192" lon="101.199341"><ele>193.2</ele><time>1970-01-01T00:25:29.000Z</time></trkpt><trkpt lat="14.727175" lon="101.199364"><ele>193.2</ele><time>1970-01-01T00:25:30.000Z</time></trkpt><trkpt lat="14.727157" lon="101.199387"><ele>193.2</ele><time>1970-01-01T00:25:31.000Z</time></trkpt><trkpt lat="14.727139" lon="101.199412"><ele>193.2</ele><time>1970-01-01T00:25:32.000Z</time></trkpt><trkpt lat="14.72712" lon="101.199436"><ele>193.2</ele><time>1970-01-01T00:25:33.000Z</time></trkpt><trkpt lat="14.727099" lon="101.199459"><ele>193.1</ele><time>1970-01-01T00:25:34.000Z</time></trkpt><trkpt lat="14.727075" lon="101.199482"><ele>193.1</ele><time>1970-01-01T00:25:35.000Z</time></trkpt><trkpt lat="14.727052" lon="101.199506"><ele>193</ele><time>1970-01-01T00:25:36.000Z</time></trkpt><trkpt lat="14.727031" lon="101.199532"><ele>192.9</ele><time>1970-01-01T00:25:37.000Z</time></trkpt><trkpt lat="14.727009" lon="101.199559"><ele>192.9</ele><time>1970-01-01T00:25:38.000Z</time></trkpt><trkpt lat="14.726987" lon="101.199588"><ele>193</ele><time>1970-01-01T00:25:39.000Z</time></trkpt><trkpt lat="14.726961" lon="101.199616"><ele>193</ele><time>1970-01-01T00:25:40.000Z</time></trkpt><trkpt lat="14.726932" lon="101.199641"><ele>193</ele><time>1970-01-01T00:25:41.000Z</time></trkpt><trkpt lat="14.726901" lon="101.199658"><ele>192.9</ele><time>1970-01-01T00:25:42.000Z</time></trkpt><trkpt lat="14.726872" lon="101.199665"><ele>192.9</ele><time>1970-01-01T00:25:43.000Z</time></trkpt><trkpt lat="14.726822" lon="101.199658"><ele>192.8</ele><time>1970-01-01T00:25:45.000Z</time></trkpt><trkpt lat="14.726791" lon="101.199655"><ele>192.6</ele><time>1970-01-01T00:25:46.000Z</time></trkpt><trkpt lat="14.726755" lon="101.199658"><ele>192.4</ele><time>1970-01-01T00:25:47.000Z</time></trkpt><trkpt lat="14.726718" lon="101.199666"><ele>192</ele><time>1970-01-01T00:25:48.000Z</time></trkpt><trkpt lat="14.726679" lon="101.199677"><ele>191.6</ele><time>1970-01-01T00:25:49.000Z</time></trkpt><trkpt lat="14.726639" lon="101.199691"><ele>191.2</ele><time>1970-01-01T00:25:50.000Z</time></trkpt><trkpt lat="14.726599" lon="101.199705"><ele>190.7</ele><time>1970-01-01T00:25:51.000Z</time></trkpt><trkpt lat="14.726557" lon="101.199716"><ele>190.2</ele><time>1970-01-01T00:25:52.000Z</time></trkpt><trkpt lat="14.726514" lon="101.199725"><ele>190.1</ele><time>1970-01-01T00:25:53.000Z</time></trkpt><trkpt lat="14.726471" lon="101.19973"><ele>190.4</ele><time>1970-01-01T00:25:54.000Z</time></trkpt><trkpt lat="14.726426" lon="101.199731"><ele>190.7</ele><time>1970-01-01T00:25:55.000Z</time></trkpt><trkpt lat="14.726382" lon="101.199727"><ele>191</ele><time>1970-01-01T00:25:56.000Z</time></trkpt><trkpt lat="14.726337" lon="101.199716"><ele>191.2</ele><time>1970-01-01T00:25:57.000Z</time></trkpt><trkpt lat="14.726295" lon="101.199699"><ele>191.3</ele><time>1970-01-01T00:25:58.000Z</time></trkpt><trkpt lat="14.726257" lon="101.19965"><ele>191.1</ele><time>1970-01-01T00:25:59.000Z</time></trkpt><trkpt lat="14.726221" lon="101.199623"><ele>190.8</ele><time>1970-01-01T00:26:00.000Z</time></trkpt><trkpt lat="14.726181" lon="101.199594"><ele>190.1</ele><time>1970-01-01T00:26:01.000Z</time></trkpt><trkpt lat="14.726143" lon="101.199565"><ele>189.4</ele><time>1970-01-01T00:26:02.000Z</time></trkpt><trkpt lat="14.726105" lon="101.199534"><ele>188.5</ele><time>1970-01-01T00:26:03.000Z</time></trkpt><trkpt lat="14.726071" lon="101.199504"><ele>188</ele><time>1970-01-01T00:26:04.000Z</time></trkpt><trkpt lat="14.726045" lon="101.199468"><ele>188.5</ele><time>1970-01-01T00:26:05.000Z</time></trkpt><trkpt lat="14.726012" lon="101.199435"><ele>189.2</ele><time>1970-01-01T00:26:06.000Z</time></trkpt><trkpt lat="14.72598" lon="101.199402"><ele>190.1</ele><time>1970-01-01T00:26:07.000Z</time></trkpt><trkpt lat="14.72595" lon="101.199367"><ele>190.8</ele><time>1970-01-01T00:26:08.000Z</time></trkpt><trkpt lat="14.72592" lon="101.199334"><ele>191.1</ele><time>1970-01-01T00:26:09.000Z</time></trkpt><trkpt lat="14.72588" lon="101.199303"><ele>191.9</ele><time>1970-01-01T00:26:10.000Z</time></trkpt><trkpt lat="14.725836" lon="101.199277"><ele>193.1</ele><time>1970-01-01T00:26:11.000Z</time></trkpt><trkpt lat="14.725788" lon="101.199264"><ele>192.5</ele><time>1970-01-01T00:26:12.000Z</time></trkpt><trkpt lat="14.72574" lon="101.199266"><ele>192</ele><time>1970-01-01T00:26:13.000Z</time></trkpt><trkpt lat="14.725695" lon="101.199287"><ele>192</ele><time>1970-01-01T00:26:14.000Z</time></trkpt><trkpt lat="14.725659" lon="101.199324"><ele>192.1</ele><time>1970-01-01T00:26:15.000Z</time></trkpt><trkpt lat="14.725628" lon="101.199368"><ele>191.9</ele><time>1970-01-01T00:26:16.000Z</time></trkpt><trkpt lat="14.725609" lon="101.199417"><ele>191.5</ele><time>1970-01-01T00:26:17.000Z</time></trkpt><trkpt lat="14.72559" lon="101.199463"><ele>190.8</ele><time>1970-01-01T00:26:18.000Z</time></trkpt><trkpt lat="14.725582" lon="101.199515"><ele>190.4</ele><time>1970-01-01T00:26:19.000Z</time></trkpt><trkpt lat="14.725593" lon="101.199566"><ele>190.4</ele><time>1970-01-01T00:26:20.000Z</time></trkpt><trkpt lat="14.725607" lon="101.199621"><ele>190.5</ele><time>1970-01-01T00:26:21.000Z</time></trkpt><trkpt lat="14.725622" lon="101.19968"><ele>190.3</ele><time>1970-01-01T00:26:22.000Z</time></trkpt><trkpt lat="14.725643" lon="101.199736"><ele>190.2</ele><time>1970-01-01T00:26:23.000Z</time></trkpt><trkpt lat="14.725678" lon="101.199793"><ele>190.1</ele><time>1970-01-01T00:26:24.000Z</time></trkpt><trkpt lat="14.725711" lon="101.199846"><ele>190</ele><time>1970-01-01T00:26:25.000Z</time></trkpt><trkpt lat="14.725744" lon="101.199899"><ele>189.9</ele><time>1970-01-01T00:26:26.000Z</time></trkpt><trkpt lat="14.725774" lon="101.199953"><ele>189.8</ele><time>1970-01-01T00:26:27.000Z</time></trkpt><trkpt lat="14.725808" lon="101.200006"><ele>189.8</ele><time>1970-01-01T00:26:28.000Z</time></trkpt><trkpt lat="14.725839" lon="101.200061"><ele>189.8</ele><time>1970-01-01T00:26:29.000Z</time></trkpt><trkpt lat="14.725873" lon="101.200123"><ele>189.8</ele><time>1970-01-01T00:26:30.000Z</time></trkpt><trkpt lat="14.725906" lon="101.200176"><ele>189.7</ele><time>1970-01-01T00:26:31.000Z</time></trkpt><trkpt lat="14.725932" lon="101.200237"><ele>189.7</ele><time>1970-01-01T00:26:32.000Z</time></trkpt><trkpt lat="14.72596" lon="101.200292"><ele>189.6</ele><time>1970-01-01T00:26:33.000Z</time></trkpt><trkpt lat="14.725991" lon="101.200341"><ele>189.6</ele><time>1970-01-01T00:26:34.000Z</time></trkpt><trkpt lat="14.726026" lon="101.200397"><ele>189.4</ele><time>1970-01-01T00:26:35.000Z</time></trkpt><trkpt lat="14.726059" lon="101.200453"><ele>189.3</ele><time>1970-01-01T00:26:36.000Z</time></trkpt><trkpt lat="14.726089" lon="101.200502"><ele>189.2</ele><time>1970-01-01T00:26:37.000Z</time></trkpt><trkpt lat="14.726116" lon="101.200552"><ele>189</ele><time>1970-01-01T00:26:38.000Z</time></trkpt><trkpt lat="14.726141" lon="101.200612"><ele>188.8</ele><time>1970-01-01T00:26:39.000Z</time></trkpt><trkpt lat="14.726168" lon="101.200677"><ele>188.6</ele><time>1970-01-01T00:26:40.000Z</time></trkpt><trkpt lat="14.726194" lon="101.200734"><ele>188.5</ele><time>1970-01-01T00:26:41.000Z</time></trkpt><trkpt lat="14.726218" lon="101.200797"><ele>188.3</ele><time>1970-01-01T00:26:42.000Z</time></trkpt><trkpt lat="14.726241" lon="101.200856"><ele>188</ele><time>1970-01-01T00:26:43.000Z</time></trkpt><trkpt lat="14.726274" lon="101.200909"><ele>187.7</ele><time>1970-01-01T00:26:44.000Z</time></trkpt><trkpt lat="14.726297" lon="101.200973"><ele>187.4</ele><time>1970-01-01T00:26:45.000Z</time></trkpt><trkpt lat="14.72633" lon="101.201029"><ele>187.2</ele><time>1970-01-01T00:26:46.000Z</time></trkpt><trkpt lat="14.726364" lon="101.201098"><ele>186.9</ele><time>1970-01-01T00:26:47.000Z</time></trkpt><trkpt lat="14.726392" lon="101.201168"><ele>186.6</ele><time>1970-01-01T00:26:48.000Z</time></trkpt><trkpt lat="14.726409" lon="101.201252"><ele>186</ele><time>1970-01-01T00:26:49.000Z</time></trkpt><trkpt lat="14.726434" lon="101.201327"><ele>186.2</ele><time>1970-01-01T00:26:50.000Z</time></trkpt><trkpt lat="14.726451" lon="101.201411"><ele>186.3</ele><time>1970-01-01T00:26:51.000Z</time></trkpt><trkpt lat="14.726465" lon="101.201496"><ele>186.5</ele><time>1970-01-01T00:26:52.000Z</time></trkpt><trkpt lat="14.726475" lon="101.201577"><ele>186.6</ele><time>1970-01-01T00:26:53.000Z</time></trkpt><trkpt lat="14.726479" lon="101.201658"><ele>186.2</ele><time>1970-01-01T00:26:54.000Z</time></trkpt><trkpt lat="14.726486" lon="101.201739"><ele>185.9</ele><time>1970-01-01T00:26:55.000Z</time></trkpt><trkpt lat="14.726496" lon="101.201822"><ele>185.6</ele><time>1970-01-01T00:26:56.000Z</time></trkpt><trkpt lat="14.726496" lon="101.201909"><ele>185.3</ele><time>1970-01-01T00:26:57.000Z</time></trkpt><trkpt lat="14.726505" lon="101.201986"><ele>185.1</ele><time>1970-01-01T00:26:58.000Z</time></trkpt><trkpt lat="14.726507" lon="101.202064"><ele>184.9</ele><time>1970-01-01T00:26:59.000Z</time></trkpt><trkpt lat="14.726513" lon="101.202136"><ele>184.7</ele><time>1970-01-01T00:27:00.000Z</time></trkpt><trkpt lat="14.726518" lon="101.202205"><ele>184.6</ele><time>1970-01-01T00:27:01.000Z</time></trkpt><trkpt lat="14.726524" lon="101.202278"><ele>184.4</ele><time>1970-01-01T00:27:02.000Z</time></trkpt><trkpt lat="14.726538" lon="101.202345"><ele>184.3</ele><time>1970-01-01T00:27:03.000Z</time></trkpt><trkpt lat="14.726542" lon="101.202427"><ele>184.1</ele><time>1970-01-01T00:27:04.000Z</time></trkpt><trkpt lat="14.726547" lon="101.202506"><ele>183.9</ele><time>1970-01-01T00:27:05.000Z</time></trkpt><trkpt lat="14.726548" lon="101.202585"><ele>183.6</ele><time>1970-01-01T00:27:06.000Z</time></trkpt><trkpt lat="14.726552" lon="101.202658"><ele>183.5</ele><time>1970-01-01T00:27:07.000Z</time></trkpt><trkpt lat="14.726557" lon="101.20273"><ele>183.3</ele><time>1970-01-01T00:27:08.000Z</time></trkpt><trkpt lat="14.726561" lon="101.202806"><ele>183.1</ele><time>1970-01-01T00:27:09.000Z</time></trkpt><trkpt lat="14.726566" lon="101.202878"><ele>182.9</ele><time>1970-01-01T00:27:10.000Z</time></trkpt><trkpt lat="14.726571" lon="101.202951"><ele>182.6</ele><time>1970-01-01T00:27:11.000Z</time></trkpt><trkpt lat="14.72658" lon="101.203029"><ele>182.2</ele><time>1970-01-01T00:27:12.000Z</time></trkpt><trkpt lat="14.726587" lon="101.203104"><ele>181.9</ele><time>1970-01-01T00:27:13.000Z</time></trkpt><trkpt lat="14.726598" lon="101.203173"><ele>181.6</ele><time>1970-01-01T00:27:14.000Z</time></trkpt><trkpt lat="14.7266" lon="101.203248"><ele>181.3</ele><time>1970-01-01T00:27:15.000Z</time></trkpt><trkpt lat="14.726604" lon="101.203325"><ele>181.1</ele><time>1970-01-01T00:27:16.000Z</time></trkpt><trkpt lat="14.726609" lon="101.203403"><ele>180.8</ele><time>1970-01-01T00:27:17.000Z</time></trkpt><trkpt lat="14.726619" lon="101.203481"><ele>180.7</ele><time>1970-01-01T00:27:18.000Z</time></trkpt><trkpt lat="14.726621" lon="101.203557"><ele>180.6</ele><time>1970-01-01T00:27:19.000Z</time></trkpt><trkpt lat="14.72663" lon="101.203633"><ele>180.4</ele><time>1970-01-01T00:27:20.000Z</time></trkpt><trkpt lat="14.726634" lon="101.203728"><ele>180.3</ele><time>1970-01-01T00:27:21.000Z</time></trkpt><trkpt lat="14.726637" lon="101.203805"><ele>180.3</ele><time>1970-01-01T00:27:22.000Z</time></trkpt><trkpt lat="14.726646" lon="101.203883"><ele>180.3</ele><time>1970-01-01T00:27:23.000Z</time></trkpt><trkpt lat="14.726657" lon="101.20397"><ele>180.3</ele><time>1970-01-01T00:27:24.000Z</time></trkpt><trkpt lat="14.726676" lon="101.20405"><ele>180.3</ele><time>1970-01-01T00:27:25.000Z</time></trkpt><trkpt lat="14.726687" lon="101.20412"><ele>180.3</ele><time>1970-01-01T00:27:26.000Z</time></trkpt><trkpt lat="14.726702" lon="101.204193"><ele>180.3</ele><time>1970-01-01T00:27:27.000Z</time></trkpt><trkpt lat="14.726712" lon="101.204261"><ele>180.3</ele><time>1970-01-01T00:27:28.000Z</time></trkpt><trkpt lat="14.726726" lon="101.204331"><ele>180.2</ele><time>1970-01-01T00:27:29.000Z</time></trkpt><trkpt lat="14.726742" lon="101.204403"><ele>180.2</ele><time>1970-01-01T00:27:30.000Z</time></trkpt><trkpt lat="14.726756" lon="101.204466"><ele>180.1</ele><time>1970-01-01T00:27:31.000Z</time></trkpt><trkpt lat="14.726765" lon="101.204534"><ele>180.1</ele><time>1970-01-01T00:27:32.000Z</time></trkpt><trkpt lat="14.726777" lon="101.204596"><ele>180</ele><time>1970-01-01T00:27:33.000Z</time></trkpt><trkpt lat="14.726788" lon="101.204663"><ele>180</ele><time>1970-01-01T00:27:34.000Z</time></trkpt><trkpt lat="14.726805" lon="101.204726"><ele>180.1</ele><time>1970-01-01T00:27:35.000Z</time></trkpt><trkpt lat="14.72682" lon="101.20479"><ele>180.2</ele><time>1970-01-01T00:27:36.000Z</time></trkpt><trkpt lat="14.726835" lon="101.204856"><ele>180.3</ele><time>1970-01-01T00:27:37.000Z</time></trkpt><trkpt lat="14.726855" lon="101.204919"><ele>180.4</ele><time>1970-01-01T00:27:38.000Z</time></trkpt><trkpt lat="14.726866" lon="101.204997"><ele>180.6</ele><time>1970-01-01T00:27:39.000Z</time></trkpt><trkpt lat="14.726891" lon="101.205063"><ele>180.8</ele><time>1970-01-01T00:27:40.000Z</time></trkpt><trkpt lat="14.72691" lon="101.205124"><ele>180.9</ele><time>1970-01-01T00:27:41.000Z</time></trkpt><trkpt lat="14.726929" lon="101.205203"><ele>181</ele><time>1970-01-01T00:27:42.000Z</time></trkpt><trkpt lat="14.726942" lon="101.205287"><ele>181.2</ele><time>1970-01-01T00:27:43.000Z</time></trkpt><trkpt lat="14.726964" lon="101.205352"><ele>181.3</ele><time>1970-01-01T00:27:44.000Z</time></trkpt><trkpt lat="14.726977" lon="101.205418"><ele>181.3</ele><time>1970-01-01T00:27:45.000Z</time></trkpt><trkpt lat="14.726993" lon="101.205487"><ele>181.4</ele><time>1970-01-01T00:27:46.000Z</time></trkpt><trkpt lat="14.727009" lon="101.20555"><ele>181.4</ele><time>1970-01-01T00:27:47.000Z</time></trkpt><trkpt lat="14.727025" lon="101.205609"><ele>181.4</ele><time>1970-01-01T00:27:48.000Z</time></trkpt><trkpt lat="14.727038" lon="101.205672"><ele>181.3</ele><time>1970-01-01T00:27:49.000Z</time></trkpt><trkpt lat="14.727054" lon="101.205733"><ele>181.2</ele><time>1970-01-01T00:27:50.000Z</time></trkpt><trkpt lat="14.727076" lon="101.205794"><ele>181.2</ele><time>1970-01-01T00:27:51.000Z</time></trkpt><trkpt lat="14.727095" lon="101.20585"><ele>181</ele><time>1970-01-01T00:27:52.000Z</time></trkpt><trkpt lat="14.727109" lon="101.205912"><ele>180.9</ele><time>1970-01-01T00:27:53.000Z</time></trkpt><trkpt lat="14.727121" lon="101.205973"><ele>180.8</ele><time>1970-01-01T00:27:54.000Z</time></trkpt><trkpt lat="14.727134" lon="101.206035"><ele>180.7</ele><time>1970-01-01T00:27:55.000Z</time></trkpt><trkpt lat="14.727149" lon="101.206082"><ele>180.6</ele><time>1970-01-01T00:27:56.000Z</time></trkpt><trkpt lat="14.727163" lon="101.206151"><ele>180.6</ele><time>1970-01-01T00:27:57.000Z</time></trkpt><trkpt lat="14.727184" lon="101.206214"><ele>180.6</ele><time>1970-01-01T00:27:58.000Z</time></trkpt><trkpt lat="14.727203" lon="101.206287"><ele>180.6</ele><time>1970-01-01T00:27:59.000Z</time></trkpt><trkpt lat="14.727221" lon="101.206358"><ele>180.7</ele><time>1970-01-01T00:28:00.000Z</time></trkpt><trkpt lat="14.727235" lon="101.206425"><ele>180.8</ele><time>1970-01-01T00:28:01.000Z</time></trkpt><trkpt lat="14.72725" lon="101.206504"><ele>181</ele><time>1970-01-01T00:28:02.000Z</time></trkpt><trkpt lat="14.727275" lon="101.206582"><ele>181.1</ele><time>1970-01-01T00:28:03.000Z</time></trkpt><trkpt lat="14.727293" lon="101.206658"><ele>181.2</ele><time>1970-01-01T00:28:04.000Z</time></trkpt><trkpt lat="14.72728" lon="101.206719"><ele>181.3</ele><time>1970-01-01T00:28:05.000Z</time></trkpt><trkpt lat="14.727248" lon="101.206759"><ele>181.5</ele><time>1970-01-01T00:28:06.000Z</time></trkpt><trkpt lat="14.727203" lon="101.206772"><ele>181.1</ele><time>1970-01-01T00:28:07.000Z</time></trkpt><trkpt lat="14.727154" lon="101.206783"><ele>180.7</ele><time>1970-01-01T00:28:08.000Z</time></trkpt><trkpt lat="14.7271" lon="101.206791"><ele>180.9</ele><time>1970-01-01T00:28:09.000Z</time></trkpt><trkpt lat="14.72705" lon="101.206793"><ele>180.9</ele><time>1970-01-01T00:28:10.000Z</time></trkpt><trkpt lat="14.727012" lon="101.20679"><ele>181</ele><time>1970-01-01T00:28:11.000Z</time></trkpt><trkpt lat="14.726967" lon="101.206791"><ele>181.1</ele><time>1970-01-01T00:28:12.000Z</time></trkpt><trkpt lat="14.726934" lon="101.206797"><ele>181.3</ele><time>1970-01-01T00:28:13.000Z</time></trkpt><trkpt lat="14.726891" lon="101.206803"><ele>181.6</ele><time>1970-01-01T00:28:14.000Z</time></trkpt><trkpt lat="14.726854" lon="101.206806"><ele>181.9</ele><time>1970-01-01T00:28:15.000Z</time></trkpt><trkpt lat="14.726818" lon="101.20681"><ele>182.2</ele><time>1970-01-01T00:28:16.000Z</time></trkpt><trkpt lat="14.726789" lon="101.206822"><ele>182.2</ele><time>1970-01-01T00:28:17.000Z</time></trkpt><trkpt lat="14.726756" lon="101.206828"><ele>182.7</ele><time>1970-01-01T00:28:18.000Z</time></trkpt><trkpt lat="14.726723" lon="101.206836"><ele>183</ele><time>1970-01-01T00:28:19.000Z</time></trkpt><trkpt lat="14.726693" lon="101.206849"><ele>183.2</ele><time>1970-01-01T00:28:20.000Z</time></trkpt><trkpt lat="14.72666" lon="101.206853"><ele>183.2</ele><time>1970-01-01T00:28:21.000Z</time></trkpt><trkpt lat="14.72663" lon="101.206858"><ele>183.4</ele><time>1970-01-01T00:28:22.000Z</time></trkpt><trkpt lat="14.7266" lon="101.206863"><ele>183.6</ele><time>1970-01-01T00:28:23.000Z</time></trkpt><trkpt lat="14.726569" lon="101.206868"><ele>183.8</ele><time>1970-01-01T00:28:24.000Z</time></trkpt><trkpt lat="14.726538" lon="101.206872"><ele>184.1</ele><time>1970-01-01T00:28:25.000Z</time></trkpt><trkpt lat="14.726506" lon="101.206877"><ele>184.3</ele><time>1970-01-01T00:28:26.000Z</time></trkpt><trkpt lat="14.726472" lon="101.206882"><ele>184.6</ele><time>1970-01-01T00:28:27.000Z</time></trkpt><trkpt lat="14.726436" lon="101.206889"><ele>184.9</ele><time>1970-01-01T00:28:28.000Z</time></trkpt><trkpt lat="14.726401" lon="101.206897"><ele>185.2</ele><time>1970-01-01T00:28:29.000Z</time></trkpt><trkpt lat="14.726366" lon="101.206907"><ele>185.4</ele><time>1970-01-01T00:28:30.000Z</time></trkpt><trkpt lat="14.726329" lon="101.206915"><ele>185.7</ele><time>1970-01-01T00:28:31.000Z</time></trkpt><trkpt lat="14.72629" lon="101.20692"><ele>185.8</ele><time>1970-01-01T00:28:32.000Z</time></trkpt><trkpt lat="14.72625" lon="101.206923"><ele>185.8</ele><time>1970-01-01T00:28:33.000Z</time></trkpt><trkpt lat="14.726208" lon="101.206927"><ele>185.7</ele><time>1970-01-01T00:28:34.000Z</time></trkpt><trkpt lat="14.726165" lon="101.206931"><ele>185.7</ele><time>1970-01-01T00:28:35.000Z</time></trkpt><trkpt lat="14.726122" lon="101.206936"><ele>185.7</ele><time>1970-01-01T00:28:36.000Z</time></trkpt><trkpt lat="14.72608" lon="101.206941"><ele>185.8</ele><time>1970-01-01T00:28:37.000Z</time></trkpt><trkpt lat="14.726039" lon="101.206946"><ele>186</ele><time>1970-01-01T00:28:38.000Z</time></trkpt><trkpt lat="14.725999" lon="101.206951"><ele>186.2</ele><time>1970-01-01T00:28:39.000Z</time></trkpt><trkpt lat="14.725962" lon="101.206957"><ele>187.1</ele><time>1970-01-01T00:28:40.000Z</time></trkpt><trkpt lat="14.725926" lon="101.206962"><ele>187.3</ele><time>1970-01-01T00:28:41.000Z</time></trkpt><trkpt lat="14.725891" lon="101.206968"><ele>187.5</ele><time>1970-01-01T00:28:42.000Z</time></trkpt><trkpt lat="14.725857" lon="101.206972"><ele>187.7</ele><time>1970-01-01T00:28:43.000Z</time></trkpt><trkpt lat="14.725823" lon="101.206977"><ele>188</ele><time>1970-01-01T00:28:44.000Z</time></trkpt><trkpt lat="14.725791" lon="101.206982"><ele>188</ele><time>1970-01-01T00:28:45.000Z</time></trkpt><trkpt lat="14.725761" lon="101.206983"><ele>188.4</ele><time>1970-01-01T00:28:46.000Z</time></trkpt><trkpt lat="14.725726" lon="101.206966"><ele>188.9</ele><time>1970-01-01T00:28:48.000Z</time></trkpt><trkpt lat="14.7257" lon="101.206913"><ele>188.8</ele><time>1970-01-01T00:28:50.000Z</time></trkpt><trkpt lat="14.725687" lon="101.206885"><ele>188.4</ele><time>1970-01-01T00:28:51.000Z</time></trkpt><trkpt lat="14.725671" lon="101.206859"><ele>188</ele><time>1970-01-01T00:28:52.000Z</time></trkpt><trkpt lat="14.725652" lon="101.206835"><ele>188.6</ele><time>1970-01-01T00:28:53.000Z</time></trkpt><trkpt lat="14.725632" lon="101.206813"><ele>188.3</ele><time>1970-01-01T00:28:54.000Z</time></trkpt><trkpt lat="14.725613" lon="101.206792"><ele>188.7</ele><time>1970-01-01T00:28:55.000Z</time></trkpt><trkpt lat="14.725582" lon="101.206753"><ele>188.4</ele><time>1970-01-01T00:28:57.000Z</time></trkpt><trkpt lat="14.725547" lon="101.206716"><ele>188.5</ele><time>1970-01-01T00:28:59.000Z</time></trkpt><trkpt lat="14.725523" lon="101.2067"><ele>189</ele><time>1970-01-01T00:29:00.000Z</time></trkpt><trkpt lat="14.725474" lon="101.20668"><ele>189.3</ele><time>1970-01-01T00:29:02.000Z</time></trkpt><trkpt lat="14.72542" lon="101.206676"><ele>189.5</ele><time>1970-01-01T00:29:04.000Z</time></trkpt><trkpt lat="14.725393" lon="101.206681"><ele>189.8</ele><time>1970-01-01T00:29:05.000Z</time></trkpt><trkpt lat="14.725341" lon="101.206698"><ele>190</ele><time>1970-01-01T00:29:07.000Z</time></trkpt><trkpt lat="14.725316" lon="101.20671"><ele>190.8</ele><time>1970-01-01T00:29:08.000Z</time></trkpt><trkpt lat="14.725267" lon="101.206733"><ele>191.3</ele><time>1970-01-01T00:29:10.000Z</time></trkpt><trkpt lat="14.725237" lon="101.206746"><ele>192.2</ele><time>1970-01-01T00:29:11.000Z</time></trkpt><trkpt lat="14.725207" lon="101.206758"><ele>192.2</ele><time>1970-01-01T00:29:12.000Z</time></trkpt><trkpt lat="14.725179" lon="101.20677"><ele>192.5</ele><time>1970-01-01T00:29:13.000Z</time></trkpt><trkpt lat="14.725151" lon="101.206781"><ele>192.7</ele><time>1970-01-01T00:29:14.000Z</time></trkpt><trkpt lat="14.725126" lon="101.206793"><ele>193.1</ele><time>1970-01-01T00:29:15.000Z</time></trkpt><trkpt lat="14.725101" lon="101.206811"><ele>193.1</ele><time>1970-01-01T00:29:16.000Z</time></trkpt><trkpt lat="14.725084" lon="101.206856"><ele>193.5</ele><time>1970-01-01T00:29:18.000Z</time></trkpt><trkpt lat="14.725096" lon="101.206893"><ele>193.9</ele><time>1970-01-01T00:29:20.000Z</time></trkpt><trkpt lat="14.725113" lon="101.206943"><ele>194.3</ele><time>1970-01-01T00:29:22.000Z</time></trkpt><trkpt lat="14.72513" lon="101.206989"><ele>195</ele><time>1970-01-01T00:29:24.000Z</time></trkpt><trkpt lat="14.725156" lon="101.207037"><ele>195.4</ele><time>1970-01-01T00:29:26.000Z</time></trkpt><trkpt lat="14.725169" lon="101.207062"><ele>195.8</ele><time>1970-01-01T00:29:27.000Z</time></trkpt><trkpt lat="14.725183" lon="101.207089"><ele>196.1</ele><time>1970-01-01T00:29:28.000Z</time></trkpt><trkpt lat="14.725198" lon="101.207118"><ele>196.1</ele><time>1970-01-01T00:29:29.000Z</time></trkpt><trkpt lat="14.725212" lon="101.207142"><ele>196.3</ele><time>1970-01-01T00:29:30.000Z</time></trkpt><trkpt lat="14.725235" lon="101.20718"><ele>196.3</ele><time>1970-01-01T00:29:32.000Z</time></trkpt><trkpt lat="14.725244" lon="101.207209"><ele>196.3</ele><time>1970-01-01T00:29:33.000Z</time></trkpt><trkpt lat="14.725255" lon="101.207248"><ele>196.1</ele><time>1970-01-01T00:29:34.000Z</time></trkpt><trkpt lat="14.725269" lon="101.207295"><ele>195.7</ele><time>1970-01-01T00:29:35.000Z</time></trkpt><trkpt lat="14.725288" lon="101.207344"><ele>194.9</ele><time>1970-01-01T00:29:36.000Z</time></trkpt><trkpt lat="14.725309" lon="101.207389"><ele>194.6</ele><time>1970-01-01T00:29:37.000Z</time></trkpt><trkpt lat="14.725332" lon="101.20743"><ele>194.4</ele><time>1970-01-01T00:29:38.000Z</time></trkpt><trkpt lat="14.725359" lon="101.207469"><ele>194.4</ele><time>1970-01-01T00:29:39.000Z</time></trkpt><trkpt lat="14.725389" lon="101.207506"><ele>194.2</ele><time>1970-01-01T00:29:40.000Z</time></trkpt><trkpt lat="14.725429" lon="101.207567"><ele>194</ele><time>1970-01-01T00:29:41.000Z</time></trkpt><trkpt lat="14.725432" lon="101.20763"><ele>194</ele><time>1970-01-01T00:29:42.000Z</time></trkpt><trkpt lat="14.725424" lon="101.207696"><ele>194.4</ele><time>1970-01-01T00:29:43.000Z</time></trkpt><trkpt lat="14.725399" lon="101.207761"><ele>194.8</ele><time>1970-01-01T00:29:44.000Z</time></trkpt><trkpt lat="14.72538" lon="101.207817"><ele>195.6</ele><time>1970-01-01T00:29:45.000Z</time></trkpt><trkpt lat="14.725384" lon="101.207845"><ele>195.6</ele><time>1970-01-01T00:29:46.000Z</time></trkpt><trkpt lat="14.725375" lon="101.207878"><ele>195.9</ele><time>1970-01-01T00:29:47.000Z</time></trkpt><trkpt lat="14.725344" lon="101.207927"><ele>195.6</ele><time>1970-01-01T00:29:48.000Z</time></trkpt><trkpt lat="14.725327" lon="101.207986"><ele>194.9</ele><time>1970-01-01T00:29:49.000Z</time></trkpt><trkpt lat="14.725307" lon="101.208042"><ele>194.9</ele><time>1970-01-01T00:29:50.000Z</time></trkpt><trkpt lat="14.725292" lon="101.208108"><ele>194.9</ele><time>1970-01-01T00:29:51.000Z</time></trkpt><trkpt lat="14.725272" lon="101.208168"><ele>194.3</ele><time>1970-01-01T00:29:52.000Z</time></trkpt><trkpt lat="14.725265" lon="101.20822"><ele>194.2</ele><time>1970-01-01T00:29:53.000Z</time></trkpt><trkpt lat="14.725293" lon="101.208255"><ele>194.7</ele><time>1970-01-01T00:29:54.000Z</time></trkpt><trkpt lat="14.725315" lon="101.208285"><ele>194.7</ele><time>1970-01-01T00:29:55.000Z</time></trkpt><trkpt lat="14.72533" lon="101.208323"><ele>194.5</ele><time>1970-01-01T00:29:56.000Z</time></trkpt><trkpt lat="14.725347" lon="101.208359"><ele>194.7</ele><time>1970-01-01T00:29:57.000Z</time></trkpt><trkpt lat="14.725365" lon="101.208402"><ele>194.1</ele><time>1970-01-01T00:29:58.000Z</time></trkpt><trkpt lat="14.725387" lon="101.208439"><ele>193.8</ele><time>1970-01-01T00:29:59.000Z</time></trkpt><trkpt lat="14.725405" lon="101.20848"><ele>193</ele><time>1970-01-01T00:30:00.000Z</time></trkpt><trkpt lat="14.725427" lon="101.208524"><ele>192.7</ele><time>1970-01-01T00:30:01.000Z</time></trkpt><trkpt lat="14.725452" lon="101.208568"><ele>192</ele><time>1970-01-01T00:30:02.000Z</time></trkpt><trkpt lat="14.725469" lon="101.208604"><ele>192.1</ele><time>1970-01-01T00:30:03.000Z</time></trkpt><trkpt lat="14.725484" lon="101.208648"><ele>191.6</ele><time>1970-01-01T00:30:04.000Z</time></trkpt><trkpt lat="14.725518" lon="101.208698"><ele>191.7</ele><time>1970-01-01T00:30:05.000Z</time></trkpt><trkpt lat="14.725548" lon="101.208739"><ele>191.5</ele><time>1970-01-01T00:30:06.000Z</time></trkpt><trkpt lat="14.725572" lon="101.208776"><ele>190.8</ele><time>1970-01-01T00:30:07.000Z</time></trkpt><trkpt lat="14.725593" lon="101.208811"><ele>190.4</ele><time>1970-01-01T00:30:08.000Z</time></trkpt><trkpt lat="14.725614" lon="101.208839"><ele>190.4</ele><time>1970-01-01T00:30:09.000Z</time></trkpt><trkpt lat="14.725632" lon="101.208879"><ele>190.2</ele><time>1970-01-01T00:30:10.000Z</time></trkpt><trkpt lat="14.725659" lon="101.208894"><ele>189.6</ele><time>1970-01-01T00:30:11.000Z</time></trkpt><trkpt lat="14.72569" lon="101.208912"><ele>190.1</ele><time>1970-01-01T00:30:13.000Z</time></trkpt><trkpt lat="14.725712" lon="101.208936"><ele>190</ele><time>1970-01-01T00:30:17.000Z</time></trkpt><trkpt lat="14.725735" lon="101.208962"><ele>190</ele><time>1970-01-01T00:30:19.000Z</time></trkpt><trkpt lat="14.725772" lon="101.208998"><ele>189.7</ele><time>1970-01-01T00:30:21.000Z</time></trkpt><trkpt lat="14.725811" lon="101.209033"><ele>189.3</ele><time>1970-01-01T00:30:23.000Z</time></trkpt><trkpt lat="14.725852" lon="101.209067"><ele>189</ele><time>1970-01-01T00:30:25.000Z</time></trkpt><trkpt lat="14.725875" lon="101.209086"><ele>189.5</ele><time>1970-01-01T00:30:26.000Z</time></trkpt><trkpt lat="14.725897" lon="101.209106"><ele>189</ele><time>1970-01-01T00:30:27.000Z</time></trkpt><trkpt lat="14.72592" lon="101.209129"><ele>189.6</ele><time>1970-01-01T00:30:28.000Z</time></trkpt><trkpt lat="14.725957" lon="101.209162"><ele>189.7</ele><time>1970-01-01T00:30:30.000Z</time></trkpt><trkpt lat="14.725984" lon="101.209207"><ele>189.2</ele><time>1970-01-01T00:30:32.000Z</time></trkpt><trkpt lat="14.725993" lon="101.209234"><ele>188.6</ele><time>1970-01-01T00:30:33.000Z</time></trkpt><trkpt lat="14.726004" lon="101.209262"><ele>189.1</ele><time>1970-01-01T00:30:34.000Z</time></trkpt><trkpt lat="14.726018" lon="101.209291"><ele>188.3</ele><time>1970-01-01T00:30:35.000Z</time></trkpt><trkpt lat="14.726034" lon="101.209328"><ele>187.4</ele><time>1970-01-01T00:30:36.000Z</time></trkpt><trkpt lat="14.726055" lon="101.209372"><ele>187.1</ele><time>1970-01-01T00:30:37.000Z</time></trkpt><trkpt lat="14.726093" lon="101.209452"><ele>186.6</ele><time>1970-01-01T00:30:38.000Z</time></trkpt><trkpt lat="14.72612" lon="101.209522"><ele>187.1</ele><time>1970-01-01T00:30:39.000Z</time></trkpt><trkpt lat="14.726149" lon="101.209576"><ele>186.8</ele><time>1970-01-01T00:30:40.000Z</time></trkpt><trkpt lat="14.726176" lon="101.209638"><ele>187.3</ele><time>1970-01-01T00:30:41.000Z</time></trkpt><trkpt lat="14.726209" lon="101.209695"><ele>187.6</ele><time>1970-01-01T00:30:42.000Z</time></trkpt><trkpt lat="14.726239" lon="101.209755"><ele>186.9</ele><time>1970-01-01T00:30:43.000Z</time></trkpt><trkpt lat="14.726271" lon="101.209814"><ele>186.8</ele><time>1970-01-01T00:30:44.000Z</time></trkpt><trkpt lat="14.726298" lon="101.209883"><ele>186.2</ele><time>1970-01-01T00:30:45.000Z</time></trkpt><trkpt lat="14.726318" lon="101.209933"><ele>185.7</ele><time>1970-01-01T00:30:46.000Z</time></trkpt><trkpt lat="14.726306" lon="101.209989"><ele>185.2</ele><time>1970-01-01T00:30:47.000Z</time></trkpt><trkpt lat="14.726274" lon="101.210023"><ele>184.4</ele><time>1970-01-01T00:30:48.000Z</time></trkpt><trkpt lat="14.726235" lon="101.210035"><ele>184.1</ele><time>1970-01-01T00:30:49.000Z</time></trkpt><trkpt lat="14.726186" lon="101.210047"><ele>183.5</ele><time>1970-01-01T00:30:50.000Z</time></trkpt><trkpt lat="14.726143" lon="101.210066"><ele>183.1</ele><time>1970-01-01T00:30:51.000Z</time></trkpt><trkpt lat="14.726106" lon="101.210089"><ele>182.3</ele><time>1970-01-01T00:30:52.000Z</time></trkpt><trkpt lat="14.726071" lon="101.210115"><ele>181.8</ele><time>1970-01-01T00:30:53.000Z</time></trkpt><trkpt lat="14.726035" lon="101.210143"><ele>181</ele><time>1970-01-01T00:30:54.000Z</time></trkpt><trkpt lat="14.726" lon="101.210167"><ele>181</ele><time>1970-01-01T00:30:55.000Z</time></trkpt><trkpt lat="14.725965" lon="101.210191"><ele>180.5</ele><time>1970-01-01T00:30:56.000Z</time></trkpt><trkpt lat="14.725919" lon="101.210219"><ele>180.1</ele><time>1970-01-01T00:30:57.000Z</time></trkpt><trkpt lat="14.725879" lon="101.210243"><ele>180.1</ele><time>1970-01-01T00:30:58.000Z</time></trkpt><trkpt lat="14.725852" lon="101.210267"><ele>180</ele><time>1970-01-01T00:30:59.000Z</time></trkpt><trkpt lat="14.725817" lon="101.210289"><ele>180.3</ele><time>1970-01-01T00:31:00.000Z</time></trkpt><trkpt lat="14.725785" lon="101.210312"><ele>180.7</ele><time>1970-01-01T00:31:01.000Z</time></trkpt><trkpt lat="14.725757" lon="101.210335"><ele>180.7</ele><time>1970-01-01T00:31:02.000Z</time></trkpt><trkpt lat="14.725728" lon="101.210355"><ele>181.2</ele><time>1970-01-01T00:31:03.000Z</time></trkpt><trkpt lat="14.7257" lon="101.210375"><ele>181.8</ele><time>1970-01-01T00:31:04.000Z</time></trkpt><trkpt lat="14.72568" lon="101.210397"><ele>181.8</ele><time>1970-01-01T00:31:05.000Z</time></trkpt><trkpt lat="14.725658" lon="101.210421"><ele>182.4</ele><time>1970-01-01T00:31:06.000Z</time></trkpt><trkpt lat="14.725633" lon="101.210442"><ele>182.7</ele><time>1970-01-01T00:31:07.000Z</time></trkpt><trkpt lat="14.725606" lon="101.210462"><ele>183.5</ele><time>1970-01-01T00:31:08.000Z</time></trkpt><trkpt lat="14.725582" lon="101.210482"><ele>183.9</ele><time>1970-01-01T00:31:09.000Z</time></trkpt><trkpt lat="14.725557" lon="101.210506"><ele>184.8</ele><time>1970-01-01T00:31:10.000Z</time></trkpt><trkpt lat="14.725532" lon="101.210536"><ele>186</ele><time>1970-01-01T00:31:11.000Z</time></trkpt><trkpt lat="14.725513" lon="101.210564"><ele>186.6</ele><time>1970-01-01T00:31:12.000Z</time></trkpt><trkpt lat="14.725499" lon="101.210593"><ele>186.6</ele><time>1970-01-01T00:31:13.000Z</time></trkpt><trkpt lat="14.725488" lon="101.210625"><ele>187.8</ele><time>1970-01-01T00:31:14.000Z</time></trkpt><trkpt lat="14.725482" lon="101.210655"><ele>188.3</ele><time>1970-01-01T00:31:15.000Z</time></trkpt><trkpt lat="14.725479" lon="101.210688"><ele>188.3</ele><time>1970-01-01T00:31:16.000Z</time></trkpt><trkpt lat="14.725479" lon="101.210722"><ele>188.8</ele><time>1970-01-01T00:31:17.000Z</time></trkpt><trkpt lat="14.725482" lon="101.210753"><ele>189.3</ele><time>1970-01-01T00:31:18.000Z</time></trkpt><trkpt lat="14.725487" lon="101.210783"><ele>189.8</ele><time>1970-01-01T00:31:19.000Z</time></trkpt><trkpt lat="14.725498" lon="101.210817"><ele>189.1</ele><time>1970-01-01T00:31:20.000Z</time></trkpt><trkpt lat="14.725516" lon="101.21085"><ele>189.6</ele><time>1970-01-01T00:31:21.000Z</time></trkpt><trkpt lat="14.725539" lon="101.210879"><ele>189.6</ele><time>1970-01-01T00:31:22.000Z</time></trkpt><trkpt lat="14.725568" lon="101.210902"><ele>189.6</ele><time>1970-01-01T00:31:23.000Z</time></trkpt><trkpt lat="14.725602" lon="101.210922"><ele>189.7</ele><time>1970-01-01T00:31:24.000Z</time></trkpt><trkpt lat="14.72564" lon="101.21094"><ele>189.2</ele><time>1970-01-01T00:31:25.000Z</time></trkpt><trkpt lat="14.725678" lon="101.21096"><ele>189.2</ele><time>1970-01-01T00:31:26.000Z</time></trkpt><trkpt lat="14.725716" lon="101.210982"><ele>188.5</ele><time>1970-01-01T00:31:27.000Z</time></trkpt><trkpt lat="14.725756" lon="101.211004"><ele>188.4</ele><time>1970-01-01T00:31:28.000Z</time></trkpt><trkpt lat="14.725818" lon="101.211014"><ele>187.5</ele><time>1970-01-01T00:31:29.000Z</time></trkpt><trkpt lat="14.725855" lon="101.211033"><ele>187.1</ele><time>1970-01-01T00:31:30.000Z</time></trkpt><trkpt lat="14.725902" lon="101.211067"><ele>186.2</ele><time>1970-01-01T00:31:31.000Z</time></trkpt><trkpt lat="14.725941" lon="101.211103"><ele>185.6</ele><time>1970-01-01T00:31:32.000Z</time></trkpt><trkpt lat="14.725971" lon="101.211164"><ele>184.9</ele><time>1970-01-01T00:31:33.000Z</time></trkpt><trkpt lat="14.726007" lon="101.211204"><ele>184</ele><time>1970-01-01T00:31:34.000Z</time></trkpt><trkpt lat="14.726043" lon="101.21124"><ele>183.6</ele><time>1970-01-01T00:31:35.000Z</time></trkpt><trkpt lat="14.726069" lon="101.211289"><ele>184</ele><time>1970-01-01T00:31:36.000Z</time></trkpt><trkpt lat="14.7261" lon="101.211324"><ele>184.1</ele><time>1970-01-01T00:31:37.000Z</time></trkpt><trkpt lat="14.726126" lon="101.21136"><ele>184</ele><time>1970-01-01T00:31:38.000Z</time></trkpt><trkpt lat="14.72615" lon="101.211389"><ele>184.3</ele><time>1970-01-01T00:31:39.000Z</time></trkpt><trkpt lat="14.726186" lon="101.21142"><ele>183.8</ele><time>1970-01-01T00:31:40.000Z</time></trkpt><trkpt lat="14.726211" lon="101.211464"><ele>183.1</ele><time>1970-01-01T00:31:41.000Z</time></trkpt><trkpt lat="14.726241" lon="101.211499"><ele>183.1</ele><time>1970-01-01T00:31:42.000Z</time></trkpt><trkpt lat="14.726269" lon="101.211532"><ele>182.3</ele><time>1970-01-01T00:31:43.000Z</time></trkpt><trkpt lat="14.726295" lon="101.211576"><ele>181.6</ele><time>1970-01-01T00:31:44.000Z</time></trkpt><trkpt lat="14.72631" lon="101.211624"><ele>181.6</ele><time>1970-01-01T00:31:45.000Z</time></trkpt><trkpt lat="14.72633" lon="101.211666"><ele>180.8</ele><time>1970-01-01T00:31:46.000Z</time></trkpt><trkpt lat="14.726347" lon="101.211707"><ele>180.9</ele><time>1970-01-01T00:31:47.000Z</time></trkpt><trkpt lat="14.726367" lon="101.21175"><ele>181</ele><time>1970-01-01T00:31:48.000Z</time></trkpt><trkpt lat="14.726383" lon="101.211798"><ele>180.2</ele><time>1970-01-01T00:31:49.000Z</time></trkpt><trkpt lat="14.726403" lon="101.211837"><ele>180.6</ele><time>1970-01-01T00:31:50.000Z</time></trkpt><trkpt lat="14.726415" lon="101.211877"><ele>180</ele><time>1970-01-01T00:31:51.000Z</time></trkpt><trkpt lat="14.726419" lon="101.211927"><ele>180.5</ele><time>1970-01-01T00:31:52.000Z</time></trkpt><trkpt lat="14.72644" lon="101.211961"><ele>181</ele><time>1970-01-01T00:31:53.000Z</time></trkpt><trkpt lat="14.726459" lon="101.212002"><ele>180</ele><time>1970-01-01T00:31:54.000Z</time></trkpt><trkpt lat="14.726482" lon="101.212031"><ele>180.2</ele><time>1970-01-01T00:31:55.000Z</time></trkpt><trkpt lat="14.726486" lon="101.212083"><ele>180.4</ele><time>1970-01-01T00:31:56.000Z</time></trkpt><trkpt lat="14.726486" lon="101.212126"><ele>180.7</ele><time>1970-01-01T00:31:57.000Z</time></trkpt><trkpt lat="14.726485" lon="101.212174"><ele>181.1</ele><time>1970-01-01T00:31:58.000Z</time></trkpt><trkpt lat="14.726477" lon="101.212216"><ele>181.6</ele><time>1970-01-01T00:31:59.000Z</time></trkpt><trkpt lat="14.726473" lon="101.21226"><ele>182.1</ele><time>1970-01-01T00:32:00.000Z</time></trkpt><trkpt lat="14.726472" lon="101.212294"><ele>182.6</ele><time>1970-01-01T00:32:01.000Z</time></trkpt><trkpt lat="14.726461" lon="101.212358"><ele>183.1</ele><time>1970-01-01T00:32:02.000Z</time></trkpt><trkpt lat="14.726453" lon="101.21241"><ele>183.6</ele><time>1970-01-01T00:32:03.000Z</time></trkpt><trkpt lat="14.72644" lon="101.212458"><ele>184.8</ele><time>1970-01-01T00:32:04.000Z</time></trkpt><trkpt lat="14.726429" lon="101.212516"><ele>184.8</ele><time>1970-01-01T00:32:05.000Z</time></trkpt><trkpt lat="14.726421" lon="101.212569"><ele>184.8</ele><time>1970-01-01T00:32:06.000Z</time></trkpt><trkpt lat="14.72641" lon="101.212611"><ele>184.7</ele><time>1970-01-01T00:32:07.000Z</time></trkpt><trkpt lat="14.726394" lon="101.212657"><ele>185.3</ele><time>1970-01-01T00:32:08.000Z</time></trkpt><trkpt lat="14.726387" lon="101.212707"><ele>184.8</ele><time>1970-01-01T00:32:09.000Z</time></trkpt><trkpt lat="14.726372" lon="101.212756"><ele>184.5</ele><time>1970-01-01T00:32:10.000Z</time></trkpt><trkpt lat="14.726358" lon="101.212802"><ele>185</ele><time>1970-01-01T00:32:11.000Z</time></trkpt><trkpt lat="14.72634" lon="101.212848"><ele>184.8</ele><time>1970-01-01T00:32:12.000Z</time></trkpt><trkpt lat="14.726326" lon="101.212884"><ele>185.6</ele><time>1970-01-01T00:32:13.000Z</time></trkpt><trkpt lat="14.726314" lon="101.212917"><ele>185.6</ele><time>1970-01-01T00:32:14.000Z</time></trkpt><trkpt lat="14.726298" lon="101.212947"><ele>185.6</ele><time>1970-01-01T00:32:15.000Z</time></trkpt><trkpt lat="14.726316" lon="101.212923"><ele>185.6</ele><time>1970-01-01T00:32:18.000Z</time></trkpt><trkpt lat="14.726277" lon="101.212969"><ele>186.2</ele><time>1970-01-01T00:36:32.000Z</time></trkpt><trkpt lat="14.726248" lon="101.212992"><ele>186.2</ele><time>1970-01-01T00:36:35.000Z</time></trkpt><trkpt lat="14.726215" lon="101.213013"><ele>186.7</ele><time>1970-01-01T00:36:38.000Z</time></trkpt><trkpt lat="14.726188" lon="101.213034"><ele>187</ele><time>1970-01-01T00:36:41.000Z</time></trkpt><trkpt lat="14.726151" lon="101.213051"><ele>187</ele><time>1970-01-01T00:36:44.000Z</time></trkpt><trkpt lat="14.726111" lon="101.213062"><ele>187.1</ele><time>1970-01-01T00:36:47.000Z</time></trkpt><trkpt lat="14.726084" lon="101.213072"><ele>187.1</ele><time>1970-01-01T00:36:49.000Z</time></trkpt><trkpt lat="14.726057" lon="101.213085"><ele>187</ele><time>1970-01-01T00:36:51.000Z</time></trkpt><trkpt lat="14.72603" lon="101.213098"><ele>186.7</ele><time>1970-01-01T00:36:53.000Z</time></trkpt><trkpt lat="14.726002" lon="101.213113"><ele>186.7</ele><time>1970-01-01T00:36:55.000Z</time></trkpt><trkpt lat="14.725976" lon="101.213127"><ele>186.5</ele><time>1970-01-01T00:36:57.000Z</time></trkpt><trkpt lat="14.725944" lon="101.213144"><ele>186.1</ele><time>1970-01-01T00:37:00.000Z</time></trkpt><trkpt lat="14.725906" lon="101.213144"><ele>185.8</ele><time>1970-01-01T00:37:03.000Z</time></trkpt><trkpt lat="14.725863" lon="101.213146"><ele>185.7</ele><time>1970-01-01T00:37:05.000Z</time></trkpt><trkpt lat="14.725836" lon="101.213142"><ele>185.6</ele><time>1970-01-01T00:37:07.000Z</time></trkpt><trkpt lat="14.725827" lon="101.213101"><ele>185.7</ele><time>1970-01-01T00:37:11.000Z</time></trkpt><trkpt lat="14.725808" lon="101.213056"><ele>186</ele><time>1970-01-01T00:37:13.000Z</time></trkpt><trkpt lat="14.725794" lon="101.213028"><ele>186.2</ele><time>1970-01-01T00:37:14.000Z</time></trkpt><trkpt lat="14.725774" lon="101.212997"><ele>186.5</ele><time>1970-01-01T00:37:15.000Z</time></trkpt><trkpt lat="14.72575" lon="101.212965"><ele>186.9</ele><time>1970-01-01T00:37:16.000Z</time></trkpt><trkpt lat="14.725725" lon="101.212935"><ele>187.3</ele><time>1970-01-01T00:37:17.000Z</time></trkpt><trkpt lat="14.725699" lon="101.212904"><ele>187.7</ele><time>1970-01-01T00:37:18.000Z</time></trkpt><trkpt lat="14.725674" lon="101.212873"><ele>188.2</ele><time>1970-01-01T00:37:19.000Z</time></trkpt><trkpt lat="14.725651" lon="101.212841"><ele>188.2</ele><time>1970-01-01T00:37:20.000Z</time></trkpt><trkpt lat="14.725625" lon="101.212806"><ele>188.3</ele><time>1970-01-01T00:37:21.000Z</time></trkpt><trkpt lat="14.725601" lon="101.212771"><ele>188.6</ele><time>1970-01-01T00:37:22.000Z</time></trkpt><trkpt lat="14.72558" lon="101.212735"><ele>188.8</ele><time>1970-01-01T00:37:23.000Z</time></trkpt><trkpt lat="14.725557" lon="101.2127"><ele>189.1</ele><time>1970-01-01T00:37:24.000Z</time></trkpt><trkpt lat="14.725536" lon="101.212664"><ele>189.5</ele><time>1970-01-01T00:37:25.000Z</time></trkpt><trkpt lat="14.725516" lon="101.212623"><ele>189.8</ele><time>1970-01-01T00:37:26.000Z</time></trkpt><trkpt lat="14.725503" lon="101.212584"><ele>189.9</ele><time>1970-01-01T00:37:27.000Z</time></trkpt><trkpt lat="14.72549" lon="101.212544"><ele>190</ele><time>1970-01-01T00:37:28.000Z</time></trkpt><trkpt lat="14.725481" lon="101.212503"><ele>190.4</ele><time>1970-01-01T00:37:29.000Z</time></trkpt><trkpt lat="14.725472" lon="101.212464"><ele>190.8</ele><time>1970-01-01T00:37:30.000Z</time></trkpt><trkpt lat="14.725466" lon="101.212429"><ele>190.8</ele><time>1970-01-01T00:37:31.000Z</time></trkpt><trkpt lat="14.725462" lon="101.212397"><ele>190.8</ele><time>1970-01-01T00:37:32.000Z</time></trkpt><trkpt lat="14.725459" lon="101.212365"><ele>190.8</ele><time>1970-01-01T00:37:33.000Z</time></trkpt><trkpt lat="14.725455" lon="101.212334"><ele>190.6</ele><time>1970-01-01T00:37:34.000Z</time></trkpt><trkpt lat="14.725445" lon="101.212302"><ele>190.3</ele><time>1970-01-01T00:37:35.000Z</time></trkpt><trkpt lat="14.725423" lon="101.212271"><ele>190.3</ele><time>1970-01-01T00:37:36.000Z</time></trkpt><trkpt lat="14.72539" lon="101.212242"><ele>190.5</ele><time>1970-01-01T00:37:37.000Z</time></trkpt><trkpt lat="14.72535" lon="101.212218"><ele>190.8</ele><time>1970-01-01T00:37:38.000Z</time></trkpt><trkpt lat="14.72531" lon="101.212194"><ele>190.9</ele><time>1970-01-01T00:37:39.000Z</time></trkpt><trkpt lat="14.725268" lon="101.212169"><ele>191.1</ele><time>1970-01-01T00:37:40.000Z</time></trkpt><trkpt lat="14.725226" lon="101.212143"><ele>191.3</ele><time>1970-01-01T00:37:41.000Z</time></trkpt><trkpt lat="14.725185" lon="101.212117"><ele>190.9</ele><time>1970-01-01T00:37:42.000Z</time></trkpt><trkpt lat="14.725131" lon="101.212087"><ele>190.2</ele><time>1970-01-01T00:37:43.000Z</time></trkpt><trkpt lat="14.725093" lon="101.212064"><ele>189.7</ele><time>1970-01-01T00:37:44.000Z</time></trkpt><trkpt lat="14.725046" lon="101.21204"><ele>189.1</ele><time>1970-01-01T00:37:45.000Z</time></trkpt><trkpt lat="14.725002" lon="101.212017"><ele>188.8</ele><time>1970-01-01T00:37:46.000Z</time></trkpt><trkpt lat="14.724954" lon="101.211995"><ele>188.5</ele><time>1970-01-01T00:37:47.000Z</time></trkpt><trkpt lat="14.724904" lon="101.211982"><ele>188.3</ele><time>1970-01-01T00:37:48.000Z</time></trkpt><trkpt lat="14.72486" lon="101.211963"><ele>188.3</ele><time>1970-01-01T00:37:49.000Z</time></trkpt><trkpt lat="14.724799" lon="101.211945"><ele>188.3</ele><time>1970-01-01T00:37:50.000Z</time></trkpt><trkpt lat="14.724743" lon="101.211922"><ele>188.4</ele><time>1970-01-01T00:37:51.000Z</time></trkpt><trkpt lat="14.72469" lon="101.211905"><ele>188.2</ele><time>1970-01-01T00:37:52.000Z</time></trkpt><trkpt lat="14.724623" lon="101.211916"><ele>187.8</ele><time>1970-01-01T00:37:53.000Z</time></trkpt><trkpt lat="14.72456" lon="101.211915"><ele>187.7</ele><time>1970-01-01T00:37:54.000Z</time></trkpt><trkpt lat="14.724498" lon="101.211917"><ele>187.8</ele><time>1970-01-01T00:37:55.000Z</time></trkpt><trkpt lat="14.724427" lon="101.211937"><ele>188</ele><time>1970-01-01T00:37:56.000Z</time></trkpt><trkpt lat="14.724374" lon="101.211929"><ele>187.7</ele><time>1970-01-01T00:37:57.000Z</time></trkpt><trkpt lat="14.724325" lon="101.211926"><ele>187.3</ele><time>1970-01-01T00:37:58.000Z</time></trkpt><trkpt lat="14.724284" lon="101.211921"><ele>186.8</ele><time>1970-01-01T00:37:59.000Z</time></trkpt><trkpt lat="14.724246" lon="101.211921"><ele>186.4</ele><time>1970-01-01T00:38:00.000Z</time></trkpt><trkpt lat="14.724205" lon="101.211924"><ele>186</ele><time>1970-01-01T00:38:01.000Z</time></trkpt><trkpt lat="14.724167" lon="101.211924"><ele>185.6</ele><time>1970-01-01T00:38:02.000Z</time></trkpt><trkpt lat="14.724127" lon="101.211923"><ele>185.3</ele><time>1970-01-01T00:38:03.000Z</time></trkpt><trkpt lat="14.724086" lon="101.211918"><ele>185</ele><time>1970-01-01T00:38:04.000Z</time></trkpt><trkpt lat="14.72405" lon="101.211914"><ele>184.9</ele><time>1970-01-01T00:38:05.000Z</time></trkpt><trkpt lat="14.724009" lon="101.211913"><ele>184.8</ele><time>1970-01-01T00:38:06.000Z</time></trkpt><trkpt lat="14.723973" lon="101.211914"><ele>184.7</ele><time>1970-01-01T00:38:07.000Z</time></trkpt><trkpt lat="14.723934" lon="101.211921"><ele>184.8</ele><time>1970-01-01T00:38:08.000Z</time></trkpt><trkpt lat="14.723897" lon="101.211924"><ele>184.8</ele><time>1970-01-01T00:38:09.000Z</time></trkpt><trkpt lat="14.723862" lon="101.21193"><ele>185.2</ele><time>1970-01-01T00:38:10.000Z</time></trkpt><trkpt lat="14.723828" lon="101.211936"><ele>185.6</ele><time>1970-01-01T00:38:11.000Z</time></trkpt><trkpt lat="14.723793" lon="101.211941"><ele>186.2</ele><time>1970-01-01T00:38:12.000Z</time></trkpt><trkpt lat="14.723763" lon="101.211946"><ele>186.8</ele><time>1970-01-01T00:38:13.000Z</time></trkpt><trkpt lat="14.72371" lon="101.211952"><ele>188</ele><time>1970-01-01T00:38:15.000Z</time></trkpt><trkpt lat="14.723657" lon="101.211954"><ele>189.5</ele><time>1970-01-01T00:38:17.000Z</time></trkpt><trkpt lat="14.72363" lon="101.211953"><ele>190.2</ele><time>1970-01-01T00:38:18.000Z</time></trkpt><trkpt lat="14.723598" lon="101.211956"><ele>191.1</ele><time>1970-01-01T00:38:19.000Z</time></trkpt><trkpt lat="14.723566" lon="101.211958"><ele>192</ele><time>1970-01-01T00:38:20.000Z</time></trkpt><trkpt lat="14.723538" lon="101.21196"><ele>192.8</ele><time>1970-01-01T00:38:21.000Z</time></trkpt><trkpt lat="14.72351" lon="101.211959"><ele>193.5</ele><time>1970-01-01T00:38:22.000Z</time></trkpt><trkpt lat="14.723459" lon="101.211955"><ele>194.8</ele><time>1970-01-01T00:38:24.000Z</time></trkpt><trkpt lat="14.723406" lon="101.211955"><ele>196.2</ele><time>1970-01-01T00:38:26.000Z</time></trkpt><trkpt lat="14.723374" lon="101.211954"><ele>197.1</ele><time>1970-01-01T00:38:27.000Z</time></trkpt><trkpt lat="14.723344" lon="101.211951"><ele>198.1</ele><time>1970-01-01T00:38:28.000Z</time></trkpt><trkpt lat="14.723317" lon="101.211942"><ele>199.3</ele><time>1970-01-01T00:38:29.000Z</time></trkpt><trkpt lat="14.723293" lon="101.211925"><ele>200.3</ele><time>1970-01-01T00:38:30.000Z</time></trkpt><trkpt lat="14.723271" lon="101.211898"><ele>200.2</ele><time>1970-01-01T00:38:31.000Z</time></trkpt><trkpt lat="14.723254" lon="101.211865"><ele>201.1</ele><time>1970-01-01T00:38:32.000Z</time></trkpt><trkpt lat="14.723245" lon="101.211831"><ele>200.6</ele><time>1970-01-01T00:38:33.000Z</time></trkpt><trkpt lat="14.723238" lon="101.211795"><ele>200.2</ele><time>1970-01-01T00:38:34.000Z</time></trkpt><trkpt lat="14.723232" lon="101.211756"><ele>199.9</ele><time>1970-01-01T00:38:35.000Z</time></trkpt><trkpt lat="14.723225" lon="101.211715"><ele>199.5</ele><time>1970-01-01T00:38:36.000Z</time></trkpt><trkpt lat="14.723216" lon="101.211671"><ele>199.1</ele><time>1970-01-01T00:38:37.000Z</time></trkpt><trkpt lat="14.723205" lon="101.211626"><ele>199.2</ele><time>1970-01-01T00:38:38.000Z</time></trkpt><trkpt lat="14.723195" lon="101.21158"><ele>198.4</ele><time>1970-01-01T00:38:39.000Z</time></trkpt><trkpt lat="14.723184" lon="101.211532"><ele>197.6</ele><time>1970-01-01T00:38:40.000Z</time></trkpt><trkpt lat="14.723179" lon="101.211473"><ele>196.7</ele><time>1970-01-01T00:38:41.000Z</time></trkpt><trkpt lat="14.723173" lon="101.211431"><ele>195.9</ele><time>1970-01-01T00:38:42.000Z</time></trkpt><trkpt lat="14.723169" lon="101.211397"><ele>196.1</ele><time>1970-01-01T00:38:43.000Z</time></trkpt><trkpt lat="14.723159" lon="101.21136"><ele>195.6</ele><time>1970-01-01T00:38:44.000Z</time></trkpt><trkpt lat="14.723156" lon="101.211328"><ele>195.2</ele><time>1970-01-01T00:38:45.000Z</time></trkpt><trkpt lat="14.723146" lon="101.211297"><ele>195.2</ele><time>1970-01-01T00:38:46.000Z</time></trkpt><trkpt lat="14.723136" lon="101.211262"><ele>194.9</ele><time>1970-01-01T00:38:47.000Z</time></trkpt><trkpt lat="14.723128" lon="101.21123"><ele>195.9</ele><time>1970-01-01T00:38:48.000Z</time></trkpt><trkpt lat="14.723117" lon="101.211197"><ele>195.7</ele><time>1970-01-01T00:38:49.000Z</time></trkpt><trkpt lat="14.723107" lon="101.211164"><ele>195.7</ele><time>1970-01-01T00:38:50.000Z</time></trkpt><trkpt lat="14.723092" lon="101.211132"><ele>195.6</ele><time>1970-01-01T00:38:51.000Z</time></trkpt><trkpt lat="14.723072" lon="101.211104"><ele>196.4</ele><time>1970-01-01T00:38:52.000Z</time></trkpt><trkpt lat="14.723056" lon="101.211074"><ele>196.2</ele><time>1970-01-01T00:38:53.000Z</time></trkpt><trkpt lat="14.723041" lon="101.211042"><ele>197.2</ele><time>1970-01-01T00:38:54.000Z</time></trkpt><trkpt lat="14.723029" lon="101.211009"><ele>196.9</ele><time>1970-01-01T00:38:55.000Z</time></trkpt><trkpt lat="14.723017" lon="101.210975"><ele>196.7</ele><time>1970-01-01T00:38:56.000Z</time></trkpt><trkpt lat="14.723007" lon="101.210942"><ele>196.6</ele><time>1970-01-01T00:38:57.000Z</time></trkpt><trkpt lat="14.722995" lon="101.210908"><ele>197.7</ele><time>1970-01-01T00:38:58.000Z</time></trkpt><trkpt lat="14.722984" lon="101.210874"><ele>197.6</ele><time>1970-01-01T00:38:59.000Z</time></trkpt><trkpt lat="14.722972" lon="101.21084"><ele>197.5</ele><time>1970-01-01T00:39:00.000Z</time></trkpt><trkpt lat="14.722961" lon="101.210806"><ele>198.3</ele><time>1970-01-01T00:39:01.000Z</time></trkpt><trkpt lat="14.72295" lon="101.210772"><ele>198.2</ele><time>1970-01-01T00:39:02.000Z</time></trkpt><trkpt lat="14.722939" lon="101.210737"><ele>198.2</ele><time>1970-01-01T00:39:03.000Z</time></trkpt><trkpt lat="14.722924" lon="101.210704"><ele>198.1</ele><time>1970-01-01T00:39:04.000Z</time></trkpt><trkpt lat="14.722909" lon="101.210672"><ele>199.1</ele><time>1970-01-01T00:39:05.000Z</time></trkpt><trkpt lat="14.722891" lon="101.210644"><ele>199.1</ele><time>1970-01-01T00:39:06.000Z</time></trkpt><trkpt lat="14.722878" lon="101.210617"><ele>200.2</ele><time>1970-01-01T00:39:07.000Z</time></trkpt><trkpt lat="14.722866" lon="101.210591"><ele>200.3</ele><time>1970-01-01T00:39:08.000Z</time></trkpt><trkpt lat="14.722856" lon="101.210561"><ele>200.3</ele><time>1970-01-01T00:39:09.000Z</time></trkpt><trkpt lat="14.722843" lon="101.210528"><ele>200.3</ele><time>1970-01-01T00:39:10.000Z</time></trkpt><trkpt lat="14.722827" lon="101.210498"><ele>201.3</ele><time>1970-01-01T00:39:11.000Z</time></trkpt><trkpt lat="14.722807" lon="101.210472"><ele>201.2</ele><time>1970-01-01T00:39:12.000Z</time></trkpt><trkpt lat="14.722783" lon="101.210447"><ele>202</ele><time>1970-01-01T00:39:13.000Z</time></trkpt><trkpt lat="14.722758" lon="101.210423"><ele>201.9</ele><time>1970-01-01T00:39:14.000Z</time></trkpt><trkpt lat="14.722734" lon="101.210401"><ele>202.6</ele><time>1970-01-01T00:39:15.000Z</time></trkpt><trkpt lat="14.72271" lon="101.210384"><ele>203.1</ele><time>1970-01-01T00:39:16.000Z</time></trkpt><trkpt lat="14.722685" lon="101.210365"><ele>203</ele><time>1970-01-01T00:39:17.000Z</time></trkpt><trkpt lat="14.72266" lon="101.210347"><ele>203.6</ele><time>1970-01-01T00:39:18.000Z</time></trkpt><trkpt lat="14.722636" lon="101.21033"><ele>203.3</ele><time>1970-01-01T00:39:19.000Z</time></trkpt><trkpt lat="14.722609" lon="101.210308"><ele>203.8</ele><time>1970-01-01T00:39:20.000Z</time></trkpt><trkpt lat="14.722577" lon="101.210284"><ele>204</ele><time>1970-01-01T00:39:21.000Z</time></trkpt><trkpt lat="14.722547" lon="101.210259"><ele>204.2</ele><time>1970-01-01T00:39:22.000Z</time></trkpt><trkpt lat="14.722517" lon="101.210233"><ele>204.2</ele><time>1970-01-01T00:39:23.000Z</time></trkpt><trkpt lat="14.72249" lon="101.21021"><ele>204.1</ele><time>1970-01-01T00:39:24.000Z</time></trkpt><trkpt lat="14.722464" lon="101.210187"><ele>204.3</ele><time>1970-01-01T00:39:25.000Z</time></trkpt><trkpt lat="14.722432" lon="101.210155"><ele>203.6</ele><time>1970-01-01T00:39:26.000Z</time></trkpt><trkpt lat="14.722394" lon="101.210077"><ele>202.3</ele><time>1970-01-01T00:39:27.000Z</time></trkpt><trkpt lat="14.722362" lon="101.210022"><ele>201.8</ele><time>1970-01-01T00:39:28.000Z</time></trkpt><trkpt lat="14.722353" lon="101.209978"><ele>201.5</ele><time>1970-01-01T00:39:29.000Z</time></trkpt><trkpt lat="14.722334" lon="101.209943"><ele>201.5</ele><time>1970-01-01T00:39:30.000Z</time></trkpt><trkpt lat="14.722315" lon="101.209908"><ele>201.5</ele><time>1970-01-01T00:39:31.000Z</time></trkpt><trkpt lat="14.722295" lon="101.209868"><ele>201.7</ele><time>1970-01-01T00:39:32.000Z</time></trkpt><trkpt lat="14.722273" lon="101.209838"><ele>201.7</ele><time>1970-01-01T00:39:33.000Z</time></trkpt><trkpt lat="14.722248" lon="101.209805"><ele>202</ele><time>1970-01-01T00:39:34.000Z</time></trkpt><trkpt lat="14.72223" lon="101.209775"><ele>202</ele><time>1970-01-01T00:39:35.000Z</time></trkpt><trkpt lat="14.72222" lon="101.209748"><ele>201.9</ele><time>1970-01-01T00:39:36.000Z</time></trkpt><trkpt lat="14.722205" lon="101.209718"><ele>202</ele><time>1970-01-01T00:39:37.000Z</time></trkpt><trkpt lat="14.722184" lon="101.209694"><ele>201.8</ele><time>1970-01-01T00:39:38.000Z</time></trkpt><trkpt lat="14.722165" lon="101.209639"><ele>201.7</ele><time>1970-01-01T00:39:40.000Z</time></trkpt><trkpt lat="14.722154" lon="101.209607"><ele>201.4</ele><time>1970-01-01T00:39:41.000Z</time></trkpt><trkpt lat="14.722144" lon="101.209574"><ele>201.4</ele><time>1970-01-01T00:39:42.000Z</time></trkpt><trkpt lat="14.722135" lon="101.209541"><ele>201.1</ele><time>1970-01-01T00:39:43.000Z</time></trkpt><trkpt lat="14.722126" lon="101.209508"><ele>201.1</ele><time>1970-01-01T00:39:44.000Z</time></trkpt><trkpt lat="14.722118" lon="101.209481"><ele>200.8</ele><time>1970-01-01T00:39:45.000Z</time></trkpt><trkpt lat="14.722096" lon="101.209442"><ele>200.6</ele><time>1970-01-01T00:39:47.000Z</time></trkpt><trkpt lat="14.722067" lon="101.209436"><ele>200.8</ele><time>1970-01-01T00:39:51.000Z</time></trkpt><trkpt lat="14.722035" lon="101.209438"><ele>201</ele><time>1970-01-01T00:39:55.000Z</time></trkpt><trkpt lat="14.722006" lon="101.209437"><ele>201.1</ele><time>1970-01-01T00:39:57.000Z</time></trkpt><trkpt lat="14.721968" lon="101.209431"><ele>201.1</ele><time>1970-01-01T00:39:59.000Z</time></trkpt><trkpt lat="14.721929" lon="101.20942"><ele>201.1</ele><time>1970-01-01T00:40:01.000Z</time></trkpt><trkpt lat="14.721894" lon="101.209412"><ele>201.1</ele><time>1970-01-01T00:40:03.000Z</time></trkpt><trkpt lat="14.721852" lon="101.209415"><ele>201</ele><time>1970-01-01T00:40:05.000Z</time></trkpt><trkpt lat="14.721808" lon="101.209428"><ele>200.9</ele><time>1970-01-01T00:40:07.000Z</time></trkpt><trkpt lat="14.721765" lon="101.209439"><ele>200.9</ele><time>1970-01-01T00:40:09.000Z</time></trkpt><trkpt lat="14.721721" lon="101.209453"><ele>201.2</ele><time>1970-01-01T00:40:11.000Z</time></trkpt><trkpt lat="14.72168" lon="101.209477"><ele>201.1</ele><time>1970-01-01T00:40:13.000Z</time></trkpt><trkpt lat="14.721635" lon="101.209493"><ele>201.4</ele><time>1970-01-01T00:40:15.000Z</time></trkpt><trkpt lat="14.721585" lon="101.209498"><ele>201.3</ele><time>1970-01-01T00:40:17.000Z</time></trkpt><trkpt lat="14.721537" lon="101.209497"><ele>201.1</ele><time>1970-01-01T00:40:19.000Z</time></trkpt><trkpt lat="14.721488" lon="101.209499"><ele>201</ele><time>1970-01-01T00:40:21.000Z</time></trkpt><trkpt lat="14.721462" lon="101.209505"><ele>200.8</ele><time>1970-01-01T00:40:22.000Z</time></trkpt><trkpt lat="14.721431" lon="101.209513"><ele>200.8</ele><time>1970-01-01T00:40:23.000Z</time></trkpt><trkpt lat="14.7214" lon="101.20952"><ele>200.7</ele><time>1970-01-01T00:40:24.000Z</time></trkpt><trkpt lat="14.72137" lon="101.209526"><ele>200.8</ele><time>1970-01-01T00:40:25.000Z</time></trkpt><trkpt lat="14.721339" lon="101.209532"><ele>201.1</ele><time>1970-01-01T00:40:26.000Z</time></trkpt><trkpt lat="14.721308" lon="101.209537"><ele>201.5</ele><time>1970-01-01T00:40:27.000Z</time></trkpt><trkpt lat="14.721277" lon="101.209543"><ele>202</ele><time>1970-01-01T00:40:28.000Z</time></trkpt><trkpt lat="14.721248" lon="101.209548"><ele>202.5</ele><time>1970-01-01T00:40:29.000Z</time></trkpt><trkpt lat="14.721219" lon="101.209551"><ele>203</ele><time>1970-01-01T00:40:30.000Z</time></trkpt><trkpt lat="14.721188" lon="101.209555"><ele>203.4</ele><time>1970-01-01T00:40:31.000Z</time></trkpt><trkpt lat="14.721158" lon="101.20956"><ele>203.7</ele><time>1970-01-01T00:40:32.000Z</time></trkpt><trkpt lat="14.721126" lon="101.209568"><ele>204.1</ele><time>1970-01-01T00:40:33.000Z</time></trkpt><trkpt lat="14.721096" lon="101.209577"><ele>204.5</ele><time>1970-01-01T00:40:34.000Z</time></trkpt><trkpt lat="14.721068" lon="101.209586"><ele>204.8</ele><time>1970-01-01T00:40:35.000Z</time></trkpt><trkpt lat="14.72104" lon="101.209596"><ele>204.9</ele><time>1970-01-01T00:40:36.000Z</time></trkpt><trkpt lat="14.721013" lon="101.209605"><ele>205</ele><time>1970-01-01T00:40:37.000Z</time></trkpt><trkpt lat="14.720962" lon="101.209619"><ele>205.2</ele><time>1970-01-01T00:40:39.000Z</time></trkpt><trkpt lat="14.720936" lon="101.209627"><ele>205.2</ele><time>1970-01-01T00:40:40.000Z</time></trkpt><trkpt lat="14.720888" lon="101.209642"><ele>205.3</ele><time>1970-01-01T00:40:42.000Z</time></trkpt><trkpt lat="14.720842" lon="101.209656"><ele>205.3</ele><time>1970-01-01T00:40:44.000Z</time></trkpt><trkpt lat="14.720791" lon="101.209667"><ele>205.1</ele><time>1970-01-01T00:40:46.000Z</time></trkpt><trkpt lat="14.720764" lon="101.209675"><ele>205</ele><time>1970-01-01T00:40:47.000Z</time></trkpt><trkpt lat="14.720737" lon="101.209684"><ele>204.8</ele><time>1970-01-01T00:40:48.000Z</time></trkpt><trkpt lat="14.72071" lon="101.209695"><ele>204.5</ele><time>1970-01-01T00:40:49.000Z</time></trkpt><trkpt lat="14.72068" lon="101.209706"><ele>204.1</ele><time>1970-01-01T00:40:50.000Z</time></trkpt><trkpt lat="14.72065" lon="101.209723"><ele>203.8</ele><time>1970-01-01T00:40:51.000Z</time></trkpt><trkpt lat="14.720622" lon="101.209745"><ele>203.6</ele><time>1970-01-01T00:40:52.000Z</time></trkpt><trkpt lat="14.720599" lon="101.209777"><ele>203.3</ele><time>1970-01-01T00:40:53.000Z</time></trkpt><trkpt lat="14.720587" lon="101.209822"><ele>203.3</ele><time>1970-01-01T00:40:54.000Z</time></trkpt><trkpt lat="14.72059" lon="101.20987"><ele>203</ele><time>1970-01-01T00:40:55.000Z</time></trkpt><trkpt lat="14.720604" lon="101.209915"><ele>202.4</ele><time>1970-01-01T00:40:56.000Z</time></trkpt><trkpt lat="14.720623" lon="101.209961"><ele>202.1</ele><time>1970-01-01T00:40:57.000Z</time></trkpt><trkpt lat="14.720648" lon="101.21002"><ele>202</ele><time>1970-01-01T00:40:58.000Z</time></trkpt><trkpt lat="14.720616" lon="101.210065"><ele>202.1</ele><time>1970-01-01T00:40:59.000Z</time></trkpt><trkpt lat="14.720574" lon="101.210086"><ele>202</ele><time>1970-01-01T00:41:00.000Z</time></trkpt><trkpt lat="14.720525" lon="101.210095"><ele>202</ele><time>1970-01-01T00:41:01.000Z</time></trkpt><trkpt lat="14.720482" lon="101.210107"><ele>201.6</ele><time>1970-01-01T00:41:02.000Z</time></trkpt><trkpt lat="14.720452" lon="101.210137"><ele>201.3</ele><time>1970-01-01T00:41:03.000Z</time></trkpt><trkpt lat="14.720442" lon="101.210169"><ele>201.1</ele><time>1970-01-01T00:41:04.000Z</time></trkpt><trkpt lat="14.720465" lon="101.210242"><ele>200.3</ele><time>1970-01-01T00:41:05.000Z</time></trkpt><trkpt lat="14.720484" lon="101.210298"><ele>200.1</ele><time>1970-01-01T00:41:06.000Z</time></trkpt><trkpt lat="14.720502" lon="101.210358"><ele>199.8</ele><time>1970-01-01T00:41:07.000Z</time></trkpt><trkpt lat="14.72052" lon="101.210422"><ele>199.7</ele><time>1970-01-01T00:41:08.000Z</time></trkpt><trkpt lat="14.720539" lon="101.210487"><ele>199.2</ele><time>1970-01-01T00:41:09.000Z</time></trkpt><trkpt lat="14.72056" lon="101.210554"><ele>199</ele><time>1970-01-01T00:41:10.000Z</time></trkpt><trkpt lat="14.720574" lon="101.210633"><ele>198.7</ele><time>1970-01-01T00:41:11.000Z</time></trkpt><trkpt lat="14.72059" lon="101.210703"><ele>198.5</ele><time>1970-01-01T00:41:12.000Z</time></trkpt><trkpt lat="14.720611" lon="101.210776"><ele>198.1</ele><time>1970-01-01T00:41:13.000Z</time></trkpt><trkpt lat="14.720634" lon="101.210846"><ele>197.6</ele><time>1970-01-01T00:41:14.000Z</time></trkpt><trkpt lat="14.720657" lon="101.210922"><ele>197.2</ele><time>1970-01-01T00:41:15.000Z</time></trkpt><trkpt lat="14.720675" lon="101.210999"><ele>196.8</ele><time>1970-01-01T00:41:16.000Z</time></trkpt><trkpt lat="14.720697" lon="101.211074"><ele>196.2</ele><time>1970-01-01T00:41:17.000Z</time></trkpt><trkpt lat="14.720721" lon="101.21115"><ele>195.5</ele><time>1970-01-01T00:41:18.000Z</time></trkpt><trkpt lat="14.720743" lon="101.211227"><ele>195.1</ele><time>1970-01-01T00:41:19.000Z</time></trkpt><trkpt lat="14.720764" lon="101.211298"><ele>194.7</ele><time>1970-01-01T00:41:20.000Z</time></trkpt><trkpt lat="14.720777" lon="101.21137"><ele>194.3</ele><time>1970-01-01T00:41:21.000Z</time></trkpt><trkpt lat="14.720795" lon="101.211438"><ele>194.4</ele><time>1970-01-01T00:41:22.000Z</time></trkpt><trkpt lat="14.720817" lon="101.211511"><ele>194.6</ele><time>1970-01-01T00:41:23.000Z</time></trkpt><trkpt lat="14.72084" lon="101.211584"><ele>194.5</ele><time>1970-01-01T00:41:24.000Z</time></trkpt><trkpt lat="14.72086" lon="101.211645"><ele>194.6</ele><time>1970-01-01T00:41:25.000Z</time></trkpt><trkpt lat="14.720884" lon="101.211716"><ele>194.7</ele><time>1970-01-01T00:41:26.000Z</time></trkpt><trkpt lat="14.720901" lon="101.211792"><ele>194.7</ele><time>1970-01-01T00:41:27.000Z</time></trkpt><trkpt lat="14.72092" lon="101.211872"><ele>194.9</ele><time>1970-01-01T00:41:28.000Z</time></trkpt><trkpt lat="14.720943" lon="101.211944"><ele>195.2</ele><time>1970-01-01T00:41:29.000Z</time></trkpt><trkpt lat="14.720964" lon="101.212023"><ele>195.3</ele><time>1970-01-01T00:41:30.000Z</time></trkpt><trkpt lat="14.720983" lon="101.212099"><ele>195.3</ele><time>1970-01-01T00:41:31.000Z</time></trkpt><trkpt lat="14.721006" lon="101.212174"><ele>195.2</ele><time>1970-01-01T00:41:32.000Z</time></trkpt><trkpt lat="14.721023" lon="101.212259"><ele>194.8</ele><time>1970-01-01T00:41:33.000Z</time></trkpt><trkpt lat="14.721043" lon="101.212337"><ele>194.4</ele><time>1970-01-01T00:41:34.000Z</time></trkpt><trkpt lat="14.721063" lon="101.212423"><ele>194</ele><time>1970-01-01T00:41:35.000Z</time></trkpt><trkpt lat="14.721085" lon="101.212513"><ele>193.9</ele><time>1970-01-01T00:41:36.000Z</time></trkpt><trkpt lat="14.721114" lon="101.212594"><ele>193.9</ele><time>1970-01-01T00:41:37.000Z</time></trkpt><trkpt lat="14.721132" lon="101.212677"><ele>194</ele><time>1970-01-01T00:41:38.000Z</time></trkpt><trkpt lat="14.721154" lon="101.21276"><ele>194</ele><time>1970-01-01T00:41:39.000Z</time></trkpt><trkpt lat="14.721173" lon="101.21284"><ele>194.2</ele><time>1970-01-01T00:41:40.000Z</time></trkpt><trkpt lat="14.721184" lon="101.21292"><ele>194.6</ele><time>1970-01-01T00:41:41.000Z</time></trkpt><trkpt lat="14.7212" lon="101.212992"><ele>195</ele><time>1970-01-01T00:41:42.000Z</time></trkpt><trkpt lat="14.721214" lon="101.213059"><ele>195.3</ele><time>1970-01-01T00:41:43.000Z</time></trkpt><trkpt lat="14.721221" lon="101.213128"><ele>195.2</ele><time>1970-01-01T00:41:44.000Z</time></trkpt><trkpt lat="14.721219" lon="101.213189"><ele>195</ele><time>1970-01-01T00:41:45.000Z</time></trkpt><trkpt lat="14.721191" lon="101.213246"><ele>194.4</ele><time>1970-01-01T00:41:46.000Z</time></trkpt><trkpt lat="14.721136" lon="101.213286"><ele>194.4</ele><time>1970-01-01T00:41:47.000Z</time></trkpt><trkpt lat="14.72108" lon="101.21329"><ele>194.3</ele><time>1970-01-01T00:41:48.000Z</time></trkpt><trkpt lat="14.721022" lon="101.213271"><ele>194.1</ele><time>1970-01-01T00:41:49.000Z</time></trkpt><trkpt lat="14.720958" lon="101.213263"><ele>194</ele><time>1970-01-01T00:41:50.000Z</time></trkpt><trkpt lat="14.720886" lon="101.213275"><ele>193.9</ele><time>1970-01-01T00:41:51.000Z</time></trkpt><trkpt lat="14.720812" lon="101.213311"><ele>193.9</ele><time>1970-01-01T00:41:52.000Z</time></trkpt><trkpt lat="14.720769" lon="101.213366"><ele>193.9</ele><time>1970-01-01T00:41:53.000Z</time></trkpt><trkpt lat="14.720719" lon="101.213434"><ele>193.9</ele><time>1970-01-01T00:41:54.000Z</time></trkpt><trkpt lat="14.720699" lon="101.213516"><ele>194</ele><time>1970-01-01T00:41:55.000Z</time></trkpt><trkpt lat="14.720681" lon="101.213587"><ele>194.1</ele><time>1970-01-01T00:41:56.000Z</time></trkpt><trkpt lat="14.720649" lon="101.213661"><ele>194.1</ele><time>1970-01-01T00:41:57.000Z</time></trkpt><trkpt lat="14.720615" lon="101.213726"><ele>194.1</ele><time>1970-01-01T00:41:58.000Z</time></trkpt><trkpt lat="14.720573" lon="101.213784"><ele>194</ele><time>1970-01-01T00:41:59.000Z</time></trkpt><trkpt lat="14.720529" lon="101.213835"><ele>194</ele><time>1970-01-01T00:42:00.000Z</time></trkpt><trkpt lat="14.720475" lon="101.213868"><ele>194</ele><time>1970-01-01T00:42:01.000Z</time></trkpt><trkpt lat="14.720435" lon="101.213875"><ele>194</ele><time>1970-01-01T00:42:02.000Z</time></trkpt><trkpt lat="14.720386" lon="101.213895"><ele>194</ele><time>1970-01-01T00:42:03.000Z</time></trkpt><trkpt lat="14.720343" lon="101.213928"><ele>194</ele><time>1970-01-01T00:42:04.000Z</time></trkpt><trkpt lat="14.720304" lon="101.213958"><ele>193.8</ele><time>1970-01-01T00:42:05.000Z</time></trkpt><trkpt lat="14.720262" lon="101.213988"><ele>193.5</ele><time>1970-01-01T00:42:06.000Z</time></trkpt><trkpt lat="14.720219" lon="101.214018"><ele>193.1</ele><time>1970-01-01T00:42:07.000Z</time></trkpt><trkpt lat="14.720174" lon="101.214039"><ele>192.8</ele><time>1970-01-01T00:42:08.000Z</time></trkpt><trkpt lat="14.720147" lon="101.214049"><ele>192.6</ele><time>1970-01-01T00:42:09.000Z</time></trkpt><trkpt lat="14.720087" lon="101.214059"><ele>192.1</ele><time>1970-01-01T00:42:11.000Z</time></trkpt><trkpt lat="14.720047" lon="101.214062"><ele>191.7</ele><time>1970-01-01T00:42:12.000Z</time></trkpt><trkpt lat="14.720013" lon="101.21406"><ele>191.4</ele><time>1970-01-01T00:42:13.000Z</time></trkpt><trkpt lat="14.719979" lon="101.214061"><ele>191.3</ele><time>1970-01-01T00:42:14.000Z</time></trkpt><trkpt lat="14.719948" lon="101.214055"><ele>191.2</ele><time>1970-01-01T00:42:15.000Z</time></trkpt><trkpt lat="14.719916" lon="101.214045"><ele>191.1</ele><time>1970-01-01T00:42:16.000Z</time></trkpt><trkpt lat="14.719883" lon="101.214043"><ele>191</ele><time>1970-01-01T00:42:17.000Z</time></trkpt><trkpt lat="14.719849" lon="101.214042"><ele>191</ele><time>1970-01-01T00:42:18.000Z</time></trkpt><trkpt lat="14.719817" lon="101.214042"><ele>191</ele><time>1970-01-01T00:42:19.000Z</time></trkpt><trkpt lat="14.719785" lon="101.214043"><ele>190.9</ele><time>1970-01-01T00:42:20.000Z</time></trkpt><trkpt lat="14.71975" lon="101.214046"><ele>190.9</ele><time>1970-01-01T00:42:21.000Z</time></trkpt><trkpt lat="14.719717" lon="101.21405"><ele>190.9</ele><time>1970-01-01T00:42:22.000Z</time></trkpt><trkpt lat="14.719685" lon="101.214057"><ele>190.9</ele><time>1970-01-01T00:42:23.000Z</time></trkpt><trkpt lat="14.719656" lon="101.214065"><ele>190.9</ele><time>1970-01-01T00:42:24.000Z</time></trkpt><trkpt lat="14.719628" lon="101.214073"><ele>191.1</ele><time>1970-01-01T00:42:25.000Z</time></trkpt><trkpt lat="14.719602" lon="101.214082"><ele>191.3</ele><time>1970-01-01T00:42:26.000Z</time></trkpt><trkpt lat="14.719576" lon="101.214093"><ele>191.4</ele><time>1970-01-01T00:42:27.000Z</time></trkpt><trkpt lat="14.719551" lon="101.214106"><ele>191.6</ele><time>1970-01-01T00:42:28.000Z</time></trkpt><trkpt lat="14.719522" lon="101.21412"><ele>191.8</ele><time>1970-01-01T00:42:29.000Z</time></trkpt><trkpt lat="14.719492" lon="101.214132"><ele>192</ele><time>1970-01-01T00:42:30.000Z</time></trkpt><trkpt lat="14.719462" lon="101.214139"><ele>191.9</ele><time>1970-01-01T00:42:31.000Z</time></trkpt><trkpt lat="14.719429" lon="101.214147"><ele>191.8</ele><time>1970-01-01T00:42:32.000Z</time></trkpt><trkpt lat="14.719393" lon="101.214154"><ele>191.8</ele><time>1970-01-01T00:42:33.000Z</time></trkpt><trkpt lat="14.719358" lon="101.214164"><ele>192</ele><time>1970-01-01T00:42:34.000Z</time></trkpt><trkpt lat="14.719324" lon="101.214177"><ele>192.2</ele><time>1970-01-01T00:42:35.000Z</time></trkpt><trkpt lat="14.719292" lon="101.214191"><ele>192.5</ele><time>1970-01-01T00:42:36.000Z</time></trkpt><trkpt lat="14.71926" lon="101.214204"><ele>192.8</ele><time>1970-01-01T00:42:37.000Z</time></trkpt><trkpt lat="14.719228" lon="101.214217"><ele>193.2</ele><time>1970-01-01T00:42:38.000Z</time></trkpt><trkpt lat="14.719199" lon="101.214229"><ele>193.7</ele><time>1970-01-01T00:42:39.000Z</time></trkpt><trkpt lat="14.719172" lon="101.214239"><ele>194.2</ele><time>1970-01-01T00:42:40.000Z</time></trkpt><trkpt lat="14.719129" lon="101.214255"><ele>194.7</ele><time>1970-01-01T00:42:42.000Z</time></trkpt><trkpt lat="14.719086" lon="101.214269"><ele>195.2</ele><time>1970-01-01T00:42:44.000Z</time></trkpt><trkpt lat="14.719047" lon="101.214288"><ele>195.4</ele><time>1970-01-01T00:42:46.000Z</time></trkpt><trkpt lat="14.719014" lon="101.21431"><ele>195.9</ele><time>1970-01-01T00:42:48.000Z</time></trkpt><trkpt lat="14.718974" lon="101.214328"><ele>197.1</ele><time>1970-01-01T00:42:50.000Z</time></trkpt><trkpt lat="14.718931" lon="101.214319"><ele>203.2</ele><time>1970-01-01T00:42:52.000Z</time></trkpt><trkpt lat="14.718909" lon="101.21428"><ele>204.1</ele><time>1970-01-01T00:42:54.000Z</time></trkpt><trkpt lat="14.718903" lon="101.214234"><ele>205.1</ele><time>1970-01-01T00:42:56.000Z</time></trkpt><trkpt lat="14.71889" lon="101.214193"><ele>206</ele><time>1970-01-01T00:42:58.000Z</time></trkpt><trkpt lat="14.718863" lon="101.214153"><ele>207.1</ele><time>1970-01-01T00:43:00.000Z</time></trkpt><trkpt lat="14.71884" lon="101.214123"><ele>207.8</ele><time>1970-01-01T00:43:02.000Z</time></trkpt><trkpt lat="14.718824" lon="101.214089"><ele>208.5</ele><time>1970-01-01T00:43:04.000Z</time></trkpt><trkpt lat="14.718803" lon="101.214047"><ele>209.3</ele><time>1970-01-01T00:43:06.000Z</time></trkpt><trkpt lat="14.718781" lon="101.213995"><ele>210.3</ele><time>1970-01-01T00:43:08.000Z</time></trkpt><trkpt lat="14.718771" lon="101.213966"><ele>210.7</ele><time>1970-01-01T00:43:09.000Z</time></trkpt><trkpt lat="14.718752" lon="101.213925"><ele>211.3</ele><time>1970-01-01T00:43:11.000Z</time></trkpt><trkpt lat="14.718724" lon="101.213891"><ele>212</ele><time>1970-01-01T00:43:13.000Z</time></trkpt><trkpt lat="14.718694" lon="101.213852"><ele>212.6</ele><time>1970-01-01T00:43:15.000Z</time></trkpt><trkpt lat="14.718666" lon="101.21382"><ele>213.1</ele><time>1970-01-01T00:43:17.000Z</time></trkpt><trkpt lat="14.718641" lon="101.21385"><ele>213.1</ele><time>1970-01-01T00:43:20.000Z</time></trkpt><trkpt lat="14.718664" lon="101.213896"><ele>212.8</ele><time>1970-01-01T00:43:22.000Z</time></trkpt><trkpt lat="14.718684" lon="101.21392"><ele>212.4</ele><time>1970-01-01T00:43:23.000Z</time></trkpt><trkpt lat="14.718705" lon="101.213945"><ele>211.9</ele><time>1970-01-01T00:43:24.000Z</time></trkpt><trkpt lat="14.718726" lon="101.213972"><ele>211.4</ele><time>1970-01-01T00:43:25.000Z</time></trkpt><trkpt lat="14.718746" lon="101.214003"><ele>210.8</ele><time>1970-01-01T00:43:26.000Z</time></trkpt><trkpt lat="14.718763" lon="101.214036"><ele>210.2</ele><time>1970-01-01T00:43:27.000Z</time></trkpt><trkpt lat="14.718779" lon="101.214067"><ele>209.6</ele><time>1970-01-01T00:43:28.000Z</time></trkpt><trkpt lat="14.718793" lon="101.214097"><ele>209</ele><time>1970-01-01T00:43:29.000Z</time></trkpt><trkpt lat="14.71881" lon="101.214125"><ele>208.3</ele><time>1970-01-01T00:43:30.000Z</time></trkpt><trkpt lat="14.71883" lon="101.214153"><ele>207.6</ele><time>1970-01-01T00:43:31.000Z</time></trkpt><trkpt lat="14.718854" lon="101.214182"><ele>206.8</ele><time>1970-01-01T00:43:32.000Z</time></trkpt><trkpt lat="14.718879" lon="101.21421"><ele>205.9</ele><time>1970-01-01T00:43:33.000Z</time></trkpt><trkpt lat="14.718901" lon="101.214243"><ele>204.9</ele><time>1970-01-01T00:43:34.000Z</time></trkpt><trkpt lat="14.718923" lon="101.214277"><ele>204</ele><time>1970-01-01T00:43:35.000Z</time></trkpt><trkpt lat="14.718945" lon="101.214309"><ele>203.1</ele><time>1970-01-01T00:43:36.000Z</time></trkpt><trkpt lat="14.718967" lon="101.214335"><ele>197.4</ele><time>1970-01-01T00:43:37.000Z</time></trkpt><trkpt lat="14.719007" lon="101.214357"><ele>196.2</ele><time>1970-01-01T00:43:39.000Z</time></trkpt><trkpt lat="14.719062" lon="101.21434"><ele>195.4</ele><time>1970-01-01T00:43:41.000Z</time></trkpt><trkpt lat="14.719116" lon="101.214284"><ele>194.9</ele><time>1970-01-01T00:43:42.000Z</time></trkpt><trkpt lat="14.719177" lon="101.214255"><ele>194.1</ele><time>1970-01-01T00:43:43.000Z</time></trkpt><trkpt lat="14.719238" lon="101.214235"><ele>193.1</ele><time>1970-01-01T00:43:44.000Z</time></trkpt><trkpt lat="14.719304" lon="101.214218"><ele>192.5</ele><time>1970-01-01T00:43:45.000Z</time></trkpt><trkpt lat="14.71937" lon="101.214195"><ele>192</ele><time>1970-01-01T00:43:46.000Z</time></trkpt><trkpt lat="14.719436" lon="101.214175"><ele>191.7</ele><time>1970-01-01T00:43:47.000Z</time></trkpt><trkpt lat="14.719499" lon="101.214149"><ele>191.9</ele><time>1970-01-01T00:43:48.000Z</time></trkpt><trkpt lat="14.719569" lon="101.214127"><ele>191.7</ele><time>1970-01-01T00:43:49.000Z</time></trkpt><trkpt lat="14.719639" lon="101.214115"><ele>191.3</ele><time>1970-01-01T00:43:50.000Z</time></trkpt><trkpt lat="14.719716" lon="101.214099"><ele>190.9</ele><time>1970-01-01T00:43:51.000Z</time></trkpt><trkpt lat="14.719796" lon="101.214088"><ele>190.9</ele><time>1970-01-01T00:43:52.000Z</time></trkpt><trkpt lat="14.719877" lon="101.214098"><ele>191</ele><time>1970-01-01T00:43:53.000Z</time></trkpt><trkpt lat="14.719956" lon="101.214112"><ele>191</ele><time>1970-01-01T00:43:54.000Z</time></trkpt><trkpt lat="14.720037" lon="101.214118"><ele>191.3</ele><time>1970-01-01T00:43:55.000Z</time></trkpt><trkpt lat="14.72012" lon="101.214099"><ele>191.7</ele><time>1970-01-01T00:43:56.000Z</time></trkpt><trkpt lat="14.720203" lon="101.214057"><ele>192.5</ele><time>1970-01-01T00:43:57.000Z</time></trkpt><trkpt lat="14.720276" lon="101.214008"><ele>193.1</ele><time>1970-01-01T00:43:58.000Z</time></trkpt><trkpt lat="14.72035" lon="101.213969"><ele>193.6</ele><time>1970-01-01T00:43:59.000Z</time></trkpt><trkpt lat="14.720414" lon="101.213934"><ele>194</ele><time>1970-01-01T00:44:00.000Z</time></trkpt><trkpt lat="14.720478" lon="101.2139"><ele>194</ele><time>1970-01-01T00:44:01.000Z</time></trkpt><trkpt lat="14.72055" lon="101.213874"><ele>194</ele><time>1970-01-01T00:44:02.000Z</time></trkpt><trkpt lat="14.720626" lon="101.213866"><ele>193.9</ele><time>1970-01-01T00:44:03.000Z</time></trkpt><trkpt lat="14.720697" lon="101.213849"><ele>193.9</ele><time>1970-01-01T00:44:04.000Z</time></trkpt><trkpt lat="14.720778" lon="101.213856"><ele>194</ele><time>1970-01-01T00:44:05.000Z</time></trkpt><trkpt lat="14.720811" lon="101.213903"><ele>194</ele><time>1970-01-01T00:44:06.000Z</time></trkpt><trkpt lat="14.72086" lon="101.213927"><ele>194</ele><time>1970-01-01T00:44:07.000Z</time></trkpt><trkpt lat="14.720925" lon="101.213938"><ele>194</ele><time>1970-01-01T00:44:08.000Z</time></trkpt><trkpt lat="14.720978" lon="101.21395"><ele>193.9</ele><time>1970-01-01T00:44:09.000Z</time></trkpt><trkpt lat="14.721029" lon="101.213968"><ele>193.9</ele><time>1970-01-01T00:44:10.000Z</time></trkpt><trkpt lat="14.721076" lon="101.213991"><ele>194</ele><time>1970-01-01T00:44:11.000Z</time></trkpt><trkpt lat="14.721126" lon="101.214011"><ele>194</ele><time>1970-01-01T00:44:12.000Z</time></trkpt><trkpt lat="14.721176" lon="101.214022"><ele>194</ele><time>1970-01-01T00:44:13.000Z</time></trkpt><trkpt lat="14.721216" lon="101.214038"><ele>193.9</ele><time>1970-01-01T00:44:14.000Z</time></trkpt><trkpt lat="14.721253" lon="101.214063"><ele>193.7</ele><time>1970-01-01T00:44:15.000Z</time></trkpt><trkpt lat="14.721296" lon="101.21408"><ele>193.5</ele><time>1970-01-01T00:44:16.000Z</time></trkpt><trkpt lat="14.721332" lon="101.214107"><ele>193.3</ele><time>1970-01-01T00:44:17.000Z</time></trkpt><trkpt lat="14.721368" lon="101.214129"><ele>193.2</ele><time>1970-01-01T00:44:18.000Z</time></trkpt><trkpt lat="14.721399" lon="101.214154"><ele>193.2</ele><time>1970-01-01T00:44:19.000Z</time></trkpt><trkpt lat="14.721414" lon="101.214185"><ele>193.3</ele><time>1970-01-01T00:44:20.000Z</time></trkpt><trkpt lat="14.721461" lon="101.214199"><ele>193.3</ele><time>1970-01-01T00:44:21.000Z</time></trkpt><trkpt lat="14.721495" lon="101.214219"><ele>193.4</ele><time>1970-01-01T00:44:22.000Z</time></trkpt><trkpt lat="14.721527" lon="101.214229"><ele>193.5</ele><time>1970-01-01T00:44:23.000Z</time></trkpt><trkpt lat="14.721557" lon="101.214239"><ele>193.6</ele><time>1970-01-01T00:44:24.000Z</time></trkpt><trkpt lat="14.721581" lon="101.214256"><ele>193.6</ele><time>1970-01-01T00:44:25.000Z</time></trkpt><trkpt lat="14.721605" lon="101.214273"><ele>193.6</ele><time>1970-01-01T00:44:26.000Z</time></trkpt><trkpt lat="14.721627" lon="101.214291"><ele>193.6</ele><time>1970-01-01T00:44:27.000Z</time></trkpt><trkpt lat="14.721648" lon="101.214312"><ele>193.6</ele><time>1970-01-01T00:44:28.000Z</time></trkpt><trkpt lat="14.721667" lon="101.214339"><ele>193.6</ele><time>1970-01-01T00:44:29.000Z</time></trkpt><trkpt lat="14.721685" lon="101.214368"><ele>193.7</ele><time>1970-01-01T00:44:30.000Z</time></trkpt><trkpt lat="14.721701" lon="101.214397"><ele>193.8</ele><time>1970-01-01T00:44:31.000Z</time></trkpt><trkpt lat="14.721716" lon="101.21443"><ele>193.8</ele><time>1970-01-01T00:44:32.000Z</time></trkpt><trkpt lat="14.721731" lon="101.214464"><ele>193.7</ele><time>1970-01-01T00:44:33.000Z</time></trkpt><trkpt lat="14.721748" lon="101.214489"><ele>193.7</ele><time>1970-01-01T00:44:34.000Z</time></trkpt><trkpt lat="14.721768" lon="101.21451"><ele>193.8</ele><time>1970-01-01T00:44:35.000Z</time></trkpt><trkpt lat="14.721811" lon="101.214537"><ele>193.9</ele><time>1970-01-01T00:44:37.000Z</time></trkpt><trkpt lat="14.721713" lon="101.214588"><ele>194.4</ele><time>1970-01-01T00:44:41.000Z</time></trkpt><trkpt lat="14.721663" lon="101.214616"><ele>194.7</ele><time>1970-01-01T00:44:42.000Z</time></trkpt><trkpt lat="14.721633" lon="101.214657"><ele>194.9</ele><time>1970-01-01T00:44:43.000Z</time></trkpt><trkpt lat="14.7216" lon="101.214693"><ele>194.8</ele><time>1970-01-01T00:44:44.000Z</time></trkpt><trkpt lat="14.721553" lon="101.214735"><ele>194.7</ele><time>1970-01-01T00:44:45.000Z</time></trkpt><trkpt lat="14.721547" lon="101.214782"><ele>194.6</ele><time>1970-01-01T00:44:46.000Z</time></trkpt><trkpt lat="14.72149" lon="101.21501"><ele>193.6</ele><time>1970-01-01T00:44:48.000Z</time></trkpt><trkpt lat="14.721482" lon="101.215094"><ele>193</ele><time>1970-01-01T00:44:49.000Z</time></trkpt><trkpt lat="14.721481" lon="101.215167"><ele>192.1</ele><time>1970-01-01T00:44:50.000Z</time></trkpt><trkpt lat="14.721496" lon="101.215224"><ele>191.2</ele><time>1970-01-01T00:44:51.000Z</time></trkpt><trkpt lat="14.721489" lon="101.215292"><ele>190.2</ele><time>1970-01-01T00:44:52.000Z</time></trkpt><trkpt lat="14.721467" lon="101.215366"><ele>189.2</ele><time>1970-01-01T00:44:53.000Z</time></trkpt><trkpt lat="14.721457" lon="101.215446"><ele>188.5</ele><time>1970-01-01T00:44:54.000Z</time></trkpt><trkpt lat="14.721478" lon="101.215487"><ele>187.7</ele><time>1970-01-01T00:44:55.000Z</time></trkpt><trkpt lat="14.721468" lon="101.215571"><ele>186.5</ele><time>1970-01-01T00:44:56.000Z</time></trkpt><trkpt lat="14.721473" lon="101.21563"><ele>185.9</ele><time>1970-01-01T00:44:57.000Z</time></trkpt><trkpt lat="14.721489" lon="101.215677"><ele>185.4</ele><time>1970-01-01T00:44:58.000Z</time></trkpt><trkpt lat="14.721485" lon="101.215742"><ele>185.5</ele><time>1970-01-01T00:44:59.000Z</time></trkpt><trkpt lat="14.721482" lon="101.215786"><ele>185.7</ele><time>1970-01-01T00:45:00.000Z</time></trkpt><trkpt lat="14.721471" lon="101.215827"><ele>186.1</ele><time>1970-01-01T00:45:01.000Z</time></trkpt><trkpt lat="14.72146" lon="101.215884"><ele>186.7</ele><time>1970-01-01T00:45:02.000Z</time></trkpt><trkpt lat="14.721427" lon="101.21596"><ele>187.6</ele><time>1970-01-01T00:45:03.000Z</time></trkpt><trkpt lat="14.721399" lon="101.216026"><ele>187.9</ele><time>1970-01-01T00:45:04.000Z</time></trkpt><trkpt lat="14.721388" lon="101.216085"><ele>188.2</ele><time>1970-01-01T00:45:05.000Z</time></trkpt><trkpt lat="14.721377" lon="101.216124"><ele>188.3</ele><time>1970-01-01T00:45:06.000Z</time></trkpt><trkpt lat="14.72136" lon="101.216183"><ele>188.3</ele><time>1970-01-01T00:45:07.000Z</time></trkpt><trkpt lat="14.721347" lon="101.216241"><ele>188.6</ele><time>1970-01-01T00:45:08.000Z</time></trkpt><trkpt lat="14.721341" lon="101.216299"><ele>188.8</ele><time>1970-01-01T00:45:09.000Z</time></trkpt><trkpt lat="14.721335" lon="101.216363"><ele>188.6</ele><time>1970-01-01T00:45:10.000Z</time></trkpt><trkpt lat="14.721323" lon="101.21642"><ele>188.5</ele><time>1970-01-01T00:45:11.000Z</time></trkpt><trkpt lat="14.721322" lon="101.216477"><ele>188.5</ele><time>1970-01-01T00:45:12.000Z</time></trkpt><trkpt lat="14.72132" lon="101.216535"><ele>188.6</ele><time>1970-01-01T00:45:13.000Z</time></trkpt><trkpt lat="14.721332" lon="101.21659"><ele>188.7</ele><time>1970-01-01T00:45:14.000Z</time></trkpt><trkpt lat="14.72135" lon="101.216646"><ele>188.9</ele><time>1970-01-01T00:45:15.000Z</time></trkpt><trkpt lat="14.721374" lon="101.216708"><ele>188.8</ele><time>1970-01-01T00:45:16.000Z</time></trkpt><trkpt lat="14.721404" lon="101.216763"><ele>188.7</ele><time>1970-01-01T00:45:17.000Z</time></trkpt><trkpt lat="14.721429" lon="101.21682"><ele>188.4</ele><time>1970-01-01T00:45:18.000Z</time></trkpt><trkpt lat="14.72146" lon="101.216879"><ele>188.2</ele><time>1970-01-01T00:45:19.000Z</time></trkpt><trkpt lat="14.721489" lon="101.216945"><ele>188.1</ele><time>1970-01-01T00:45:20.000Z</time></trkpt><trkpt lat="14.721525" lon="101.217005"><ele>188</ele><time>1970-01-01T00:45:21.000Z</time></trkpt><trkpt lat="14.721558" lon="101.217066"><ele>187.9</ele><time>1970-01-01T00:45:22.000Z</time></trkpt><trkpt lat="14.721592" lon="101.217134"><ele>188.2</ele><time>1970-01-01T00:45:23.000Z</time></trkpt><trkpt lat="14.721631" lon="101.217195"><ele>188.5</ele><time>1970-01-01T00:45:24.000Z</time></trkpt><trkpt lat="14.721672" lon="101.217254"><ele>188.7</ele><time>1970-01-01T00:45:25.000Z</time></trkpt><trkpt lat="14.721714" lon="101.217314"><ele>188.9</ele><time>1970-01-01T00:45:26.000Z</time></trkpt><trkpt lat="14.72175" lon="101.217372"><ele>189</ele><time>1970-01-01T00:45:27.000Z</time></trkpt><trkpt lat="14.721783" lon="101.217433"><ele>189</ele><time>1970-01-01T00:45:28.000Z</time></trkpt><trkpt lat="14.721808" lon="101.217492"><ele>189</ele><time>1970-01-01T00:45:29.000Z</time></trkpt><trkpt lat="14.721811" lon="101.217574"><ele>189</ele><time>1970-01-01T00:45:30.000Z</time></trkpt><trkpt lat="14.721811" lon="101.217643"><ele>189.1</ele><time>1970-01-01T00:45:31.000Z</time></trkpt><trkpt lat="14.721797" lon="101.217705"><ele>189.3</ele><time>1970-01-01T00:45:32.000Z</time></trkpt><trkpt lat="14.721783" lon="101.217761"><ele>189.7</ele><time>1970-01-01T00:45:33.000Z</time></trkpt><trkpt lat="14.721776" lon="101.217816"><ele>190.6</ele><time>1970-01-01T00:45:34.000Z</time></trkpt><trkpt lat="14.721779" lon="101.217844"><ele>191</ele><time>1970-01-01T00:45:35.000Z</time></trkpt><trkpt lat="14.721773" lon="101.217894"><ele>191.9</ele><time>1970-01-01T00:45:36.000Z</time></trkpt><trkpt lat="14.721778" lon="101.21793"><ele>192.6</ele><time>1970-01-01T00:45:37.000Z</time></trkpt><trkpt lat="14.721787" lon="101.21796"><ele>192.8</ele><time>1970-01-01T00:45:38.000Z</time></trkpt><trkpt lat="14.721781" lon="101.218"><ele>193.2</ele><time>1970-01-01T00:45:39.000Z</time></trkpt><trkpt lat="14.721775" lon="101.218047"><ele>194.1</ele><time>1970-01-01T00:45:40.000Z</time></trkpt><trkpt lat="14.721813" lon="101.218032"><ele>193.8</ele><time>1970-01-01T00:45:41.000Z</time></trkpt><trkpt lat="14.721855" lon="101.218012"><ele>193.2</ele><time>1970-01-01T00:45:42.000Z</time></trkpt><trkpt lat="14.721914" lon="101.217996"><ele>192.4</ele><time>1970-01-01T00:45:44.000Z</time></trkpt><trkpt lat="14.721944" lon="101.218"><ele>192.1</ele><time>1970-01-01T00:45:45.000Z</time></trkpt><trkpt lat="14.721983" lon="101.218001"><ele>191.9</ele><time>1970-01-01T00:45:46.000Z</time></trkpt><trkpt lat="14.722023" lon="101.218002"><ele>191.6</ele><time>1970-01-01T00:45:47.000Z</time></trkpt><trkpt lat="14.722068" lon="101.218003"><ele>191.4</ele><time>1970-01-01T00:45:48.000Z</time></trkpt><trkpt lat="14.722113" lon="101.218004"><ele>191.2</ele><time>1970-01-01T00:45:49.000Z</time></trkpt><trkpt lat="14.722156" lon="101.218007"><ele>191</ele><time>1970-01-01T00:45:50.000Z</time></trkpt><trkpt lat="14.72224" lon="101.218005"><ele>190.6</ele><time>1970-01-01T00:45:51.000Z</time></trkpt><trkpt lat="14.722287" lon="101.218015"><ele>190.3</ele><time>1970-01-01T00:45:52.000Z</time></trkpt><trkpt lat="14.722342" lon="101.218026"><ele>190.1</ele><time>1970-01-01T00:45:53.000Z</time></trkpt><trkpt lat="14.722396" lon="101.218038"><ele>189.8</ele><time>1970-01-01T00:45:54.000Z</time></trkpt><trkpt lat="14.722438" lon="101.21806"><ele>189.4</ele><time>1970-01-01T00:45:55.000Z</time></trkpt><trkpt lat="14.722492" lon="101.218076"><ele>189.1</ele><time>1970-01-01T00:45:56.000Z</time></trkpt><trkpt lat="14.722546" lon="101.218096"><ele>188.9</ele><time>1970-01-01T00:45:57.000Z</time></trkpt><trkpt lat="14.722603" lon="101.218114"><ele>188.7</ele><time>1970-01-01T00:45:58.000Z</time></trkpt><trkpt lat="14.722657" lon="101.218136"><ele>188.5</ele><time>1970-01-01T00:45:59.000Z</time></trkpt><trkpt lat="14.722707" lon="101.218163"><ele>188.3</ele><time>1970-01-01T00:46:00.000Z</time></trkpt><trkpt lat="14.722757" lon="101.218192"><ele>188.2</ele><time>1970-01-01T00:46:01.000Z</time></trkpt><trkpt lat="14.722804" lon="101.218221"><ele>188.2</ele><time>1970-01-01T00:46:02.000Z</time></trkpt><trkpt lat="14.722854" lon="101.218239"><ele>188.2</ele><time>1970-01-01T00:46:03.000Z</time></trkpt><trkpt lat="14.722902" lon="101.218268"><ele>187.9</ele><time>1970-01-01T00:46:04.000Z</time></trkpt><trkpt lat="14.722948" lon="101.2183"><ele>187.5</ele><time>1970-01-01T00:46:05.000Z</time></trkpt><trkpt lat="14.722994" lon="101.218335"><ele>187.2</ele><time>1970-01-01T00:46:06.000Z</time></trkpt><trkpt lat="14.723042" lon="101.218373"><ele>187.1</ele><time>1970-01-01T00:46:07.000Z</time></trkpt><trkpt lat="14.723095" lon="101.218414"><ele>187</ele><time>1970-01-01T00:46:08.000Z</time></trkpt><trkpt lat="14.723149" lon="101.218447"><ele>186.8</ele><time>1970-01-01T00:46:09.000Z</time></trkpt><trkpt lat="14.723204" lon="101.218485"><ele>186.6</ele><time>1970-01-01T00:46:10.000Z</time></trkpt><trkpt lat="14.723255" lon="101.218524"><ele>186.8</ele><time>1970-01-01T00:46:11.000Z</time></trkpt><trkpt lat="14.7233" lon="101.21856"><ele>186.8</ele><time>1970-01-01T00:46:12.000Z</time></trkpt><trkpt lat="14.72336" lon="101.218585"><ele>186.8</ele><time>1970-01-01T00:46:13.000Z</time></trkpt><trkpt lat="14.723398" lon="101.218643"><ele>187.2</ele><time>1970-01-01T00:46:14.000Z</time></trkpt><trkpt lat="14.723449" lon="101.218677"><ele>187</ele><time>1970-01-01T00:46:15.000Z</time></trkpt><trkpt lat="14.723492" lon="101.218717"><ele>186.9</ele><time>1970-01-01T00:46:16.000Z</time></trkpt><trkpt lat="14.723544" lon="101.218746"><ele>186.8</ele><time>1970-01-01T00:46:17.000Z</time></trkpt><trkpt lat="14.723593" lon="101.218781"><ele>186.6</ele><time>1970-01-01T00:46:18.000Z</time></trkpt><trkpt lat="14.723642" lon="101.218825"><ele>186.4</ele><time>1970-01-01T00:46:19.000Z</time></trkpt><trkpt lat="14.723696" lon="101.218858"><ele>186.3</ele><time>1970-01-01T00:46:20.000Z</time></trkpt><trkpt lat="14.723745" lon="101.218898"><ele>186.2</ele><time>1970-01-01T00:46:21.000Z</time></trkpt><trkpt lat="14.723792" lon="101.21893"><ele>186.1</ele><time>1970-01-01T00:46:22.000Z</time></trkpt><trkpt lat="14.723841" lon="101.218957"><ele>186.2</ele><time>1970-01-01T00:46:23.000Z</time></trkpt><trkpt lat="14.723876" lon="101.218989"><ele>186.3</ele><time>1970-01-01T00:46:24.000Z</time></trkpt><trkpt lat="14.723923" lon="101.219014"><ele>186.5</ele><time>1970-01-01T00:46:25.000Z</time></trkpt><trkpt lat="14.72396" lon="101.219074"><ele>187</ele><time>1970-01-01T00:46:26.000Z</time></trkpt><trkpt lat="14.724006" lon="101.219103"><ele>187.2</ele><time>1970-01-01T00:46:27.000Z</time></trkpt><trkpt lat="14.724044" lon="101.219134"><ele>187.4</ele><time>1970-01-01T00:46:28.000Z</time></trkpt><trkpt lat="14.724084" lon="101.21916"><ele>187.6</ele><time>1970-01-01T00:46:29.000Z</time></trkpt><trkpt lat="14.72413" lon="101.219157"><ele>187.7</ele><time>1970-01-01T00:46:30.000Z</time></trkpt><trkpt lat="14.724166" lon="101.219164"><ele>187.7</ele><time>1970-01-01T00:46:31.000Z</time></trkpt><trkpt lat="14.724207" lon="101.219172"><ele>187.7</ele><time>1970-01-01T00:46:32.000Z</time></trkpt><trkpt lat="14.724245" lon="101.219192"><ele>187.8</ele><time>1970-01-01T00:46:33.000Z</time></trkpt><trkpt lat="14.724279" lon="101.219218"><ele>188</ele><time>1970-01-01T00:46:34.000Z</time></trkpt><trkpt lat="14.724305" lon="101.219244"><ele>188.1</ele><time>1970-01-01T00:46:35.000Z</time></trkpt><trkpt lat="14.724335" lon="101.219277"><ele>188.1</ele><time>1970-01-01T00:46:36.000Z</time></trkpt><trkpt lat="14.724357" lon="101.219312"><ele>188</ele><time>1970-01-01T00:46:37.000Z</time></trkpt><trkpt lat="14.724401" lon="101.219333"><ele>187.6</ele><time>1970-01-01T00:46:38.000Z</time></trkpt><trkpt lat="14.724446" lon="101.219343"><ele>187.2</ele><time>1970-01-01T00:46:39.000Z</time></trkpt><trkpt lat="14.724483" lon="101.219382"><ele>186.7</ele><time>1970-01-01T00:46:40.000Z</time></trkpt><trkpt lat="14.724537" lon="101.219403"><ele>186.2</ele><time>1970-01-01T00:46:41.000Z</time></trkpt><trkpt lat="14.724589" lon="101.219435"><ele>185.7</ele><time>1970-01-01T00:46:42.000Z</time></trkpt><trkpt lat="14.724645" lon="101.219471"><ele>185.2</ele><time>1970-01-01T00:46:43.000Z</time></trkpt><trkpt lat="14.724705" lon="101.21947"><ele>184.9</ele><time>1970-01-01T00:46:44.000Z</time></trkpt><trkpt lat="14.72476" lon="101.219496"><ele>184.6</ele><time>1970-01-01T00:46:45.000Z</time></trkpt><trkpt lat="14.724823" lon="101.219506"><ele>184.6</ele><time>1970-01-01T00:46:46.000Z</time></trkpt><trkpt lat="14.724882" lon="101.219528"><ele>184.8</ele><time>1970-01-01T00:46:47.000Z</time></trkpt><trkpt lat="14.724931" lon="101.219548"><ele>185.2</ele><time>1970-01-01T00:46:48.000Z</time></trkpt><trkpt lat="14.724988" lon="101.219565"><ele>185.6</ele><time>1970-01-01T00:46:49.000Z</time></trkpt><trkpt lat="14.725039" lon="101.219583"><ele>185.9</ele><time>1970-01-01T00:46:50.000Z</time></trkpt><trkpt lat="14.725098" lon="101.219603"><ele>186.1</ele><time>1970-01-01T00:46:51.000Z</time></trkpt><trkpt lat="14.725143" lon="101.219636"><ele>186.3</ele><time>1970-01-01T00:46:52.000Z</time></trkpt><trkpt lat="14.725196" lon="101.219655"><ele>186.4</ele><time>1970-01-01T00:46:53.000Z</time></trkpt><trkpt lat="14.725246" lon="101.219678"><ele>186.5</ele><time>1970-01-01T00:46:54.000Z</time></trkpt><trkpt lat="14.725294" lon="101.219705"><ele>186.4</ele><time>1970-01-01T00:46:55.000Z</time></trkpt><trkpt lat="14.725343" lon="101.219727"><ele>186.3</ele><time>1970-01-01T00:46:56.000Z</time></trkpt><trkpt lat="14.725386" lon="101.219751"><ele>186.2</ele><time>1970-01-01T00:46:57.000Z</time></trkpt><trkpt lat="14.725431" lon="101.219777"><ele>186.2</ele><time>1970-01-01T00:46:58.000Z</time></trkpt><trkpt lat="14.725468" lon="101.219812"><ele>186.2</ele><time>1970-01-01T00:46:59.000Z</time></trkpt><trkpt lat="14.725512" lon="101.21984"><ele>186.2</ele><time>1970-01-01T00:47:00.000Z</time></trkpt><trkpt lat="14.725546" lon="101.219876"><ele>186.1</ele><time>1970-01-01T00:47:01.000Z</time></trkpt><trkpt lat="14.725585" lon="101.219899"><ele>186</ele><time>1970-01-01T00:47:02.000Z</time></trkpt><trkpt lat="14.725626" lon="101.219928"><ele>185.9</ele><time>1970-01-01T00:47:03.000Z</time></trkpt><trkpt lat="14.72567" lon="101.219952"><ele>185.9</ele><time>1970-01-01T00:47:04.000Z</time></trkpt><trkpt lat="14.725719" lon="101.219987"><ele>186</ele><time>1970-01-01T00:47:05.000Z</time></trkpt><trkpt lat="14.725768" lon="101.220023"><ele>186.2</ele><time>1970-01-01T00:47:06.000Z</time></trkpt><trkpt lat="14.725812" lon="101.220063"><ele>186.4</ele><time>1970-01-01T00:47:07.000Z</time></trkpt><trkpt lat="14.725856" lon="101.22009"><ele>186.6</ele><time>1970-01-01T00:47:08.000Z</time></trkpt><trkpt lat="14.725904" lon="101.220115"><ele>186.9</ele><time>1970-01-01T00:47:09.000Z</time></trkpt><trkpt lat="14.725958" lon="101.220137"><ele>187.1</ele><time>1970-01-01T00:47:10.000Z</time></trkpt><trkpt lat="14.725996" lon="101.220185"><ele>187.1</ele><time>1970-01-01T00:47:11.000Z</time></trkpt><trkpt lat="14.726038" lon="101.220242"><ele>187</ele><time>1970-01-01T00:47:12.000Z</time></trkpt><trkpt lat="14.726102" lon="101.220268"><ele>187</ele><time>1970-01-01T00:47:13.000Z</time></trkpt><trkpt lat="14.726154" lon="101.220312"><ele>187.1</ele><time>1970-01-01T00:47:14.000Z</time></trkpt><trkpt lat="14.726207" lon="101.220345"><ele>187.2</ele><time>1970-01-01T00:47:15.000Z</time></trkpt><trkpt lat="14.726263" lon="101.220383"><ele>187.5</ele><time>1970-01-01T00:47:16.000Z</time></trkpt><trkpt lat="14.726311" lon="101.220426"><ele>187.8</ele><time>1970-01-01T00:47:17.000Z</time></trkpt><trkpt lat="14.726357" lon="101.220473"><ele>187.8</ele><time>1970-01-01T00:47:18.000Z</time></trkpt><trkpt lat="14.726398" lon="101.220514"><ele>187.4</ele><time>1970-01-01T00:47:19.000Z</time></trkpt><trkpt lat="14.72644" lon="101.220555"><ele>187.1</ele><time>1970-01-01T00:47:20.000Z</time></trkpt><trkpt lat="14.726481" lon="101.220601"><ele>186.9</ele><time>1970-01-01T00:47:21.000Z</time></trkpt><trkpt lat="14.726529" lon="101.220638"><ele>186.6</ele><time>1970-01-01T00:47:22.000Z</time></trkpt><trkpt lat="14.726577" lon="101.220677"><ele>186.4</ele><time>1970-01-01T00:47:23.000Z</time></trkpt><trkpt lat="14.726623" lon="101.220721"><ele>186.2</ele><time>1970-01-01T00:47:24.000Z</time></trkpt><trkpt lat="14.72667" lon="101.220764"><ele>185.9</ele><time>1970-01-01T00:47:25.000Z</time></trkpt><trkpt lat="14.726711" lon="101.220813"><ele>185.5</ele><time>1970-01-01T00:47:26.000Z</time></trkpt><trkpt lat="14.726761" lon="101.220855"><ele>185.3</ele><time>1970-01-01T00:47:27.000Z</time></trkpt><trkpt lat="14.72681" lon="101.220898"><ele>185</ele><time>1970-01-01T00:47:28.000Z</time></trkpt><trkpt lat="14.726859" lon="101.220946"><ele>184.9</ele><time>1970-01-01T00:47:29.000Z</time></trkpt><trkpt lat="14.726907" lon="101.220993"><ele>184.8</ele><time>1970-01-01T00:47:30.000Z</time></trkpt><trkpt lat="14.726952" lon="101.221047"><ele>185</ele><time>1970-01-01T00:47:31.000Z</time></trkpt><trkpt lat="14.726997" lon="101.221101"><ele>185.1</ele><time>1970-01-01T00:47:32.000Z</time></trkpt><trkpt lat="14.727049" lon="101.22115"><ele>185</ele><time>1970-01-01T00:47:33.000Z</time></trkpt><trkpt lat="14.727094" lon="101.221207"><ele>184.6</ele><time>1970-01-01T00:47:34.000Z</time></trkpt><trkpt lat="14.727142" lon="101.221259"><ele>184</ele><time>1970-01-01T00:47:35.000Z</time></trkpt><trkpt lat="14.727198" lon="101.221306"><ele>183.7</ele><time>1970-01-01T00:47:36.000Z</time></trkpt><trkpt lat="14.727241" lon="101.221358"><ele>183.5</ele><time>1970-01-01T00:47:37.000Z</time></trkpt><trkpt lat="14.727281" lon="101.221418"><ele>183.2</ele><time>1970-01-01T00:47:38.000Z</time></trkpt><trkpt lat="14.727321" lon="101.221482"><ele>183.2</ele><time>1970-01-01T00:47:39.000Z</time></trkpt><trkpt lat="14.727362" lon="101.221543"><ele>183.4</ele><time>1970-01-01T00:47:40.000Z</time></trkpt><trkpt lat="14.727396" lon="101.221606"><ele>183.4</ele><time>1970-01-01T00:47:41.000Z</time></trkpt><trkpt lat="14.727443" lon="101.221647"><ele>183.2</ele><time>1970-01-01T00:47:42.000Z</time></trkpt><trkpt lat="14.727463" lon="101.22168"><ele>183.1</ele><time>1970-01-01T00:47:43.000Z</time></trkpt><trkpt lat="14.727487" lon="101.221732"><ele>182.8</ele><time>1970-01-01T00:47:44.000Z</time></trkpt><trkpt lat="14.72748" lon="101.221777"><ele>182.7</ele><time>1970-01-01T00:47:45.000Z</time></trkpt><trkpt lat="14.727467" lon="101.221803"><ele>182.6</ele><time>1970-01-01T00:47:46.000Z</time></trkpt><trkpt lat="14.72749" lon="101.22178"><ele>182.6</ele><time>1970-01-01T00:47:47.000Z</time></trkpt><trkpt lat="14.727497" lon="101.221809"><ele>182.5</ele><time>1970-01-01T00:47:55.000Z</time></trkpt><trkpt lat="14.727549" lon="101.22179"><ele>182.6</ele><time>1970-01-01T00:47:58.000Z</time></trkpt><trkpt lat="14.727603" lon="101.221796"><ele>183</ele><time>1970-01-01T00:48:00.000Z</time></trkpt><trkpt lat="14.727651" lon="101.221807"><ele>183.1</ele><time>1970-01-01T00:48:02.000Z</time></trkpt><trkpt lat="14.727705" lon="101.221832"><ele>183.3</ele><time>1970-01-01T00:48:04.000Z</time></trkpt><trkpt lat="14.727744" lon="101.221849"><ele>183.4</ele><time>1970-01-01T00:48:05.000Z</time></trkpt><trkpt lat="14.727789" lon="101.221862"><ele>183.5</ele><time>1970-01-01T00:48:06.000Z</time></trkpt><trkpt lat="14.727836" lon="101.221875"><ele>183.6</ele><time>1970-01-01T00:48:07.000Z</time></trkpt><trkpt lat="14.727883" lon="101.221891"><ele>183.8</ele><time>1970-01-01T00:48:08.000Z</time></trkpt><trkpt lat="14.727925" lon="101.22191"><ele>184</ele><time>1970-01-01T00:48:09.000Z</time></trkpt><trkpt lat="14.727957" lon="101.221929"><ele>184.2</ele><time>1970-01-01T00:48:10.000Z</time></trkpt><trkpt lat="14.727981" lon="101.221946"><ele>184.3</ele><time>1970-01-01T00:48:11.000Z</time></trkpt><trkpt lat="14.728005" lon="101.221962"><ele>184.5</ele><time>1970-01-01T00:48:13.000Z</time></trkpt><trkpt lat="14.727989" lon="101.222"><ele>184.7</ele><time>1970-01-01T00:48:16.000Z</time></trkpt><trkpt lat="14.72797" lon="101.222029"><ele>184.8</ele><time>1970-01-01T00:48:17.000Z</time></trkpt><trkpt lat="14.727951" lon="101.222065"><ele>184.9</ele><time>1970-01-01T00:48:18.000Z</time></trkpt><trkpt lat="14.727936" lon="101.222102"><ele>185.1</ele><time>1970-01-01T00:48:19.000Z</time></trkpt><trkpt lat="14.727911" lon="101.222189"><ele>185.3</ele><time>1970-01-01T00:48:20.000Z</time></trkpt><trkpt lat="14.727903" lon="101.222245"><ele>185.3</ele><time>1970-01-01T00:48:21.000Z</time></trkpt><trkpt lat="14.72791" lon="101.22229"><ele>185.2</ele><time>1970-01-01T00:48:22.000Z</time></trkpt><trkpt lat="14.72791" lon="101.222342"><ele>185.4</ele><time>1970-01-01T00:48:23.000Z</time></trkpt><trkpt lat="14.727915" lon="101.222382"><ele>185.6</ele><time>1970-01-01T00:48:24.000Z</time></trkpt><trkpt lat="14.727915" lon="101.222427"><ele>186</ele><time>1970-01-01T00:48:25.000Z</time></trkpt><trkpt lat="14.727915" lon="101.22248"><ele>186.5</ele><time>1970-01-01T00:48:26.000Z</time></trkpt><trkpt lat="14.727917" lon="101.222524"><ele>186.6</ele><time>1970-01-01T00:48:27.000Z</time></trkpt><trkpt lat="14.727936" lon="101.222554"><ele>186.7</ele><time>1970-01-01T00:48:28.000Z</time></trkpt><trkpt lat="14.727941" lon="101.222602"><ele>187.1</ele><time>1970-01-01T00:48:29.000Z</time></trkpt><trkpt lat="14.727952" lon="101.222649"><ele>187.4</ele><time>1970-01-01T00:48:30.000Z</time></trkpt><trkpt lat="14.727965" lon="101.222692"><ele>187.5</ele><time>1970-01-01T00:48:31.000Z</time></trkpt><trkpt lat="14.727983" lon="101.222728"><ele>187.7</ele><time>1970-01-01T00:48:32.000Z</time></trkpt><trkpt lat="14.727995" lon="101.222772"><ele>188</ele><time>1970-01-01T00:48:33.000Z</time></trkpt><trkpt lat="14.728009" lon="101.222811"><ele>188.1</ele><time>1970-01-01T00:48:34.000Z</time></trkpt><trkpt lat="14.728023" lon="101.222847"><ele>188.2</ele><time>1970-01-01T00:48:35.000Z</time></trkpt><trkpt lat="14.728051" lon="101.222878"><ele>188.2</ele><time>1970-01-01T00:48:36.000Z</time></trkpt><trkpt lat="14.728072" lon="101.222907"><ele>188.1</ele><time>1970-01-01T00:48:37.000Z</time></trkpt><trkpt lat="14.728093" lon="101.222939"><ele>188</ele><time>1970-01-01T00:48:38.000Z</time></trkpt><trkpt lat="14.728112" lon="101.222972"><ele>188.1</ele><time>1970-01-01T00:48:39.000Z</time></trkpt><trkpt lat="14.72813" lon="101.223003"><ele>188.1</ele><time>1970-01-01T00:48:40.000Z</time></trkpt><trkpt lat="14.728146" lon="101.223038"><ele>188.2</ele><time>1970-01-01T00:48:41.000Z</time></trkpt><trkpt lat="14.728109" lon="101.223136"><ele>188.7</ele><time>1970-01-01T00:48:42.000Z</time></trkpt><trkpt lat="14.728104" lon="101.223175"><ele>189</ele><time>1970-01-01T00:48:43.000Z</time></trkpt><trkpt lat="14.728095" lon="101.223226"><ele>189.1</ele><time>1970-01-01T00:48:44.000Z</time></trkpt><trkpt lat="14.728078" lon="101.223275"><ele>189.3</ele><time>1970-01-01T00:48:45.000Z</time></trkpt><trkpt lat="14.728068" lon="101.223322"><ele>189.4</ele><time>1970-01-01T00:48:46.000Z</time></trkpt><trkpt lat="14.728052" lon="101.223372"><ele>189.5</ele><time>1970-01-01T00:48:48.000Z</time></trkpt><trkpt lat="14.728046" lon="101.223439"><ele>189.8</ele><time>1970-01-01T00:48:50.000Z</time></trkpt><trkpt lat="14.728055" lon="101.223487"><ele>190</ele><time>1970-01-01T00:48:52.000Z</time></trkpt><trkpt lat="14.728047" lon="101.223529"><ele>190.3</ele><time>1970-01-01T00:48:53.000Z</time></trkpt><trkpt lat="14.728046" lon="101.223566"><ele>190.5</ele><time>1970-01-01T00:48:54.000Z</time></trkpt><trkpt lat="14.728038" lon="101.223611"><ele>190.6</ele><time>1970-01-01T00:48:55.000Z</time></trkpt><trkpt lat="14.728029" lon="101.223658"><ele>190.9</ele><time>1970-01-01T00:48:56.000Z</time></trkpt><trkpt lat="14.728021" lon="101.223696"><ele>191.1</ele><time>1970-01-01T00:48:57.000Z</time></trkpt><trkpt lat="14.728016" lon="101.223726"><ele>191.3</ele><time>1970-01-01T00:48:58.000Z</time></trkpt><trkpt lat="14.728008" lon="101.223759"><ele>191.5</ele><time>1970-01-01T00:48:59.000Z</time></trkpt><trkpt lat="14.727998" lon="101.223793"><ele>191.7</ele><time>1970-01-01T00:49:00.000Z</time></trkpt><trkpt lat="14.727984" lon="101.223837"><ele>191.8</ele><time>1970-01-01T00:49:01.000Z</time></trkpt><trkpt lat="14.727971" lon="101.223888"><ele>191.7</ele><time>1970-01-01T00:49:02.000Z</time></trkpt><trkpt lat="14.727961" lon="101.223933"><ele>191.6</ele><time>1970-01-01T00:49:03.000Z</time></trkpt><trkpt lat="14.727953" lon="101.223972"><ele>191.5</ele><time>1970-01-01T00:49:04.000Z</time></trkpt><trkpt lat="14.727944" lon="101.224012"><ele>191.4</ele><time>1970-01-01T00:49:05.000Z</time></trkpt><trkpt lat="14.727939" lon="101.224087"><ele>191.3</ele><time>1970-01-01T00:49:06.000Z</time></trkpt><trkpt lat="14.727932" lon="101.224132"><ele>191.2</ele><time>1970-01-01T00:49:07.000Z</time></trkpt><trkpt lat="14.727915" lon="101.22419"><ele>191.1</ele><time>1970-01-01T00:49:08.000Z</time></trkpt><trkpt lat="14.727914" lon="101.224231"><ele>191.2</ele><time>1970-01-01T00:49:09.000Z</time></trkpt><trkpt lat="14.727911" lon="101.224274"><ele>191.3</ele><time>1970-01-01T00:49:10.000Z</time></trkpt><trkpt lat="14.727896" lon="101.224329"><ele>190.8</ele><time>1970-01-01T00:49:11.000Z</time></trkpt><trkpt lat="14.727888" lon="101.224375"><ele>190.5</ele><time>1970-01-01T00:49:12.000Z</time></trkpt><trkpt lat="14.727875" lon="101.224433"><ele>190.4</ele><time>1970-01-01T00:49:13.000Z</time></trkpt><trkpt lat="14.727856" lon="101.224499"><ele>190.4</ele><time>1970-01-01T00:49:14.000Z</time></trkpt><trkpt lat="14.72788" lon="101.224524"><ele>190.4</ele><time>1970-01-01T00:49:15.000Z</time></trkpt><trkpt lat="14.727882" lon="101.224575"><ele>190.2</ele><time>1970-01-01T00:49:16.000Z</time></trkpt><trkpt lat="14.727877" lon="101.224632"><ele>190.1</ele><time>1970-01-01T00:49:17.000Z</time></trkpt><trkpt lat="14.727869" lon="101.224681"><ele>190.4</ele><time>1970-01-01T00:49:18.000Z</time></trkpt><trkpt lat="14.727862" lon="101.224719"><ele>190.7</ele><time>1970-01-01T00:49:19.000Z</time></trkpt><trkpt lat="14.727852" lon="101.224757"><ele>191.1</ele><time>1970-01-01T00:49:20.000Z</time></trkpt><trkpt lat="14.727847" lon="101.224799"><ele>191.6</ele><time>1970-01-01T00:49:21.000Z</time></trkpt><trkpt lat="14.727834" lon="101.224848"><ele>191.7</ele><time>1970-01-01T00:49:22.000Z</time></trkpt><trkpt lat="14.727825" lon="101.224901"><ele>192</ele><time>1970-01-01T00:49:23.000Z</time></trkpt><trkpt lat="14.7278" lon="101.224975"><ele>192.5</ele><time>1970-01-01T00:49:24.000Z</time></trkpt><trkpt lat="14.72779" lon="101.225015"><ele>192.3</ele><time>1970-01-01T00:49:25.000Z</time></trkpt><trkpt lat="14.727778" lon="101.225053"><ele>192.1</ele><time>1970-01-01T00:49:26.000Z</time></trkpt><trkpt lat="14.727769" lon="101.225096"><ele>192</ele><time>1970-01-01T00:49:27.000Z</time></trkpt><trkpt lat="14.727766" lon="101.225137"><ele>191.8</ele><time>1970-01-01T00:49:28.000Z</time></trkpt><trkpt lat="14.727761" lon="101.225185"><ele>191.7</ele><time>1970-01-01T00:49:29.000Z</time></trkpt><trkpt lat="14.727756" lon="101.225255"><ele>191.4</ele><time>1970-01-01T00:49:30.000Z</time></trkpt><trkpt lat="14.727751" lon="101.225293"><ele>191.6</ele><time>1970-01-01T00:49:31.000Z</time></trkpt><trkpt lat="14.72775" lon="101.225334"><ele>191.7</ele><time>1970-01-01T00:49:32.000Z</time></trkpt><trkpt lat="14.72775" lon="101.225375"><ele>192.1</ele><time>1970-01-01T00:49:33.000Z</time></trkpt><trkpt lat="14.727733" lon="101.225415"><ele>192.6</ele><time>1970-01-01T00:49:34.000Z</time></trkpt><trkpt lat="14.72773" lon="101.225465"><ele>193.1</ele><time>1970-01-01T00:49:35.000Z</time></trkpt><trkpt lat="14.727718" lon="101.225523"><ele>193.5</ele><time>1970-01-01T00:49:36.000Z</time></trkpt><trkpt lat="14.727718" lon="101.225554"><ele>193.7</ele><time>1970-01-01T00:49:37.000Z</time></trkpt><trkpt lat="14.727701" lon="101.225613"><ele>194</ele><time>1970-01-01T00:49:38.000Z</time></trkpt><trkpt lat="14.727695" lon="101.225656"><ele>194.3</ele><time>1970-01-01T00:49:39.000Z</time></trkpt><trkpt lat="14.72769" lon="101.225697"><ele>194.7</ele><time>1970-01-01T00:49:40.000Z</time></trkpt><trkpt lat="14.727673" lon="101.225735"><ele>195.2</ele><time>1970-01-01T00:49:41.000Z</time></trkpt><trkpt lat="14.727659" lon="101.225786"><ele>196</ele><time>1970-01-01T00:49:42.000Z</time></trkpt><trkpt lat="14.727641" lon="101.225841"><ele>196.4</ele><time>1970-01-01T00:49:43.000Z</time></trkpt><trkpt lat="14.727631" lon="101.225898"><ele>196.7</ele><time>1970-01-01T00:49:44.000Z</time></trkpt><trkpt lat="14.727629" lon="101.225949"><ele>196.9</ele><time>1970-01-01T00:49:45.000Z</time></trkpt><trkpt lat="14.727623" lon="101.225996"><ele>196.9</ele><time>1970-01-01T00:49:46.000Z</time></trkpt><trkpt lat="14.727618" lon="101.226042"><ele>196.8</ele><time>1970-01-01T00:49:47.000Z</time></trkpt><trkpt lat="14.727613" lon="101.226081"><ele>196.7</ele><time>1970-01-01T00:49:48.000Z</time></trkpt><trkpt lat="14.727607" lon="101.226117"><ele>196.6</ele><time>1970-01-01T00:49:49.000Z</time></trkpt><trkpt lat="14.727597" lon="101.226153"><ele>196.4</ele><time>1970-01-01T00:49:50.000Z</time></trkpt><trkpt lat="14.727589" lon="101.226188"><ele>196.3</ele><time>1970-01-01T00:49:51.000Z</time></trkpt><trkpt lat="14.727579" lon="101.22623"><ele>196.3</ele><time>1970-01-01T00:49:52.000Z</time></trkpt><trkpt lat="14.727567" lon="101.22629"><ele>196.1</ele><time>1970-01-01T00:49:53.000Z</time></trkpt><trkpt lat="14.727558" lon="101.226344"><ele>196</ele><time>1970-01-01T00:49:54.000Z</time></trkpt><trkpt lat="14.727549" lon="101.226385"><ele>196</ele><time>1970-01-01T00:49:55.000Z</time></trkpt><trkpt lat="14.727537" lon="101.226434"><ele>195.9</ele><time>1970-01-01T00:49:56.000Z</time></trkpt><trkpt lat="14.72752" lon="101.226485"><ele>195.6</ele><time>1970-01-01T00:49:57.000Z</time></trkpt><trkpt lat="14.727508" lon="101.226526"><ele>195.2</ele><time>1970-01-01T00:49:58.000Z</time></trkpt><trkpt lat="14.7275" lon="101.226568"><ele>194.7</ele><time>1970-01-01T00:49:59.000Z</time></trkpt><trkpt lat="14.727471" lon="101.226634"><ele>194.2</ele><time>1970-01-01T00:50:00.000Z</time></trkpt><trkpt lat="14.727455" lon="101.226683"><ele>193.9</ele><time>1970-01-01T00:50:01.000Z</time></trkpt><trkpt lat="14.727433" lon="101.226735"><ele>193.7</ele><time>1970-01-01T00:50:02.000Z</time></trkpt><trkpt lat="14.727401" lon="101.226792"><ele>193.6</ele><time>1970-01-01T00:50:03.000Z</time></trkpt><trkpt lat="14.727392" lon="101.226827"><ele>193.7</ele><time>1970-01-01T00:50:04.000Z</time></trkpt><trkpt lat="14.727389" lon="101.226858"><ele>193.9</ele><time>1970-01-01T00:50:05.000Z</time></trkpt><trkpt lat="14.72738" lon="101.226917"><ele>194.3</ele><time>1970-01-01T00:50:06.000Z</time></trkpt><trkpt lat="14.727376" lon="101.226962"><ele>194.4</ele><time>1970-01-01T00:50:07.000Z</time></trkpt><trkpt lat="14.727369" lon="101.227013"><ele>194.5</ele><time>1970-01-01T00:50:08.000Z</time></trkpt><trkpt lat="14.727354" lon="101.227067"><ele>194.8</ele><time>1970-01-01T00:50:09.000Z</time></trkpt><trkpt lat="14.727343" lon="101.227116"><ele>195.1</ele><time>1970-01-01T00:50:10.000Z</time></trkpt><trkpt lat="14.727343" lon="101.227165"><ele>195.4</ele><time>1970-01-01T00:50:11.000Z</time></trkpt><trkpt lat="14.727337" lon="101.227207"><ele>195.6</ele><time>1970-01-01T00:50:12.000Z</time></trkpt><trkpt lat="14.727335" lon="101.227256"><ele>196</ele><time>1970-01-01T00:50:13.000Z</time></trkpt><trkpt lat="14.727336" lon="101.227306"><ele>196.3</ele><time>1970-01-01T00:50:14.000Z</time></trkpt><trkpt lat="14.72733" lon="101.227358"><ele>196.6</ele><time>1970-01-01T00:50:15.000Z</time></trkpt><trkpt lat="14.727318" lon="101.227414"><ele>196.8</ele><time>1970-01-01T00:50:16.000Z</time></trkpt><trkpt lat="14.727312" lon="101.227462"><ele>196.8</ele><time>1970-01-01T00:50:17.000Z</time></trkpt><trkpt lat="14.7273" lon="101.227519"><ele>196.6</ele><time>1970-01-01T00:50:18.000Z</time></trkpt><trkpt lat="14.727283" lon="101.227582"><ele>196.1</ele><time>1970-01-01T00:50:19.000Z</time></trkpt><trkpt lat="14.727277" lon="101.227632"><ele>195.6</ele><time>1970-01-01T00:50:20.000Z</time></trkpt><trkpt lat="14.727269" lon="101.227681"><ele>195.3</ele><time>1970-01-01T00:50:21.000Z</time></trkpt><trkpt lat="14.727265" lon="101.227731"><ele>195.1</ele><time>1970-01-01T00:50:22.000Z</time></trkpt><trkpt lat="14.727269" lon="101.227774"><ele>195.1</ele><time>1970-01-01T00:50:23.000Z</time></trkpt><trkpt lat="14.727268" lon="101.227817"><ele>195.1</ele><time>1970-01-01T00:50:24.000Z</time></trkpt><trkpt lat="14.727262" lon="101.227868"><ele>195.1</ele><time>1970-01-01T00:50:25.000Z</time></trkpt><trkpt lat="14.727262" lon="101.227912"><ele>195.1</ele><time>1970-01-01T00:50:26.000Z</time></trkpt><trkpt lat="14.727264" lon="101.227954"><ele>195.1</ele><time>1970-01-01T00:50:27.000Z</time></trkpt><trkpt lat="14.727259" lon="101.227999"><ele>195</ele><time>1970-01-01T00:50:28.000Z</time></trkpt><trkpt lat="14.727259" lon="101.22804"><ele>195.1</ele><time>1970-01-01T00:50:29.000Z</time></trkpt><trkpt lat="14.727261" lon="101.228084"><ele>195.3</ele><time>1970-01-01T00:50:30.000Z</time></trkpt><trkpt lat="14.727268" lon="101.228127"><ele>195.6</ele><time>1970-01-01T00:50:31.000Z</time></trkpt><trkpt lat="14.72726" lon="101.22818"><ele>196.2</ele><time>1970-01-01T00:50:32.000Z</time></trkpt><trkpt lat="14.727255" lon="101.228224"><ele>196.7</ele><time>1970-01-01T00:50:33.000Z</time></trkpt><trkpt lat="14.727253" lon="101.228267"><ele>197.2</ele><time>1970-01-01T00:50:34.000Z</time></trkpt><trkpt lat="14.727253" lon="101.228311"><ele>197.5</ele><time>1970-01-01T00:50:35.000Z</time></trkpt><trkpt lat="14.727247" lon="101.228361"><ele>197.8</ele><time>1970-01-01T00:50:36.000Z</time></trkpt><trkpt lat="14.727247" lon="101.228404"><ele>198</ele><time>1970-01-01T00:50:37.000Z</time></trkpt><trkpt lat="14.727246" lon="101.228445"><ele>198.1</ele><time>1970-01-01T00:50:38.000Z</time></trkpt><trkpt lat="14.727233" lon="101.228494"><ele>198.4</ele><time>1970-01-01T00:50:39.000Z</time></trkpt><trkpt lat="14.727237" lon="101.228538"><ele>198.7</ele><time>1970-01-01T00:50:40.000Z</time></trkpt><trkpt lat="14.727228" lon="101.228589"><ele>199.2</ele><time>1970-01-01T00:50:41.000Z</time></trkpt><trkpt lat="14.727218" lon="101.228641"><ele>199.8</ele><time>1970-01-01T00:50:42.000Z</time></trkpt><trkpt lat="14.727214" lon="101.228692"><ele>200.4</ele><time>1970-01-01T00:50:43.000Z</time></trkpt><trkpt lat="14.727204" lon="101.228744"><ele>201</ele><time>1970-01-01T00:50:44.000Z</time></trkpt><trkpt lat="14.727193" lon="101.228796"><ele>201.3</ele><time>1970-01-01T00:50:45.000Z</time></trkpt><trkpt lat="14.727193" lon="101.228848"><ele>201.4</ele><time>1970-01-01T00:50:46.000Z</time></trkpt><trkpt lat="14.727188" lon="101.228895"><ele>201.3</ele><time>1970-01-01T00:50:47.000Z</time></trkpt><trkpt lat="14.727186" lon="101.228945"><ele>201.2</ele><time>1970-01-01T00:50:48.000Z</time></trkpt><trkpt lat="14.727181" lon="101.228993"><ele>200.7</ele><time>1970-01-01T00:50:49.000Z</time></trkpt><trkpt lat="14.727176" lon="101.22904"><ele>200.3</ele><time>1970-01-01T00:50:50.000Z</time></trkpt><trkpt lat="14.727172" lon="101.229088"><ele>199.7</ele><time>1970-01-01T00:50:51.000Z</time></trkpt><trkpt lat="14.727171" lon="101.229146"><ele>199</ele><time>1970-01-01T00:50:52.000Z</time></trkpt><trkpt lat="14.727168" lon="101.229198"><ele>198.4</ele><time>1970-01-01T00:50:53.000Z</time></trkpt><trkpt lat="14.72716" lon="101.229266"><ele>197.7</ele><time>1970-01-01T00:50:54.000Z</time></trkpt><trkpt lat="14.727155" lon="101.229331"><ele>197.1</ele><time>1970-01-01T00:50:55.000Z</time></trkpt><trkpt lat="14.727155" lon="101.229392"><ele>196.7</ele><time>1970-01-01T00:50:56.000Z</time></trkpt><trkpt lat="14.727153" lon="101.22945"><ele>196.2</ele><time>1970-01-01T00:50:57.000Z</time></trkpt><trkpt lat="14.727156" lon="101.229519"><ele>195.7</ele><time>1970-01-01T00:50:58.000Z</time></trkpt><trkpt lat="14.727169" lon="101.229579"><ele>195.1</ele><time>1970-01-01T00:50:59.000Z</time></trkpt><trkpt lat="14.727179" lon="101.229634"><ele>194.6</ele><time>1970-01-01T00:51:00.000Z</time></trkpt><trkpt lat="14.727178" lon="101.229688"><ele>194.1</ele><time>1970-01-01T00:51:01.000Z</time></trkpt><trkpt lat="14.727165" lon="101.229724"><ele>193.9</ele><time>1970-01-01T00:51:02.000Z</time></trkpt><trkpt lat="14.727139" lon="101.229799"><ele>193.5</ele><time>1970-01-01T00:51:03.000Z</time></trkpt><trkpt lat="14.727126" lon="101.229854"><ele>193.4</ele><time>1970-01-01T00:51:04.000Z</time></trkpt><trkpt lat="14.72711" lon="101.229929"><ele>193.5</ele><time>1970-01-01T00:51:05.000Z</time></trkpt><trkpt lat="14.727081" lon="101.230008"><ele>193.9</ele><time>1970-01-01T00:51:06.000Z</time></trkpt><trkpt lat="14.727085" lon="101.230072"><ele>194.5</ele><time>1970-01-01T00:51:07.000Z</time></trkpt><trkpt lat="14.727093" lon="101.230136"><ele>195.3</ele><time>1970-01-01T00:51:08.000Z</time></trkpt><trkpt lat="14.727102" lon="101.230202"><ele>196.1</ele><time>1970-01-01T00:51:09.000Z</time></trkpt><trkpt lat="14.72712" lon="101.230273"><ele>196.8</ele><time>1970-01-01T00:51:10.000Z</time></trkpt><trkpt lat="14.727137" lon="101.230336"><ele>197.3</ele><time>1970-01-01T00:51:11.000Z</time></trkpt><trkpt lat="14.727139" lon="101.230423"><ele>197.5</ele><time>1970-01-01T00:51:12.000Z</time></trkpt><trkpt lat="14.727153" lon="101.230509"><ele>197.3</ele><time>1970-01-01T00:51:13.000Z</time></trkpt><trkpt lat="14.727175" lon="101.230565"><ele>197.4</ele><time>1970-01-01T00:51:14.000Z</time></trkpt><trkpt lat="14.727189" lon="101.230633"><ele>197.4</ele><time>1970-01-01T00:51:15.000Z</time></trkpt><trkpt lat="14.727204" lon="101.2307"><ele>197</ele><time>1970-01-01T00:51:16.000Z</time></trkpt><trkpt lat="14.727215" lon="101.230761"><ele>196.5</ele><time>1970-01-01T00:51:17.000Z</time></trkpt><trkpt lat="14.727226" lon="101.230838"><ele>196</ele><time>1970-01-01T00:51:18.000Z</time></trkpt><trkpt lat="14.727235" lon="101.230904"><ele>195.9</ele><time>1970-01-01T00:51:19.000Z</time></trkpt><trkpt lat="14.727247" lon="101.230963"><ele>196</ele><time>1970-01-01T00:51:20.000Z</time></trkpt><trkpt lat="14.727251" lon="101.230999"><ele>196</ele><time>1970-01-01T00:51:21.000Z</time></trkpt><trkpt lat="14.727269" lon="101.231042"><ele>196.1</ele><time>1970-01-01T00:51:22.000Z</time></trkpt><trkpt lat="14.727292" lon="101.231077"><ele>196.3</ele><time>1970-01-01T00:51:23.000Z</time></trkpt><trkpt lat="14.727303" lon="101.231143"><ele>196.2</ele><time>1970-01-01T00:51:24.000Z</time></trkpt><trkpt lat="14.727314" lon="101.2312"><ele>196</ele><time>1970-01-01T00:51:25.000Z</time></trkpt><trkpt lat="14.727316" lon="101.231258"><ele>195.6</ele><time>1970-01-01T00:51:26.000Z</time></trkpt><trkpt lat="14.727325" lon="101.231317"><ele>195.2</ele><time>1970-01-01T00:51:27.000Z</time></trkpt><trkpt lat="14.727311" lon="101.231405"><ele>195</ele><time>1970-01-01T00:51:28.000Z</time></trkpt><trkpt lat="14.727302" lon="101.231476"><ele>195.2</ele><time>1970-01-01T00:51:29.000Z</time></trkpt><trkpt lat="14.727293" lon="101.231549"><ele>195.4</ele><time>1970-01-01T00:51:30.000Z</time></trkpt><trkpt lat="14.727284" lon="101.231621"><ele>195.4</ele><time>1970-01-01T00:51:31.000Z</time></trkpt><trkpt lat="14.727279" lon="101.231687"><ele>195</ele><time>1970-01-01T00:51:32.000Z</time></trkpt><trkpt lat="14.727271" lon="101.231758"><ele>194.1</ele><time>1970-01-01T00:51:33.000Z</time></trkpt><trkpt lat="14.727288" lon="101.231806"><ele>193.3</ele><time>1970-01-01T00:51:34.000Z</time></trkpt><trkpt lat="14.727293" lon="101.231878"><ele>192.5</ele><time>1970-01-01T00:51:35.000Z</time></trkpt><trkpt lat="14.727299" lon="101.231941"><ele>192.1</ele><time>1970-01-01T00:51:36.000Z</time></trkpt><trkpt lat="14.727307" lon="101.231998"><ele>192</ele><time>1970-01-01T00:51:37.000Z</time></trkpt><trkpt lat="14.727324" lon="101.232039"><ele>192.1</ele><time>1970-01-01T00:51:38.000Z</time></trkpt><trkpt lat="14.727344" lon="101.232085"><ele>192.3</ele><time>1970-01-01T00:51:39.000Z</time></trkpt><trkpt lat="14.727362" lon="101.232126"><ele>192.6</ele><time>1970-01-01T00:51:40.000Z</time></trkpt><trkpt lat="14.727365" lon="101.232184"><ele>192.9</ele><time>1970-01-01T00:51:41.000Z</time></trkpt><trkpt lat="14.727338" lon="101.232227"><ele>193</ele><time>1970-01-01T00:51:42.000Z</time></trkpt><trkpt lat="14.727306" lon="101.232259"><ele>193</ele><time>1970-01-01T00:51:43.000Z</time></trkpt><trkpt lat="14.727269" lon="101.232313"><ele>193</ele><time>1970-01-01T00:51:44.000Z</time></trkpt><trkpt lat="14.72723" lon="101.232355"><ele>193.3</ele><time>1970-01-01T00:51:45.000Z</time></trkpt><trkpt lat="14.727189" lon="101.232408"><ele>193.3</ele><time>1970-01-01T00:51:46.000Z</time></trkpt><trkpt lat="14.727147" lon="101.232455"><ele>193.2</ele><time>1970-01-01T00:51:47.000Z</time></trkpt><trkpt lat="14.727114" lon="101.232488"><ele>193.3</ele><time>1970-01-01T00:51:48.000Z</time></trkpt><trkpt lat="14.727082" lon="101.232522"><ele>193.7</ele><time>1970-01-01T00:51:49.000Z</time></trkpt><trkpt lat="14.727049" lon="101.232558"><ele>194</ele><time>1970-01-01T00:51:50.000Z</time></trkpt><trkpt lat="14.727015" lon="101.232596"><ele>194.3</ele><time>1970-01-01T00:51:51.000Z</time></trkpt><trkpt lat="14.726974" lon="101.232648"><ele>194.8</ele><time>1970-01-01T00:51:52.000Z</time></trkpt><trkpt lat="14.726938" lon="101.23269"><ele>195.2</ele><time>1970-01-01T00:51:53.000Z</time></trkpt><trkpt lat="14.726909" lon="101.232717"><ele>195.4</ele><time>1970-01-01T00:51:54.000Z</time></trkpt><trkpt lat="14.726881" lon="101.232763"><ele>195.7</ele><time>1970-01-01T00:51:55.000Z</time></trkpt><trkpt lat="14.726848" lon="101.232803"><ele>196</ele><time>1970-01-01T00:51:56.000Z</time></trkpt><trkpt lat="14.726821" lon="101.232844"><ele>196.5</ele><time>1970-01-01T00:51:57.000Z</time></trkpt><trkpt lat="14.726794" lon="101.232888"><ele>197.3</ele><time>1970-01-01T00:51:58.000Z</time></trkpt><trkpt lat="14.726766" lon="101.23292"><ele>197.5</ele><time>1970-01-01T00:51:59.000Z</time></trkpt><trkpt lat="14.726742" lon="101.232958"><ele>197.6</ele><time>1970-01-01T00:52:00.000Z</time></trkpt><trkpt lat="14.726721" lon="101.232999"><ele>197.6</ele><time>1970-01-01T00:52:01.000Z</time></trkpt><trkpt lat="14.726702" lon="101.233029"><ele>197.5</ele><time>1970-01-01T00:52:02.000Z</time></trkpt><trkpt lat="14.726682" lon="101.233067"><ele>197.5</ele><time>1970-01-01T00:52:03.000Z</time></trkpt><trkpt lat="14.726668" lon="101.233102"><ele>197.6</ele><time>1970-01-01T00:52:04.000Z</time></trkpt><trkpt lat="14.726638" lon="101.233143"><ele>197.7</ele><time>1970-01-01T00:52:05.000Z</time></trkpt><trkpt lat="14.726612" lon="101.233179"><ele>198</ele><time>1970-01-01T00:52:06.000Z</time></trkpt><trkpt lat="14.726588" lon="101.233205"><ele>198.2</ele><time>1970-01-01T00:52:07.000Z</time></trkpt><trkpt lat="14.726564" lon="101.233233"><ele>198.4</ele><time>1970-01-01T00:52:08.000Z</time></trkpt><trkpt lat="14.726573" lon="101.233277"><ele>198.2</ele><time>1970-01-01T00:52:10.000Z</time></trkpt><trkpt lat="14.726604" lon="101.233272"><ele>198.1</ele><time>1970-01-01T00:52:12.000Z</time></trkpt><trkpt lat="14.726624" lon="101.233252"><ele>197.9</ele><time>1970-01-01T00:52:13.000Z</time></trkpt><trkpt lat="14.726639" lon="101.233217"><ele>197.7</ele><time>1970-01-01T00:52:14.000Z</time></trkpt><trkpt lat="14.726647" lon="101.23318"><ele>197.6</ele><time>1970-01-01T00:52:15.000Z</time></trkpt><trkpt lat="14.726655" lon="101.23314"><ele>197.5</ele><time>1970-01-01T00:52:16.000Z</time></trkpt><trkpt lat="14.726669" lon="101.233097"><ele>197.5</ele><time>1970-01-01T00:52:17.000Z</time></trkpt><trkpt lat="14.7267" lon="101.233044"><ele>197.6</ele><time>1970-01-01T00:52:18.000Z</time></trkpt><trkpt lat="14.726722" lon="101.232999"><ele>197.6</ele><time>1970-01-01T00:52:19.000Z</time></trkpt><trkpt lat="14.726742" lon="101.232946"><ele>197.4</ele><time>1970-01-01T00:52:20.000Z</time></trkpt><trkpt lat="14.726763" lon="101.232895"><ele>196.9</ele><time>1970-01-01T00:52:21.000Z</time></trkpt><trkpt lat="14.726789" lon="101.232838"><ele>196.1</ele><time>1970-01-01T00:52:22.000Z</time></trkpt><trkpt lat="14.726827" lon="101.232788"><ele>195.7</ele><time>1970-01-01T00:52:23.000Z</time></trkpt><trkpt lat="14.72687" lon="101.232744"><ele>195.4</ele><time>1970-01-01T00:52:24.000Z</time></trkpt><trkpt lat="14.726894" lon="101.232696"><ele>195.1</ele><time>1970-01-01T00:52:25.000Z</time></trkpt><trkpt lat="14.726922" lon="101.232664"><ele>194.9</ele><time>1970-01-01T00:52:26.000Z</time></trkpt><trkpt lat="14.726947" lon="101.232626"><ele>194.5</ele><time>1970-01-01T00:52:27.000Z</time></trkpt><trkpt lat="14.726985" lon="101.23259"><ele>194.2</ele><time>1970-01-01T00:52:28.000Z</time></trkpt><trkpt lat="14.727025" lon="101.232559"><ele>193.9</ele><time>1970-01-01T00:52:29.000Z</time></trkpt><trkpt lat="14.727059" lon="101.232519"><ele>193.6</ele><time>1970-01-01T00:52:30.000Z</time></trkpt><trkpt lat="14.72709" lon="101.232485"><ele>193.3</ele><time>1970-01-01T00:52:31.000Z</time></trkpt><trkpt lat="14.727139" lon="101.23243"><ele>193.2</ele><time>1970-01-01T00:52:32.000Z</time></trkpt><trkpt lat="14.727183" lon="101.232383"><ele>193.3</ele><time>1970-01-01T00:52:33.000Z</time></trkpt><trkpt lat="14.727227" lon="101.232343"><ele>193.3</ele><time>1970-01-01T00:52:34.000Z</time></trkpt><trkpt lat="14.72726" lon="101.232302"><ele>193</ele><time>1970-01-01T00:52:35.000Z</time></trkpt><trkpt lat="14.727286" lon="101.232266"><ele>193</ele><time>1970-01-01T00:52:36.000Z</time></trkpt><trkpt lat="14.727331" lon="101.232234"><ele>193</ele><time>1970-01-01T00:52:37.000Z</time></trkpt><trkpt lat="14.72737" lon="101.23223"><ele>193.1</ele><time>1970-01-01T00:52:38.000Z</time></trkpt><trkpt lat="14.727422" lon="101.232218"><ele>193.4</ele><time>1970-01-01T00:52:39.000Z</time></trkpt><trkpt lat="14.727455" lon="101.232209"><ele>193.4</ele><time>1970-01-01T00:52:40.000Z</time></trkpt><trkpt lat="14.727461" lon="101.232236"><ele>193.4</ele><time>1970-01-01T00:52:42.000Z</time></trkpt><trkpt lat="14.72747" lon="101.232265"><ele>193.4</ele><time>1970-01-01T00:52:44.000Z</time></trkpt><trkpt lat="14.727496" lon="101.232324"><ele>193.1</ele><time>1970-01-01T00:52:46.000Z</time></trkpt><trkpt lat="14.72752" lon="101.232356"><ele>192.9</ele><time>1970-01-01T00:52:47.000Z</time></trkpt><trkpt lat="14.727549" lon="101.232385"><ele>192.7</ele><time>1970-01-01T00:52:48.000Z</time></trkpt><trkpt lat="14.727582" lon="101.232412"><ele>192.5</ele><time>1970-01-01T00:52:49.000Z</time></trkpt><trkpt lat="14.727608" lon="101.232467"><ele>192.3</ele><time>1970-01-01T00:52:50.000Z</time></trkpt><trkpt lat="14.727642" lon="101.232505"><ele>192.2</ele><time>1970-01-01T00:52:51.000Z</time></trkpt><trkpt lat="14.727688" lon="101.232554"><ele>191.9</ele><time>1970-01-01T00:52:52.000Z</time></trkpt><trkpt lat="14.727727" lon="101.232594"><ele>191.9</ele><time>1970-01-01T00:52:53.000Z</time></trkpt><trkpt lat="14.727774" lon="101.232652"><ele>192</ele><time>1970-01-01T00:52:54.000Z</time></trkpt><trkpt lat="14.727823" lon="101.232694"><ele>192.1</ele><time>1970-01-01T00:52:55.000Z</time></trkpt><trkpt lat="14.727858" lon="101.232749"><ele>191.9</ele><time>1970-01-01T00:52:56.000Z</time></trkpt><trkpt lat="14.727902" lon="101.232789"><ele>191.8</ele><time>1970-01-01T00:52:57.000Z</time></trkpt><trkpt lat="14.727944" lon="101.23283"><ele>191.7</ele><time>1970-01-01T00:52:58.000Z</time></trkpt><trkpt lat="14.727983" lon="101.232871"><ele>191.2</ele><time>1970-01-01T00:52:59.000Z</time></trkpt><trkpt lat="14.728015" lon="101.232912"><ele>190.8</ele><time>1970-01-01T00:53:00.000Z</time></trkpt><trkpt lat="14.728051" lon="101.232941"><ele>190.4</ele><time>1970-01-01T00:53:01.000Z</time></trkpt><trkpt lat="14.728081" lon="101.232986"><ele>190.1</ele><time>1970-01-01T00:53:02.000Z</time></trkpt><trkpt lat="14.728117" lon="101.233033"><ele>189.8</ele><time>1970-01-01T00:53:03.000Z</time></trkpt><trkpt lat="14.728151" lon="101.233093"><ele>189.7</ele><time>1970-01-01T00:53:04.000Z</time></trkpt><trkpt lat="14.728188" lon="101.233113"><ele>189.5</ele><time>1970-01-01T00:53:05.000Z</time></trkpt><trkpt lat="14.728218" lon="101.233158"><ele>189.4</ele><time>1970-01-01T00:53:06.000Z</time></trkpt><trkpt lat="14.728235" lon="101.233223"><ele>189.1</ele><time>1970-01-01T00:53:07.000Z</time></trkpt><trkpt lat="14.728252" lon="101.233255"><ele>189</ele><time>1970-01-01T00:53:08.000Z</time></trkpt><trkpt lat="14.728274" lon="101.233313"><ele>189</ele><time>1970-01-01T00:53:09.000Z</time></trkpt><trkpt lat="14.728275" lon="101.233385"><ele>189.2</ele><time>1970-01-01T00:53:10.000Z</time></trkpt><trkpt lat="14.728284" lon="101.23345"><ele>189.4</ele><time>1970-01-01T00:53:11.000Z</time></trkpt><trkpt lat="14.728293" lon="101.233509"><ele>189.7</ele><time>1970-01-01T00:53:12.000Z</time></trkpt><trkpt lat="14.728295" lon="101.233577"><ele>190.1</ele><time>1970-01-01T00:53:13.000Z</time></trkpt><trkpt lat="14.728306" lon="101.233648"><ele>190.5</ele><time>1970-01-01T00:53:14.000Z</time></trkpt><trkpt lat="14.728321" lon="101.233708"><ele>190.8</ele><time>1970-01-01T00:53:15.000Z</time></trkpt><trkpt lat="14.728339" lon="101.233758"><ele>190.8</ele><time>1970-01-01T00:53:16.000Z</time></trkpt><trkpt lat="14.728344" lon="101.233827"><ele>190.9</ele><time>1970-01-01T00:53:17.000Z</time></trkpt><trkpt lat="14.728355" lon="101.233883"><ele>191</ele><time>1970-01-01T00:53:18.000Z</time></trkpt><trkpt lat="14.728353" lon="101.233946"><ele>191.1</ele><time>1970-01-01T00:53:19.000Z</time></trkpt><trkpt lat="14.728352" lon="101.23401"><ele>191.1</ele><time>1970-01-01T00:53:20.000Z</time></trkpt><trkpt lat="14.72835" lon="101.234069"><ele>191.1</ele><time>1970-01-01T00:53:21.000Z</time></trkpt><trkpt lat="14.728348" lon="101.234121"><ele>191.1</ele><time>1970-01-01T00:53:22.000Z</time></trkpt><trkpt lat="14.728344" lon="101.234166"><ele>191</ele><time>1970-01-01T00:53:23.000Z</time></trkpt><trkpt lat="14.728325" lon="101.234222"><ele>191</ele><time>1970-01-01T00:53:24.000Z</time></trkpt><trkpt lat="14.728306" lon="101.234271"><ele>191</ele><time>1970-01-01T00:53:25.000Z</time></trkpt><trkpt lat="14.728285" lon="101.234322"><ele>191.1</ele><time>1970-01-01T00:53:26.000Z</time></trkpt><trkpt lat="14.728268" lon="101.23437"><ele>191.3</ele><time>1970-01-01T00:53:27.000Z</time></trkpt><trkpt lat="14.728244" lon="101.234423"><ele>191.6</ele><time>1970-01-01T00:53:28.000Z</time></trkpt><trkpt lat="14.728219" lon="101.234468"><ele>191.9</ele><time>1970-01-01T00:53:29.000Z</time></trkpt><trkpt lat="14.728191" lon="101.234517"><ele>192.1</ele><time>1970-01-01T00:53:30.000Z</time></trkpt><trkpt lat="14.728158" lon="101.234571"><ele>192.1</ele><time>1970-01-01T00:53:31.000Z</time></trkpt><trkpt lat="14.728131" lon="101.234619"><ele>192.1</ele><time>1970-01-01T00:53:32.000Z</time></trkpt><trkpt lat="14.728108" lon="101.234669"><ele>192.3</ele><time>1970-01-01T00:53:33.000Z</time></trkpt><trkpt lat="14.728096" lon="101.234714"><ele>192.4</ele><time>1970-01-01T00:53:34.000Z</time></trkpt><trkpt lat="14.728089" lon="101.234765"><ele>192.4</ele><time>1970-01-01T00:53:35.000Z</time></trkpt><trkpt lat="14.728084" lon="101.234815"><ele>192.5</ele><time>1970-01-01T00:53:36.000Z</time></trkpt><trkpt lat="14.728081" lon="101.234866"><ele>192.5</ele><time>1970-01-01T00:53:37.000Z</time></trkpt><trkpt lat="14.728079" lon="101.234917"><ele>192.5</ele><time>1970-01-01T00:53:38.000Z</time></trkpt><trkpt lat="14.728079" lon="101.234969"><ele>192.5</ele><time>1970-01-01T00:53:39.000Z</time></trkpt><trkpt lat="14.728078" lon="101.235016"><ele>192.4</ele><time>1970-01-01T00:53:40.000Z</time></trkpt><trkpt lat="14.72808" lon="101.235067"><ele>192.4</ele><time>1970-01-01T00:53:41.000Z</time></trkpt><trkpt lat="14.728079" lon="101.235119"><ele>192.4</ele><time>1970-01-01T00:53:42.000Z</time></trkpt><trkpt lat="14.728082" lon="101.235168"><ele>192.3</ele><time>1970-01-01T00:53:43.000Z</time></trkpt><trkpt lat="14.728083" lon="101.235225"><ele>192.3</ele><time>1970-01-01T00:53:44.000Z</time></trkpt><trkpt lat="14.728092" lon="101.235273"><ele>192.2</ele><time>1970-01-01T00:53:45.000Z</time></trkpt><trkpt lat="14.728104" lon="101.23532"><ele>192.2</ele><time>1970-01-01T00:53:46.000Z</time></trkpt><trkpt lat="14.728113" lon="101.235365"><ele>192.2</ele><time>1970-01-01T00:53:47.000Z</time></trkpt><trkpt lat="14.728128" lon="101.235418"><ele>192.2</ele><time>1970-01-01T00:53:48.000Z</time></trkpt><trkpt lat="14.728138" lon="101.235473"><ele>192.2</ele><time>1970-01-01T00:53:49.000Z</time></trkpt><trkpt lat="14.728131" lon="101.23553"><ele>192.2</ele><time>1970-01-01T00:53:50.000Z</time></trkpt><trkpt lat="14.72811" lon="101.23558"><ele>192.2</ele><time>1970-01-01T00:53:51.000Z</time></trkpt><trkpt lat="14.728072" lon="101.235623"><ele>192.2</ele><time>1970-01-01T00:53:52.000Z</time></trkpt><trkpt lat="14.728024" lon="101.235647"><ele>192.1</ele><time>1970-01-01T00:53:53.000Z</time></trkpt><trkpt lat="14.727973" lon="101.235656"><ele>192.1</ele><time>1970-01-01T00:53:54.000Z</time></trkpt><trkpt lat="14.727925" lon="101.235662"><ele>192.4</ele><time>1970-01-01T00:53:55.000Z</time></trkpt><trkpt lat="14.727877" lon="101.235665"><ele>192.7</ele><time>1970-01-01T00:53:56.000Z</time></trkpt><trkpt lat="14.727829" lon="101.235663"><ele>193</ele><time>1970-01-01T00:53:57.000Z</time></trkpt><trkpt lat="14.727785" lon="101.235655"><ele>193.3</ele><time>1970-01-01T00:53:58.000Z</time></trkpt><trkpt lat="14.727743" lon="101.235648"><ele>193.5</ele><time>1970-01-01T00:53:59.000Z</time></trkpt><trkpt lat="14.727702" lon="101.235642"><ele>193.7</ele><time>1970-01-01T00:54:00.000Z</time></trkpt><trkpt lat="14.727659" lon="101.23564"><ele>193.9</ele><time>1970-01-01T00:54:01.000Z</time></trkpt><trkpt lat="14.727622" lon="101.235636"><ele>194</ele><time>1970-01-01T00:54:02.000Z</time></trkpt><trkpt lat="14.727584" lon="101.235634"><ele>194.2</ele><time>1970-01-01T00:54:03.000Z</time></trkpt><trkpt lat="14.727547" lon="101.235637"><ele>194.3</ele><time>1970-01-01T00:54:04.000Z</time></trkpt><trkpt lat="14.727509" lon="101.235634"><ele>194.5</ele><time>1970-01-01T00:54:05.000Z</time></trkpt><trkpt lat="14.72747" lon="101.235629"><ele>194.6</ele><time>1970-01-01T00:54:06.000Z</time></trkpt><trkpt lat="14.727433" lon="101.235627"><ele>194.8</ele><time>1970-01-01T00:54:07.000Z</time></trkpt><trkpt lat="14.727397" lon="101.235624"><ele>195</ele><time>1970-01-01T00:54:08.000Z</time></trkpt><trkpt lat="14.72736" lon="101.235623"><ele>195.2</ele><time>1970-01-01T00:54:09.000Z</time></trkpt><trkpt lat="14.727323" lon="101.235621"><ele>195.3</ele><time>1970-01-01T00:54:10.000Z</time></trkpt><trkpt lat="14.727285" lon="101.235619"><ele>195.5</ele><time>1970-01-01T00:54:11.000Z</time></trkpt><trkpt lat="14.727248" lon="101.235618"><ele>195.6</ele><time>1970-01-01T00:54:12.000Z</time></trkpt><trkpt lat="14.727211" lon="101.235616"><ele>195.8</ele><time>1970-01-01T00:54:13.000Z</time></trkpt><trkpt lat="14.727175" lon="101.235613"><ele>195.9</ele><time>1970-01-01T00:54:14.000Z</time></trkpt><trkpt lat="14.727139" lon="101.23561"><ele>196</ele><time>1970-01-01T00:54:15.000Z</time></trkpt><trkpt lat="14.727103" lon="101.235607"><ele>196.2</ele><time>1970-01-01T00:54:16.000Z</time></trkpt><trkpt lat="14.727068" lon="101.235606"><ele>196.3</ele><time>1970-01-01T00:54:17.000Z</time></trkpt><trkpt lat="14.727033" lon="101.235604"><ele>196.4</ele><time>1970-01-01T00:54:18.000Z</time></trkpt><trkpt lat="14.726997" lon="101.235601"><ele>196.6</ele><time>1970-01-01T00:54:19.000Z</time></trkpt><trkpt lat="14.726961" lon="101.235599"><ele>196.7</ele><time>1970-01-01T00:54:20.000Z</time></trkpt><trkpt lat="14.726925" lon="101.235597"><ele>196.8</ele><time>1970-01-01T00:54:21.000Z</time></trkpt><trkpt lat="14.726888" lon="101.235596"><ele>196.8</ele><time>1970-01-01T00:54:22.000Z</time></trkpt><trkpt lat="14.72685" lon="101.235596"><ele>196.9</ele><time>1970-01-01T00:54:23.000Z</time></trkpt><trkpt lat="14.726812" lon="101.235595"><ele>197</ele><time>1970-01-01T00:54:24.000Z</time></trkpt><trkpt lat="14.726775" lon="101.235594"><ele>197.1</ele><time>1970-01-01T00:54:25.000Z</time></trkpt><trkpt lat="14.726739" lon="101.235593"><ele>197.2</ele><time>1970-01-01T00:54:26.000Z</time></trkpt><trkpt lat="14.726703" lon="101.235591"><ele>197.3</ele><time>1970-01-01T00:54:27.000Z</time></trkpt><trkpt lat="14.726667" lon="101.235588"><ele>197.4</ele><time>1970-01-01T00:54:28.000Z</time></trkpt><trkpt lat="14.726631" lon="101.235584"><ele>197.4</ele><time>1970-01-01T00:54:29.000Z</time></trkpt><trkpt lat="14.726595" lon="101.235579"><ele>197.6</ele><time>1970-01-01T00:54:30.000Z</time></trkpt><trkpt lat="14.726559" lon="101.235575"><ele>197.7</ele><time>1970-01-01T00:54:31.000Z</time></trkpt><trkpt lat="14.726522" lon="101.23557"><ele>197.8</ele><time>1970-01-01T00:54:32.000Z</time></trkpt><trkpt lat="14.726486" lon="101.235567"><ele>197.8</ele><time>1970-01-01T00:54:33.000Z</time></trkpt><trkpt lat="14.726449" lon="101.235563"><ele>198</ele><time>1970-01-01T00:54:34.000Z</time></trkpt><trkpt lat="14.726413" lon="101.235559"><ele>198.1</ele><time>1970-01-01T00:54:35.000Z</time></trkpt><trkpt lat="14.726376" lon="101.235556"><ele>198.2</ele><time>1970-01-01T00:54:36.000Z</time></trkpt><trkpt lat="14.726338" lon="101.235555"><ele>198.3</ele><time>1970-01-01T00:54:37.000Z</time></trkpt><trkpt lat="14.7263" lon="101.235556"><ele>198.4</ele><time>1970-01-01T00:54:38.000Z</time></trkpt><trkpt lat="14.726262" lon="101.235556"><ele>198.5</ele><time>1970-01-01T00:54:39.000Z</time></trkpt><trkpt lat="14.726225" lon="101.235556"><ele>198.6</ele><time>1970-01-01T00:54:40.000Z</time></trkpt><trkpt lat="14.726188" lon="101.235555"><ele>198.7</ele><time>1970-01-01T00:54:41.000Z</time></trkpt><trkpt lat="14.726151" lon="101.235554"><ele>198.8</ele><time>1970-01-01T00:54:42.000Z</time></trkpt><trkpt lat="14.726114" lon="101.235551"><ele>198.8</ele><time>1970-01-01T00:54:43.000Z</time></trkpt><trkpt lat="14.726077" lon="101.235548"><ele>198.9</ele><time>1970-01-01T00:54:44.000Z</time></trkpt><trkpt lat="14.72604" lon="101.235545"><ele>199</ele><time>1970-01-01T00:54:45.000Z</time></trkpt><trkpt lat="14.726003" lon="101.235542"><ele>199.1</ele><time>1970-01-01T00:54:46.000Z</time></trkpt><trkpt lat="14.725964" lon="101.235539"><ele>199.2</ele><time>1970-01-01T00:54:47.000Z</time></trkpt><trkpt lat="14.725926" lon="101.235537"><ele>199.2</ele><time>1970-01-01T00:54:48.000Z</time></trkpt><trkpt lat="14.725888" lon="101.235534"><ele>199.3</ele><time>1970-01-01T00:54:49.000Z</time></trkpt><trkpt lat="14.72585" lon="101.235532"><ele>199.4</ele><time>1970-01-01T00:54:50.000Z</time></trkpt><trkpt lat="14.725812" lon="101.23553"><ele>199.5</ele><time>1970-01-01T00:54:51.000Z</time></trkpt><trkpt lat="14.725775" lon="101.235529"><ele>199.5</ele><time>1970-01-01T00:54:52.000Z</time></trkpt><trkpt lat="14.725738" lon="101.235528"><ele>199.6</ele><time>1970-01-01T00:54:53.000Z</time></trkpt><trkpt lat="14.725701" lon="101.235527"><ele>199.8</ele><time>1970-01-01T00:54:54.000Z</time></trkpt><trkpt lat="14.725663" lon="101.235525"><ele>199.9</ele><time>1970-01-01T00:54:55.000Z</time></trkpt><trkpt lat="14.725626" lon="101.235522"><ele>200</ele><time>1970-01-01T00:54:56.000Z</time></trkpt><trkpt lat="14.725589" lon="101.235519"><ele>200.1</ele><time>1970-01-01T00:54:57.000Z</time></trkpt><trkpt lat="14.72555" lon="101.235516"><ele>200.2</ele><time>1970-01-01T00:54:58.000Z</time></trkpt><trkpt lat="14.725512" lon="101.235513"><ele>200.3</ele><time>1970-01-01T00:54:59.000Z</time></trkpt><trkpt lat="14.725473" lon="101.23551"><ele>200.5</ele><time>1970-01-01T00:55:00.000Z</time></trkpt><trkpt lat="14.725436" lon="101.235508"><ele>200.6</ele><time>1970-01-01T00:55:01.000Z</time></trkpt><trkpt lat="14.7254" lon="101.235506"><ele>200.7</ele><time>1970-01-01T00:55:02.000Z</time></trkpt><trkpt lat="14.725363" lon="101.235502"><ele>200.8</ele><time>1970-01-01T00:55:03.000Z</time></trkpt><trkpt lat="14.725327" lon="101.235498"><ele>200.9</ele><time>1970-01-01T00:55:04.000Z</time></trkpt><trkpt lat="14.72529" lon="101.235494"><ele>201.1</ele><time>1970-01-01T00:55:05.000Z</time></trkpt><trkpt lat="14.725253" lon="101.23549"><ele>201.2</ele><time>1970-01-01T00:55:06.000Z</time></trkpt><trkpt lat="14.725213" lon="101.235487"><ele>201.3</ele><time>1970-01-01T00:55:07.000Z</time></trkpt><trkpt lat="14.725174" lon="101.235486"><ele>201.5</ele><time>1970-01-01T00:55:08.000Z</time></trkpt><trkpt lat="14.725133" lon="101.235485"><ele>201.6</ele><time>1970-01-01T00:55:09.000Z</time></trkpt><trkpt lat="14.725092" lon="101.235485"><ele>201.7</ele><time>1970-01-01T00:55:10.000Z</time></trkpt><trkpt lat="14.72505" lon="101.235487"><ele>201.8</ele><time>1970-01-01T00:55:11.000Z</time></trkpt><trkpt lat="14.725008" lon="101.23549"><ele>201.9</ele><time>1970-01-01T00:55:12.000Z</time></trkpt><trkpt lat="14.724966" lon="101.235493"><ele>201.9</ele><time>1970-01-01T00:55:13.000Z</time></trkpt><trkpt lat="14.724923" lon="101.235497"><ele>202</ele><time>1970-01-01T00:55:14.000Z</time></trkpt><trkpt lat="14.72488" lon="101.235501"><ele>202</ele><time>1970-01-01T00:55:15.000Z</time></trkpt><trkpt lat="14.72484" lon="101.235505"><ele>202</ele><time>1970-01-01T00:55:16.000Z</time></trkpt><trkpt lat="14.724799" lon="101.235509"><ele>202.1</ele><time>1970-01-01T00:55:17.000Z</time></trkpt><trkpt lat="14.724758" lon="101.235513"><ele>202.1</ele><time>1970-01-01T00:55:18.000Z</time></trkpt><trkpt lat="14.724718" lon="101.235516"><ele>202.1</ele><time>1970-01-01T00:55:19.000Z</time></trkpt><trkpt lat="14.724679" lon="101.235519"><ele>202.2</ele><time>1970-01-01T00:55:20.000Z</time></trkpt><trkpt lat="14.72464" lon="101.23552"><ele>202.3</ele><time>1970-01-01T00:55:21.000Z</time></trkpt><trkpt lat="14.724601" lon="101.23552"><ele>202.3</ele><time>1970-01-01T00:55:22.000Z</time></trkpt><trkpt lat="14.724561" lon="101.235519"><ele>202.4</ele><time>1970-01-01T00:55:23.000Z</time></trkpt><trkpt lat="14.724521" lon="101.235518"><ele>202.4</ele><time>1970-01-01T00:55:24.000Z</time></trkpt><trkpt lat="14.724482" lon="101.235514"><ele>202.5</ele><time>1970-01-01T00:55:25.000Z</time></trkpt><trkpt lat="14.724445" lon="101.235508"><ele>202.6</ele><time>1970-01-01T00:55:26.000Z</time></trkpt><trkpt lat="14.724408" lon="101.235503"><ele>202.6</ele><time>1970-01-01T00:55:27.000Z</time></trkpt><trkpt lat="14.724376" lon="101.235497"><ele>202.7</ele><time>1970-01-01T00:55:28.000Z</time></trkpt><trkpt lat="14.724347" lon="101.235489"><ele>202.7</ele><time>1970-01-01T00:55:29.000Z</time></trkpt><trkpt lat="14.724308" lon="101.235455"><ele>202.8</ele><time>1970-01-01T00:55:31.000Z</time></trkpt><trkpt lat="14.724296" lon="101.235398"><ele>202.5</ele><time>1970-01-01T00:55:33.000Z</time></trkpt><trkpt lat="14.724298" lon="101.235365"><ele>202.5</ele><time>1970-01-01T00:55:34.000Z</time></trkpt><trkpt lat="14.724302" lon="101.235335"><ele>202.4</ele><time>1970-01-01T00:55:35.000Z</time></trkpt><trkpt lat="14.724315" lon="101.235289"><ele>202.4</ele><time>1970-01-01T00:55:37.000Z</time></trkpt><trkpt lat="14.724336" lon="101.235249"><ele>202.3</ele><time>1970-01-01T00:55:39.000Z</time></trkpt><trkpt lat="14.724352" lon="101.235207"><ele>202.3</ele><time>1970-01-01T00:55:41.000Z</time></trkpt><trkpt lat="14.724352" lon="101.235152"><ele>202.2</ele><time>1970-01-01T00:55:43.000Z</time></trkpt><trkpt lat="14.724375" lon="101.235171"><ele>202.2</ele><time>1970-01-01T00:55:47.000Z</time></trkpt><trkpt lat="14.724399" lon="101.235154"><ele>202.3</ele><time>1970-01-01T00:55:51.000Z</time></trkpt><trkpt lat="14.724375" lon="101.235171"><ele>202.3</ele><time>1970-01-01T01:19:38.000Z</time></trkpt><trkpt lat="14.724366" lon="101.2352"><ele>202.3</ele><time>1970-01-01T01:19:41.000Z</time></trkpt><trkpt lat="14.724354" lon="101.235237"><ele>202.3</ele><time>1970-01-01T01:19:43.000Z</time></trkpt><trkpt lat="14.724344" lon="101.235272"><ele>202.4</ele><time>1970-01-01T01:19:45.000Z</time></trkpt><trkpt lat="14.724337" lon="101.235313"><ele>202.4</ele><time>1970-01-01T01:19:47.000Z</time></trkpt><trkpt lat="14.724328" lon="101.235344"><ele>202.4</ele><time>1970-01-01T01:19:48.000Z</time></trkpt><trkpt lat="14.724316" lon="101.235377"><ele>202.5</ele><time>1970-01-01T01:19:49.000Z</time></trkpt><trkpt lat="14.724303" lon="101.235412"><ele>202.5</ele><time>1970-01-01T01:19:50.000Z</time></trkpt><trkpt lat="14.724291" lon="101.235446"><ele>202.6</ele><time>1970-01-01T01:19:51.000Z</time></trkpt><trkpt lat="14.724276" lon="101.235484"><ele>202.7</ele><time>1970-01-01T01:19:52.000Z</time></trkpt><trkpt lat="14.724262" lon="101.235525"><ele>202.8</ele><time>1970-01-01T01:19:53.000Z</time></trkpt><trkpt lat="14.724251" lon="101.235565"><ele>203.2</ele><time>1970-01-01T01:19:54.000Z</time></trkpt><trkpt lat="14.724241" lon="101.235601"><ele>203.4</ele><time>1970-01-01T01:19:55.000Z</time></trkpt><trkpt lat="14.72423" lon="101.235637"><ele>203.7</ele><time>1970-01-01T01:19:56.000Z</time></trkpt><trkpt lat="14.724218" lon="101.235674"><ele>204.1</ele><time>1970-01-01T01:19:57.000Z</time></trkpt><trkpt lat="14.724207" lon="101.235711"><ele>204.5</ele><time>1970-01-01T01:19:58.000Z</time></trkpt><trkpt lat="14.724198" lon="101.235749"><ele>204.9</ele><time>1970-01-01T01:19:59.000Z</time></trkpt><trkpt lat="14.724189" lon="101.235787"><ele>205.4</ele><time>1970-01-01T01:20:00.000Z</time></trkpt><trkpt lat="14.72418" lon="101.235826"><ele>205.9</ele><time>1970-01-01T01:20:01.000Z</time></trkpt><trkpt lat="14.72417" lon="101.235864"><ele>206.5</ele><time>1970-01-01T01:20:02.000Z</time></trkpt><trkpt lat="14.724159" lon="101.235901"><ele>207</ele><time>1970-01-01T01:20:03.000Z</time></trkpt><trkpt lat="14.724146" lon="101.235939"><ele>207.5</ele><time>1970-01-01T01:20:04.000Z</time></trkpt><trkpt lat="14.724135" lon="101.235976"><ele>207.9</ele><time>1970-01-01T01:20:05.000Z</time></trkpt><trkpt lat="14.724125" lon="101.236012"><ele>208.3</ele><time>1970-01-01T01:20:06.000Z</time></trkpt><trkpt lat="14.724115" lon="101.236049"><ele>208.7</ele><time>1970-01-01T01:20:07.000Z</time></trkpt><trkpt lat="14.724105" lon="101.236085"><ele>209</ele><time>1970-01-01T01:20:08.000Z</time></trkpt><trkpt lat="14.724097" lon="101.23612"><ele>209.3</ele><time>1970-01-01T01:20:09.000Z</time></trkpt><trkpt lat="14.72409" lon="101.236154"><ele>209.5</ele><time>1970-01-01T01:20:10.000Z</time></trkpt><trkpt lat="14.724084" lon="101.236187"><ele>209.8</ele><time>1970-01-01T01:20:11.000Z</time></trkpt><trkpt lat="14.724078" lon="101.236216"><ele>209.9</ele><time>1970-01-01T01:20:12.000Z</time></trkpt><trkpt lat="14.724063" lon="101.236268"><ele>210.3</ele><time>1970-01-01T01:20:14.000Z</time></trkpt><trkpt lat="14.724055" lon="101.236295"><ele>210.5</ele><time>1970-01-01T01:20:15.000Z</time></trkpt><trkpt lat="14.724047" lon="101.236326"><ele>210.8</ele><time>1970-01-01T01:20:16.000Z</time></trkpt><trkpt lat="14.724041" lon="101.236358"><ele>211.1</ele><time>1970-01-01T01:20:17.000Z</time></trkpt><trkpt lat="14.724036" lon="101.236389"><ele>211.4</ele><time>1970-01-01T01:20:18.000Z</time></trkpt><trkpt lat="14.72403" lon="101.236419"><ele>211.7</ele><time>1970-01-01T01:20:19.000Z</time></trkpt><trkpt lat="14.724024" lon="101.236451"><ele>212</ele><time>1970-01-01T01:20:20.000Z</time></trkpt><trkpt lat="14.724018" lon="101.236484"><ele>212.4</ele><time>1970-01-01T01:20:21.000Z</time></trkpt><trkpt lat="14.724013" lon="101.236518"><ele>212.8</ele><time>1970-01-01T01:20:22.000Z</time></trkpt><trkpt lat="14.724009" lon="101.236549"><ele>213.2</ele><time>1970-01-01T01:20:23.000Z</time></trkpt><trkpt lat="14.724006" lon="101.236578"><ele>213.5</ele><time>1970-01-01T01:20:24.000Z</time></trkpt><trkpt lat="14.724002" lon="101.236609"><ele>213.8</ele><time>1970-01-01T01:20:25.000Z</time></trkpt><trkpt lat="14.723996" lon="101.236644"><ele>214.1</ele><time>1970-01-01T01:20:26.000Z</time></trkpt><trkpt lat="14.723991" lon="101.236677"><ele>214.3</ele><time>1970-01-01T01:20:27.000Z</time></trkpt><trkpt lat="14.723986" lon="101.236711"><ele>214.3</ele><time>1970-01-01T01:20:28.000Z</time></trkpt><trkpt lat="14.723981" lon="101.236741"><ele>214.3</ele><time>1970-01-01T01:20:29.000Z</time></trkpt><trkpt lat="14.723969" lon="101.236801"><ele>214.8</ele><time>1970-01-01T01:20:31.000Z</time></trkpt><trkpt lat="14.72396" lon="101.236841"><ele>215.1</ele><time>1970-01-01T01:20:32.000Z</time></trkpt><trkpt lat="14.723951" lon="101.236882"><ele>215.3</ele><time>1970-01-01T01:20:33.000Z</time></trkpt><trkpt lat="14.723941" lon="101.236922"><ele>215.4</ele><time>1970-01-01T01:20:34.000Z</time></trkpt><trkpt lat="14.723931" lon="101.236964"><ele>215.3</ele><time>1970-01-01T01:20:35.000Z</time></trkpt><trkpt lat="14.723923" lon="101.237001"><ele>215.2</ele><time>1970-01-01T01:20:36.000Z</time></trkpt><trkpt lat="14.723916" lon="101.237036"><ele>215.2</ele><time>1970-01-01T01:20:37.000Z</time></trkpt><trkpt lat="14.723908" lon="101.237075"><ele>215.2</ele><time>1970-01-01T01:20:38.000Z</time></trkpt><trkpt lat="14.723901" lon="101.237113"><ele>215.2</ele><time>1970-01-01T01:20:39.000Z</time></trkpt><trkpt lat="14.723897" lon="101.237166"><ele>215.1</ele><time>1970-01-01T01:20:41.000Z</time></trkpt><trkpt lat="14.723896" lon="101.237197"><ele>215</ele><time>1970-01-01T01:20:42.000Z</time></trkpt><trkpt lat="14.723896" lon="101.237229"><ele>215</ele><time>1970-01-01T01:20:43.000Z</time></trkpt><trkpt lat="14.723895" lon="101.237266"><ele>215</ele><time>1970-01-01T01:20:44.000Z</time></trkpt><trkpt lat="14.72389" lon="101.237308"><ele>215</ele><time>1970-01-01T01:20:45.000Z</time></trkpt><trkpt lat="14.723886" lon="101.237352"><ele>214.9</ele><time>1970-01-01T01:20:46.000Z</time></trkpt><trkpt lat="14.723879" lon="101.237397"><ele>215</ele><time>1970-01-01T01:20:47.000Z</time></trkpt><trkpt lat="14.723872" lon="101.237439"><ele>215</ele><time>1970-01-01T01:20:48.000Z</time></trkpt><trkpt lat="14.723866" lon="101.237481"><ele>214.9</ele><time>1970-01-01T01:20:49.000Z</time></trkpt><trkpt lat="14.723861" lon="101.237523"><ele>214.6</ele><time>1970-01-01T01:20:50.000Z</time></trkpt><trkpt lat="14.723857" lon="101.237567"><ele>214.5</ele><time>1970-01-01T01:20:51.000Z</time></trkpt><trkpt lat="14.723853" lon="101.237607"><ele>214.6</ele><time>1970-01-01T01:20:52.000Z</time></trkpt><trkpt lat="14.723848" lon="101.237645"><ele>214.6</ele><time>1970-01-01T01:20:53.000Z</time></trkpt><trkpt lat="14.723843" lon="101.237683"><ele>214.6</ele><time>1970-01-01T01:20:54.000Z</time></trkpt><trkpt lat="14.723838" lon="101.237722"><ele>214.5</ele><time>1970-01-01T01:20:55.000Z</time></trkpt><trkpt lat="14.723835" lon="101.237762"><ele>214.7</ele><time>1970-01-01T01:20:56.000Z</time></trkpt><trkpt lat="14.723832" lon="101.237801"><ele>214.9</ele><time>1970-01-01T01:20:57.000Z</time></trkpt><trkpt lat="14.723829" lon="101.237841"><ele>215.1</ele><time>1970-01-01T01:20:58.000Z</time></trkpt><trkpt lat="14.723825" lon="101.237877"><ele>215.2</ele><time>1970-01-01T01:20:59.000Z</time></trkpt><trkpt lat="14.723822" lon="101.237914"><ele>215.3</ele><time>1970-01-01T01:21:00.000Z</time></trkpt><trkpt lat="14.72382" lon="101.23795"><ele>215.4</ele><time>1970-01-01T01:21:01.000Z</time></trkpt><trkpt lat="14.723821" lon="101.237984"><ele>215.5</ele><time>1970-01-01T01:21:02.000Z</time></trkpt><trkpt lat="14.72382" lon="101.238019"><ele>215.4</ele><time>1970-01-01T01:21:03.000Z</time></trkpt><trkpt lat="14.723816" lon="101.238061"><ele>215.4</ele><time>1970-01-01T01:21:04.000Z</time></trkpt><trkpt lat="14.723812" lon="101.238106"><ele>215.4</ele><time>1970-01-01T01:21:05.000Z</time></trkpt><trkpt lat="14.723811" lon="101.23815"><ele>215.4</ele><time>1970-01-01T01:21:06.000Z</time></trkpt><trkpt lat="14.72381" lon="101.238194"><ele>215.6</ele><time>1970-01-01T01:21:07.000Z</time></trkpt><trkpt lat="14.723799" lon="101.238256"><ele>215.7</ele><time>1970-01-01T01:21:08.000Z</time></trkpt><trkpt lat="14.72379" lon="101.238302"><ele>215.7</ele><time>1970-01-01T01:21:09.000Z</time></trkpt><trkpt lat="14.723791" lon="101.238346"><ele>215.7</ele><time>1970-01-01T01:21:10.000Z</time></trkpt><trkpt lat="14.723786" lon="101.238397"><ele>215.7</ele><time>1970-01-01T01:21:11.000Z</time></trkpt><trkpt lat="14.72379" lon="101.238437"><ele>215.8</ele><time>1970-01-01T01:21:12.000Z</time></trkpt><trkpt lat="14.723785" lon="101.238498"><ele>215.8</ele><time>1970-01-01T01:21:13.000Z</time></trkpt><trkpt lat="14.723779" lon="101.238562"><ele>215.8</ele><time>1970-01-01T01:21:14.000Z</time></trkpt><trkpt lat="14.723779" lon="101.238624"><ele>215.6</ele><time>1970-01-01T01:21:15.000Z</time></trkpt><trkpt lat="14.723778" lon="101.238683"><ele>215.3</ele><time>1970-01-01T01:21:16.000Z</time></trkpt><trkpt lat="14.723769" lon="101.238758"><ele>214.8</ele><time>1970-01-01T01:21:17.000Z</time></trkpt><trkpt lat="14.723767" lon="101.23882"><ele>214.4</ele><time>1970-01-01T01:21:18.000Z</time></trkpt><trkpt lat="14.723764" lon="101.23889"><ele>213.9</ele><time>1970-01-01T01:21:19.000Z</time></trkpt><trkpt lat="14.723763" lon="101.23896"><ele>213.4</ele><time>1970-01-01T01:21:20.000Z</time></trkpt><trkpt lat="14.723766" lon="101.239025"><ele>213</ele><time>1970-01-01T01:21:21.000Z</time></trkpt><trkpt lat="14.723771" lon="101.239092"><ele>212.6</ele><time>1970-01-01T01:21:22.000Z</time></trkpt><trkpt lat="14.723777" lon="101.239159"><ele>212.2</ele><time>1970-01-01T01:21:23.000Z</time></trkpt><trkpt lat="14.72378" lon="101.239227"><ele>212</ele><time>1970-01-01T01:21:24.000Z</time></trkpt><trkpt lat="14.723778" lon="101.239302"><ele>212.2</ele><time>1970-01-01T01:21:25.000Z</time></trkpt><trkpt lat="14.723791" lon="101.239364"><ele>212.6</ele><time>1970-01-01T01:21:26.000Z</time></trkpt><trkpt lat="14.723817" lon="101.239411"><ele>213</ele><time>1970-01-01T01:21:27.000Z</time></trkpt><trkpt lat="14.723831" lon="101.239471"><ele>213.2</ele><time>1970-01-01T01:21:28.000Z</time></trkpt><trkpt lat="14.723845" lon="101.239534"><ele>213.3</ele><time>1970-01-01T01:21:29.000Z</time></trkpt><trkpt lat="14.723862" lon="101.239599"><ele>213.4</ele><time>1970-01-01T01:21:30.000Z</time></trkpt><trkpt lat="14.723881" lon="101.23967"><ele>213.6</ele><time>1970-01-01T01:21:31.000Z</time></trkpt><trkpt lat="14.723899" lon="101.239732"><ele>214.1</ele><time>1970-01-01T01:21:32.000Z</time></trkpt><trkpt lat="14.723913" lon="101.239789"><ele>214.8</ele><time>1970-01-01T01:21:33.000Z</time></trkpt><trkpt lat="14.723932" lon="101.23985"><ele>215.4</ele><time>1970-01-01T01:21:34.000Z</time></trkpt><trkpt lat="14.723942" lon="101.239909"><ele>216</ele><time>1970-01-01T01:21:35.000Z</time></trkpt><trkpt lat="14.723958" lon="101.239957"><ele>216.3</ele><time>1970-01-01T01:21:36.000Z</time></trkpt><trkpt lat="14.72397" lon="101.24001"><ele>216.5</ele><time>1970-01-01T01:21:37.000Z</time></trkpt><trkpt lat="14.723978" lon="101.240063"><ele>216.6</ele><time>1970-01-01T01:21:38.000Z</time></trkpt><trkpt lat="14.723983" lon="101.240124"><ele>216.5</ele><time>1970-01-01T01:21:39.000Z</time></trkpt><trkpt lat="14.72399" lon="101.24018"><ele>216.2</ele><time>1970-01-01T01:21:40.000Z</time></trkpt><trkpt lat="14.723989" lon="101.24023"><ele>215.9</ele><time>1970-01-01T01:21:41.000Z</time></trkpt><trkpt lat="14.723985" lon="101.240283"><ele>215.6</ele><time>1970-01-01T01:21:42.000Z</time></trkpt><trkpt lat="14.723973" lon="101.240332"><ele>215.3</ele><time>1970-01-01T01:21:43.000Z</time></trkpt><trkpt lat="14.723963" lon="101.240381"><ele>215.1</ele><time>1970-01-01T01:21:44.000Z</time></trkpt><trkpt lat="14.723951" lon="101.240428"><ele>214.8</ele><time>1970-01-01T01:21:45.000Z</time></trkpt><trkpt lat="14.723936" lon="101.240477"><ele>214.5</ele><time>1970-01-01T01:21:46.000Z</time></trkpt><trkpt lat="14.723921" lon="101.240515"><ele>214.3</ele><time>1970-01-01T01:21:47.000Z</time></trkpt><trkpt lat="14.723912" lon="101.240553"><ele>214.2</ele><time>1970-01-01T01:21:48.000Z</time></trkpt><trkpt lat="14.723898" lon="101.2406"><ele>214.2</ele><time>1970-01-01T01:21:49.000Z</time></trkpt><trkpt lat="14.723883" lon="101.240648"><ele>214.3</ele><time>1970-01-01T01:21:50.000Z</time></trkpt><trkpt lat="14.723867" lon="101.240696"><ele>214.8</ele><time>1970-01-01T01:21:51.000Z</time></trkpt><trkpt lat="14.723856" lon="101.240725"><ele>215.1</ele><time>1970-01-01T01:21:52.000Z</time></trkpt><trkpt lat="14.723839" lon="101.240766"><ele>215.6</ele><time>1970-01-01T01:21:53.000Z</time></trkpt><trkpt lat="14.723814" lon="101.240817"><ele>216.3</ele><time>1970-01-01T01:21:54.000Z</time></trkpt><trkpt lat="14.723792" lon="101.240862"><ele>216.7</ele><time>1970-01-01T01:21:55.000Z</time></trkpt><trkpt lat="14.723784" lon="101.240895"><ele>217</ele><time>1970-01-01T01:21:56.000Z</time></trkpt><trkpt lat="14.723757" lon="101.240942"><ele>217.2</ele><time>1970-01-01T01:21:57.000Z</time></trkpt><trkpt lat="14.72374" lon="101.24098"><ele>217.4</ele><time>1970-01-01T01:21:58.000Z</time></trkpt><trkpt lat="14.723724" lon="101.241015"><ele>217.7</ele><time>1970-01-01T01:21:59.000Z</time></trkpt><trkpt lat="14.723702" lon="101.241032"><ele>217.8</ele><time>1970-01-01T01:22:00.000Z</time></trkpt><trkpt lat="14.723694" lon="101.241065"><ele>218.1</ele><time>1970-01-01T01:22:01.000Z</time></trkpt><trkpt lat="14.723684" lon="101.241099"><ele>218.3</ele><time>1970-01-01T01:22:02.000Z</time></trkpt><trkpt lat="14.723672" lon="101.241133"><ele>218.5</ele><time>1970-01-01T01:22:03.000Z</time></trkpt><trkpt lat="14.723656" lon="101.241171"><ele>218.5</ele><time>1970-01-01T01:22:04.000Z</time></trkpt><trkpt lat="14.723638" lon="101.241207"><ele>218.6</ele><time>1970-01-01T01:22:05.000Z</time></trkpt><trkpt lat="14.723618" lon="101.241242"><ele>218.6</ele><time>1970-01-01T01:22:06.000Z</time></trkpt><trkpt lat="14.723599" lon="101.241275"><ele>218.7</ele><time>1970-01-01T01:22:07.000Z</time></trkpt><trkpt lat="14.723582" lon="101.241303"><ele>218.7</ele><time>1970-01-01T01:22:08.000Z</time></trkpt><trkpt lat="14.72356" lon="101.241338"><ele>218.5</ele><time>1970-01-01T01:22:09.000Z</time></trkpt><trkpt lat="14.723537" lon="101.241378"><ele>218.4</ele><time>1970-01-01T01:22:10.000Z</time></trkpt><trkpt lat="14.723508" lon="101.241451"><ele>217.7</ele><time>1970-01-01T01:22:11.000Z</time></trkpt><trkpt lat="14.723491" lon="101.241477"><ele>217.6</ele><time>1970-01-01T01:22:12.000Z</time></trkpt><trkpt lat="14.723456" lon="101.24154"><ele>217.4</ele><time>1970-01-01T01:22:14.000Z</time></trkpt><trkpt lat="14.723429" lon="101.241588"><ele>217.4</ele><time>1970-01-01T01:22:15.000Z</time></trkpt><trkpt lat="14.723405" lon="101.241617"><ele>217.4</ele><time>1970-01-01T01:22:16.000Z</time></trkpt><trkpt lat="14.723376" lon="101.241652"><ele>217.6</ele><time>1970-01-01T01:22:17.000Z</time></trkpt><trkpt lat="14.723353" lon="101.241681"><ele>217.7</ele><time>1970-01-01T01:22:18.000Z</time></trkpt><trkpt lat="14.72333" lon="101.241711"><ele>218</ele><time>1970-01-01T01:22:19.000Z</time></trkpt><trkpt lat="14.723307" lon="101.241738"><ele>218.2</ele><time>1970-01-01T01:22:20.000Z</time></trkpt><trkpt lat="14.723279" lon="101.241775"><ele>218.4</ele><time>1970-01-01T01:22:21.000Z</time></trkpt><trkpt lat="14.723253" lon="101.241806"><ele>218.6</ele><time>1970-01-01T01:22:22.000Z</time></trkpt><trkpt lat="14.723227" lon="101.241838"><ele>218.7</ele><time>1970-01-01T01:22:23.000Z</time></trkpt><trkpt lat="14.7232" lon="101.24187"><ele>218.7</ele><time>1970-01-01T01:22:24.000Z</time></trkpt><trkpt lat="14.723175" lon="101.241898"><ele>218.7</ele><time>1970-01-01T01:22:25.000Z</time></trkpt><trkpt lat="14.723152" lon="101.241926"><ele>218.7</ele><time>1970-01-01T01:22:26.000Z</time></trkpt><trkpt lat="14.723129" lon="101.241954"><ele>218.7</ele><time>1970-01-01T01:22:27.000Z</time></trkpt><trkpt lat="14.723106" lon="101.241984"><ele>218.8</ele><time>1970-01-01T01:22:28.000Z</time></trkpt><trkpt lat="14.723083" lon="101.242016"><ele>218.8</ele><time>1970-01-01T01:22:29.000Z</time></trkpt><trkpt lat="14.72306" lon="101.242049"><ele>219</ele><time>1970-01-01T01:22:30.000Z</time></trkpt><trkpt lat="14.723035" lon="101.242081"><ele>219.2</ele><time>1970-01-01T01:22:31.000Z</time></trkpt><trkpt lat="14.72301" lon="101.242114"><ele>219.4</ele><time>1970-01-01T01:22:32.000Z</time></trkpt><trkpt lat="14.722983" lon="101.242146"><ele>219.6</ele><time>1970-01-01T01:22:33.000Z</time></trkpt><trkpt lat="14.722956" lon="101.24218"><ele>219.6</ele><time>1970-01-01T01:22:34.000Z</time></trkpt><trkpt lat="14.722929" lon="101.242215"><ele>219.5</ele><time>1970-01-01T01:22:35.000Z</time></trkpt><trkpt lat="14.722902" lon="101.24225"><ele>219.5</ele><time>1970-01-01T01:22:36.000Z</time></trkpt><trkpt lat="14.722877" lon="101.242284"><ele>219.6</ele><time>1970-01-01T01:22:37.000Z</time></trkpt><trkpt lat="14.722855" lon="101.242316"><ele>219.7</ele><time>1970-01-01T01:22:38.000Z</time></trkpt><trkpt lat="14.722833" lon="101.242348"><ele>219.7</ele><time>1970-01-01T01:22:39.000Z</time></trkpt><trkpt lat="14.722811" lon="101.242382"><ele>219.7</ele><time>1970-01-01T01:22:40.000Z</time></trkpt><trkpt lat="14.722786" lon="101.242416"><ele>219.8</ele><time>1970-01-01T01:22:41.000Z</time></trkpt><trkpt lat="14.722758" lon="101.242452"><ele>219.9</ele><time>1970-01-01T01:22:42.000Z</time></trkpt><trkpt lat="14.722727" lon="101.24249"><ele>219.9</ele><time>1970-01-01T01:22:43.000Z</time></trkpt><trkpt lat="14.722697" lon="101.242522"><ele>219.9</ele><time>1970-01-01T01:22:44.000Z</time></trkpt><trkpt lat="14.72267" lon="101.242551"><ele>220</ele><time>1970-01-01T01:22:45.000Z</time></trkpt><trkpt lat="14.722643" lon="101.242579"><ele>220</ele><time>1970-01-01T01:22:46.000Z</time></trkpt><trkpt lat="14.722615" lon="101.24261"><ele>220.1</ele><time>1970-01-01T01:22:47.000Z</time></trkpt><trkpt lat="14.722585" lon="101.242643"><ele>220.1</ele><time>1970-01-01T01:22:48.000Z</time></trkpt><trkpt lat="14.722555" lon="101.242675"><ele>220.1</ele><time>1970-01-01T01:22:49.000Z</time></trkpt><trkpt lat="14.722526" lon="101.242706"><ele>220.1</ele><time>1970-01-01T01:22:50.000Z</time></trkpt><trkpt lat="14.722497" lon="101.242736"><ele>220.1</ele><time>1970-01-01T01:22:51.000Z</time></trkpt><trkpt lat="14.722467" lon="101.24277"><ele>220.1</ele><time>1970-01-01T01:22:52.000Z</time></trkpt><trkpt lat="14.722438" lon="101.242803"><ele>219.9</ele><time>1970-01-01T01:22:53.000Z</time></trkpt><trkpt lat="14.722408" lon="101.242837"><ele>219.8</ele><time>1970-01-01T01:22:54.000Z</time></trkpt><trkpt lat="14.722381" lon="101.24287"><ele>220</ele><time>1970-01-01T01:22:55.000Z</time></trkpt><trkpt lat="14.722354" lon="101.242901"><ele>220.2</ele><time>1970-01-01T01:22:56.000Z</time></trkpt><trkpt lat="14.722328" lon="101.242932"><ele>220.2</ele><time>1970-01-01T01:22:57.000Z</time></trkpt><trkpt lat="14.722304" lon="101.24296"><ele>220.2</ele><time>1970-01-01T01:22:58.000Z</time></trkpt><trkpt lat="14.722279" lon="101.242989"><ele>220.5</ele><time>1970-01-01T01:22:59.000Z</time></trkpt><trkpt lat="14.722252" lon="101.243021"><ele>220.7</ele><time>1970-01-01T01:23:00.000Z</time></trkpt><trkpt lat="14.722226" lon="101.243053"><ele>220.9</ele><time>1970-01-01T01:23:01.000Z</time></trkpt><trkpt lat="14.722201" lon="101.243084"><ele>221.1</ele><time>1970-01-01T01:23:02.000Z</time></trkpt><trkpt lat="14.722176" lon="101.243113"><ele>221.3</ele><time>1970-01-01T01:23:03.000Z</time></trkpt><trkpt lat="14.722152" lon="101.24314"><ele>221.7</ele><time>1970-01-01T01:23:04.000Z</time></trkpt><trkpt lat="14.722127" lon="101.243168"><ele>222.1</ele><time>1970-01-01T01:23:05.000Z</time></trkpt><trkpt lat="14.7221" lon="101.243197"><ele>222.8</ele><time>1970-01-01T01:23:06.000Z</time></trkpt><trkpt lat="14.722074" lon="101.243224"><ele>223.5</ele><time>1970-01-01T01:23:07.000Z</time></trkpt><trkpt lat="14.722048" lon="101.243251"><ele>223.8</ele><time>1970-01-01T01:23:08.000Z</time></trkpt><trkpt lat="14.722022" lon="101.243277"><ele>224</ele><time>1970-01-01T01:23:09.000Z</time></trkpt><trkpt lat="14.721995" lon="101.243302"><ele>224.1</ele><time>1970-01-01T01:23:10.000Z</time></trkpt><trkpt lat="14.721969" lon="101.243326"><ele>224.1</ele><time>1970-01-01T01:23:11.000Z</time></trkpt><trkpt lat="14.721943" lon="101.24335"><ele>224.1</ele><time>1970-01-01T01:23:12.000Z</time></trkpt><trkpt lat="14.721915" lon="101.243372"><ele>224.2</ele><time>1970-01-01T01:23:13.000Z</time></trkpt><trkpt lat="14.721887" lon="101.243395"><ele>224.5</ele><time>1970-01-01T01:23:14.000Z</time></trkpt><trkpt lat="14.721857" lon="101.243417"><ele>224.7</ele><time>1970-01-01T01:23:15.000Z</time></trkpt><trkpt lat="14.721826" lon="101.243439"><ele>225.1</ele><time>1970-01-01T01:23:16.000Z</time></trkpt><trkpt lat="14.721795" lon="101.243462"><ele>225.5</ele><time>1970-01-01T01:23:17.000Z</time></trkpt><trkpt lat="14.721763" lon="101.243483"><ele>225.8</ele><time>1970-01-01T01:23:18.000Z</time></trkpt><trkpt lat="14.72173" lon="101.243504"><ele>226</ele><time>1970-01-01T01:23:19.000Z</time></trkpt><trkpt lat="14.721699" lon="101.243524"><ele>226.1</ele><time>1970-01-01T01:23:20.000Z</time></trkpt><trkpt lat="14.721668" lon="101.243543"><ele>226.2</ele><time>1970-01-01T01:23:21.000Z</time></trkpt><trkpt lat="14.721637" lon="101.243561"><ele>226.2</ele><time>1970-01-01T01:23:22.000Z</time></trkpt><trkpt lat="14.721607" lon="101.243579"><ele>226</ele><time>1970-01-01T01:23:23.000Z</time></trkpt><trkpt lat="14.721579" lon="101.243592"><ele>225.8</ele><time>1970-01-01T01:23:24.000Z</time></trkpt><trkpt lat="14.721548" lon="101.243606"><ele>225.7</ele><time>1970-01-01T01:23:25.000Z</time></trkpt><trkpt lat="14.721515" lon="101.24362"><ele>225.6</ele><time>1970-01-01T01:23:26.000Z</time></trkpt><trkpt lat="14.72148" lon="101.243636"><ele>225.5</ele><time>1970-01-01T01:23:27.000Z</time></trkpt><trkpt lat="14.721446" lon="101.24365"><ele>225.4</ele><time>1970-01-01T01:23:28.000Z</time></trkpt><trkpt lat="14.721413" lon="101.24366"><ele>225.4</ele><time>1970-01-01T01:23:29.000Z</time></trkpt><trkpt lat="14.72138" lon="101.24367"><ele>225.4</ele><time>1970-01-01T01:23:30.000Z</time></trkpt><trkpt lat="14.721345" lon="101.243682"><ele>225.3</ele><time>1970-01-01T01:23:31.000Z</time></trkpt><trkpt lat="14.72131" lon="101.243695"><ele>225.3</ele><time>1970-01-01T01:23:32.000Z</time></trkpt><trkpt lat="14.721275" lon="101.243709"><ele>225.4</ele><time>1970-01-01T01:23:33.000Z</time></trkpt><trkpt lat="14.721239" lon="101.243724"><ele>225.6</ele><time>1970-01-01T01:23:34.000Z</time></trkpt><trkpt lat="14.721204" lon="101.243737"><ele>225.8</ele><time>1970-01-01T01:23:35.000Z</time></trkpt><trkpt lat="14.721169" lon="101.243751"><ele>226.1</ele><time>1970-01-01T01:23:36.000Z</time></trkpt><trkpt lat="14.721133" lon="101.243766"><ele>226.5</ele><time>1970-01-01T01:23:37.000Z</time></trkpt><trkpt lat="14.721098" lon="101.243779"><ele>226.9</ele><time>1970-01-01T01:23:38.000Z</time></trkpt><trkpt lat="14.721065" lon="101.243792"><ele>227.2</ele><time>1970-01-01T01:23:39.000Z</time></trkpt><trkpt lat="14.721031" lon="101.243807"><ele>227.4</ele><time>1970-01-01T01:23:40.000Z</time></trkpt><trkpt lat="14.720996" lon="101.243823"><ele>227.6</ele><time>1970-01-01T01:23:41.000Z</time></trkpt><trkpt lat="14.720957" lon="101.243845"><ele>227.7</ele><time>1970-01-01T01:23:42.000Z</time></trkpt><trkpt lat="14.720918" lon="101.243872"><ele>227.9</ele><time>1970-01-01T01:23:43.000Z</time></trkpt><trkpt lat="14.720882" lon="101.243902"><ele>227.9</ele><time>1970-01-01T01:23:44.000Z</time></trkpt><trkpt lat="14.720841" lon="101.243967"><ele>228.2</ele><time>1970-01-01T01:23:45.000Z</time></trkpt><trkpt lat="14.720817" lon="101.244002"><ele>228.3</ele><time>1970-01-01T01:23:46.000Z</time></trkpt><trkpt lat="14.720788" lon="101.244045"><ele>228.4</ele><time>1970-01-01T01:23:47.000Z</time></trkpt><trkpt lat="14.720767" lon="101.244083"><ele>228.5</ele><time>1970-01-01T01:23:48.000Z</time></trkpt><trkpt lat="14.720748" lon="101.244132"><ele>228.5</ele><time>1970-01-01T01:23:49.000Z</time></trkpt><trkpt lat="14.720719" lon="101.244189"><ele>228.8</ele><time>1970-01-01T01:23:50.000Z</time></trkpt><trkpt lat="14.720706" lon="101.244237"><ele>228.9</ele><time>1970-01-01T01:23:51.000Z</time></trkpt><trkpt lat="14.720699" lon="101.244281"><ele>228.9</ele><time>1970-01-01T01:23:52.000Z</time></trkpt><trkpt lat="14.720683" lon="101.244331"><ele>228.9</ele><time>1970-01-01T01:23:53.000Z</time></trkpt><trkpt lat="14.720671" lon="101.244372"><ele>229</ele><time>1970-01-01T01:23:54.000Z</time></trkpt><trkpt lat="14.720657" lon="101.244424"><ele>229.3</ele><time>1970-01-01T01:23:55.000Z</time></trkpt><trkpt lat="14.720643" lon="101.244475"><ele>229.5</ele><time>1970-01-01T01:23:56.000Z</time></trkpt><trkpt lat="14.720631" lon="101.244517"><ele>229.6</ele><time>1970-01-01T01:23:57.000Z</time></trkpt><trkpt lat="14.72062" lon="101.244561"><ele>229.6</ele><time>1970-01-01T01:23:58.000Z</time></trkpt><trkpt lat="14.720612" lon="101.244614"><ele>229.6</ele><time>1970-01-01T01:23:59.000Z</time></trkpt><trkpt lat="14.720603" lon="101.244662"><ele>229.6</ele><time>1970-01-01T01:24:00.000Z</time></trkpt><trkpt lat="14.720596" lon="101.244703"><ele>229.5</ele><time>1970-01-01T01:24:01.000Z</time></trkpt><trkpt lat="14.720585" lon="101.24475"><ele>229.4</ele><time>1970-01-01T01:24:02.000Z</time></trkpt><trkpt lat="14.720577" lon="101.244794"><ele>229.3</ele><time>1970-01-01T01:24:03.000Z</time></trkpt><trkpt lat="14.720567" lon="101.244834"><ele>229.1</ele><time>1970-01-01T01:24:04.000Z</time></trkpt><trkpt lat="14.720563" lon="101.244867"><ele>229</ele><time>1970-01-01T01:24:05.000Z</time></trkpt><trkpt lat="14.720561" lon="101.244904"><ele>228.8</ele><time>1970-01-01T01:24:06.000Z</time></trkpt><trkpt lat="14.720553" lon="101.244949"><ele>228.4</ele><time>1970-01-01T01:24:07.000Z</time></trkpt><trkpt lat="14.720545" lon="101.244997"><ele>227.9</ele><time>1970-01-01T01:24:08.000Z</time></trkpt><trkpt lat="14.720535" lon="101.245039"><ele>227.7</ele><time>1970-01-01T01:24:09.000Z</time></trkpt><trkpt lat="14.720522" lon="101.245098"><ele>227.4</ele><time>1970-01-01T01:24:10.000Z</time></trkpt><trkpt lat="14.720511" lon="101.245156"><ele>227.3</ele><time>1970-01-01T01:24:11.000Z</time></trkpt><trkpt lat="14.720509" lon="101.245196"><ele>227.2</ele><time>1970-01-01T01:24:12.000Z</time></trkpt><trkpt lat="14.720495" lon="101.245249"><ele>227.1</ele><time>1970-01-01T01:24:13.000Z</time></trkpt><trkpt lat="14.720478" lon="101.24531"><ele>227</ele><time>1970-01-01T01:24:14.000Z</time></trkpt><trkpt lat="14.720452" lon="101.245377"><ele>226.8</ele><time>1970-01-01T01:24:15.000Z</time></trkpt><trkpt lat="14.720438" lon="101.245425"><ele>226.7</ele><time>1970-01-01T01:24:16.000Z</time></trkpt><trkpt lat="14.720414" lon="101.245479"><ele>226.6</ele><time>1970-01-01T01:24:17.000Z</time></trkpt><trkpt lat="14.720388" lon="101.245543"><ele>226.5</ele><time>1970-01-01T01:24:18.000Z</time></trkpt><trkpt lat="14.720357" lon="101.245605"><ele>226.3</ele><time>1970-01-01T01:24:19.000Z</time></trkpt><trkpt lat="14.720317" lon="101.245665"><ele>226</ele><time>1970-01-01T01:24:20.000Z</time></trkpt><trkpt lat="14.72027" lon="101.245728"><ele>225.5</ele><time>1970-01-01T01:24:21.000Z</time></trkpt><trkpt lat="14.720233" lon="101.245795"><ele>225.1</ele><time>1970-01-01T01:24:22.000Z</time></trkpt><trkpt lat="14.720197" lon="101.245862"><ele>224.2</ele><time>1970-01-01T01:24:23.000Z</time></trkpt><trkpt lat="14.720162" lon="101.245924"><ele>223.2</ele><time>1970-01-01T01:24:24.000Z</time></trkpt><trkpt lat="14.720123" lon="101.245979"><ele>222.4</ele><time>1970-01-01T01:24:25.000Z</time></trkpt><trkpt lat="14.720086" lon="101.246035"><ele>222.3</ele><time>1970-01-01T01:24:26.000Z</time></trkpt><trkpt lat="14.720053" lon="101.246083"><ele>222.4</ele><time>1970-01-01T01:24:27.000Z</time></trkpt><trkpt lat="14.720021" lon="101.246126"><ele>222.6</ele><time>1970-01-01T01:24:28.000Z</time></trkpt><trkpt lat="14.719995" lon="101.246178"><ele>222.8</ele><time>1970-01-01T01:24:29.000Z</time></trkpt><trkpt lat="14.719969" lon="101.246224"><ele>223.1</ele><time>1970-01-01T01:24:30.000Z</time></trkpt><trkpt lat="14.719947" lon="101.246253"><ele>223.5</ele><time>1970-01-01T01:24:31.000Z</time></trkpt><trkpt lat="14.719926" lon="101.246288"><ele>224</ele><time>1970-01-01T01:24:32.000Z</time></trkpt><trkpt lat="14.719907" lon="101.246331"><ele>224.3</ele><time>1970-01-01T01:24:33.000Z</time></trkpt><trkpt lat="14.719885" lon="101.246363"><ele>224.6</ele><time>1970-01-01T01:24:34.000Z</time></trkpt><trkpt lat="14.719857" lon="101.246402"><ele>225</ele><time>1970-01-01T01:24:35.000Z</time></trkpt><trkpt lat="14.719837" lon="101.246426"><ele>225.3</ele><time>1970-01-01T01:24:36.000Z</time></trkpt><trkpt lat="14.719807" lon="101.246455"><ele>225.5</ele><time>1970-01-01T01:24:37.000Z</time></trkpt><trkpt lat="14.719777" lon="101.246491"><ele>225.6</ele><time>1970-01-01T01:24:38.000Z</time></trkpt><trkpt lat="14.719753" lon="101.246526"><ele>225.6</ele><time>1970-01-01T01:24:39.000Z</time></trkpt><trkpt lat="14.719734" lon="101.246553"><ele>225.6</ele><time>1970-01-01T01:24:40.000Z</time></trkpt><trkpt lat="14.719712" lon="101.246583"><ele>225.6</ele><time>1970-01-01T01:24:41.000Z</time></trkpt><trkpt lat="14.719683" lon="101.246611"><ele>225.8</ele><time>1970-01-01T01:24:42.000Z</time></trkpt><trkpt lat="14.719656" lon="101.24664"><ele>226.1</ele><time>1970-01-01T01:24:43.000Z</time></trkpt><trkpt lat="14.719634" lon="101.246664"><ele>226.3</ele><time>1970-01-01T01:24:44.000Z</time></trkpt><trkpt lat="14.7196" lon="101.246695"><ele>226.4</ele><time>1970-01-01T01:24:46.000Z</time></trkpt><trkpt lat="14.71957" lon="101.246697"><ele>226.5</ele><time>1970-01-01T01:24:49.000Z</time></trkpt><trkpt lat="14.719531" lon="101.246726"><ele>226.5</ele><time>1970-01-01T01:25:10.000Z</time></trkpt><trkpt lat="14.7195" lon="101.246737"><ele>226.5</ele><time>1970-01-01T01:25:11.000Z</time></trkpt><trkpt lat="14.719467" lon="101.24675"><ele>226.5</ele><time>1970-01-01T01:25:12.000Z</time></trkpt><trkpt lat="14.719436" lon="101.246761"><ele>226.5</ele><time>1970-01-01T01:25:13.000Z</time></trkpt><trkpt lat="14.719406" lon="101.246771"><ele>226.6</ele><time>1970-01-01T01:25:14.000Z</time></trkpt><trkpt lat="14.719373" lon="101.246781"><ele>226.7</ele><time>1970-01-01T01:25:15.000Z</time></trkpt><trkpt lat="14.719339" lon="101.246792"><ele>226.9</ele><time>1970-01-01T01:25:16.000Z</time></trkpt><trkpt lat="14.719305" lon="101.246802"><ele>227.2</ele><time>1970-01-01T01:25:17.000Z</time></trkpt><trkpt lat="14.719269" lon="101.246812"><ele>227.4</ele><time>1970-01-01T01:25:18.000Z</time></trkpt><trkpt lat="14.719231" lon="101.246823"><ele>227.6</ele><time>1970-01-01T01:25:19.000Z</time></trkpt><trkpt lat="14.71919" lon="101.246837"><ele>227.8</ele><time>1970-01-01T01:25:20.000Z</time></trkpt><trkpt lat="14.719149" lon="101.246852"><ele>228</ele><time>1970-01-01T01:25:21.000Z</time></trkpt><trkpt lat="14.719108" lon="101.246868"><ele>228.2</ele><time>1970-01-01T01:25:22.000Z</time></trkpt><trkpt lat="14.719068" lon="101.246882"><ele>228.5</ele><time>1970-01-01T01:25:23.000Z</time></trkpt><trkpt lat="14.71903" lon="101.246895"><ele>228.7</ele><time>1970-01-01T01:25:24.000Z</time></trkpt><trkpt lat="14.718994" lon="101.246907"><ele>229.1</ele><time>1970-01-01T01:25:25.000Z</time></trkpt><trkpt lat="14.718959" lon="101.246922"><ele>229.5</ele><time>1970-01-01T01:25:26.000Z</time></trkpt><trkpt lat="14.718928" lon="101.24694"><ele>230</ele><time>1970-01-01T01:25:27.000Z</time></trkpt><trkpt lat="14.718902" lon="101.246961"><ele>230.4</ele><time>1970-01-01T01:25:28.000Z</time></trkpt><trkpt lat="14.718883" lon="101.246983"><ele>231.6</ele><time>1970-01-01T01:25:29.000Z</time></trkpt><trkpt lat="14.718871" lon="101.247011"><ele>231.6</ele><time>1970-01-01T01:25:30.000Z</time></trkpt><trkpt lat="14.718866" lon="101.247048"><ele>231.5</ele><time>1970-01-01T01:25:31.000Z</time></trkpt><trkpt lat="14.71887" lon="101.247085"><ele>231.5</ele><time>1970-01-01T01:25:32.000Z</time></trkpt><trkpt lat="14.718878" lon="101.247122"><ele>231.4</ele><time>1970-01-01T01:25:33.000Z</time></trkpt><trkpt lat="14.71889" lon="101.247159"><ele>231.4</ele><time>1970-01-01T01:25:34.000Z</time></trkpt><trkpt lat="14.718903" lon="101.247197"><ele>231.4</ele><time>1970-01-01T01:25:35.000Z</time></trkpt><trkpt lat="14.718913" lon="101.247234"><ele>231.5</ele><time>1970-01-01T01:25:36.000Z</time></trkpt><trkpt lat="14.718921" lon="101.247273"><ele>231.5</ele><time>1970-01-01T01:25:37.000Z</time></trkpt><trkpt lat="14.718931" lon="101.247331"><ele>231.5</ele><time>1970-01-01T01:25:38.000Z</time></trkpt><trkpt lat="14.718937" lon="101.247379"><ele>231.5</ele><time>1970-01-01T01:25:39.000Z</time></trkpt><trkpt lat="14.718939" lon="101.247426"><ele>231.5</ele><time>1970-01-01T01:25:40.000Z</time></trkpt><trkpt lat="14.718944" lon="101.247472"><ele>231.4</ele><time>1970-01-01T01:25:41.000Z</time></trkpt><trkpt lat="14.718947" lon="101.247516"><ele>231.4</ele><time>1970-01-01T01:25:42.000Z</time></trkpt><trkpt lat="14.71895" lon="101.247561"><ele>231.4</ele><time>1970-01-01T01:25:43.000Z</time></trkpt><trkpt lat="14.718952" lon="101.247608"><ele>231.3</ele><time>1970-01-01T01:25:44.000Z</time></trkpt><trkpt lat="14.718953" lon="101.247656"><ele>231.3</ele><time>1970-01-01T01:25:45.000Z</time></trkpt><trkpt lat="14.718956" lon="101.247701"><ele>231.2</ele><time>1970-01-01T01:25:46.000Z</time></trkpt><trkpt lat="14.718956" lon="101.247756"><ele>231.3</ele><time>1970-01-01T01:25:47.000Z</time></trkpt><trkpt lat="14.718955" lon="101.247813"><ele>231.3</ele><time>1970-01-01T01:25:48.000Z</time></trkpt><trkpt lat="14.718956" lon="101.247868"><ele>230.8</ele><time>1970-01-01T01:25:49.000Z</time></trkpt><trkpt lat="14.718962" lon="101.247915"><ele>230.3</ele><time>1970-01-01T01:25:50.000Z</time></trkpt><trkpt lat="14.718957" lon="101.247973"><ele>229.5</ele><time>1970-01-01T01:25:51.000Z</time></trkpt><trkpt lat="14.718958" lon="101.248029"><ele>229.3</ele><time>1970-01-01T01:25:52.000Z</time></trkpt><trkpt lat="14.718959" lon="101.248089"><ele>229.3</ele><time>1970-01-01T01:25:53.000Z</time></trkpt><trkpt lat="14.718956" lon="101.248154"><ele>229.9</ele><time>1970-01-01T01:25:54.000Z</time></trkpt><trkpt lat="14.718959" lon="101.248212"><ele>230.3</ele><time>1970-01-01T01:25:55.000Z</time></trkpt><trkpt lat="14.718965" lon="101.248272"><ele>230.8</ele><time>1970-01-01T01:25:56.000Z</time></trkpt><trkpt lat="14.718967" lon="101.24833"><ele>231.2</ele><time>1970-01-01T01:25:57.000Z</time></trkpt><trkpt lat="14.718967" lon="101.248387"><ele>231.5</ele><time>1970-01-01T01:25:58.000Z</time></trkpt><trkpt lat="14.718972" lon="101.248437"><ele>231.7</ele><time>1970-01-01T01:25:59.000Z</time></trkpt><trkpt lat="14.718969" lon="101.24849"><ele>232</ele><time>1970-01-01T01:26:00.000Z</time></trkpt><trkpt lat="14.71897" lon="101.248541"><ele>232.3</ele><time>1970-01-01T01:26:01.000Z</time></trkpt><trkpt lat="14.71898" lon="101.248592"><ele>232.3</ele><time>1970-01-01T01:26:02.000Z</time></trkpt><trkpt lat="14.71901" lon="101.248618"><ele>232.4</ele><time>1970-01-01T01:26:03.000Z</time></trkpt><trkpt lat="14.719031" lon="101.24866"><ele>232.5</ele><time>1970-01-01T01:26:04.000Z</time></trkpt><trkpt lat="14.719048" lon="101.248699"><ele>232.5</ele><time>1970-01-01T01:26:05.000Z</time></trkpt><trkpt lat="14.719069" lon="101.248734"><ele>232.5</ele><time>1970-01-01T01:26:06.000Z</time></trkpt><trkpt lat="14.719091" lon="101.248778"><ele>232.6</ele><time>1970-01-01T01:26:07.000Z</time></trkpt><trkpt lat="14.71911" lon="101.248831"><ele>232.7</ele><time>1970-01-01T01:26:08.000Z</time></trkpt><trkpt lat="14.719136" lon="101.248889"><ele>232.9</ele><time>1970-01-01T01:26:09.000Z</time></trkpt><trkpt lat="14.719169" lon="101.248931"><ele>233.1</ele><time>1970-01-01T01:26:10.000Z</time></trkpt><trkpt lat="14.719214" lon="101.248961"><ele>233.3</ele><time>1970-01-01T01:26:11.000Z</time></trkpt><trkpt lat="14.719244" lon="101.248997"><ele>233.3</ele><time>1970-01-01T01:26:12.000Z</time></trkpt><trkpt lat="14.71926" lon="101.249048"><ele>232.9</ele><time>1970-01-01T01:26:13.000Z</time></trkpt><trkpt lat="14.719293" lon="101.249092"><ele>232.5</ele><time>1970-01-01T01:26:14.000Z</time></trkpt><trkpt lat="14.719316" lon="101.249143"><ele>232.2</ele><time>1970-01-01T01:26:15.000Z</time></trkpt><trkpt lat="14.719341" lon="101.249189"><ele>231.9</ele><time>1970-01-01T01:26:16.000Z</time></trkpt><trkpt lat="14.719364" lon="101.249234"><ele>231.6</ele><time>1970-01-01T01:26:17.000Z</time></trkpt><trkpt lat="14.719382" lon="101.249273"><ele>231.4</ele><time>1970-01-01T01:26:18.000Z</time></trkpt><trkpt lat="14.719402" lon="101.249311"><ele>231.3</ele><time>1970-01-01T01:26:19.000Z</time></trkpt><trkpt lat="14.719426" lon="101.249351"><ele>231.2</ele><time>1970-01-01T01:26:20.000Z</time></trkpt><trkpt lat="14.719455" lon="101.249388"><ele>231.1</ele><time>1970-01-01T01:26:21.000Z</time></trkpt><trkpt lat="14.719479" lon="101.249425"><ele>230.9</ele><time>1970-01-01T01:26:22.000Z</time></trkpt><trkpt lat="14.719506" lon="101.249461"><ele>230.8</ele><time>1970-01-01T01:26:23.000Z</time></trkpt><trkpt lat="14.719531" lon="101.249498"><ele>230.8</ele><time>1970-01-01T01:26:24.000Z</time></trkpt><trkpt lat="14.719557" lon="101.249532"><ele>230.8</ele><time>1970-01-01T01:26:25.000Z</time></trkpt><trkpt lat="14.719587" lon="101.249564"><ele>230.9</ele><time>1970-01-01T01:26:26.000Z</time></trkpt><trkpt lat="14.719612" lon="101.249601"><ele>231</ele><time>1970-01-01T01:26:27.000Z</time></trkpt><trkpt lat="14.719634" lon="101.249632"><ele>231.1</ele><time>1970-01-01T01:26:28.000Z</time></trkpt><trkpt lat="14.719656" lon="101.249661"><ele>231.3</ele><time>1970-01-01T01:26:29.000Z</time></trkpt><trkpt lat="14.719678" lon="101.249687"><ele>231.4</ele><time>1970-01-01T01:26:30.000Z</time></trkpt><trkpt lat="14.7197" lon="101.249712"><ele>231.5</ele><time>1970-01-01T01:26:31.000Z</time></trkpt><trkpt lat="14.719724" lon="101.249738"><ele>231.5</ele><time>1970-01-01T01:26:32.000Z</time></trkpt><trkpt lat="14.71975" lon="101.249764"><ele>231.7</ele><time>1970-01-01T01:26:33.000Z</time></trkpt><trkpt lat="14.719776" lon="101.249791"><ele>231.8</ele><time>1970-01-01T01:26:34.000Z</time></trkpt><trkpt lat="14.719803" lon="101.249819"><ele>232.1</ele><time>1970-01-01T01:26:35.000Z</time></trkpt><trkpt lat="14.719831" lon="101.249847"><ele>232.3</ele><time>1970-01-01T01:26:36.000Z</time></trkpt><trkpt lat="14.719862" lon="101.249874"><ele>232.5</ele><time>1970-01-01T01:26:37.000Z</time></trkpt><trkpt lat="14.719894" lon="101.249899"><ele>232.6</ele><time>1970-01-01T01:26:38.000Z</time></trkpt><trkpt lat="14.719926" lon="101.249921"><ele>232.8</ele><time>1970-01-01T01:26:39.000Z</time></trkpt><trkpt lat="14.719952" lon="101.249941"><ele>232.9</ele><time>1970-01-01T01:26:40.000Z</time></trkpt><trkpt lat="14.719976" lon="101.24996"><ele>233</ele><time>1970-01-01T01:26:41.000Z</time></trkpt><trkpt lat="14.719999" lon="101.249976"><ele>233</ele><time>1970-01-01T01:26:42.000Z</time></trkpt><trkpt lat="14.72003" lon="101.249997"><ele>233</ele><time>1970-01-01T01:26:44.000Z</time></trkpt><trkpt lat="14.720059" lon="101.25002"><ele>233</ele><time>1970-01-01T01:26:46.000Z</time></trkpt><trkpt lat="14.720081" lon="101.250039"><ele>233</ele><time>1970-01-01T01:26:47.000Z</time></trkpt><trkpt lat="14.720116" lon="101.250057"><ele>233</ele><time>1970-01-01T01:26:48.000Z</time></trkpt><trkpt lat="14.720161" lon="101.250069"><ele>233</ele><time>1970-01-01T01:26:49.000Z</time></trkpt><trkpt lat="14.720203" lon="101.250078"><ele>233.1</ele><time>1970-01-01T01:26:50.000Z</time></trkpt><trkpt lat="14.720241" lon="101.250087"><ele>233.3</ele><time>1970-01-01T01:26:51.000Z</time></trkpt><trkpt lat="14.720281" lon="101.250096"><ele>233.5</ele><time>1970-01-01T01:26:52.000Z</time></trkpt><trkpt lat="14.720327" lon="101.250102"><ele>233.8</ele><time>1970-01-01T01:26:53.000Z</time></trkpt><trkpt lat="14.720374" lon="101.250107"><ele>234.1</ele><time>1970-01-01T01:26:54.000Z</time></trkpt><trkpt lat="14.72042" lon="101.25011"><ele>234.2</ele><time>1970-01-01T01:26:55.000Z</time></trkpt><trkpt lat="14.720467" lon="101.250108"><ele>234.2</ele><time>1970-01-01T01:26:56.000Z</time></trkpt><trkpt lat="14.720512" lon="101.250103"><ele>234.2</ele><time>1970-01-01T01:26:57.000Z</time></trkpt><trkpt lat="14.720554" lon="101.250098"><ele>234.2</ele><time>1970-01-01T01:26:58.000Z</time></trkpt><trkpt lat="14.720596" lon="101.250093"><ele>234.2</ele><time>1970-01-01T01:26:59.000Z</time></trkpt><trkpt lat="14.720632" lon="101.250091"><ele>234.3</ele><time>1970-01-01T01:27:00.000Z</time></trkpt><trkpt lat="14.720663" lon="101.250096"><ele>234.3</ele><time>1970-01-01T01:27:01.000Z</time></trkpt><trkpt lat="14.720693" lon="101.250102"><ele>234.5</ele><time>1970-01-01T01:27:02.000Z</time></trkpt><trkpt lat="14.720737" lon="101.25012"><ele>234.7</ele><time>1970-01-01T01:27:04.000Z</time></trkpt><trkpt lat="14.720762" lon="101.250146"><ele>234.7</ele><time>1970-01-01T01:27:06.000Z</time></trkpt><trkpt lat="14.720776" lon="101.250172"><ele>234.7</ele><time>1970-01-01T01:27:08.000Z</time></trkpt><trkpt lat="14.720785" lon="101.250206"><ele>234.7</ele><time>1970-01-01T01:27:10.000Z</time></trkpt><trkpt lat="14.72078" lon="101.250262"><ele>235.2</ele><time>1970-01-01T01:27:12.000Z</time></trkpt><trkpt lat="14.720774" lon="101.250294"><ele>235.3</ele><time>1970-01-01T01:27:13.000Z</time></trkpt><trkpt lat="14.720764" lon="101.250335"><ele>235.3</ele><time>1970-01-01T01:27:14.000Z</time></trkpt><trkpt lat="14.720752" lon="101.250379"><ele>235.3</ele><time>1970-01-01T01:27:15.000Z</time></trkpt><trkpt lat="14.72074" lon="101.25042"><ele>235</ele><time>1970-01-01T01:27:16.000Z</time></trkpt><trkpt lat="14.72073" lon="101.250459"><ele>234.7</ele><time>1970-01-01T01:27:17.000Z</time></trkpt><trkpt lat="14.720722" lon="101.250501"><ele>234.3</ele><time>1970-01-01T01:27:18.000Z</time></trkpt><trkpt lat="14.720716" lon="101.250543"><ele>233.9</ele><time>1970-01-01T01:27:19.000Z</time></trkpt><trkpt lat="14.720712" lon="101.25058"><ele>233.6</ele><time>1970-01-01T01:27:20.000Z</time></trkpt><trkpt lat="14.720709" lon="101.250615"><ele>233.4</ele><time>1970-01-01T01:27:21.000Z</time></trkpt><trkpt lat="14.720709" lon="101.250651"><ele>233.3</ele><time>1970-01-01T01:27:22.000Z</time></trkpt><trkpt lat="14.72071" lon="101.250694"><ele>233.4</ele><time>1970-01-01T01:27:23.000Z</time></trkpt><trkpt lat="14.720712" lon="101.25074"><ele>233.4</ele><time>1970-01-01T01:27:24.000Z</time></trkpt><trkpt lat="14.720715" lon="101.250785"><ele>233.6</ele><time>1970-01-01T01:27:25.000Z</time></trkpt><trkpt lat="14.720719" lon="101.250829"><ele>233.7</ele><time>1970-01-01T01:27:26.000Z</time></trkpt><trkpt lat="14.720723" lon="101.250872"><ele>233.8</ele><time>1970-01-01T01:27:27.000Z</time></trkpt><trkpt lat="14.720728" lon="101.25091"><ele>234</ele><time>1970-01-01T01:27:28.000Z</time></trkpt><trkpt lat="14.720735" lon="101.250949"><ele>234.3</ele><time>1970-01-01T01:27:29.000Z</time></trkpt><trkpt lat="14.720745" lon="101.250987"><ele>234.6</ele><time>1970-01-01T01:27:30.000Z</time></trkpt><trkpt lat="14.720754" lon="101.251025"><ele>235</ele><time>1970-01-01T01:27:31.000Z</time></trkpt><trkpt lat="14.720763" lon="101.251062"><ele>235.4</ele><time>1970-01-01T01:27:32.000Z</time></trkpt><trkpt lat="14.720775" lon="101.251114"><ele>235.6</ele><time>1970-01-01T01:27:33.000Z</time></trkpt><trkpt lat="14.72079" lon="101.251152"><ele>235.7</ele><time>1970-01-01T01:27:34.000Z</time></trkpt><trkpt lat="14.720802" lon="101.251193"><ele>235.7</ele><time>1970-01-01T01:27:35.000Z</time></trkpt><trkpt lat="14.720813" lon="101.251227"><ele>235.8</ele><time>1970-01-01T01:27:36.000Z</time></trkpt><trkpt lat="14.720826" lon="101.251272"><ele>235.8</ele><time>1970-01-01T01:27:37.000Z</time></trkpt><trkpt lat="14.720839" lon="101.251304"><ele>235.8</ele><time>1970-01-01T01:27:38.000Z</time></trkpt><trkpt lat="14.72085" lon="101.251344"><ele>235.8</ele><time>1970-01-01T01:27:39.000Z</time></trkpt><trkpt lat="14.720857" lon="101.251383"><ele>235.9</ele><time>1970-01-01T01:27:40.000Z</time></trkpt><trkpt lat="14.72086" lon="101.251422"><ele>236</ele><time>1970-01-01T01:27:41.000Z</time></trkpt><trkpt lat="14.720864" lon="101.251457"><ele>235.9</ele><time>1970-01-01T01:27:42.000Z</time></trkpt><trkpt lat="14.720865" lon="101.251495"><ele>235.9</ele><time>1970-01-01T01:27:43.000Z</time></trkpt><trkpt lat="14.720866" lon="101.251535"><ele>235.8</ele><time>1970-01-01T01:27:44.000Z</time></trkpt><trkpt lat="14.720867" lon="101.251578"><ele>235.8</ele><time>1970-01-01T01:27:45.000Z</time></trkpt><trkpt lat="14.720867" lon="101.251625"><ele>235.8</ele><time>1970-01-01T01:27:46.000Z</time></trkpt><trkpt lat="14.720868" lon="101.251668"><ele>236.3</ele><time>1970-01-01T01:27:47.000Z</time></trkpt><trkpt lat="14.720872" lon="101.251711"><ele>236.9</ele><time>1970-01-01T01:27:48.000Z</time></trkpt><trkpt lat="14.720876" lon="101.251754"><ele>237.1</ele><time>1970-01-01T01:27:49.000Z</time></trkpt><trkpt lat="14.720881" lon="101.251796"><ele>237.3</ele><time>1970-01-01T01:27:50.000Z</time></trkpt><trkpt lat="14.720886" lon="101.251841"><ele>237.4</ele><time>1970-01-01T01:27:51.000Z</time></trkpt><trkpt lat="14.720891" lon="101.251888"><ele>237.5</ele><time>1970-01-01T01:27:52.000Z</time></trkpt><trkpt lat="14.720895" lon="101.251934"><ele>237.4</ele><time>1970-01-01T01:27:53.000Z</time></trkpt><trkpt lat="14.720898" lon="101.251979"><ele>237.2</ele><time>1970-01-01T01:27:54.000Z</time></trkpt><trkpt lat="14.720902" lon="101.252021"><ele>236.9</ele><time>1970-01-01T01:27:55.000Z</time></trkpt><trkpt lat="14.720905" lon="101.252062"><ele>236.7</ele><time>1970-01-01T01:27:56.000Z</time></trkpt><trkpt lat="14.720908" lon="101.252103"><ele>236.5</ele><time>1970-01-01T01:27:57.000Z</time></trkpt><trkpt lat="14.720911" lon="101.252144"><ele>236.4</ele><time>1970-01-01T01:27:58.000Z</time></trkpt><trkpt lat="14.720914" lon="101.252182"><ele>236.1</ele><time>1970-01-01T01:27:59.000Z</time></trkpt><trkpt lat="14.720916" lon="101.252222"><ele>235.9</ele><time>1970-01-01T01:28:00.000Z</time></trkpt><trkpt lat="14.72092" lon="101.252259"><ele>235.7</ele><time>1970-01-01T01:28:01.000Z</time></trkpt><trkpt lat="14.720926" lon="101.252296"><ele>235.6</ele><time>1970-01-01T01:28:02.000Z</time></trkpt><trkpt lat="14.720935" lon="101.252334"><ele>235.6</ele><time>1970-01-01T01:28:03.000Z</time></trkpt><trkpt lat="14.720948" lon="101.252372"><ele>235.6</ele><time>1970-01-01T01:28:04.000Z</time></trkpt><trkpt lat="14.720964" lon="101.252407"><ele>236</ele><time>1970-01-01T01:28:05.000Z</time></trkpt><trkpt lat="14.720985" lon="101.252435"><ele>236</ele><time>1970-01-01T01:28:06.000Z</time></trkpt><trkpt lat="14.721008" lon="101.252459"><ele>236</ele><time>1970-01-01T01:28:07.000Z</time></trkpt><trkpt lat="14.721032" lon="101.25248"><ele>236</ele><time>1970-01-01T01:28:08.000Z</time></trkpt><trkpt lat="14.721057" lon="101.252495"><ele>236</ele><time>1970-01-01T01:28:09.000Z</time></trkpt><trkpt lat="14.721093" lon="101.25249"><ele>236.1</ele><time>1970-01-01T01:28:11.000Z</time></trkpt><trkpt lat="14.721089" lon="101.252456"><ele>236.1</ele><time>1970-01-01T01:28:13.000Z</time></trkpt><trkpt lat="14.721066" lon="101.252437"><ele>236.1</ele><time>1970-01-01T01:28:14.000Z</time></trkpt><trkpt lat="14.721036" lon="101.252418"><ele>236</ele><time>1970-01-01T01:28:15.000Z</time></trkpt><trkpt lat="14.721003" lon="101.252393"><ele>236</ele><time>1970-01-01T01:28:16.000Z</time></trkpt><trkpt lat="14.720971" lon="101.252362"><ele>236</ele><time>1970-01-01T01:28:17.000Z</time></trkpt><trkpt lat="14.720947" lon="101.252321"><ele>235.6</ele><time>1970-01-01T01:28:18.000Z</time></trkpt><trkpt lat="14.72093" lon="101.252274"><ele>235.7</ele><time>1970-01-01T01:28:19.000Z</time></trkpt><trkpt lat="14.720928" lon="101.252194"><ele>236</ele><time>1970-01-01T01:28:20.000Z</time></trkpt><trkpt lat="14.720924" lon="101.252146"><ele>236.3</ele><time>1970-01-01T01:28:21.000Z</time></trkpt><trkpt lat="14.72092" lon="101.252092"><ele>236.5</ele><time>1970-01-01T01:28:22.000Z</time></trkpt><trkpt lat="14.720915" lon="101.252037"><ele>236.8</ele><time>1970-01-01T01:28:23.000Z</time></trkpt><trkpt lat="14.72091" lon="101.251987"><ele>237.1</ele><time>1970-01-01T01:28:24.000Z</time></trkpt><trkpt lat="14.720911" lon="101.251935"><ele>237.4</ele><time>1970-01-01T01:28:25.000Z</time></trkpt><trkpt lat="14.720907" lon="101.251886"><ele>237.5</ele><time>1970-01-01T01:28:26.000Z</time></trkpt><trkpt lat="14.720895" lon="101.251823"><ele>237.4</ele><time>1970-01-01T01:28:27.000Z</time></trkpt><trkpt lat="14.72089" lon="101.251769"><ele>237.2</ele><time>1970-01-01T01:28:28.000Z</time></trkpt><trkpt lat="14.720886" lon="101.251715"><ele>236.9</ele><time>1970-01-01T01:28:29.000Z</time></trkpt><trkpt lat="14.720885" lon="101.251657"><ele>236.2</ele><time>1970-01-01T01:28:30.000Z</time></trkpt><trkpt lat="14.720889" lon="101.251609"><ele>235.7</ele><time>1970-01-01T01:28:31.000Z</time></trkpt><trkpt lat="14.720879" lon="101.251558"><ele>235.8</ele><time>1970-01-01T01:28:32.000Z</time></trkpt><trkpt lat="14.720873" lon="101.251506"><ele>235.8</ele><time>1970-01-01T01:28:33.000Z</time></trkpt><trkpt lat="14.72087" lon="101.251454"><ele>235.9</ele><time>1970-01-01T01:28:34.000Z</time></trkpt><trkpt lat="14.720864" lon="101.251404"><ele>235.9</ele><time>1970-01-01T01:28:35.000Z</time></trkpt><trkpt lat="14.720851" lon="101.251349"><ele>235.8</ele><time>1970-01-01T01:28:36.000Z</time></trkpt><trkpt lat="14.720838" lon="101.251297"><ele>235.8</ele><time>1970-01-01T01:28:37.000Z</time></trkpt><trkpt lat="14.720819" lon="101.251229"><ele>235.8</ele><time>1970-01-01T01:28:38.000Z</time></trkpt><trkpt lat="14.720802" lon="101.251177"><ele>235.7</ele><time>1970-01-01T01:28:39.000Z</time></trkpt><trkpt lat="14.720782" lon="101.251123"><ele>235.6</ele><time>1970-01-01T01:28:40.000Z</time></trkpt><trkpt lat="14.720769" lon="101.251072"><ele>235.5</ele><time>1970-01-01T01:28:41.000Z</time></trkpt><trkpt lat="14.720755" lon="101.251009"><ele>234.8</ele><time>1970-01-01T01:28:42.000Z</time></trkpt><trkpt lat="14.720741" lon="101.250954"><ele>234.3</ele><time>1970-01-01T01:28:43.000Z</time></trkpt><trkpt lat="14.720735" lon="101.250911"><ele>234</ele><time>1970-01-01T01:28:44.000Z</time></trkpt><trkpt lat="14.720731" lon="101.250857"><ele>233.8</ele><time>1970-01-01T01:28:45.000Z</time></trkpt><trkpt lat="14.720725" lon="101.250808"><ele>233.6</ele><time>1970-01-01T01:28:46.000Z</time></trkpt><trkpt lat="14.72072" lon="101.250756"><ele>233.5</ele><time>1970-01-01T01:28:47.000Z</time></trkpt><trkpt lat="14.720715" lon="101.250706"><ele>233.4</ele><time>1970-01-01T01:28:48.000Z</time></trkpt><trkpt lat="14.720715" lon="101.250655"><ele>233.3</ele><time>1970-01-01T01:28:49.000Z</time></trkpt><trkpt lat="14.720714" lon="101.250604"><ele>233.5</ele><time>1970-01-01T01:28:50.000Z</time></trkpt><trkpt lat="14.720715" lon="101.250559"><ele>233.8</ele><time>1970-01-01T01:28:51.000Z</time></trkpt><trkpt lat="14.720715" lon="101.250511"><ele>234.2</ele><time>1970-01-01T01:28:52.000Z</time></trkpt><trkpt lat="14.720724" lon="101.25047"><ele>234.6</ele><time>1970-01-01T01:28:53.000Z</time></trkpt><trkpt lat="14.720731" lon="101.250416"><ele>235</ele><time>1970-01-01T01:28:54.000Z</time></trkpt><trkpt lat="14.720737" lon="101.250365"><ele>235.3</ele><time>1970-01-01T01:28:55.000Z</time></trkpt><trkpt lat="14.720742" lon="101.250312"><ele>235.3</ele><time>1970-01-01T01:28:56.000Z</time></trkpt><trkpt lat="14.720753" lon="101.250261"><ele>235.2</ele><time>1970-01-01T01:28:57.000Z</time></trkpt><trkpt lat="14.72076" lon="101.250222"><ele>235</ele><time>1970-01-01T01:28:58.000Z</time></trkpt><trkpt lat="14.720763" lon="101.250182"><ele>234.7</ele><time>1970-01-01T01:28:59.000Z</time></trkpt><trkpt lat="14.720768" lon="101.250144"><ele>234.4</ele><time>1970-01-01T01:29:00.000Z</time></trkpt><trkpt lat="14.72078" lon="101.250113"><ele>234.4</ele><time>1970-01-01T01:29:01.000Z</time></trkpt><trkpt lat="14.720808" lon="101.250079"><ele>234.3</ele><time>1970-01-01T01:29:02.000Z</time></trkpt><trkpt lat="14.720845" lon="101.250069"><ele>234.2</ele><time>1970-01-01T01:29:03.000Z</time></trkpt><trkpt lat="14.720886" lon="101.250053"><ele>234.1</ele><time>1970-01-01T01:29:04.000Z</time></trkpt><trkpt lat="14.720927" lon="101.250042"><ele>234.1</ele><time>1970-01-01T01:29:05.000Z</time></trkpt><trkpt lat="14.720975" lon="101.250035"><ele>234.1</ele><time>1970-01-01T01:29:06.000Z</time></trkpt><trkpt lat="14.721024" lon="101.250029"><ele>233.9</ele><time>1970-01-01T01:29:07.000Z</time></trkpt><trkpt lat="14.721076" lon="101.25002"><ele>233.9</ele><time>1970-01-01T01:29:08.000Z</time></trkpt><trkpt lat="14.721122" lon="101.250009"><ele>233.8</ele><time>1970-01-01T01:29:09.000Z</time></trkpt><trkpt lat="14.721167" lon="101.249997"><ele>233.8</ele><time>1970-01-01T01:29:10.000Z</time></trkpt><trkpt lat="14.721216" lon="101.249992"><ele>233.9</ele><time>1970-01-01T01:29:11.000Z</time></trkpt><trkpt lat="14.721253" lon="101.249977"><ele>234.1</ele><time>1970-01-01T01:29:12.000Z</time></trkpt><trkpt lat="14.721295" lon="101.249974"><ele>234.3</ele><time>1970-01-01T01:29:13.000Z</time></trkpt><trkpt lat="14.721348" lon="101.249964"><ele>234.6</ele><time>1970-01-01T01:29:14.000Z</time></trkpt><trkpt lat="14.721406" lon="101.249949"><ele>234.9</ele><time>1970-01-01T01:29:15.000Z</time></trkpt><trkpt lat="14.721455" lon="101.249928"><ele>235</ele><time>1970-01-01T01:29:16.000Z</time></trkpt><trkpt lat="14.721498" lon="101.249914"><ele>235</ele><time>1970-01-01T01:29:17.000Z</time></trkpt><trkpt lat="14.721545" lon="101.249912"><ele>234.9</ele><time>1970-01-01T01:29:18.000Z</time></trkpt><trkpt lat="14.721607" lon="101.249897"><ele>234.8</ele><time>1970-01-01T01:29:19.000Z</time></trkpt><trkpt lat="14.72166" lon="101.24988"><ele>234.8</ele><time>1970-01-01T01:29:20.000Z</time></trkpt><trkpt lat="14.72171" lon="101.24986"><ele>234.9</ele><time>1970-01-01T01:29:21.000Z</time></trkpt><trkpt lat="14.721759" lon="101.249848"><ele>234.9</ele><time>1970-01-01T01:29:22.000Z</time></trkpt><trkpt lat="14.721816" lon="101.249834"><ele>234.8</ele><time>1970-01-01T01:29:23.000Z</time></trkpt><trkpt lat="14.721874" lon="101.249818"><ele>234.6</ele><time>1970-01-01T01:29:24.000Z</time></trkpt><trkpt lat="14.721926" lon="101.249809"><ele>234.2</ele><time>1970-01-01T01:29:25.000Z</time></trkpt><trkpt lat="14.721977" lon="101.249792"><ele>233.9</ele><time>1970-01-01T01:29:26.000Z</time></trkpt><trkpt lat="14.722022" lon="101.249784"><ele>233.8</ele><time>1970-01-01T01:29:27.000Z</time></trkpt><trkpt lat="14.72207" lon="101.249774"><ele>233.8</ele><time>1970-01-01T01:29:28.000Z</time></trkpt><trkpt lat="14.722113" lon="101.249768"><ele>233.8</ele><time>1970-01-01T01:29:29.000Z</time></trkpt><trkpt lat="14.722147" lon="101.24976"><ele>233.9</ele><time>1970-01-01T01:29:30.000Z</time></trkpt><trkpt lat="14.722174" lon="101.249736"><ele>233.9</ele><time>1970-01-01T01:29:32.000Z</time></trkpt><trkpt lat="14.722139" lon="101.249743"><ele>233.9</ele><time>1970-01-01T01:29:36.000Z</time></trkpt><trkpt lat="14.722088" lon="101.249757"><ele>233.9</ele><time>1970-01-01T01:29:38.000Z</time></trkpt><trkpt lat="14.722053" lon="101.249761"><ele>233.8</ele><time>1970-01-01T01:29:39.000Z</time></trkpt><trkpt lat="14.722014" lon="101.249768"><ele>233.8</ele><time>1970-01-01T01:29:40.000Z</time></trkpt><trkpt lat="14.721968" lon="101.249779"><ele>233.7</ele><time>1970-01-01T01:29:41.000Z</time></trkpt><trkpt lat="14.721926" lon="101.249793"><ele>233.9</ele><time>1970-01-01T01:29:42.000Z</time></trkpt><trkpt lat="14.721882" lon="101.249807"><ele>234.1</ele><time>1970-01-01T01:29:43.000Z</time></trkpt><trkpt lat="14.721838" lon="101.249819"><ele>234.4</ele><time>1970-01-01T01:29:44.000Z</time></trkpt><trkpt lat="14.721791" lon="101.249833"><ele>234.8</ele><time>1970-01-01T01:29:45.000Z</time></trkpt><trkpt lat="14.721742" lon="101.249844"><ele>234.9</ele><time>1970-01-01T01:29:46.000Z</time></trkpt><trkpt lat="14.721697" lon="101.249855"><ele>234.9</ele><time>1970-01-01T01:29:47.000Z</time></trkpt><trkpt lat="14.721649" lon="101.249876"><ele>234.8</ele><time>1970-01-01T01:29:48.000Z</time></trkpt><trkpt lat="14.721598" lon="101.249888"><ele>234.8</ele><time>1970-01-01T01:29:49.000Z</time></trkpt><trkpt lat="14.721552" lon="101.249895"><ele>234.9</ele><time>1970-01-01T01:29:50.000Z</time></trkpt><trkpt lat="14.721503" lon="101.249908"><ele>234.9</ele><time>1970-01-01T01:29:51.000Z</time></trkpt><trkpt lat="14.721458" lon="101.249924"><ele>235</ele><time>1970-01-01T01:29:52.000Z</time></trkpt><trkpt lat="14.721416" lon="101.249939"><ele>234.9</ele><time>1970-01-01T01:29:53.000Z</time></trkpt><trkpt lat="14.721368" lon="101.249951"><ele>234.8</ele><time>1970-01-01T01:29:54.000Z</time></trkpt><trkpt lat="14.721323" lon="101.249959"><ele>234.6</ele><time>1970-01-01T01:29:55.000Z</time></trkpt><trkpt lat="14.721277" lon="101.249969"><ele>234.3</ele><time>1970-01-01T01:29:56.000Z</time></trkpt><trkpt lat="14.72123" lon="101.249986"><ele>234</ele><time>1970-01-01T01:29:57.000Z</time></trkpt><trkpt lat="14.721182" lon="101.249989"><ele>233.9</ele><time>1970-01-01T01:29:58.000Z</time></trkpt><trkpt lat="14.721131" lon="101.250003"><ele>233.8</ele><time>1970-01-01T01:29:59.000Z</time></trkpt><trkpt lat="14.721074" lon="101.250013"><ele>233.9</ele><time>1970-01-01T01:30:00.000Z</time></trkpt><trkpt lat="14.721017" lon="101.25002"><ele>234</ele><time>1970-01-01T01:30:01.000Z</time></trkpt><trkpt lat="14.720963" lon="101.250032"><ele>234.1</ele><time>1970-01-01T01:30:02.000Z</time></trkpt><trkpt lat="14.720906" lon="101.250043"><ele>234.1</ele><time>1970-01-01T01:30:03.000Z</time></trkpt><trkpt lat="14.720852" lon="101.250056"><ele>234.2</ele><time>1970-01-01T01:30:04.000Z</time></trkpt><trkpt lat="14.720805" lon="101.250069"><ele>234.3</ele><time>1970-01-01T01:30:05.000Z</time></trkpt><trkpt lat="14.720757" lon="101.250076"><ele>234.4</ele><time>1970-01-01T01:30:06.000Z</time></trkpt><trkpt lat="14.720705" lon="101.250083"><ele>234.4</ele><time>1970-01-01T01:30:07.000Z</time></trkpt><trkpt lat="14.720649" lon="101.250079"><ele>234.7</ele><time>1970-01-01T01:30:08.000Z</time></trkpt><trkpt lat="14.720588" lon="101.250066"><ele>234.7</ele><time>1970-01-01T01:30:09.000Z</time></trkpt><trkpt lat="14.720521" lon="101.250057"><ele>234.5</ele><time>1970-01-01T01:30:10.000Z</time></trkpt><trkpt lat="14.720446" lon="101.250056"><ele>234.2</ele><time>1970-01-01T01:30:11.000Z</time></trkpt><trkpt lat="14.720368" lon="101.250056"><ele>234.2</ele><time>1970-01-01T01:30:12.000Z</time></trkpt><trkpt lat="14.720295" lon="101.250045"><ele>234.2</ele><time>1970-01-01T01:30:13.000Z</time></trkpt><trkpt lat="14.720225" lon="101.250033"><ele>234.1</ele><time>1970-01-01T01:30:14.000Z</time></trkpt><trkpt lat="14.720157" lon="101.250013"><ele>233.6</ele><time>1970-01-01T01:30:15.000Z</time></trkpt><trkpt lat="14.720093" lon="101.249989"><ele>233.2</ele><time>1970-01-01T01:30:16.000Z</time></trkpt><trkpt lat="14.720036" lon="101.249959"><ele>233</ele><time>1970-01-01T01:30:17.000Z</time></trkpt><trkpt lat="14.719986" lon="101.249925"><ele>233</ele><time>1970-01-01T01:30:18.000Z</time></trkpt><trkpt lat="14.719936" lon="101.249887"><ele>233</ele><time>1970-01-01T01:30:19.000Z</time></trkpt><trkpt lat="14.719893" lon="101.249854"><ele>233</ele><time>1970-01-01T01:30:20.000Z</time></trkpt><trkpt lat="14.719851" lon="101.249835"><ele>232.9</ele><time>1970-01-01T01:30:21.000Z</time></trkpt><trkpt lat="14.719817" lon="101.249813"><ele>232.7</ele><time>1970-01-01T01:30:22.000Z</time></trkpt><trkpt lat="14.719789" lon="101.249787"><ele>232.6</ele><time>1970-01-01T01:30:23.000Z</time></trkpt><trkpt lat="14.719767" lon="101.249752"><ele>232.5</ele><time>1970-01-01T01:30:24.000Z</time></trkpt><trkpt lat="14.719739" lon="101.249723"><ele>232.2</ele><time>1970-01-01T01:30:25.000Z</time></trkpt><trkpt lat="14.719705" lon="101.249697"><ele>231.9</ele><time>1970-01-01T01:30:26.000Z</time></trkpt><trkpt lat="14.719666" lon="101.249673"><ele>231.7</ele><time>1970-01-01T01:30:27.000Z</time></trkpt><trkpt lat="14.719628" lon="101.249636"><ele>231.5</ele><time>1970-01-01T01:30:28.000Z</time></trkpt><trkpt lat="14.719587" lon="101.249595"><ele>231.3</ele><time>1970-01-01T01:30:29.000Z</time></trkpt><trkpt lat="14.719542" lon="101.249548"><ele>231</ele><time>1970-01-01T01:30:30.000Z</time></trkpt><trkpt lat="14.719499" lon="101.249491"><ele>230.9</ele><time>1970-01-01T01:30:31.000Z</time></trkpt><trkpt lat="14.719457" lon="101.249438"><ele>230.8</ele><time>1970-01-01T01:30:32.000Z</time></trkpt><trkpt lat="14.719417" lon="101.24938"><ele>230.9</ele><time>1970-01-01T01:30:33.000Z</time></trkpt><trkpt lat="14.719375" lon="101.249319"><ele>231.1</ele><time>1970-01-01T01:30:34.000Z</time></trkpt><trkpt lat="14.719335" lon="101.249262"><ele>231.3</ele><time>1970-01-01T01:30:35.000Z</time></trkpt><trkpt lat="14.719295" lon="101.249202"><ele>231.6</ele><time>1970-01-01T01:30:36.000Z</time></trkpt><trkpt lat="14.719252" lon="101.249148"><ele>232</ele><time>1970-01-01T01:30:37.000Z</time></trkpt><trkpt lat="14.719213" lon="101.249097"><ele>232.5</ele><time>1970-01-01T01:30:38.000Z</time></trkpt><trkpt lat="14.719182" lon="101.249047"><ele>232.9</ele><time>1970-01-01T01:30:39.000Z</time></trkpt><trkpt lat="14.719148" lon="101.249013"><ele>233.3</ele><time>1970-01-01T01:30:40.000Z</time></trkpt><trkpt lat="14.71912" lon="101.248962"><ele>233.3</ele><time>1970-01-01T01:30:41.000Z</time></trkpt><trkpt lat="14.719098" lon="101.248911"><ele>233</ele><time>1970-01-01T01:30:42.000Z</time></trkpt><trkpt lat="14.719077" lon="101.248858"><ele>232.8</ele><time>1970-01-01T01:30:43.000Z</time></trkpt><trkpt lat="14.719059" lon="101.248821"><ele>232.7</ele><time>1970-01-01T01:30:44.000Z</time></trkpt><trkpt lat="14.719051" lon="101.248786"><ele>232.6</ele><time>1970-01-01T01:30:45.000Z</time></trkpt><trkpt lat="14.719044" lon="101.248751"><ele>232.5</ele><time>1970-01-01T01:30:46.000Z</time></trkpt><trkpt lat="14.719035" lon="101.24872"><ele>232.5</ele><time>1970-01-01T01:30:47.000Z</time></trkpt><trkpt lat="14.719027" lon="101.248687"><ele>232.5</ele><time>1970-01-01T01:30:48.000Z</time></trkpt><trkpt lat="14.719008" lon="101.248632"><ele>232.4</ele><time>1970-01-01T01:30:50.000Z</time></trkpt><trkpt lat="14.71899" lon="101.24861"><ele>232.3</ele><time>1970-01-01T01:30:51.000Z</time></trkpt><trkpt lat="14.718931" lon="101.248591"><ele>232.3</ele><time>1970-01-01T01:30:53.000Z</time></trkpt><trkpt lat="14.7189" lon="101.248599"><ele>232.3</ele><time>1970-01-01T01:30:54.000Z</time></trkpt><trkpt lat="14.718869" lon="101.248613"><ele>232.3</ele><time>1970-01-01T01:30:55.000Z</time></trkpt><trkpt lat="14.718835" lon="101.248628"><ele>232.3</ele><time>1970-01-01T01:30:56.000Z</time></trkpt><trkpt lat="14.718797" lon="101.248644"><ele>232.3</ele><time>1970-01-01T01:30:57.000Z</time></trkpt><trkpt lat="14.718762" lon="101.248655"><ele>232.4</ele><time>1970-01-01T01:30:58.000Z</time></trkpt><trkpt lat="14.718727" lon="101.248662"><ele>232.5</ele><time>1970-01-01T01:30:59.000Z</time></trkpt><trkpt lat="14.718691" lon="101.248665"><ele>232.6</ele><time>1970-01-01T01:31:00.000Z</time></trkpt><trkpt lat="14.718655" lon="101.24867"><ele>232.6</ele><time>1970-01-01T01:31:01.000Z</time></trkpt><trkpt lat="14.718619" lon="101.248675"><ele>232.6</ele><time>1970-01-01T01:31:02.000Z</time></trkpt><trkpt lat="14.718586" lon="101.24868"><ele>232.6</ele><time>1970-01-01T01:31:03.000Z</time></trkpt><trkpt lat="14.718556" lon="101.248686"><ele>232.6</ele><time>1970-01-01T01:31:04.000Z</time></trkpt><trkpt lat="14.718528" lon="101.248693"><ele>232.6</ele><time>1970-01-01T01:31:05.000Z</time></trkpt><trkpt lat="14.718501" lon="101.248699"><ele>232.6</ele><time>1970-01-01T01:31:06.000Z</time></trkpt><trkpt lat="14.718472" lon="101.248705"><ele>232.6</ele><time>1970-01-01T01:31:07.000Z</time></trkpt><trkpt lat="14.718443" lon="101.248711"><ele>232.6</ele><time>1970-01-01T01:31:08.000Z</time></trkpt><trkpt lat="14.718415" lon="101.248717"><ele>232.6</ele><time>1970-01-01T01:31:09.000Z</time></trkpt><trkpt lat="14.718386" lon="101.248725"><ele>232.6</ele><time>1970-01-01T01:31:10.000Z</time></trkpt><trkpt lat="14.718356" lon="101.248734"><ele>232.8</ele><time>1970-01-01T01:31:11.000Z</time></trkpt><trkpt lat="14.718325" lon="101.248743"><ele>233</ele><time>1970-01-01T01:31:12.000Z</time></trkpt><trkpt lat="14.718292" lon="101.248751"><ele>233.2</ele><time>1970-01-01T01:31:13.000Z</time></trkpt><trkpt lat="14.718261" lon="101.24876"><ele>233.4</ele><time>1970-01-01T01:31:14.000Z</time></trkpt><trkpt lat="14.71823" lon="101.248768"><ele>233.6</ele><time>1970-01-01T01:31:15.000Z</time></trkpt><trkpt lat="14.7182" lon="101.248778"><ele>233.8</ele><time>1970-01-01T01:31:16.000Z</time></trkpt><trkpt lat="14.718171" lon="101.248789"><ele>233.8</ele><time>1970-01-01T01:31:17.000Z</time></trkpt><trkpt lat="14.718141" lon="101.248801"><ele>234</ele><time>1970-01-01T01:31:18.000Z</time></trkpt><trkpt lat="14.718112" lon="101.248812"><ele>234.1</ele><time>1970-01-01T01:31:19.000Z</time></trkpt><trkpt lat="14.718082" lon="101.248822"><ele>234.3</ele><time>1970-01-01T01:31:20.000Z</time></trkpt><trkpt lat="14.718051" lon="101.248831"><ele>234.3</ele><time>1970-01-01T01:31:21.000Z</time></trkpt><trkpt lat="14.71802" lon="101.248839"><ele>234.3</ele><time>1970-01-01T01:31:22.000Z</time></trkpt><trkpt lat="14.717988" lon="101.248848"><ele>234.3</ele><time>1970-01-01T01:31:23.000Z</time></trkpt><trkpt lat="14.717958" lon="101.248858"><ele>234.2</ele><time>1970-01-01T01:31:24.000Z</time></trkpt><trkpt lat="14.717927" lon="101.248867"><ele>234</ele><time>1970-01-01T01:31:25.000Z</time></trkpt><trkpt lat="14.717895" lon="101.248875"><ele>233.8</ele><time>1970-01-01T01:31:26.000Z</time></trkpt><trkpt lat="14.717863" lon="101.248884"><ele>233.7</ele><time>1970-01-01T01:31:27.000Z</time></trkpt><trkpt lat="14.717831" lon="101.248893"><ele>233.6</ele><time>1970-01-01T01:31:28.000Z</time></trkpt><trkpt lat="14.717799" lon="101.248902"><ele>233.6</ele><time>1970-01-01T01:31:29.000Z</time></trkpt><trkpt lat="14.717768" lon="101.24891"><ele>233.6</ele><time>1970-01-01T01:31:30.000Z</time></trkpt><trkpt lat="14.717736" lon="101.248919"><ele>233.7</ele><time>1970-01-01T01:31:31.000Z</time></trkpt><trkpt lat="14.717705" lon="101.248928"><ele>233.8</ele><time>1970-01-01T01:31:32.000Z</time></trkpt><trkpt lat="14.717673" lon="101.248937"><ele>234</ele><time>1970-01-01T01:31:33.000Z</time></trkpt><trkpt lat="14.717642" lon="101.248947"><ele>234.1</ele><time>1970-01-01T01:31:34.000Z</time></trkpt><trkpt lat="14.71761" lon="101.248956"><ele>234.2</ele><time>1970-01-01T01:31:35.000Z</time></trkpt><trkpt lat="14.717576" lon="101.248965"><ele>234.3</ele><time>1970-01-01T01:31:36.000Z</time></trkpt><trkpt lat="14.717542" lon="101.248975"><ele>234.6</ele><time>1970-01-01T01:31:37.000Z</time></trkpt><trkpt lat="14.717507" lon="101.248983"><ele>234.8</ele><time>1970-01-01T01:31:38.000Z</time></trkpt><trkpt lat="14.717471" lon="101.24899"><ele>235.1</ele><time>1970-01-01T01:31:39.000Z</time></trkpt><trkpt lat="14.717435" lon="101.248998"><ele>235.3</ele><time>1970-01-01T01:31:40.000Z</time></trkpt><trkpt lat="14.717398" lon="101.249007"><ele>235.5</ele><time>1970-01-01T01:31:41.000Z</time></trkpt><trkpt lat="14.717362" lon="101.249018"><ele>235.7</ele><time>1970-01-01T01:31:42.000Z</time></trkpt><trkpt lat="14.717327" lon="101.24903"><ele>235.8</ele><time>1970-01-01T01:31:43.000Z</time></trkpt><trkpt lat="14.717292" lon="101.249042"><ele>236</ele><time>1970-01-01T01:31:44.000Z</time></trkpt><trkpt lat="14.717259" lon="101.249053"><ele>236.1</ele><time>1970-01-01T01:31:45.000Z</time></trkpt><trkpt lat="14.717226" lon="101.249064"><ele>236.4</ele><time>1970-01-01T01:31:46.000Z</time></trkpt><trkpt lat="14.717193" lon="101.249073"><ele>236.8</ele><time>1970-01-01T01:31:47.000Z</time></trkpt><trkpt lat="14.71716" lon="101.249084"><ele>237.3</ele><time>1970-01-01T01:31:48.000Z</time></trkpt><trkpt lat="14.717128" lon="101.249098"><ele>237.9</ele><time>1970-01-01T01:31:49.000Z</time></trkpt><trkpt lat="14.717097" lon="101.249113"><ele>238.5</ele><time>1970-01-01T01:31:50.000Z</time></trkpt><trkpt lat="14.717067" lon="101.24913"><ele>238.9</ele><time>1970-01-01T01:31:51.000Z</time></trkpt><trkpt lat="14.717036" lon="101.249145"><ele>239.3</ele><time>1970-01-01T01:31:52.000Z</time></trkpt><trkpt lat="14.717003" lon="101.249159"><ele>239.6</ele><time>1970-01-01T01:31:53.000Z</time></trkpt><trkpt lat="14.71697" lon="101.249173"><ele>239.9</ele><time>1970-01-01T01:31:54.000Z</time></trkpt><trkpt lat="14.716936" lon="101.249186"><ele>240.2</ele><time>1970-01-01T01:31:55.000Z</time></trkpt><trkpt lat="14.716901" lon="101.249199"><ele>240.6</ele><time>1970-01-01T01:31:56.000Z</time></trkpt><trkpt lat="14.716866" lon="101.249211"><ele>240.9</ele><time>1970-01-01T01:31:57.000Z</time></trkpt><trkpt lat="14.716832" lon="101.249224"><ele>241.3</ele><time>1970-01-01T01:31:58.000Z</time></trkpt><trkpt lat="14.716797" lon="101.249238"><ele>241.7</ele><time>1970-01-01T01:31:59.000Z</time></trkpt><trkpt lat="14.716764" lon="101.249254"><ele>242.1</ele><time>1970-01-01T01:32:00.000Z</time></trkpt><trkpt lat="14.716731" lon="101.249271"><ele>242.6</ele><time>1970-01-01T01:32:01.000Z</time></trkpt><trkpt lat="14.716699" lon="101.249289"><ele>243.1</ele><time>1970-01-01T01:32:02.000Z</time></trkpt><trkpt lat="14.716667" lon="101.249307"><ele>243.3</ele><time>1970-01-01T01:32:03.000Z</time></trkpt><trkpt lat="14.716637" lon="101.249325"><ele>243.5</ele><time>1970-01-01T01:32:04.000Z</time></trkpt><trkpt lat="14.716609" lon="101.249342"><ele>243.7</ele><time>1970-01-01T01:32:05.000Z</time></trkpt><trkpt lat="14.71658" lon="101.249356"><ele>243.9</ele><time>1970-01-01T01:32:06.000Z</time></trkpt><trkpt lat="14.716552" lon="101.24937"><ele>244.1</ele><time>1970-01-01T01:32:07.000Z</time></trkpt><trkpt lat="14.716525" lon="101.249381"><ele>244.2</ele><time>1970-01-01T01:32:08.000Z</time></trkpt><trkpt lat="14.716498" lon="101.249392"><ele>244.2</ele><time>1970-01-01T01:32:09.000Z</time></trkpt><trkpt lat="14.716472" lon="101.249403"><ele>244.3</ele><time>1970-01-01T01:32:10.000Z</time></trkpt><trkpt lat="14.716445" lon="101.249414"><ele>244.3</ele><time>1970-01-01T01:32:11.000Z</time></trkpt><trkpt lat="14.716417" lon="101.249425"><ele>244.4</ele><time>1970-01-01T01:32:12.000Z</time></trkpt><trkpt lat="14.716389" lon="101.249434"><ele>244.6</ele><time>1970-01-01T01:32:13.000Z</time></trkpt><trkpt lat="14.716361" lon="101.24944"><ele>244.8</ele><time>1970-01-01T01:32:14.000Z</time></trkpt><trkpt lat="14.716332" lon="101.249446"><ele>245</ele><time>1970-01-01T01:32:15.000Z</time></trkpt><trkpt lat="14.716301" lon="101.249451"><ele>245.2</ele><time>1970-01-01T01:32:16.000Z</time></trkpt><trkpt lat="14.716271" lon="101.249457"><ele>245.4</ele><time>1970-01-01T01:32:17.000Z</time></trkpt><trkpt lat="14.716243" lon="101.249463"><ele>245.5</ele><time>1970-01-01T01:32:18.000Z</time></trkpt><trkpt lat="14.716215" lon="101.249469"><ele>245.7</ele><time>1970-01-01T01:32:19.000Z</time></trkpt><trkpt lat="14.716186" lon="101.249474"><ele>245.5</ele><time>1970-01-01T01:32:20.000Z</time></trkpt><trkpt lat="14.716158" lon="101.249477"><ele>245.3</ele><time>1970-01-01T01:32:21.000Z</time></trkpt><trkpt lat="14.716127" lon="101.249483"><ele>245</ele><time>1970-01-01T01:32:22.000Z</time></trkpt><trkpt lat="14.716096" lon="101.24949"><ele>244.9</ele><time>1970-01-01T01:32:23.000Z</time></trkpt><trkpt lat="14.716067" lon="101.249499"><ele>244.7</ele><time>1970-01-01T01:32:24.000Z</time></trkpt><trkpt lat="14.716038" lon="101.249506"><ele>244.5</ele><time>1970-01-01T01:32:25.000Z</time></trkpt><trkpt lat="14.716009" lon="101.249512"><ele>244.4</ele><time>1970-01-01T01:32:26.000Z</time></trkpt><trkpt lat="14.715981" lon="101.249515"><ele>244.3</ele><time>1970-01-01T01:32:27.000Z</time></trkpt><trkpt lat="14.715951" lon="101.249521"><ele>244.2</ele><time>1970-01-01T01:32:28.000Z</time></trkpt><trkpt lat="14.71592" lon="101.249527"><ele>244</ele><time>1970-01-01T01:32:29.000Z</time></trkpt><trkpt lat="14.715888" lon="101.249536"><ele>243.7</ele><time>1970-01-01T01:32:30.000Z</time></trkpt><trkpt lat="14.715855" lon="101.249545"><ele>243.4</ele><time>1970-01-01T01:32:31.000Z</time></trkpt><trkpt lat="14.715823" lon="101.249554"><ele>243.4</ele><time>1970-01-01T01:32:32.000Z</time></trkpt><trkpt lat="14.715793" lon="101.249562"><ele>243.3</ele><time>1970-01-01T01:32:33.000Z</time></trkpt><trkpt lat="14.715763" lon="101.249559"><ele>243.2</ele><time>1970-01-01T01:32:34.000Z</time></trkpt><trkpt lat="14.715731" lon="101.249552"><ele>243.2</ele><time>1970-01-01T01:32:35.000Z</time></trkpt><trkpt lat="14.715696" lon="101.24954"><ele>243.1</ele><time>1970-01-01T01:32:36.000Z</time></trkpt><trkpt lat="14.715658" lon="101.249529"><ele>243.1</ele><time>1970-01-01T01:32:37.000Z</time></trkpt><trkpt lat="14.715616" lon="101.24952"><ele>243</ele><time>1970-01-01T01:32:38.000Z</time></trkpt><trkpt lat="14.715576" lon="101.249515"><ele>243</ele><time>1970-01-01T01:32:39.000Z</time></trkpt><trkpt lat="14.715537" lon="101.249511"><ele>243.1</ele><time>1970-01-01T01:32:40.000Z</time></trkpt><trkpt lat="14.715498" lon="101.249508"><ele>243.1</ele><time>1970-01-01T01:32:41.000Z</time></trkpt><trkpt lat="14.715461" lon="101.249505"><ele>243.1</ele><time>1970-01-01T01:32:42.000Z</time></trkpt><trkpt lat="14.715423" lon="101.249503"><ele>243.1</ele><time>1970-01-01T01:32:43.000Z</time></trkpt><trkpt lat="14.715385" lon="101.249502"><ele>243.3</ele><time>1970-01-01T01:32:44.000Z</time></trkpt><trkpt lat="14.715346" lon="101.249502"><ele>243.4</ele><time>1970-01-01T01:32:45.000Z</time></trkpt><trkpt lat="14.715308" lon="101.249505"><ele>243.4</ele><time>1970-01-01T01:32:46.000Z</time></trkpt><trkpt lat="14.715269" lon="101.249505"><ele>243.4</ele><time>1970-01-01T01:32:47.000Z</time></trkpt><trkpt lat="14.71523" lon="101.249503"><ele>243.6</ele><time>1970-01-01T01:32:48.000Z</time></trkpt><trkpt lat="14.715194" lon="101.249494"><ele>243.7</ele><time>1970-01-01T01:32:49.000Z</time></trkpt><trkpt lat="14.715159" lon="101.249481"><ele>244</ele><time>1970-01-01T01:32:50.000Z</time></trkpt><trkpt lat="14.715125" lon="101.249465"><ele>244.3</ele><time>1970-01-01T01:32:51.000Z</time></trkpt><trkpt lat="14.715098" lon="101.249444"><ele>244.7</ele><time>1970-01-01T01:32:52.000Z</time></trkpt><trkpt lat="14.715073" lon="101.249421"><ele>245.3</ele><time>1970-01-01T01:32:53.000Z</time></trkpt><trkpt lat="14.71505" lon="101.249394"><ele>245.8</ele><time>1970-01-01T01:32:54.000Z</time></trkpt><trkpt lat="14.715025" lon="101.249373"><ele>246.2</ele><time>1970-01-01T01:32:55.000Z</time></trkpt><trkpt lat="14.714984" lon="101.249347"><ele>246.8</ele><time>1970-01-01T01:32:57.000Z</time></trkpt><trkpt lat="14.714936" lon="101.249331"><ele>247.7</ele><time>1970-01-01T01:32:59.000Z</time></trkpt><trkpt lat="14.71491" lon="101.249319"><ele>248.2</ele><time>1970-01-01T01:33:00.000Z</time></trkpt><trkpt lat="14.714883" lon="101.249308"><ele>248.7</ele><time>1970-01-01T01:33:01.000Z</time></trkpt><trkpt lat="14.714856" lon="101.249293"><ele>249.2</ele><time>1970-01-01T01:33:02.000Z</time></trkpt><trkpt lat="14.714831" lon="101.249279"><ele>249.7</ele><time>1970-01-01T01:33:03.000Z</time></trkpt><trkpt lat="14.714807" lon="101.249266"><ele>250.5</ele><time>1970-01-01T01:33:04.000Z</time></trkpt><trkpt lat="14.714759" lon="101.249236"><ele>252.1</ele><time>1970-01-01T01:33:06.000Z</time></trkpt><trkpt lat="14.714735" lon="101.249216"><ele>252.8</ele><time>1970-01-01T01:33:07.000Z</time></trkpt><trkpt lat="14.71471" lon="101.249197"><ele>253.3</ele><time>1970-01-01T01:33:08.000Z</time></trkpt><trkpt lat="14.714685" lon="101.249177"><ele>253.8</ele><time>1970-01-01T01:33:09.000Z</time></trkpt><trkpt lat="14.714663" lon="101.249156"><ele>254.1</ele><time>1970-01-01T01:33:10.000Z</time></trkpt><trkpt lat="14.71464" lon="101.249139"><ele>254.3</ele><time>1970-01-01T01:33:11.000Z</time></trkpt><trkpt lat="14.714603" lon="101.249112"><ele>254.6</ele><time>1970-01-01T01:33:13.000Z</time></trkpt><trkpt lat="14.71458" lon="101.249097"><ele>254.5</ele><time>1970-01-01T01:33:14.000Z</time></trkpt><trkpt lat="14.714541" lon="101.249066"><ele>254.2</ele><time>1970-01-01T01:33:16.000Z</time></trkpt><trkpt lat="14.714533" lon="101.249038"><ele>254</ele><time>1970-01-01T01:33:19.000Z</time></trkpt><trkpt lat="14.714563" lon="101.249054"><ele>253.6</ele><time>1970-01-01T01:33:21.000Z</time></trkpt><trkpt lat="14.714603" lon="101.249083"><ele>252.9</ele><time>1970-01-01T01:33:35.000Z</time></trkpt><trkpt lat="14.714623" lon="101.249101"><ele>252.6</ele><time>1970-01-01T01:33:36.000Z</time></trkpt><trkpt lat="14.714648" lon="101.249117"><ele>251.9</ele><time>1970-01-01T01:33:37.000Z</time></trkpt><trkpt lat="14.714669" lon="101.249135"><ele>251.2</ele><time>1970-01-01T01:33:38.000Z</time></trkpt><trkpt lat="14.714709" lon="101.249168"><ele>249.9</ele><time>1970-01-01T01:33:40.000Z</time></trkpt><trkpt lat="14.714751" lon="101.249202"><ele>249.1</ele><time>1970-01-01T01:33:42.000Z</time></trkpt><trkpt lat="14.714776" lon="101.24922"><ele>248.6</ele><time>1970-01-01T01:33:43.000Z</time></trkpt><trkpt lat="14.714804" lon="101.249238"><ele>248.1</ele><time>1970-01-01T01:33:44.000Z</time></trkpt><trkpt lat="14.714836" lon="101.249258"><ele>247.6</ele><time>1970-01-01T01:33:45.000Z</time></trkpt><trkpt lat="14.714869" lon="101.249281"><ele>247</ele><time>1970-01-01T01:33:46.000Z</time></trkpt><trkpt lat="14.714904" lon="101.249308"><ele>246.5</ele><time>1970-01-01T01:33:47.000Z</time></trkpt><trkpt lat="14.714937" lon="101.249349"><ele>246</ele><time>1970-01-01T01:33:48.000Z</time></trkpt><trkpt lat="14.714974" lon="101.249376"><ele>245.4</ele><time>1970-01-01T01:33:49.000Z</time></trkpt><trkpt lat="14.715013" lon="101.249409"><ele>244.6</ele><time>1970-01-01T01:33:50.000Z</time></trkpt><trkpt lat="14.715063" lon="101.249436"><ele>244.1</ele><time>1970-01-01T01:33:51.000Z</time></trkpt><trkpt lat="14.715123" lon="101.24946"><ele>243.7</ele><time>1970-01-01T01:33:52.000Z</time></trkpt><trkpt lat="14.715186" lon="101.249476"><ele>243.5</ele><time>1970-01-01T01:33:53.000Z</time></trkpt><trkpt lat="14.715243" lon="101.249489"><ele>243.4</ele><time>1970-01-01T01:33:54.000Z</time></trkpt><trkpt lat="14.715311" lon="101.249495"><ele>243.4</ele><time>1970-01-01T01:33:55.000Z</time></trkpt><trkpt lat="14.71537" lon="101.249497"><ele>243.2</ele><time>1970-01-01T01:33:56.000Z</time></trkpt><trkpt lat="14.715436" lon="101.249508"><ele>243.1</ele><time>1970-01-01T01:33:57.000Z</time></trkpt><trkpt lat="14.7155" lon="101.249519"><ele>243.1</ele><time>1970-01-01T01:33:58.000Z</time></trkpt><trkpt lat="14.715562" lon="101.249526"><ele>243.1</ele><time>1970-01-01T01:33:59.000Z</time></trkpt><trkpt lat="14.71562" lon="101.249524"><ele>243</ele><time>1970-01-01T01:34:00.000Z</time></trkpt><trkpt lat="14.715672" lon="101.249541"><ele>242.8</ele><time>1970-01-01T01:34:01.000Z</time></trkpt><trkpt lat="14.7157" lon="101.249568"><ele>242.8</ele><time>1970-01-01T01:34:02.000Z</time></trkpt><trkpt lat="14.715726" lon="101.249583"><ele>242.7</ele><time>1970-01-01T01:34:03.000Z</time></trkpt><trkpt lat="14.715771" lon="101.249584"><ele>242.6</ele><time>1970-01-01T01:34:05.000Z</time></trkpt><trkpt lat="14.715756" lon="101.24961"><ele>242.6</ele><time>1970-01-01T01:34:06.000Z</time></trkpt><trkpt lat="14.715763" lon="101.249639"><ele>242.5</ele><time>1970-01-01T01:34:08.000Z</time></trkpt><trkpt lat="14.715753" lon="101.249678"><ele>242.5</ele><time>1970-01-01T01:34:09.000Z</time></trkpt><trkpt lat="14.715766" lon="101.249722"><ele>242.6</ele><time>1970-01-01T01:34:10.000Z</time></trkpt><trkpt lat="14.715762" lon="101.249786"><ele>243.1</ele><time>1970-01-01T01:34:11.000Z</time></trkpt><trkpt lat="14.715761" lon="101.249848"><ele>243.4</ele><time>1970-01-01T01:34:12.000Z</time></trkpt><trkpt lat="14.715749" lon="101.249928"><ele>243.8</ele><time>1970-01-01T01:34:13.000Z</time></trkpt><trkpt lat="14.715749" lon="101.249985"><ele>243.9</ele><time>1970-01-01T01:34:14.000Z</time></trkpt><trkpt lat="14.715734" lon="101.250076"><ele>243.8</ele><time>1970-01-01T01:34:15.000Z</time></trkpt><trkpt lat="14.71572" lon="101.250144"><ele>243.8</ele><time>1970-01-01T01:34:16.000Z</time></trkpt><trkpt lat="14.715722" lon="101.250189"><ele>243.8</ele><time>1970-01-01T01:34:17.000Z</time></trkpt><trkpt lat="14.715722" lon="101.250242"><ele>243.7</ele><time>1970-01-01T01:34:18.000Z</time></trkpt><trkpt lat="14.715727" lon="101.250293"><ele>243.5</ele><time>1970-01-01T01:34:19.000Z</time></trkpt><trkpt lat="14.715736" lon="101.250328"><ele>243.2</ele><time>1970-01-01T01:34:20.000Z</time></trkpt><trkpt lat="14.715755" lon="101.250371"><ele>242.7</ele><time>1970-01-01T01:34:22.000Z</time></trkpt><trkpt lat="14.715755" lon="101.250404"><ele>242.4</ele><time>1970-01-01T01:34:23.000Z</time></trkpt><trkpt lat="14.71575" lon="101.250461"><ele>242.3</ele><time>1970-01-01T01:34:24.000Z</time></trkpt><trkpt lat="14.715748" lon="101.250544"><ele>242.4</ele><time>1970-01-01T01:34:26.000Z</time></trkpt><trkpt lat="14.715754" lon="101.250579"><ele>242.5</ele><time>1970-01-01T01:34:27.000Z</time></trkpt><trkpt lat="14.715754" lon="101.250632"><ele>242.5</ele><time>1970-01-01T01:34:28.000Z</time></trkpt><trkpt lat="14.71576" lon="101.250676"><ele>242.5</ele><time>1970-01-01T01:34:29.000Z</time></trkpt><trkpt lat="14.715759" lon="101.250719"><ele>242.5</ele><time>1970-01-01T01:34:30.000Z</time></trkpt><trkpt lat="14.715755" lon="101.250768"><ele>242.4</ele><time>1970-01-01T01:34:31.000Z</time></trkpt><trkpt lat="14.715759" lon="101.250804"><ele>242.3</ele><time>1970-01-01T01:34:32.000Z</time></trkpt><trkpt lat="14.715764" lon="101.250835"><ele>242.2</ele><time>1970-01-01T01:34:33.000Z</time></trkpt><trkpt lat="14.715766" lon="101.250868"><ele>242.2</ele><time>1970-01-01T01:34:34.000Z</time></trkpt><trkpt lat="14.715757" lon="101.25091"><ele>242.3</ele><time>1970-01-01T01:34:35.000Z</time></trkpt><trkpt lat="14.715761" lon="101.250949"><ele>242.5</ele><time>1970-01-01T01:34:36.000Z</time></trkpt><trkpt lat="14.715765" lon="101.250987"><ele>242.5</ele><time>1970-01-01T01:34:37.000Z</time></trkpt><trkpt lat="14.715766" lon="101.251018"><ele>242.8</ele><time>1970-01-01T01:34:38.000Z</time></trkpt><trkpt lat="14.715762" lon="101.251045"><ele>243.2</ele><time>1970-01-01T01:34:39.000Z</time></trkpt><trkpt lat="14.715739" lon="101.251074"><ele>243.7</ele><time>1970-01-01T01:34:41.000Z</time></trkpt><trkpt lat="14.715768" lon="101.251055"><ele>243.2</ele><time>1970-01-01T01:34:45.000Z</time></trkpt><trkpt lat="14.71578" lon="101.251013"><ele>242.8</ele><time>1970-01-01T01:34:47.000Z</time></trkpt><trkpt lat="14.715782" lon="101.250959"><ele>242.5</ele><time>1970-01-01T01:34:49.000Z</time></trkpt><trkpt lat="14.715786" lon="101.250929"><ele>242</ele><time>1970-01-01T01:34:50.000Z</time></trkpt><trkpt lat="14.715792" lon="101.250891"><ele>241.9</ele><time>1970-01-01T01:34:51.000Z</time></trkpt><trkpt lat="14.715799" lon="101.25085"><ele>242</ele><time>1970-01-01T01:34:52.000Z</time></trkpt><trkpt lat="14.715803" lon="101.250803"><ele>242.1</ele><time>1970-01-01T01:34:53.000Z</time></trkpt><trkpt lat="14.715803" lon="101.250755"><ele>242.2</ele><time>1970-01-01T01:34:54.000Z</time></trkpt><trkpt lat="14.715799" lon="101.250708"><ele>242.3</ele><time>1970-01-01T01:34:55.000Z</time></trkpt><trkpt lat="14.715791" lon="101.250658"><ele>242.3</ele><time>1970-01-01T01:34:56.000Z</time></trkpt><trkpt lat="14.715783" lon="101.250608"><ele>242.6</ele><time>1970-01-01T01:34:57.000Z</time></trkpt><trkpt lat="14.715777" lon="101.250558"><ele>242.5</ele><time>1970-01-01T01:34:58.000Z</time></trkpt><trkpt lat="14.715774" lon="101.25051"><ele>242.4</ele><time>1970-01-01T01:34:59.000Z</time></trkpt><trkpt lat="14.715775" lon="101.250463"><ele>242.3</ele><time>1970-01-01T01:35:00.000Z</time></trkpt><trkpt lat="14.715776" lon="101.250415"><ele>242.5</ele><time>1970-01-01T01:35:01.000Z</time></trkpt><trkpt lat="14.715773" lon="101.250354"><ele>242.7</ele><time>1970-01-01T01:35:02.000Z</time></trkpt><trkpt lat="14.715768" lon="101.250306"><ele>243</ele><time>1970-01-01T01:35:03.000Z</time></trkpt><trkpt lat="14.715769" lon="101.250262"><ele>243.3</ele><time>1970-01-01T01:35:04.000Z</time></trkpt><trkpt lat="14.715765" lon="101.25022"><ele>243.6</ele><time>1970-01-01T01:35:05.000Z</time></trkpt><trkpt lat="14.715765" lon="101.250168"><ele>243.8</ele><time>1970-01-01T01:35:06.000Z</time></trkpt><trkpt lat="14.715765" lon="101.250128"><ele>243.8</ele><time>1970-01-01T01:35:07.000Z</time></trkpt><trkpt lat="14.715777" lon="101.250077"><ele>243.9</ele><time>1970-01-01T01:35:08.000Z</time></trkpt><trkpt lat="14.715788" lon="101.250032"><ele>244</ele><time>1970-01-01T01:35:09.000Z</time></trkpt><trkpt lat="14.71579" lon="101.249994"><ele>244</ele><time>1970-01-01T01:35:10.000Z</time></trkpt><trkpt lat="14.715796" lon="101.249936"><ele>243.9</ele><time>1970-01-01T01:35:11.000Z</time></trkpt><trkpt lat="14.715808" lon="101.249883"><ele>243.7</ele><time>1970-01-01T01:35:12.000Z</time></trkpt><trkpt lat="14.715802" lon="101.249844"><ele>243.4</ele><time>1970-01-01T01:35:13.000Z</time></trkpt><trkpt lat="14.715795" lon="101.249792"><ele>243.1</ele><time>1970-01-01T01:35:15.000Z</time></trkpt><trkpt lat="14.715801" lon="101.249764"><ele>242.9</ele><time>1970-01-01T01:35:16.000Z</time></trkpt><trkpt lat="14.715797" lon="101.249732"><ele>242.6</ele><time>1970-01-01T01:35:17.000Z</time></trkpt><trkpt lat="14.715799" lon="101.249694"><ele>242.5</ele><time>1970-01-01T01:35:18.000Z</time></trkpt><trkpt lat="14.715814" lon="101.249659"><ele>242.5</ele><time>1970-01-01T01:35:19.000Z</time></trkpt><trkpt lat="14.715822" lon="101.249631"><ele>242.5</ele><time>1970-01-01T01:35:20.000Z</time></trkpt><trkpt lat="14.715821" lon="101.249598"><ele>242.6</ele><time>1970-01-01T01:35:21.000Z</time></trkpt><trkpt lat="14.71582" lon="101.249566"><ele>242.9</ele><time>1970-01-01T01:35:22.000Z</time></trkpt><trkpt lat="14.715816" lon="101.249514"><ele>243.3</ele><time>1970-01-01T01:35:24.000Z</time></trkpt><trkpt lat="14.715851" lon="101.249489"><ele>243.5</ele><time>1970-01-01T01:35:26.000Z</time></trkpt><trkpt lat="14.715888" lon="101.249481"><ele>243.7</ele><time>1970-01-01T01:35:27.000Z</time></trkpt><trkpt lat="14.715926" lon="101.249475"><ele>244.1</ele><time>1970-01-01T01:35:28.000Z</time></trkpt><trkpt lat="14.715968" lon="101.249474"><ele>244.3</ele><time>1970-01-01T01:35:29.000Z</time></trkpt><trkpt lat="14.71601" lon="101.249472"><ele>244.4</ele><time>1970-01-01T01:35:30.000Z</time></trkpt><trkpt lat="14.716054" lon="101.249469"><ele>244.6</ele><time>1970-01-01T01:35:31.000Z</time></trkpt><trkpt lat="14.716127" lon="101.249464"><ele>245.1</ele><time>1970-01-01T01:35:32.000Z</time></trkpt><trkpt lat="14.716178" lon="101.249461"><ele>245.5</ele><time>1970-01-01T01:35:33.000Z</time></trkpt><trkpt lat="14.71623" lon="101.249451"><ele>245.6</ele><time>1970-01-01T01:35:34.000Z</time></trkpt><trkpt lat="14.716286" lon="101.249449"><ele>245.3</ele><time>1970-01-01T01:35:35.000Z</time></trkpt><trkpt lat="14.716343" lon="101.24944"><ele>244.9</ele><time>1970-01-01T01:35:36.000Z</time></trkpt><trkpt lat="14.716393" lon="101.249427"><ele>244.5</ele><time>1970-01-01T01:35:37.000Z</time></trkpt><trkpt lat="14.716449" lon="101.249411"><ele>244.3</ele><time>1970-01-01T01:35:38.000Z</time></trkpt><trkpt lat="14.716501" lon="101.249393"><ele>244.2</ele><time>1970-01-01T01:35:39.000Z</time></trkpt><trkpt lat="14.716562" lon="101.24937"><ele>244.1</ele><time>1970-01-01T01:35:40.000Z</time></trkpt><trkpt lat="14.716611" lon="101.24933"><ele>243.7</ele><time>1970-01-01T01:35:41.000Z</time></trkpt><trkpt lat="14.716673" lon="101.249301"><ele>243.3</ele><time>1970-01-01T01:35:42.000Z</time></trkpt><trkpt lat="14.716727" lon="101.249264"><ele>242.5</ele><time>1970-01-01T01:35:43.000Z</time></trkpt><trkpt lat="14.716796" lon="101.24923"><ele>241.6</ele><time>1970-01-01T01:35:44.000Z</time></trkpt><trkpt lat="14.716868" lon="101.249203"><ele>240.8</ele><time>1970-01-01T01:35:45.000Z</time></trkpt><trkpt lat="14.71694" lon="101.249179"><ele>240.1</ele><time>1970-01-01T01:35:46.000Z</time></trkpt><trkpt lat="14.71701" lon="101.249158"><ele>239.5</ele><time>1970-01-01T01:35:47.000Z</time></trkpt><trkpt lat="14.717075" lon="101.249133"><ele>238.7</ele><time>1970-01-01T01:35:48.000Z</time></trkpt><trkpt lat="14.717142" lon="101.249113"><ele>237.6</ele><time>1970-01-01T01:35:49.000Z</time></trkpt><trkpt lat="14.71722" lon="101.249093"><ele>236.5</ele><time>1970-01-01T01:35:50.000Z</time></trkpt><trkpt lat="14.717297" lon="101.249068"><ele>235.9</ele><time>1970-01-01T01:35:51.000Z</time></trkpt><trkpt lat="14.717378" lon="101.24904"><ele>235.6</ele><time>1970-01-01T01:35:52.000Z</time></trkpt><trkpt lat="14.717454" lon="101.249018"><ele>235.2</ele><time>1970-01-01T01:35:53.000Z</time></trkpt><trkpt lat="14.717535" lon="101.249004"><ele>234.6</ele><time>1970-01-01T01:35:54.000Z</time></trkpt><trkpt lat="14.717613" lon="101.24898"><ele>234.1</ele><time>1970-01-01T01:35:55.000Z</time></trkpt><trkpt lat="14.717692" lon="101.248957"><ele>233.8</ele><time>1970-01-01T01:35:56.000Z</time></trkpt><trkpt lat="14.717772" lon="101.248933"><ele>233.6</ele><time>1970-01-01T01:35:57.000Z</time></trkpt><trkpt lat="14.717852" lon="101.24891"><ele>233.7</ele><time>1970-01-01T01:35:58.000Z</time></trkpt><trkpt lat="14.71793" lon="101.248888"><ele>234.1</ele><time>1970-01-01T01:35:59.000Z</time></trkpt><trkpt lat="14.71801" lon="101.248861"><ele>234.3</ele><time>1970-01-01T01:36:00.000Z</time></trkpt><trkpt lat="14.718087" lon="101.248834"><ele>234.2</ele><time>1970-01-01T01:36:01.000Z</time></trkpt><trkpt lat="14.718164" lon="101.248805"><ele>233.8</ele><time>1970-01-01T01:36:02.000Z</time></trkpt><trkpt lat="14.718239" lon="101.248779"><ele>233.5</ele><time>1970-01-01T01:36:03.000Z</time></trkpt><trkpt lat="14.718319" lon="101.248755"><ele>232.9</ele><time>1970-01-01T01:36:04.000Z</time></trkpt><trkpt lat="14.718396" lon="101.248735"><ele>232.6</ele><time>1970-01-01T01:36:05.000Z</time></trkpt><trkpt lat="14.718473" lon="101.248708"><ele>232.6</ele><time>1970-01-01T01:36:06.000Z</time></trkpt><trkpt lat="14.718556" lon="101.248688"><ele>232.6</ele><time>1970-01-01T01:36:07.000Z</time></trkpt><trkpt lat="14.718643" lon="101.248676"><ele>232.6</ele><time>1970-01-01T01:36:08.000Z</time></trkpt><trkpt lat="14.718726" lon="101.248655"><ele>232.4</ele><time>1970-01-01T01:36:09.000Z</time></trkpt><trkpt lat="14.718804" lon="101.248633"><ele>232.3</ele><time>1970-01-01T01:36:10.000Z</time></trkpt><trkpt lat="14.718873" lon="101.248592"><ele>232.3</ele><time>1970-01-01T01:36:11.000Z</time></trkpt><trkpt lat="14.718931" lon="101.24854"><ele>232.1</ele><time>1970-01-01T01:36:12.000Z</time></trkpt><trkpt lat="14.718961" lon="101.24847"><ele>231.7</ele><time>1970-01-01T01:36:13.000Z</time></trkpt><trkpt lat="14.718964" lon="101.248398"><ele>231.4</ele><time>1970-01-01T01:36:14.000Z</time></trkpt><trkpt lat="14.718969" lon="101.248326"><ele>231</ele><time>1970-01-01T01:36:15.000Z</time></trkpt><trkpt lat="14.718964" lon="101.248259"><ele>230.5</ele><time>1970-01-01T01:36:16.000Z</time></trkpt><trkpt lat="14.718957" lon="101.248197"><ele>230</ele><time>1970-01-01T01:36:17.000Z</time></trkpt><trkpt lat="14.718953" lon="101.248141"><ele>229.5</ele><time>1970-01-01T01:36:18.000Z</time></trkpt><trkpt lat="14.718945" lon="101.248083"><ele>229.3</ele><time>1970-01-01T01:36:19.000Z</time></trkpt><trkpt lat="14.718939" lon="101.248028"><ele>229.4</ele><time>1970-01-01T01:36:20.000Z</time></trkpt><trkpt lat="14.718936" lon="101.247969"><ele>229.9</ele><time>1970-01-01T01:36:21.000Z</time></trkpt><trkpt lat="14.718939" lon="101.247919"><ele>230.5</ele><time>1970-01-01T01:36:22.000Z</time></trkpt><trkpt lat="14.718936" lon="101.247862"><ele>231</ele><time>1970-01-01T01:36:23.000Z</time></trkpt><trkpt lat="14.718936" lon="101.247807"><ele>231.4</ele><time>1970-01-01T01:36:24.000Z</time></trkpt><trkpt lat="14.718935" lon="101.247752"><ele>231.2</ele><time>1970-01-01T01:36:25.000Z</time></trkpt><trkpt lat="14.718932" lon="101.247705"><ele>231.2</ele><time>1970-01-01T01:36:26.000Z</time></trkpt><trkpt lat="14.718924" lon="101.247653"><ele>231.3</ele><time>1970-01-01T01:36:27.000Z</time></trkpt><trkpt lat="14.718918" lon="101.247598"><ele>231.3</ele><time>1970-01-01T01:36:28.000Z</time></trkpt><trkpt lat="14.718919" lon="101.247548"><ele>231.4</ele><time>1970-01-01T01:36:29.000Z</time></trkpt><trkpt lat="14.718919" lon="101.247493"><ele>231.4</ele><time>1970-01-01T01:36:30.000Z</time></trkpt><trkpt lat="14.718914" lon="101.247441"><ele>231.5</ele><time>1970-01-01T01:36:31.000Z</time></trkpt><trkpt lat="14.718907" lon="101.24738"><ele>231.5</ele><time>1970-01-01T01:36:32.000Z</time></trkpt><trkpt lat="14.718904" lon="101.247323"><ele>231.5</ele><time>1970-01-01T01:36:33.000Z</time></trkpt><trkpt lat="14.718901" lon="101.24727"><ele>231.5</ele><time>1970-01-01T01:36:34.000Z</time></trkpt><trkpt lat="14.718893" lon="101.247215"><ele>231.4</ele><time>1970-01-01T01:36:35.000Z</time></trkpt><trkpt lat="14.718888" lon="101.247161"><ele>231.4</ele><time>1970-01-01T01:36:36.000Z</time></trkpt><trkpt lat="14.718886" lon="101.247107"><ele>231.5</ele><time>1970-01-01T01:36:37.000Z</time></trkpt><trkpt lat="14.718881" lon="101.247052"><ele>231.5</ele><time>1970-01-01T01:36:38.000Z</time></trkpt><trkpt lat="14.718892" lon="101.246995"><ele>230.8</ele><time>1970-01-01T01:36:39.000Z</time></trkpt><trkpt lat="14.718925" lon="101.246945"><ele>230</ele><time>1970-01-01T01:36:40.000Z</time></trkpt><trkpt lat="14.718974" lon="101.246915"><ele>229.3</ele><time>1970-01-01T01:36:41.000Z</time></trkpt><trkpt lat="14.719029" lon="101.246888"><ele>228.7</ele><time>1970-01-01T01:36:42.000Z</time></trkpt><trkpt lat="14.719089" lon="101.246871"><ele>228.3</ele><time>1970-01-01T01:36:43.000Z</time></trkpt><trkpt lat="14.719147" lon="101.246852"><ele>228</ele><time>1970-01-01T01:36:44.000Z</time></trkpt><trkpt lat="14.719207" lon="101.246829"><ele>227.7</ele><time>1970-01-01T01:36:45.000Z</time></trkpt><trkpt lat="14.719263" lon="101.246797"><ele>227.4</ele><time>1970-01-01T01:36:46.000Z</time></trkpt><trkpt lat="14.71932" lon="101.246782"><ele>227</ele><time>1970-01-01T01:36:47.000Z</time></trkpt><trkpt lat="14.719378" lon="101.246761"><ele>226.7</ele><time>1970-01-01T01:36:48.000Z</time></trkpt><trkpt lat="14.719435" lon="101.246737"><ele>226.5</ele><time>1970-01-01T01:36:49.000Z</time></trkpt><trkpt lat="14.719494" lon="101.246712"><ele>226.5</ele><time>1970-01-01T01:36:50.000Z</time></trkpt><trkpt lat="14.719547" lon="101.246677"><ele>226.5</ele><time>1970-01-01T01:36:51.000Z</time></trkpt><trkpt lat="14.719601" lon="101.246644"><ele>226.3</ele><time>1970-01-01T01:36:52.000Z</time></trkpt><trkpt lat="14.719647" lon="101.246609"><ele>226.1</ele><time>1970-01-01T01:36:53.000Z</time></trkpt><trkpt lat="14.719688" lon="101.24657"><ele>225.7</ele><time>1970-01-01T01:36:54.000Z</time></trkpt><trkpt lat="14.719725" lon="101.246528"><ele>225.6</ele><time>1970-01-01T01:36:55.000Z</time></trkpt><trkpt lat="14.719764" lon="101.246489"><ele>225.6</ele><time>1970-01-01T01:36:56.000Z</time></trkpt><trkpt lat="14.719802" lon="101.246447"><ele>225.5</ele><time>1970-01-01T01:36:57.000Z</time></trkpt><trkpt lat="14.719838" lon="101.246402"><ele>225.2</ele><time>1970-01-01T01:36:58.000Z</time></trkpt><trkpt lat="14.719872" lon="101.246353"><ele>224.7</ele><time>1970-01-01T01:36:59.000Z</time></trkpt><trkpt lat="14.719906" lon="101.246307"><ele>224.3</ele><time>1970-01-01T01:37:00.000Z</time></trkpt><trkpt lat="14.719944" lon="101.246256"><ele>223.7</ele><time>1970-01-01T01:37:01.000Z</time></trkpt><trkpt lat="14.719978" lon="101.246197"><ele>223</ele><time>1970-01-01T01:37:02.000Z</time></trkpt><trkpt lat="14.720006" lon="101.246132"><ele>222.7</ele><time>1970-01-01T01:37:03.000Z</time></trkpt><trkpt lat="14.720038" lon="101.246067"><ele>222.4</ele><time>1970-01-01T01:37:04.000Z</time></trkpt><trkpt lat="14.720072" lon="101.246007"><ele>222.3</ele><time>1970-01-01T01:37:05.000Z</time></trkpt><trkpt lat="14.720105" lon="101.245947"><ele>222.4</ele><time>1970-01-01T01:37:06.000Z</time></trkpt><trkpt lat="14.720141" lon="101.245884"><ele>223.2</ele><time>1970-01-01T01:37:07.000Z</time></trkpt><trkpt lat="14.720179" lon="101.245828"><ele>224.3</ele><time>1970-01-01T01:37:08.000Z</time></trkpt><trkpt lat="14.720215" lon="101.245774"><ele>225</ele><time>1970-01-01T01:37:09.000Z</time></trkpt><trkpt lat="14.720244" lon="101.245718"><ele>225.4</ele><time>1970-01-01T01:37:10.000Z</time></trkpt><trkpt lat="14.720282" lon="101.245673"><ele>225.8</ele><time>1970-01-01T01:37:11.000Z</time></trkpt><trkpt lat="14.72032" lon="101.245635"><ele>226.1</ele><time>1970-01-01T01:37:12.000Z</time></trkpt><trkpt lat="14.720346" lon="101.245587"><ele>226.3</ele><time>1970-01-01T01:37:13.000Z</time></trkpt><trkpt lat="14.720369" lon="101.245544"><ele>226.4</ele><time>1970-01-01T01:37:14.000Z</time></trkpt><trkpt lat="14.720389" lon="101.245502"><ele>226.6</ele><time>1970-01-01T01:37:15.000Z</time></trkpt><trkpt lat="14.720405" lon="101.245462"><ele>226.6</ele><time>1970-01-01T01:37:16.000Z</time></trkpt><trkpt lat="14.720422" lon="101.245416"><ele>226.7</ele><time>1970-01-01T01:37:17.000Z</time></trkpt><trkpt lat="14.720433" lon="101.245377"><ele>226.8</ele><time>1970-01-01T01:37:18.000Z</time></trkpt><trkpt lat="14.720447" lon="101.245341"><ele>226.9</ele><time>1970-01-01T01:37:19.000Z</time></trkpt><trkpt lat="14.720458" lon="101.2453"><ele>227</ele><time>1970-01-01T01:37:20.000Z</time></trkpt><trkpt lat="14.720471" lon="101.245263"><ele>227</ele><time>1970-01-01T01:37:21.000Z</time></trkpt><trkpt lat="14.720479" lon="101.245214"><ele>227.1</ele><time>1970-01-01T01:37:22.000Z</time></trkpt><trkpt lat="14.720492" lon="101.245166"><ele>227.2</ele><time>1970-01-01T01:37:23.000Z</time></trkpt><trkpt lat="14.7205" lon="101.245117"><ele>227.3</ele><time>1970-01-01T01:37:24.000Z</time></trkpt><trkpt lat="14.720508" lon="101.245079"><ele>227.4</ele><time>1970-01-01T01:37:25.000Z</time></trkpt><trkpt lat="14.720515" lon="101.245036"><ele>227.6</ele><time>1970-01-01T01:37:26.000Z</time></trkpt><trkpt lat="14.720522" lon="101.244995"><ele>227.8</ele><time>1970-01-01T01:37:27.000Z</time></trkpt><trkpt lat="14.720531" lon="101.244956"><ele>228.1</ele><time>1970-01-01T01:37:28.000Z</time></trkpt><trkpt lat="14.720539" lon="101.244921"><ele>228.4</ele><time>1970-01-01T01:37:29.000Z</time></trkpt><trkpt lat="14.720546" lon="101.244887"><ele>228.7</ele><time>1970-01-01T01:37:30.000Z</time></trkpt><trkpt lat="14.720554" lon="101.244852"><ele>229</ele><time>1970-01-01T01:37:31.000Z</time></trkpt><trkpt lat="14.72056" lon="101.244814"><ele>229.1</ele><time>1970-01-01T01:37:32.000Z</time></trkpt><trkpt lat="14.720566" lon="101.244773"><ele>229.3</ele><time>1970-01-01T01:37:33.000Z</time></trkpt><trkpt lat="14.720573" lon="101.244729"><ele>229.4</ele><time>1970-01-01T01:37:34.000Z</time></trkpt><trkpt lat="14.720581" lon="101.244685"><ele>229.5</ele><time>1970-01-01T01:37:35.000Z</time></trkpt><trkpt lat="14.72059" lon="101.244641"><ele>229.6</ele><time>1970-01-01T01:37:36.000Z</time></trkpt><trkpt lat="14.720602" lon="101.244598"><ele>229.6</ele><time>1970-01-01T01:37:37.000Z</time></trkpt><trkpt lat="14.720613" lon="101.24455"><ele>229.6</ele><time>1970-01-01T01:37:38.000Z</time></trkpt><trkpt lat="14.720628" lon="101.244504"><ele>229.6</ele><time>1970-01-01T01:37:39.000Z</time></trkpt><trkpt lat="14.720641" lon="101.244449"><ele>229.5</ele><time>1970-01-01T01:37:40.000Z</time></trkpt><trkpt lat="14.720646" lon="101.244395"><ele>229.3</ele><time>1970-01-01T01:37:41.000Z</time></trkpt><trkpt lat="14.720646" lon="101.244337"><ele>229</ele><time>1970-01-01T01:37:42.000Z</time></trkpt><trkpt lat="14.720623" lon="101.244285"><ele>228.9</ele><time>1970-01-01T01:37:43.000Z</time></trkpt><trkpt lat="14.720582" lon="101.24425"><ele>229</ele><time>1970-01-01T01:37:44.000Z</time></trkpt><trkpt lat="14.720536" lon="101.244226"><ele>228.9</ele><time>1970-01-01T01:37:45.000Z</time></trkpt><trkpt lat="14.720482" lon="101.244218"><ele>228.9</ele><time>1970-01-01T01:37:46.000Z</time></trkpt><trkpt lat="14.720432" lon="101.244213"><ele>229</ele><time>1970-01-01T01:37:47.000Z</time></trkpt><trkpt lat="14.720385" lon="101.244203"><ele>229</ele><time>1970-01-01T01:37:48.000Z</time></trkpt><trkpt lat="14.720339" lon="101.244202"><ele>229</ele><time>1970-01-01T01:37:49.000Z</time></trkpt><trkpt lat="14.720294" lon="101.244193"><ele>229</ele><time>1970-01-01T01:37:50.000Z</time></trkpt><trkpt lat="14.720259" lon="101.244188"><ele>228.9</ele><time>1970-01-01T01:37:51.000Z</time></trkpt><trkpt lat="14.720217" lon="101.244175"><ele>229</ele><time>1970-01-01T01:37:52.000Z</time></trkpt><trkpt lat="14.720174" lon="101.24416"><ele>229</ele><time>1970-01-01T01:37:53.000Z</time></trkpt><trkpt lat="14.720127" lon="101.244146"><ele>229</ele><time>1970-01-01T01:37:54.000Z</time></trkpt><trkpt lat="14.72008" lon="101.244123"><ele>229.1</ele><time>1970-01-01T01:37:55.000Z</time></trkpt><trkpt lat="14.720037" lon="101.244108"><ele>229.3</ele><time>1970-01-01T01:37:56.000Z</time></trkpt><trkpt lat="14.71999" lon="101.244095"><ele>229.7</ele><time>1970-01-01T01:37:57.000Z</time></trkpt><trkpt lat="14.719948" lon="101.244079"><ele>230.1</ele><time>1970-01-01T01:37:58.000Z</time></trkpt><trkpt lat="14.719903" lon="101.244069"><ele>230.7</ele><time>1970-01-01T01:37:59.000Z</time></trkpt><trkpt lat="14.719859" lon="101.244056"><ele>231.2</ele><time>1970-01-01T01:38:00.000Z</time></trkpt><trkpt lat="14.719816" lon="101.244041"><ele>231.5</ele><time>1970-01-01T01:38:01.000Z</time></trkpt><trkpt lat="14.719773" lon="101.244026"><ele>231.7</ele><time>1970-01-01T01:38:02.000Z</time></trkpt><trkpt lat="14.719731" lon="101.244012"><ele>231.8</ele><time>1970-01-01T01:38:03.000Z</time></trkpt><trkpt lat="14.719687" lon="101.244004"><ele>231.9</ele><time>1970-01-01T01:38:04.000Z</time></trkpt><trkpt lat="14.719647" lon="101.243995"><ele>231.9</ele><time>1970-01-01T01:38:05.000Z</time></trkpt><trkpt lat="14.719606" lon="101.24398"><ele>231.9</ele><time>1970-01-01T01:38:06.000Z</time></trkpt><trkpt lat="14.719571" lon="101.243968"><ele>231.9</ele><time>1970-01-01T01:38:07.000Z</time></trkpt><trkpt lat="14.719536" lon="101.243947"><ele>232</ele><time>1970-01-01T01:38:08.000Z</time></trkpt><trkpt lat="14.719501" lon="101.243933"><ele>232</ele><time>1970-01-01T01:38:09.000Z</time></trkpt><trkpt lat="14.719464" lon="101.243915"><ele>232</ele><time>1970-01-01T01:38:10.000Z</time></trkpt><trkpt lat="14.71943" lon="101.243894"><ele>231.9</ele><time>1970-01-01T01:38:11.000Z</time></trkpt><trkpt lat="14.719397" lon="101.243872"><ele>231.9</ele><time>1970-01-01T01:38:12.000Z</time></trkpt><trkpt lat="14.719362" lon="101.243849"><ele>231.9</ele><time>1970-01-01T01:38:13.000Z</time></trkpt><trkpt lat="14.71933" lon="101.24382"><ele>231.9</ele><time>1970-01-01T01:38:14.000Z</time></trkpt><trkpt lat="14.719297" lon="101.24379"><ele>231.9</ele><time>1970-01-01T01:38:15.000Z</time></trkpt><trkpt lat="14.719261" lon="101.243762"><ele>231.8</ele><time>1970-01-01T01:38:16.000Z</time></trkpt><trkpt lat="14.719219" lon="101.243733"><ele>231.9</ele><time>1970-01-01T01:38:17.000Z</time></trkpt><trkpt lat="14.719189" lon="101.243695"><ele>232</ele><time>1970-01-01T01:38:18.000Z</time></trkpt><trkpt lat="14.719159" lon="101.243659"><ele>232.2</ele><time>1970-01-01T01:38:19.000Z</time></trkpt><trkpt lat="14.719131" lon="101.243619"><ele>232.6</ele><time>1970-01-01T01:38:20.000Z</time></trkpt><trkpt lat="14.719109" lon="101.243574"><ele>233.2</ele><time>1970-01-01T01:38:21.000Z</time></trkpt><trkpt lat="14.719088" lon="101.24353"><ele>233.6</ele><time>1970-01-01T01:38:22.000Z</time></trkpt><trkpt lat="14.71907" lon="101.243485"><ele>233.9</ele><time>1970-01-01T01:38:23.000Z</time></trkpt><trkpt lat="14.719047" lon="101.243438"><ele>234.1</ele><time>1970-01-01T01:38:24.000Z</time></trkpt><trkpt lat="14.719031" lon="101.243391"><ele>234.1</ele><time>1970-01-01T01:38:25.000Z</time></trkpt><trkpt lat="14.719016" lon="101.243341"><ele>234.1</ele><time>1970-01-01T01:38:26.000Z</time></trkpt><trkpt lat="14.719" lon="101.243295"><ele>234</ele><time>1970-01-01T01:38:27.000Z</time></trkpt><trkpt lat="14.718986" lon="101.243243"><ele>233.8</ele><time>1970-01-01T01:38:28.000Z</time></trkpt><trkpt lat="14.718974" lon="101.243201"><ele>233.5</ele><time>1970-01-01T01:38:29.000Z</time></trkpt><trkpt lat="14.718958" lon="101.243155"><ele>233.2</ele><time>1970-01-01T01:38:30.000Z</time></trkpt><trkpt lat="14.718945" lon="101.243113"><ele>232.6</ele><time>1970-01-01T01:38:31.000Z</time></trkpt><trkpt lat="14.718931" lon="101.243059"><ele>231.9</ele><time>1970-01-01T01:38:32.000Z</time></trkpt><trkpt lat="14.718913" lon="101.243001"><ele>230.9</ele><time>1970-01-01T01:38:33.000Z</time></trkpt><trkpt lat="14.718898" lon="101.242951"><ele>230.6</ele><time>1970-01-01T01:38:34.000Z</time></trkpt><trkpt lat="14.718884" lon="101.242893"><ele>230.3</ele><time>1970-01-01T01:38:35.000Z</time></trkpt><trkpt lat="14.718861" lon="101.242849"><ele>230.1</ele><time>1970-01-01T01:38:36.000Z</time></trkpt><trkpt lat="14.718829" lon="101.242791"><ele>229.7</ele><time>1970-01-01T01:38:37.000Z</time></trkpt><trkpt lat="14.718799" lon="101.242743"><ele>229.2</ele><time>1970-01-01T01:38:38.000Z</time></trkpt><trkpt lat="14.718762" lon="101.242696"><ele>228.9</ele><time>1970-01-01T01:38:39.000Z</time></trkpt><trkpt lat="14.718711" lon="101.242659"><ele>228.7</ele><time>1970-01-01T01:38:40.000Z</time></trkpt><trkpt lat="14.718665" lon="101.242634"><ele>228.7</ele><time>1970-01-01T01:38:41.000Z</time></trkpt><trkpt lat="14.718616" lon="101.242609"><ele>228.6</ele><time>1970-01-01T01:38:42.000Z</time></trkpt><trkpt lat="14.71857" lon="101.242585"><ele>228.6</ele><time>1970-01-01T01:38:43.000Z</time></trkpt><trkpt lat="14.718525" lon="101.242562"><ele>228.8</ele><time>1970-01-01T01:38:44.000Z</time></trkpt><trkpt lat="14.718479" lon="101.242537"><ele>229.3</ele><time>1970-01-01T01:38:45.000Z</time></trkpt><trkpt lat="14.718432" lon="101.242513"><ele>230</ele><time>1970-01-01T01:38:46.000Z</time></trkpt><trkpt lat="14.718382" lon="101.242488"><ele>230.5</ele><time>1970-01-01T01:38:47.000Z</time></trkpt><trkpt lat="14.71834" lon="101.242477"><ele>231</ele><time>1970-01-01T01:38:48.000Z</time></trkpt><trkpt lat="14.718291" lon="101.242454"><ele>231</ele><time>1970-01-01T01:38:49.000Z</time></trkpt><trkpt lat="14.718246" lon="101.242433"><ele>231</ele><time>1970-01-01T01:38:50.000Z</time></trkpt><trkpt lat="14.718198" lon="101.242411"><ele>231</ele><time>1970-01-01T01:38:51.000Z</time></trkpt><trkpt lat="14.718152" lon="101.24239"><ele>231.1</ele><time>1970-01-01T01:38:52.000Z</time></trkpt><trkpt lat="14.718106" lon="101.24237"><ele>231.3</ele><time>1970-01-01T01:38:53.000Z</time></trkpt><trkpt lat="14.718055" lon="101.242349"><ele>231.4</ele><time>1970-01-01T01:38:54.000Z</time></trkpt><trkpt lat="14.71801" lon="101.242329"><ele>231.6</ele><time>1970-01-01T01:38:55.000Z</time></trkpt><trkpt lat="14.717961" lon="101.242309"><ele>231.9</ele><time>1970-01-01T01:38:56.000Z</time></trkpt><trkpt lat="14.717915" lon="101.242285"><ele>232</ele><time>1970-01-01T01:38:57.000Z</time></trkpt><trkpt lat="14.717869" lon="101.242265"><ele>232</ele><time>1970-01-01T01:38:58.000Z</time></trkpt><trkpt lat="14.717825" lon="101.242245"><ele>231.9</ele><time>1970-01-01T01:38:59.000Z</time></trkpt><trkpt lat="14.717782" lon="101.242224"><ele>231.9</ele><time>1970-01-01T01:39:00.000Z</time></trkpt><trkpt lat="14.717738" lon="101.242206"><ele>231.8</ele><time>1970-01-01T01:39:01.000Z</time></trkpt><trkpt lat="14.717695" lon="101.242185"><ele>231.7</ele><time>1970-01-01T01:39:02.000Z</time></trkpt><trkpt lat="14.71765" lon="101.242172"><ele>231.8</ele><time>1970-01-01T01:39:03.000Z</time></trkpt><trkpt lat="14.717604" lon="101.242152"><ele>231.9</ele><time>1970-01-01T01:39:04.000Z</time></trkpt><trkpt lat="14.717558" lon="101.242139"><ele>232.1</ele><time>1970-01-01T01:39:05.000Z</time></trkpt><trkpt lat="14.71751" lon="101.242129"><ele>232.4</ele><time>1970-01-01T01:39:06.000Z</time></trkpt><trkpt lat="14.717464" lon="101.24211"><ele>232.8</ele><time>1970-01-01T01:39:07.000Z</time></trkpt><trkpt lat="14.717418" lon="101.242093"><ele>233.2</ele><time>1970-01-01T01:39:08.000Z</time></trkpt><trkpt lat="14.717374" lon="101.242078"><ele>233.6</ele><time>1970-01-01T01:39:09.000Z</time></trkpt><trkpt lat="14.717327" lon="101.242065"><ele>234.1</ele><time>1970-01-01T01:39:10.000Z</time></trkpt><trkpt lat="14.717279" lon="101.242053"><ele>234.5</ele><time>1970-01-01T01:39:11.000Z</time></trkpt><trkpt lat="14.717233" lon="101.242038"><ele>235</ele><time>1970-01-01T01:39:12.000Z</time></trkpt><trkpt lat="14.717192" lon="101.242021"><ele>235.4</ele><time>1970-01-01T01:39:13.000Z</time></trkpt><trkpt lat="14.717148" lon="101.242009"><ele>235.5</ele><time>1970-01-01T01:39:14.000Z</time></trkpt><trkpt lat="14.717102" lon="101.241999"><ele>235.7</ele><time>1970-01-01T01:39:15.000Z</time></trkpt><trkpt lat="14.717064" lon="101.24199"><ele>235.8</ele><time>1970-01-01T01:39:16.000Z</time></trkpt><trkpt lat="14.717021" lon="101.241978"><ele>235.9</ele><time>1970-01-01T01:39:17.000Z</time></trkpt><trkpt lat="14.716978" lon="101.241966"><ele>235.8</ele><time>1970-01-01T01:39:18.000Z</time></trkpt><trkpt lat="14.716936" lon="101.241954"><ele>235.9</ele><time>1970-01-01T01:39:19.000Z</time></trkpt><trkpt lat="14.716892" lon="101.24194"><ele>236.1</ele><time>1970-01-01T01:39:20.000Z</time></trkpt><trkpt lat="14.716847" lon="101.241925"><ele>236.1</ele><time>1970-01-01T01:39:21.000Z</time></trkpt><trkpt lat="14.716808" lon="101.241915"><ele>236.1</ele><time>1970-01-01T01:39:22.000Z</time></trkpt><trkpt lat="14.716769" lon="101.241902"><ele>236.1</ele><time>1970-01-01T01:39:23.000Z</time></trkpt><trkpt lat="14.716728" lon="101.241891"><ele>236</ele><time>1970-01-01T01:39:24.000Z</time></trkpt><trkpt lat="14.716684" lon="101.241881"><ele>235.9</ele><time>1970-01-01T01:39:25.000Z</time></trkpt><trkpt lat="14.716642" lon="101.241868"><ele>235.7</ele><time>1970-01-01T01:39:26.000Z</time></trkpt><trkpt lat="14.716602" lon="101.241855"><ele>235.7</ele><time>1970-01-01T01:39:27.000Z</time></trkpt><trkpt lat="14.716558" lon="101.241844"><ele>235.7</ele><time>1970-01-01T01:39:28.000Z</time></trkpt><trkpt lat="14.716513" lon="101.241833"><ele>235.7</ele><time>1970-01-01T01:39:29.000Z</time></trkpt><trkpt lat="14.716472" lon="101.241822"><ele>235.7</ele><time>1970-01-01T01:39:30.000Z</time></trkpt><trkpt lat="14.71643" lon="101.241812"><ele>235.7</ele><time>1970-01-01T01:39:31.000Z</time></trkpt><trkpt lat="14.716387" lon="101.2418"><ele>235.6</ele><time>1970-01-01T01:39:32.000Z</time></trkpt><trkpt lat="14.716345" lon="101.241787"><ele>235.7</ele><time>1970-01-01T01:39:33.000Z</time></trkpt><trkpt lat="14.716301" lon="101.241775"><ele>235.8</ele><time>1970-01-01T01:39:34.000Z</time></trkpt><trkpt lat="14.716263" lon="101.241762"><ele>236.1</ele><time>1970-01-01T01:39:35.000Z</time></trkpt><trkpt lat="14.716222" lon="101.241747"><ele>236.5</ele><time>1970-01-01T01:39:36.000Z</time></trkpt><trkpt lat="14.716182" lon="101.241736"><ele>236.6</ele><time>1970-01-01T01:39:37.000Z</time></trkpt><trkpt lat="14.71614" lon="101.241723"><ele>236.7</ele><time>1970-01-01T01:39:38.000Z</time></trkpt><trkpt lat="14.716096" lon="101.241709"><ele>236.7</ele><time>1970-01-01T01:39:39.000Z</time></trkpt><trkpt lat="14.716054" lon="101.241698"><ele>236.6</ele><time>1970-01-01T01:39:40.000Z</time></trkpt><trkpt lat="14.716011" lon="101.241685"><ele>236.6</ele><time>1970-01-01T01:39:41.000Z</time></trkpt><trkpt lat="14.715968" lon="101.24167"><ele>236.5</ele><time>1970-01-01T01:39:42.000Z</time></trkpt><trkpt lat="14.715927" lon="101.241663"><ele>236.5</ele><time>1970-01-01T01:39:43.000Z</time></trkpt><trkpt lat="14.715884" lon="101.241657"><ele>236.6</ele><time>1970-01-01T01:39:44.000Z</time></trkpt><trkpt lat="14.715836" lon="101.241649"><ele>236.8</ele><time>1970-01-01T01:39:45.000Z</time></trkpt><trkpt lat="14.715795" lon="101.241644"><ele>236.9</ele><time>1970-01-01T01:39:46.000Z</time></trkpt><trkpt lat="14.71575" lon="101.241634"><ele>237.2</ele><time>1970-01-01T01:39:47.000Z</time></trkpt><trkpt lat="14.715704" lon="101.241623"><ele>237.5</ele><time>1970-01-01T01:39:48.000Z</time></trkpt><trkpt lat="14.715658" lon="101.241615"><ele>237.8</ele><time>1970-01-01T01:39:49.000Z</time></trkpt><trkpt lat="14.715614" lon="101.241609"><ele>238</ele><time>1970-01-01T01:39:50.000Z</time></trkpt><trkpt lat="14.715568" lon="101.241603"><ele>238</ele><time>1970-01-01T01:39:51.000Z</time></trkpt><trkpt lat="14.715521" lon="101.241592"><ele>238</ele><time>1970-01-01T01:39:52.000Z</time></trkpt><trkpt lat="14.715465" lon="101.241579"><ele>238.2</ele><time>1970-01-01T01:39:53.000Z</time></trkpt><trkpt lat="14.715417" lon="101.241566"><ele>238.1</ele><time>1970-01-01T01:39:54.000Z</time></trkpt><trkpt lat="14.715364" lon="101.241554"><ele>238.1</ele><time>1970-01-01T01:39:55.000Z</time></trkpt><trkpt lat="14.715315" lon="101.241547"><ele>238.2</ele><time>1970-01-01T01:39:56.000Z</time></trkpt><trkpt lat="14.715262" lon="101.241542"><ele>238.2</ele><time>1970-01-01T01:39:57.000Z</time></trkpt><trkpt lat="14.71521" lon="101.241531"><ele>238</ele><time>1970-01-01T01:39:58.000Z</time></trkpt><trkpt lat="14.715162" lon="101.241518"><ele>237.7</ele><time>1970-01-01T01:39:59.000Z</time></trkpt><trkpt lat="14.715113" lon="101.241504"><ele>237.3</ele><time>1970-01-01T01:40:00.000Z</time></trkpt><trkpt lat="14.715067" lon="101.241493"><ele>236.9</ele><time>1970-01-01T01:40:01.000Z</time></trkpt><trkpt lat="14.715023" lon="101.241486"><ele>236.6</ele><time>1970-01-01T01:40:02.000Z</time></trkpt><trkpt lat="14.71498" lon="101.241474"><ele>236.7</ele><time>1970-01-01T01:40:03.000Z</time></trkpt><trkpt lat="14.714935" lon="101.241461"><ele>236.9</ele><time>1970-01-01T01:40:04.000Z</time></trkpt><trkpt lat="14.714893" lon="101.241452"><ele>237.1</ele><time>1970-01-01T01:40:05.000Z</time></trkpt><trkpt lat="14.714852" lon="101.241437"><ele>237.3</ele><time>1970-01-01T01:40:06.000Z</time></trkpt><trkpt lat="14.714816" lon="101.241426"><ele>237.4</ele><time>1970-01-01T01:40:07.000Z</time></trkpt><trkpt lat="14.714777" lon="101.241415"><ele>237.5</ele><time>1970-01-01T01:40:08.000Z</time></trkpt><trkpt lat="14.714734" lon="101.2414"><ele>237.5</ele><time>1970-01-01T01:40:09.000Z</time></trkpt><trkpt lat="14.714699" lon="101.241396"><ele>237.5</ele><time>1970-01-01T01:40:10.000Z</time></trkpt><trkpt lat="14.714663" lon="101.241383"><ele>237.7</ele><time>1970-01-01T01:40:11.000Z</time></trkpt><trkpt lat="14.714619" lon="101.241364"><ele>237.9</ele><time>1970-01-01T01:40:12.000Z</time></trkpt><trkpt lat="14.714577" lon="101.241347"><ele>237.9</ele><time>1970-01-01T01:40:13.000Z</time></trkpt><trkpt lat="14.714531" lon="101.241328"><ele>237.8</ele><time>1970-01-01T01:40:14.000Z</time></trkpt><trkpt lat="14.714486" lon="101.241314"><ele>237.6</ele><time>1970-01-01T01:40:15.000Z</time></trkpt><trkpt lat="14.714443" lon="101.241294"><ele>237.4</ele><time>1970-01-01T01:40:16.000Z</time></trkpt><trkpt lat="14.714397" lon="101.241273"><ele>237.3</ele><time>1970-01-01T01:40:17.000Z</time></trkpt><trkpt lat="14.714353" lon="101.241253"><ele>237.4</ele><time>1970-01-01T01:40:18.000Z</time></trkpt><trkpt lat="14.714302" lon="101.241239"><ele>237.7</ele><time>1970-01-01T01:40:19.000Z</time></trkpt><trkpt lat="14.714261" lon="101.241208"><ele>238</ele><time>1970-01-01T01:40:20.000Z</time></trkpt><trkpt lat="14.714218" lon="101.241187"><ele>238.2</ele><time>1970-01-01T01:40:21.000Z</time></trkpt><trkpt lat="14.71417" lon="101.241172"><ele>238.5</ele><time>1970-01-01T01:40:22.000Z</time></trkpt><trkpt lat="14.714128" lon="101.241147"><ele>238.8</ele><time>1970-01-01T01:40:23.000Z</time></trkpt><trkpt lat="14.714082" lon="101.241121"><ele>239.3</ele><time>1970-01-01T01:40:24.000Z</time></trkpt><trkpt lat="14.714037" lon="101.241102"><ele>239.6</ele><time>1970-01-01T01:40:25.000Z</time></trkpt><trkpt lat="14.713989" lon="101.241086"><ele>240</ele><time>1970-01-01T01:40:26.000Z</time></trkpt><trkpt lat="14.713943" lon="101.241064"><ele>240.2</ele><time>1970-01-01T01:40:27.000Z</time></trkpt><trkpt lat="14.713897" lon="101.241042"><ele>240.3</ele><time>1970-01-01T01:40:28.000Z</time></trkpt><trkpt lat="14.713855" lon="101.241023"><ele>239.9</ele><time>1970-01-01T01:40:29.000Z</time></trkpt><trkpt lat="14.713812" lon="101.240999"><ele>239.5</ele><time>1970-01-01T01:40:30.000Z</time></trkpt><trkpt lat="14.71376" lon="101.240983"><ele>239</ele><time>1970-01-01T01:40:31.000Z</time></trkpt><trkpt lat="14.713722" lon="101.240952"><ele>238.6</ele><time>1970-01-01T01:40:32.000Z</time></trkpt><trkpt lat="14.713678" lon="101.240935"><ele>238.4</ele><time>1970-01-01T01:40:33.000Z</time></trkpt><trkpt lat="14.713629" lon="101.240919"><ele>238.3</ele><time>1970-01-01T01:40:34.000Z</time></trkpt><trkpt lat="14.713584" lon="101.240903"><ele>238.4</ele><time>1970-01-01T01:40:35.000Z</time></trkpt><trkpt lat="14.713536" lon="101.240887"><ele>238.5</ele><time>1970-01-01T01:40:36.000Z</time></trkpt><trkpt lat="14.713491" lon="101.240878"><ele>238.6</ele><time>1970-01-01T01:40:37.000Z</time></trkpt><trkpt lat="14.713449" lon="101.240866"><ele>238.7</ele><time>1970-01-01T01:40:38.000Z</time></trkpt><trkpt lat="14.713409" lon="101.240855"><ele>238.8</ele><time>1970-01-01T01:40:39.000Z</time></trkpt><trkpt lat="14.71336" lon="101.240839"><ele>239.1</ele><time>1970-01-01T01:40:40.000Z</time></trkpt><trkpt lat="14.713308" lon="101.24084"><ele>239.4</ele><time>1970-01-01T01:40:41.000Z</time></trkpt><trkpt lat="14.713277" lon="101.240831"><ele>239.5</ele><time>1970-01-01T01:40:42.000Z</time></trkpt><trkpt lat="14.713235" lon="101.240828"><ele>239.7</ele><time>1970-01-01T01:40:43.000Z</time></trkpt><trkpt lat="14.713191" lon="101.240815"><ele>240</ele><time>1970-01-01T01:40:44.000Z</time></trkpt><trkpt lat="14.713141" lon="101.2408"><ele>240.2</ele><time>1970-01-01T01:40:45.000Z</time></trkpt><trkpt lat="14.713092" lon="101.240787"><ele>240.2</ele><time>1970-01-01T01:40:46.000Z</time></trkpt><trkpt lat="14.713041" lon="101.240782"><ele>240.4</ele><time>1970-01-01T01:40:47.000Z</time></trkpt><trkpt lat="14.712989" lon="101.240766"><ele>240.4</ele><time>1970-01-01T01:40:48.000Z</time></trkpt><trkpt lat="14.712936" lon="101.240746"><ele>240</ele><time>1970-01-01T01:40:49.000Z</time></trkpt><trkpt lat="14.712887" lon="101.240727"><ele>239.6</ele><time>1970-01-01T01:40:50.000Z</time></trkpt><trkpt lat="14.712845" lon="101.240703"><ele>239.1</ele><time>1970-01-01T01:40:51.000Z</time></trkpt><trkpt lat="14.712812" lon="101.240666"><ele>238.4</ele><time>1970-01-01T01:40:52.000Z</time></trkpt><trkpt lat="14.712802" lon="101.240626"><ele>238.3</ele><time>1970-01-01T01:40:53.000Z</time></trkpt><trkpt lat="14.71281" lon="101.240572"><ele>238.1</ele><time>1970-01-01T01:40:54.000Z</time></trkpt><trkpt lat="14.712814" lon="101.240511"><ele>238</ele><time>1970-01-01T01:40:55.000Z</time></trkpt><trkpt lat="14.712814" lon="101.240463"><ele>238.1</ele><time>1970-01-01T01:40:56.000Z</time></trkpt><trkpt lat="14.7128" lon="101.240424"><ele>238.3</ele><time>1970-01-01T01:40:57.000Z</time></trkpt><trkpt lat="14.712805" lon="101.240367"><ele>238.5</ele><time>1970-01-01T01:40:58.000Z</time></trkpt><trkpt lat="14.712807" lon="101.240297"><ele>238.7</ele><time>1970-01-01T01:40:59.000Z</time></trkpt><trkpt lat="14.712808" lon="101.240229"><ele>238.8</ele><time>1970-01-01T01:41:00.000Z</time></trkpt><trkpt lat="14.712804" lon="101.240165"><ele>238.8</ele><time>1970-01-01T01:41:01.000Z</time></trkpt><trkpt lat="14.712804" lon="101.240108"><ele>239.4</ele><time>1970-01-01T01:41:02.000Z</time></trkpt><trkpt lat="14.712794" lon="101.240057"><ele>240</ele><time>1970-01-01T01:41:03.000Z</time></trkpt><trkpt lat="14.71279" lon="101.239984"><ele>241.4</ele><time>1970-01-01T01:41:04.000Z</time></trkpt><trkpt lat="14.712798" lon="101.239934"><ele>241.5</ele><time>1970-01-01T01:41:05.000Z</time></trkpt><trkpt lat="14.712799" lon="101.239894"><ele>241.6</ele><time>1970-01-01T01:41:06.000Z</time></trkpt><trkpt lat="14.712796" lon="101.239849"><ele>241.5</ele><time>1970-01-01T01:41:07.000Z</time></trkpt><trkpt lat="14.712797" lon="101.239813"><ele>241.3</ele><time>1970-01-01T01:41:08.000Z</time></trkpt><trkpt lat="14.712795" lon="101.239771"><ele>241.1</ele><time>1970-01-01T01:41:09.000Z</time></trkpt><trkpt lat="14.712776" lon="101.239739"><ele>241</ele><time>1970-01-01T01:41:10.000Z</time></trkpt><trkpt lat="14.712765" lon="101.239685"><ele>240.7</ele><time>1970-01-01T01:41:11.000Z</time></trkpt><trkpt lat="14.712742" lon="101.239625"><ele>240.2</ele><time>1970-01-01T01:41:12.000Z</time></trkpt><trkpt lat="14.712739" lon="101.239569"><ele>239.7</ele><time>1970-01-01T01:41:13.000Z</time></trkpt><trkpt lat="14.712733" lon="101.239532"><ele>239.4</ele><time>1970-01-01T01:41:14.000Z</time></trkpt><trkpt lat="14.712737" lon="101.239482"><ele>239.3</ele><time>1970-01-01T01:41:15.000Z</time></trkpt><trkpt lat="14.712736" lon="101.239437"><ele>239.4</ele><time>1970-01-01T01:41:16.000Z</time></trkpt><trkpt lat="14.712732" lon="101.239386"><ele>240.1</ele><time>1970-01-01T01:41:17.000Z</time></trkpt><trkpt lat="14.712729" lon="101.239333"><ele>240.8</ele><time>1970-01-01T01:41:18.000Z</time></trkpt><trkpt lat="14.712723" lon="101.239272"><ele>241.3</ele><time>1970-01-01T01:41:19.000Z</time></trkpt><trkpt lat="14.712718" lon="101.23922"><ele>241.9</ele><time>1970-01-01T01:41:20.000Z</time></trkpt><trkpt lat="14.712706" lon="101.239161"><ele>242.7</ele><time>1970-01-01T01:41:21.000Z</time></trkpt><trkpt lat="14.712694" lon="101.23911"><ele>242.7</ele><time>1970-01-01T01:41:22.000Z</time></trkpt><trkpt lat="14.712687" lon="101.23905"><ele>242.9</ele><time>1970-01-01T01:41:23.000Z</time></trkpt><trkpt lat="14.712672" lon="101.239005"><ele>243.2</ele><time>1970-01-01T01:41:24.000Z</time></trkpt><trkpt lat="14.712645" lon="101.238957"><ele>243.5</ele><time>1970-01-01T01:41:25.000Z</time></trkpt><trkpt lat="14.712623" lon="101.238911"><ele>243.8</ele><time>1970-01-01T01:41:26.000Z</time></trkpt><trkpt lat="14.712606" lon="101.238876"><ele>243.9</ele><time>1970-01-01T01:41:27.000Z</time></trkpt><trkpt lat="14.712591" lon="101.23885"><ele>243.9</ele><time>1970-01-01T01:41:28.000Z</time></trkpt><trkpt lat="14.712575" lon="101.238798"><ele>244.1</ele><time>1970-01-01T01:41:29.000Z</time></trkpt><trkpt lat="14.712551" lon="101.23876"><ele>244.3</ele><time>1970-01-01T01:41:30.000Z</time></trkpt><trkpt lat="14.712531" lon="101.238718"><ele>244.1</ele><time>1970-01-01T01:41:31.000Z</time></trkpt><trkpt lat="14.712509" lon="101.238666"><ele>243.9</ele><time>1970-01-01T01:41:32.000Z</time></trkpt><trkpt lat="14.712491" lon="101.238619"><ele>243.6</ele><time>1970-01-01T01:41:33.000Z</time></trkpt><trkpt lat="14.712474" lon="101.238575"><ele>243.3</ele><time>1970-01-01T01:41:34.000Z</time></trkpt><trkpt lat="14.712455" lon="101.238543"><ele>242.9</ele><time>1970-01-01T01:41:35.000Z</time></trkpt><trkpt lat="14.712436" lon="101.238503"><ele>242.6</ele><time>1970-01-01T01:41:36.000Z</time></trkpt><trkpt lat="14.712411" lon="101.238461"><ele>242.2</ele><time>1970-01-01T01:41:37.000Z</time></trkpt><trkpt lat="14.712388" lon="101.238422"><ele>241.8</ele><time>1970-01-01T01:41:38.000Z</time></trkpt><trkpt lat="14.712377" lon="101.238374"><ele>241.1</ele><time>1970-01-01T01:41:39.000Z</time></trkpt><trkpt lat="14.712356" lon="101.238333"><ele>240.5</ele><time>1970-01-01T01:41:40.000Z</time></trkpt><trkpt lat="14.712335" lon="101.238294"><ele>240.1</ele><time>1970-01-01T01:41:41.000Z</time></trkpt><trkpt lat="14.712309" lon="101.238253"><ele>239.8</ele><time>1970-01-01T01:41:42.000Z</time></trkpt><trkpt lat="14.712284" lon="101.238208"><ele>239.8</ele><time>1970-01-01T01:41:43.000Z</time></trkpt><trkpt lat="14.712261" lon="101.23817"><ele>239.9</ele><time>1970-01-01T01:41:44.000Z</time></trkpt><trkpt lat="14.712241" lon="101.238129"><ele>240.1</ele><time>1970-01-01T01:41:45.000Z</time></trkpt><trkpt lat="14.712217" lon="101.238089"><ele>240.2</ele><time>1970-01-01T01:41:46.000Z</time></trkpt><trkpt lat="14.712195" lon="101.238044"><ele>240.3</ele><time>1970-01-01T01:41:47.000Z</time></trkpt><trkpt lat="14.71217" lon="101.238002"><ele>240.5</ele><time>1970-01-01T01:41:48.000Z</time></trkpt><trkpt lat="14.712152" lon="101.23796"><ele>240.6</ele><time>1970-01-01T01:41:49.000Z</time></trkpt><trkpt lat="14.712131" lon="101.237921"><ele>240.9</ele><time>1970-01-01T01:41:50.000Z</time></trkpt><trkpt lat="14.712112" lon="101.237879"><ele>241.3</ele><time>1970-01-01T01:41:51.000Z</time></trkpt><trkpt lat="14.712088" lon="101.237833"><ele>241.6</ele><time>1970-01-01T01:41:52.000Z</time></trkpt><trkpt lat="14.712069" lon="101.23779"><ele>241.9</ele><time>1970-01-01T01:41:53.000Z</time></trkpt><trkpt lat="14.712053" lon="101.237752"><ele>242.2</ele><time>1970-01-01T01:41:54.000Z</time></trkpt><trkpt lat="14.712038" lon="101.237706"><ele>242.4</ele><time>1970-01-01T01:41:55.000Z</time></trkpt><trkpt lat="14.712023" lon="101.237662"><ele>242.4</ele><time>1970-01-01T01:41:56.000Z</time></trkpt><trkpt lat="14.712006" lon="101.237619"><ele>242.4</ele><time>1970-01-01T01:41:57.000Z</time></trkpt><trkpt lat="14.711994" lon="101.237584"><ele>242.6</ele><time>1970-01-01T01:41:58.000Z</time></trkpt><trkpt lat="14.711977" lon="101.237554"><ele>242.7</ele><time>1970-01-01T01:41:59.000Z</time></trkpt><trkpt lat="14.711962" lon="101.237517"><ele>242.8</ele><time>1970-01-01T01:42:00.000Z</time></trkpt><trkpt lat="14.711944" lon="101.237479"><ele>243</ele><time>1970-01-01T01:42:01.000Z</time></trkpt><trkpt lat="14.711926" lon="101.237441"><ele>243.2</ele><time>1970-01-01T01:42:02.000Z</time></trkpt><trkpt lat="14.711907" lon="101.237408"><ele>243.6</ele><time>1970-01-01T01:42:03.000Z</time></trkpt><trkpt lat="14.71189" lon="101.237372"><ele>244.1</ele><time>1970-01-01T01:42:04.000Z</time></trkpt><trkpt lat="14.711872" lon="101.237339"><ele>244.6</ele><time>1970-01-01T01:42:05.000Z</time></trkpt><trkpt lat="14.711853" lon="101.237304"><ele>245.2</ele><time>1970-01-01T01:42:06.000Z</time></trkpt><trkpt lat="14.711834" lon="101.237267"><ele>246</ele><time>1970-01-01T01:42:07.000Z</time></trkpt><trkpt lat="14.711817" lon="101.237227"><ele>247</ele><time>1970-01-01T01:42:08.000Z</time></trkpt><trkpt lat="14.711805" lon="101.237187"><ele>247.7</ele><time>1970-01-01T01:42:09.000Z</time></trkpt><trkpt lat="14.711796" lon="101.237148"><ele>248.1</ele><time>1970-01-01T01:42:10.000Z</time></trkpt><trkpt lat="14.711792" lon="101.237108"><ele>248.7</ele><time>1970-01-01T01:42:11.000Z</time></trkpt><trkpt lat="14.711788" lon="101.237068"><ele>249.6</ele><time>1970-01-01T01:42:12.000Z</time></trkpt><trkpt lat="14.711784" lon="101.237029"><ele>250.4</ele><time>1970-01-01T01:42:13.000Z</time></trkpt><trkpt lat="14.711779" lon="101.236989"><ele>251</ele><time>1970-01-01T01:42:14.000Z</time></trkpt><trkpt lat="14.711773" lon="101.236951"><ele>251.5</ele><time>1970-01-01T01:42:15.000Z</time></trkpt><trkpt lat="14.711765" lon="101.236914"><ele>251.9</ele><time>1970-01-01T01:42:16.000Z</time></trkpt><trkpt lat="14.711759" lon="101.236877"><ele>252.3</ele><time>1970-01-01T01:42:17.000Z</time></trkpt><trkpt lat="14.711752" lon="101.236838"><ele>252.6</ele><time>1970-01-01T01:42:18.000Z</time></trkpt><trkpt lat="14.711744" lon="101.2368"><ele>252.8</ele><time>1970-01-01T01:42:19.000Z</time></trkpt><trkpt lat="14.711735" lon="101.236762"><ele>253</ele><time>1970-01-01T01:42:20.000Z</time></trkpt><trkpt lat="14.711724" lon="101.236725"><ele>253</ele><time>1970-01-01T01:42:21.000Z</time></trkpt><trkpt lat="14.711715" lon="101.236695"><ele>253.1</ele><time>1970-01-01T01:42:22.000Z</time></trkpt><trkpt lat="14.711695" lon="101.236647"><ele>253</ele><time>1970-01-01T01:42:24.000Z</time></trkpt><trkpt lat="14.711669" lon="101.236601"><ele>252.7</ele><time>1970-01-01T01:42:26.000Z</time></trkpt><trkpt lat="14.711652" lon="101.236578"><ele>252.5</ele><time>1970-01-01T01:42:27.000Z</time></trkpt><trkpt lat="14.711635" lon="101.236555"><ele>252.3</ele><time>1970-01-01T01:42:28.000Z</time></trkpt><trkpt lat="14.711618" lon="101.23653"><ele>252.1</ele><time>1970-01-01T01:42:29.000Z</time></trkpt><trkpt lat="14.711601" lon="101.236503"><ele>251.9</ele><time>1970-01-01T01:42:30.000Z</time></trkpt><trkpt lat="14.711586" lon="101.236475"><ele>251.7</ele><time>1970-01-01T01:42:31.000Z</time></trkpt><trkpt lat="14.711574" lon="101.236449"><ele>251.6</ele><time>1970-01-01T01:42:32.000Z</time></trkpt><trkpt lat="14.711566" lon="101.236422"><ele>251.5</ele><time>1970-01-01T01:42:33.000Z</time></trkpt><trkpt lat="14.71156" lon="101.236389"><ele>251.7</ele><time>1970-01-01T01:42:34.000Z</time></trkpt><trkpt lat="14.711559" lon="101.236354"><ele>251.8</ele><time>1970-01-01T01:42:35.000Z</time></trkpt><trkpt lat="14.711563" lon="101.236319"><ele>251.6</ele><time>1970-01-01T01:42:36.000Z</time></trkpt><trkpt lat="14.711572" lon="101.236282"><ele>251.3</ele><time>1970-01-01T01:42:37.000Z</time></trkpt><trkpt lat="14.711583" lon="101.236247"><ele>251.4</ele><time>1970-01-01T01:42:38.000Z</time></trkpt><trkpt lat="14.711596" lon="101.236215"><ele>251.6</ele><time>1970-01-01T01:42:39.000Z</time></trkpt><trkpt lat="14.711612" lon="101.236188"><ele>251.7</ele><time>1970-01-01T01:42:40.000Z</time></trkpt><trkpt lat="14.711633" lon="101.236161"><ele>251.7</ele><time>1970-01-01T01:42:41.000Z</time></trkpt><trkpt lat="14.711659" lon="101.236136"><ele>251.8</ele><time>1970-01-01T01:42:42.000Z</time></trkpt><trkpt lat="14.71169" lon="101.236117"><ele>251.7</ele><time>1970-01-01T01:42:43.000Z</time></trkpt><trkpt lat="14.711722" lon="101.236103"><ele>251.6</ele><time>1970-01-01T01:42:44.000Z</time></trkpt><trkpt lat="14.711756" lon="101.236099"><ele>251.4</ele><time>1970-01-01T01:42:45.000Z</time></trkpt><trkpt lat="14.711791" lon="101.236103"><ele>251.2</ele><time>1970-01-01T01:42:46.000Z</time></trkpt><trkpt lat="14.711827" lon="101.236117"><ele>251</ele><time>1970-01-01T01:42:47.000Z</time></trkpt><trkpt lat="14.711868" lon="101.236134"><ele>251.4</ele><time>1970-01-01T01:42:48.000Z</time></trkpt><trkpt lat="14.711911" lon="101.236153"><ele>251.8</ele><time>1970-01-01T01:42:49.000Z</time></trkpt><trkpt lat="14.711968" lon="101.236186"><ele>252.6</ele><time>1970-01-01T01:42:50.000Z</time></trkpt><trkpt lat="14.712009" lon="101.236194"><ele>253.1</ele><time>1970-01-01T01:42:51.000Z</time></trkpt><trkpt lat="14.712076" lon="101.236157"><ele>253.9</ele><time>1970-01-01T01:42:52.000Z</time></trkpt><trkpt lat="14.712116" lon="101.236135"><ele>254.3</ele><time>1970-01-01T01:42:53.000Z</time></trkpt><trkpt lat="14.712154" lon="101.236106"><ele>254.8</ele><time>1970-01-01T01:42:54.000Z</time></trkpt><trkpt lat="14.712176" lon="101.23608"><ele>255.1</ele><time>1970-01-01T01:42:55.000Z</time></trkpt><trkpt lat="14.712211" lon="101.236048"><ele>255.4</ele><time>1970-01-01T01:42:56.000Z</time></trkpt><trkpt lat="14.712241" lon="101.236017"><ele>255.8</ele><time>1970-01-01T01:42:57.000Z</time></trkpt><trkpt lat="14.71228" lon="101.235983"><ele>256.1</ele><time>1970-01-01T01:42:58.000Z</time></trkpt><trkpt lat="14.712312" lon="101.235953"><ele>256.6</ele><time>1970-01-01T01:42:59.000Z</time></trkpt><trkpt lat="14.712335" lon="101.235928"><ele>256.9</ele><time>1970-01-01T01:43:00.000Z</time></trkpt><trkpt lat="14.712361" lon="101.235901"><ele>257.4</ele><time>1970-01-01T01:43:01.000Z</time></trkpt><trkpt lat="14.712384" lon="101.235867"><ele>257.9</ele><time>1970-01-01T01:43:02.000Z</time></trkpt><trkpt lat="14.712409" lon="101.235837"><ele>258.2</ele><time>1970-01-01T01:43:03.000Z</time></trkpt><trkpt lat="14.712425" lon="101.235802"><ele>258.4</ele><time>1970-01-01T01:43:04.000Z</time></trkpt><trkpt lat="14.712443" lon="101.235774"><ele>258.7</ele><time>1970-01-01T01:43:05.000Z</time></trkpt><trkpt lat="14.71246" lon="101.235748"><ele>259.3</ele><time>1970-01-01T01:43:06.000Z</time></trkpt><trkpt lat="14.712472" lon="101.235722"><ele>259.8</ele><time>1970-01-01T01:43:07.000Z</time></trkpt><trkpt lat="14.712491" lon="101.235665"><ele>260.5</ele><time>1970-01-01T01:43:09.000Z</time></trkpt><trkpt lat="14.712498" lon="101.235637"><ele>260.8</ele><time>1970-01-01T01:43:10.000Z</time></trkpt><trkpt lat="14.712505" lon="101.235589"><ele>261.6</ele><time>1970-01-01T01:43:12.000Z</time></trkpt><trkpt lat="14.712511" lon="101.23556"><ele>262.2</ele><time>1970-01-01T01:43:13.000Z</time></trkpt><trkpt lat="14.712515" lon="101.23553"><ele>262.8</ele><time>1970-01-01T01:43:14.000Z</time></trkpt><trkpt lat="14.712511" lon="101.23548"><ele>263</ele><time>1970-01-01T01:43:16.000Z</time></trkpt><trkpt lat="14.712497" lon="101.235435"><ele>263.2</ele><time>1970-01-01T01:43:18.000Z</time></trkpt><trkpt lat="14.712487" lon="101.235409"><ele>263.4</ele><time>1970-01-01T01:43:19.000Z</time></trkpt><trkpt lat="14.712474" lon="101.235376"><ele>263.7</ele><time>1970-01-01T01:43:20.000Z</time></trkpt><trkpt lat="14.712461" lon="101.235348"><ele>263.8</ele><time>1970-01-01T01:43:21.000Z</time></trkpt><trkpt lat="14.712449" lon="101.235319"><ele>263.9</ele><time>1970-01-01T01:43:22.000Z</time></trkpt><trkpt lat="14.712436" lon="101.235292"><ele>264</ele><time>1970-01-01T01:43:23.000Z</time></trkpt><trkpt lat="14.712422" lon="101.235263"><ele>263.8</ele><time>1970-01-01T01:43:24.000Z</time></trkpt><trkpt lat="14.7124" lon="101.235213"><ele>263.5</ele><time>1970-01-01T01:43:26.000Z</time></trkpt><trkpt lat="14.712394" lon="101.23518"><ele>263.6</ele><time>1970-01-01T01:43:27.000Z</time></trkpt><trkpt lat="14.712388" lon="101.235144"><ele>263.7</ele><time>1970-01-01T01:43:28.000Z</time></trkpt><trkpt lat="14.712382" lon="101.235108"><ele>263.8</ele><time>1970-01-01T01:43:29.000Z</time></trkpt><trkpt lat="14.712374" lon="101.235078"><ele>264</ele><time>1970-01-01T01:43:30.000Z</time></trkpt><trkpt lat="14.712364" lon="101.235038"><ele>264.3</ele><time>1970-01-01T01:43:31.000Z</time></trkpt><trkpt lat="14.712352" lon="101.235001"><ele>264.5</ele><time>1970-01-01T01:43:32.000Z</time></trkpt><trkpt lat="14.712339" lon="101.234967"><ele>264.8</ele><time>1970-01-01T01:43:33.000Z</time></trkpt><trkpt lat="14.712329" lon="101.234934"><ele>264.9</ele><time>1970-01-01T01:43:34.000Z</time></trkpt><trkpt lat="14.712319" lon="101.234906"><ele>265</ele><time>1970-01-01T01:43:35.000Z</time></trkpt><trkpt lat="14.712306" lon="101.234854"><ele>265.2</ele><time>1970-01-01T01:43:37.000Z</time></trkpt><trkpt lat="14.712297" lon="101.234822"><ele>265.3</ele><time>1970-01-01T01:43:38.000Z</time></trkpt><trkpt lat="14.712288" lon="101.234791"><ele>265.5</ele><time>1970-01-01T01:43:39.000Z</time></trkpt><trkpt lat="14.712278" lon="101.234764"><ele>265.7</ele><time>1970-01-01T01:43:40.000Z</time></trkpt><trkpt lat="14.712271" lon="101.234731"><ele>266</ele><time>1970-01-01T01:43:41.000Z</time></trkpt><trkpt lat="14.71226" lon="101.234698"><ele>266.3</ele><time>1970-01-01T01:43:42.000Z</time></trkpt><trkpt lat="14.71225" lon="101.234665"><ele>266.7</ele><time>1970-01-01T01:43:43.000Z</time></trkpt><trkpt lat="14.712239" lon="101.234632"><ele>267.1</ele><time>1970-01-01T01:43:44.000Z</time></trkpt><trkpt lat="14.712229" lon="101.234603"><ele>267.4</ele><time>1970-01-01T01:43:45.000Z</time></trkpt><trkpt lat="14.712213" lon="101.234571"><ele>267.6</ele><time>1970-01-01T01:43:46.000Z</time></trkpt><trkpt lat="14.71219" lon="101.234534"><ele>267.8</ele><time>1970-01-01T01:43:47.000Z</time></trkpt><trkpt lat="14.712161" lon="101.234498"><ele>267.7</ele><time>1970-01-01T01:43:48.000Z</time></trkpt><trkpt lat="14.712109" lon="101.234461"><ele>267.6</ele><time>1970-01-01T01:43:49.000Z</time></trkpt><trkpt lat="14.712078" lon="101.23441"><ele>267.2</ele><time>1970-01-01T01:43:50.000Z</time></trkpt><trkpt lat="14.712046" lon="101.234364"><ele>266.9</ele><time>1970-01-01T01:43:51.000Z</time></trkpt><trkpt lat="14.712004" lon="101.234322"><ele>266.5</ele><time>1970-01-01T01:43:52.000Z</time></trkpt><trkpt lat="14.71196" lon="101.234271"><ele>266.3</ele><time>1970-01-01T01:43:53.000Z</time></trkpt><trkpt lat="14.711914" lon="101.234231"><ele>266</ele><time>1970-01-01T01:43:54.000Z</time></trkpt><trkpt lat="14.711869" lon="101.234172"><ele>265.3</ele><time>1970-01-01T01:43:55.000Z</time></trkpt><trkpt lat="14.711822" lon="101.234112"><ele>264.8</ele><time>1970-01-01T01:43:56.000Z</time></trkpt><trkpt lat="14.711783" lon="101.234038"><ele>264.4</ele><time>1970-01-01T01:43:57.000Z</time></trkpt><trkpt lat="14.711737" lon="101.233982"><ele>264.3</ele><time>1970-01-01T01:43:58.000Z</time></trkpt><trkpt lat="14.711694" lon="101.233911"><ele>264.1</ele><time>1970-01-01T01:43:59.000Z</time></trkpt><trkpt lat="14.711651" lon="101.233837"><ele>263.4</ele><time>1970-01-01T01:44:00.000Z</time></trkpt><trkpt lat="14.711608" lon="101.233774"><ele>262.6</ele><time>1970-01-01T01:44:01.000Z</time></trkpt><trkpt lat="14.711571" lon="101.233688"><ele>262.2</ele><time>1970-01-01T01:44:02.000Z</time></trkpt><trkpt lat="14.711534" lon="101.233617"><ele>262.1</ele><time>1970-01-01T01:44:03.000Z</time></trkpt><trkpt lat="14.711495" lon="101.233526"><ele>261.5</ele><time>1970-01-01T01:44:04.000Z</time></trkpt><trkpt lat="14.711451" lon="101.233462"><ele>260.4</ele><time>1970-01-01T01:44:05.000Z</time></trkpt><trkpt lat="14.7114" lon="101.233379"><ele>258.5</ele><time>1970-01-01T01:44:06.000Z</time></trkpt><trkpt lat="14.711351" lon="101.233314"><ele>257.7</ele><time>1970-01-01T01:44:07.000Z</time></trkpt><trkpt lat="14.711308" lon="101.233236"><ele>256.9</ele><time>1970-01-01T01:44:08.000Z</time></trkpt><trkpt lat="14.711261" lon="101.233203"><ele>256.7</ele><time>1970-01-01T01:44:09.000Z</time></trkpt><trkpt lat="14.711235" lon="101.233157"><ele>256.5</ele><time>1970-01-01T01:44:10.000Z</time></trkpt><trkpt lat="14.711221" lon="101.233099"><ele>256.4</ele><time>1970-01-01T01:44:11.000Z</time></trkpt><trkpt lat="14.711215" lon="101.233041"><ele>256.3</ele><time>1970-01-01T01:44:12.000Z</time></trkpt><trkpt lat="14.711205" lon="101.232929"><ele>255.9</ele><time>1970-01-01T01:44:13.000Z</time></trkpt><trkpt lat="14.711174" lon="101.232872"><ele>255.5</ele><time>1970-01-01T01:44:14.000Z</time></trkpt><trkpt lat="14.711112" lon="101.232823"><ele>254.9</ele><time>1970-01-01T01:44:15.000Z</time></trkpt><trkpt lat="14.711065" lon="101.232768"><ele>253.9</ele><time>1970-01-01T01:44:16.000Z</time></trkpt><trkpt lat="14.711012" lon="101.232698"><ele>252.4</ele><time>1970-01-01T01:44:17.000Z</time></trkpt><trkpt lat="14.710964" lon="101.232632"><ele>251.7</ele><time>1970-01-01T01:44:18.000Z</time></trkpt><trkpt lat="14.710917" lon="101.232579"><ele>251.4</ele><time>1970-01-01T01:44:19.000Z</time></trkpt><trkpt lat="14.710864" lon="101.23252"><ele>251.3</ele><time>1970-01-01T01:44:20.000Z</time></trkpt><trkpt lat="14.710806" lon="101.232477"><ele>251.1</ele><time>1970-01-01T01:44:21.000Z</time></trkpt><trkpt lat="14.710744" lon="101.232436"><ele>250.6</ele><time>1970-01-01T01:44:22.000Z</time></trkpt><trkpt lat="14.710676" lon="101.232411"><ele>249.6</ele><time>1970-01-01T01:44:23.000Z</time></trkpt><trkpt lat="14.710612" lon="101.232386"><ele>248.9</ele><time>1970-01-01T01:44:24.000Z</time></trkpt><trkpt lat="14.710572" lon="101.232373"><ele>248.5</ele><time>1970-01-01T01:44:25.000Z</time></trkpt><trkpt lat="14.710541" lon="101.232359"><ele>248.2</ele><time>1970-01-01T01:44:26.000Z</time></trkpt><trkpt lat="14.710514" lon="101.232318"><ele>247.6</ele><time>1970-01-01T01:46:00.000Z</time></trkpt><trkpt lat="14.710486" lon="101.232298"><ele>247</ele><time>1970-01-01T01:46:05.000Z</time></trkpt><trkpt lat="14.710469" lon="101.232262"><ele>246.3</ele><time>1970-01-01T01:46:07.000Z</time></trkpt><trkpt lat="14.710456" lon="101.232231"><ele>246.1</ele><time>1970-01-01T01:46:09.000Z</time></trkpt><trkpt lat="14.710458" lon="101.232188"><ele>245.7</ele><time>1970-01-01T01:46:30.000Z</time></trkpt><trkpt lat="14.710443" lon="101.232134"><ele>245.2</ele><time>1970-01-01T01:46:32.000Z</time></trkpt><trkpt lat="14.710432" lon="101.2321"><ele>244.8</ele><time>1970-01-01T01:46:33.000Z</time></trkpt><trkpt lat="14.710416" lon="101.23206"><ele>244.4</ele><time>1970-01-01T01:46:34.000Z</time></trkpt><trkpt lat="14.710393" lon="101.232021"><ele>244</ele><time>1970-01-01T01:46:35.000Z</time></trkpt><trkpt lat="14.710366" lon="101.231985"><ele>243.6</ele><time>1970-01-01T01:46:36.000Z</time></trkpt><trkpt lat="14.710339" lon="101.231948"><ele>243.1</ele><time>1970-01-01T01:46:37.000Z</time></trkpt><trkpt lat="14.710312" lon="101.231912"><ele>242.7</ele><time>1970-01-01T01:46:38.000Z</time></trkpt><trkpt lat="14.710287" lon="101.231878"><ele>242.4</ele><time>1970-01-01T01:46:39.000Z</time></trkpt><trkpt lat="14.710263" lon="101.231843"><ele>242.2</ele><time>1970-01-01T01:46:40.000Z</time></trkpt><trkpt lat="14.710228" lon="101.231804"><ele>242.1</ele><time>1970-01-01T01:46:41.000Z</time></trkpt><trkpt lat="14.710213" lon="101.231754"><ele>242.1</ele><time>1970-01-01T01:46:42.000Z</time></trkpt><trkpt lat="14.710191" lon="101.231692"><ele>242</ele><time>1970-01-01T01:46:43.000Z</time></trkpt><trkpt lat="14.710164" lon="101.231653"><ele>242</ele><time>1970-01-01T01:46:44.000Z</time></trkpt><trkpt lat="14.710132" lon="101.231594"><ele>241.8</ele><time>1970-01-01T01:46:45.000Z</time></trkpt><trkpt lat="14.710108" lon="101.231544"><ele>241.6</ele><time>1970-01-01T01:46:46.000Z</time></trkpt><trkpt lat="14.710091" lon="101.231496"><ele>241.5</ele><time>1970-01-01T01:46:47.000Z</time></trkpt><trkpt lat="14.710072" lon="101.231448"><ele>241.3</ele><time>1970-01-01T01:46:48.000Z</time></trkpt><trkpt lat="14.710061" lon="101.231411"><ele>241.2</ele><time>1970-01-01T01:46:49.000Z</time></trkpt><trkpt lat="14.710043" lon="101.231361"><ele>241.1</ele><time>1970-01-01T01:46:50.000Z</time></trkpt><trkpt lat="14.710029" lon="101.231315"><ele>241</ele><time>1970-01-01T01:46:51.000Z</time></trkpt><trkpt lat="14.710003" lon="101.23126"><ele>241</ele><time>1970-01-01T01:46:52.000Z</time></trkpt><trkpt lat="14.70998" lon="101.231209"><ele>241.1</ele><time>1970-01-01T01:46:53.000Z</time></trkpt><trkpt lat="14.70996" lon="101.231162"><ele>241.1</ele><time>1970-01-01T01:46:54.000Z</time></trkpt><trkpt lat="14.709942" lon="101.231114"><ele>241</ele><time>1970-01-01T01:46:55.000Z</time></trkpt><trkpt lat="14.709944" lon="101.231067"><ele>240.2</ele><time>1970-01-01T01:46:56.000Z</time></trkpt><trkpt lat="14.709912" lon="101.231023"><ele>239.4</ele><time>1970-01-01T01:46:57.000Z</time></trkpt><trkpt lat="14.709885" lon="101.230965"><ele>238.5</ele><time>1970-01-01T01:46:58.000Z</time></trkpt><trkpt lat="14.709857" lon="101.230899"><ele>237.5</ele><time>1970-01-01T01:46:59.000Z</time></trkpt><trkpt lat="14.709844" lon="101.230846"><ele>236.8</ele><time>1970-01-01T01:47:00.000Z</time></trkpt><trkpt lat="14.709829" lon="101.230794"><ele>236.2</ele><time>1970-01-01T01:47:01.000Z</time></trkpt><trkpt lat="14.709806" lon="101.230745"><ele>235.7</ele><time>1970-01-01T01:47:02.000Z</time></trkpt><trkpt lat="14.709766" lon="101.230684"><ele>235.1</ele><time>1970-01-01T01:47:03.000Z</time></trkpt><trkpt lat="14.70973" lon="101.230602"><ele>234.6</ele><time>1970-01-01T01:47:04.000Z</time></trkpt><trkpt lat="14.709684" lon="101.230519"><ele>234.2</ele><time>1970-01-01T01:47:05.000Z</time></trkpt><trkpt lat="14.709625" lon="101.230452"><ele>234.2</ele><time>1970-01-01T01:47:06.000Z</time></trkpt><trkpt lat="14.709556" lon="101.230403"><ele>234.1</ele><time>1970-01-01T01:47:07.000Z</time></trkpt><trkpt lat="14.70952" lon="101.230383"><ele>233.9</ele><time>1970-01-01T01:47:08.000Z</time></trkpt><trkpt lat="14.709471" lon="101.230363"><ele>233.8</ele><time>1970-01-01T01:47:09.000Z</time></trkpt><trkpt lat="14.709438" lon="101.230332"><ele>233.7</ele><time>1970-01-01T01:47:10.000Z</time></trkpt><trkpt lat="14.709411" lon="101.230249"><ele>233.5</ele><time>1970-01-01T01:47:11.000Z</time></trkpt><trkpt lat="14.709387" lon="101.230208"><ele>233</ele><time>1970-01-01T01:47:12.000Z</time></trkpt><trkpt lat="14.709358" lon="101.23015"><ele>232.2</ele><time>1970-01-01T01:47:13.000Z</time></trkpt><trkpt lat="14.709334" lon="101.2301"><ele>231.5</ele><time>1970-01-01T01:47:14.000Z</time></trkpt><trkpt lat="14.709314" lon="101.230033"><ele>230.9</ele><time>1970-01-01T01:47:15.000Z</time></trkpt><trkpt lat="14.709291" lon="101.229969"><ele>230.5</ele><time>1970-01-01T01:47:16.000Z</time></trkpt><trkpt lat="14.709257" lon="101.229911"><ele>230.1</ele><time>1970-01-01T01:47:17.000Z</time></trkpt><trkpt lat="14.70922" lon="101.229848"><ele>229.6</ele><time>1970-01-01T01:47:18.000Z</time></trkpt><trkpt lat="14.709193" lon="101.229795"><ele>229.2</ele><time>1970-01-01T01:47:19.000Z</time></trkpt><trkpt lat="14.709164" lon="101.229736"><ele>229</ele><time>1970-01-01T01:47:20.000Z</time></trkpt><trkpt lat="14.70914" lon="101.229671"><ele>229</ele><time>1970-01-01T01:47:21.000Z</time></trkpt><trkpt lat="14.709133" lon="101.229618"><ele>229</ele><time>1970-01-01T01:47:22.000Z</time></trkpt><trkpt lat="14.709144" lon="101.229533"><ele>228.8</ele><time>1970-01-01T01:47:23.000Z</time></trkpt><trkpt lat="14.709154" lon="101.229468"><ele>228.3</ele><time>1970-01-01T01:47:24.000Z</time></trkpt><trkpt lat="14.709172" lon="101.229403"><ele>227.8</ele><time>1970-01-01T01:47:25.000Z</time></trkpt><trkpt lat="14.709181" lon="101.229342"><ele>227.4</ele><time>1970-01-01T01:47:26.000Z</time></trkpt><trkpt lat="14.709197" lon="101.229276"><ele>227.1</ele><time>1970-01-01T01:47:27.000Z</time></trkpt><trkpt lat="14.70921" lon="101.229218"><ele>227</ele><time>1970-01-01T01:47:28.000Z</time></trkpt><trkpt lat="14.709223" lon="101.229156"><ele>226.8</ele><time>1970-01-01T01:47:29.000Z</time></trkpt><trkpt lat="14.709232" lon="101.229103"><ele>226.5</ele><time>1970-01-01T01:47:30.000Z</time></trkpt><trkpt lat="14.709241" lon="101.229044"><ele>226.1</ele><time>1970-01-01T01:47:31.000Z</time></trkpt><trkpt lat="14.709251" lon="101.228969"><ele>225.6</ele><time>1970-01-01T01:47:32.000Z</time></trkpt><trkpt lat="14.709253" lon="101.228898"><ele>225.2</ele><time>1970-01-01T01:47:33.000Z</time></trkpt><trkpt lat="14.709276" lon="101.228829"><ele>224.7</ele><time>1970-01-01T01:47:34.000Z</time></trkpt><trkpt lat="14.709307" lon="101.228783"><ele>224.3</ele><time>1970-01-01T01:47:35.000Z</time></trkpt><trkpt lat="14.709332" lon="101.228707"><ele>223.7</ele><time>1970-01-01T01:47:36.000Z</time></trkpt><trkpt lat="14.709361" lon="101.228628"><ele>222.4</ele><time>1970-01-01T01:47:37.000Z</time></trkpt><trkpt lat="14.709389" lon="101.228545"><ele>221.1</ele><time>1970-01-01T01:47:38.000Z</time></trkpt><trkpt lat="14.709423" lon="101.22846"><ele>220.4</ele><time>1970-01-01T01:47:39.000Z</time></trkpt><trkpt lat="14.709458" lon="101.228382"><ele>219.3</ele><time>1970-01-01T01:47:40.000Z</time></trkpt><trkpt lat="14.709495" lon="101.228311"><ele>218</ele><time>1970-01-01T01:47:41.000Z</time></trkpt><trkpt lat="14.70954" lon="101.228242"><ele>217.4</ele><time>1970-01-01T01:47:42.000Z</time></trkpt><trkpt lat="14.709594" lon="101.228175"><ele>217</ele><time>1970-01-01T01:47:43.000Z</time></trkpt><trkpt lat="14.70965" lon="101.228114"><ele>216.7</ele><time>1970-01-01T01:47:44.000Z</time></trkpt><trkpt lat="14.709717" lon="101.228067"><ele>216.2</ele><time>1970-01-01T01:47:45.000Z</time></trkpt><trkpt lat="14.709789" lon="101.228026"><ele>216</ele><time>1970-01-01T01:47:46.000Z</time></trkpt><trkpt lat="14.709858" lon="101.228022"><ele>216</ele><time>1970-01-01T01:47:47.000Z</time></trkpt><trkpt lat="14.70993" lon="101.227998"><ele>215.8</ele><time>1970-01-01T01:47:48.000Z</time></trkpt><trkpt lat="14.710006" lon="101.227971"><ele>215.4</ele><time>1970-01-01T01:47:49.000Z</time></trkpt><trkpt lat="14.710073" lon="101.227939"><ele>215.1</ele><time>1970-01-01T01:47:50.000Z</time></trkpt><trkpt lat="14.710139" lon="101.227905"><ele>215.2</ele><time>1970-01-01T01:47:51.000Z</time></trkpt><trkpt lat="14.710199" lon="101.227862"><ele>215.5</ele><time>1970-01-01T01:47:52.000Z</time></trkpt><trkpt lat="14.710262" lon="101.227825"><ele>215.8</ele><time>1970-01-01T01:47:53.000Z</time></trkpt><trkpt lat="14.710328" lon="101.227792"><ele>215.5</ele><time>1970-01-01T01:47:54.000Z</time></trkpt><trkpt lat="14.710384" lon="101.227745"><ele>215.7</ele><time>1970-01-01T01:47:55.000Z</time></trkpt><trkpt lat="14.710444" lon="101.227703"><ele>215.8</ele><time>1970-01-01T01:47:56.000Z</time></trkpt><trkpt lat="14.710506" lon="101.227661"><ele>215.7</ele><time>1970-01-01T01:47:57.000Z</time></trkpt><trkpt lat="14.710566" lon="101.227626"><ele>215.4</ele><time>1970-01-01T01:47:58.000Z</time></trkpt><trkpt lat="14.710627" lon="101.227583"><ele>215.2</ele><time>1970-01-01T01:47:59.000Z</time></trkpt><trkpt lat="14.710689" lon="101.227544"><ele>215.2</ele><time>1970-01-01T01:48:00.000Z</time></trkpt><trkpt lat="14.71075" lon="101.227506"><ele>214.9</ele><time>1970-01-01T01:48:01.000Z</time></trkpt><trkpt lat="14.710809" lon="101.227468"><ele>214.6</ele><time>1970-01-01T01:48:02.000Z</time></trkpt><trkpt lat="14.710867" lon="101.227415"><ele>214.4</ele><time>1970-01-01T01:48:03.000Z</time></trkpt><trkpt lat="14.710928" lon="101.22738"><ele>214.2</ele><time>1970-01-01T01:48:04.000Z</time></trkpt><trkpt lat="14.710987" lon="101.227344"><ele>213.8</ele><time>1970-01-01T01:48:05.000Z</time></trkpt><trkpt lat="14.711054" lon="101.227304"><ele>212.9</ele><time>1970-01-01T01:48:06.000Z</time></trkpt><trkpt lat="14.711114" lon="101.227284"><ele>212.2</ele><time>1970-01-01T01:48:07.000Z</time></trkpt><trkpt lat="14.71118" lon="101.227257"><ele>211.4</ele><time>1970-01-01T01:48:08.000Z</time></trkpt><trkpt lat="14.711243" lon="101.227231"><ele>210.9</ele><time>1970-01-01T01:48:09.000Z</time></trkpt><trkpt lat="14.711319" lon="101.227216"><ele>210.9</ele><time>1970-01-01T01:48:10.000Z</time></trkpt><trkpt lat="14.711384" lon="101.227207"><ele>210.9</ele><time>1970-01-01T01:48:11.000Z</time></trkpt><trkpt lat="14.711445" lon="101.227185"><ele>210.9</ele><time>1970-01-01T01:48:12.000Z</time></trkpt><trkpt lat="14.711501" lon="101.227146"><ele>210.9</ele><time>1970-01-01T01:48:13.000Z</time></trkpt><trkpt lat="14.711549" lon="101.227086"><ele>210.5</ele><time>1970-01-01T01:48:14.000Z</time></trkpt><trkpt lat="14.711599" lon="101.227036"><ele>210.3</ele><time>1970-01-01T01:48:15.000Z</time></trkpt><trkpt lat="14.711649" lon="101.226984"><ele>210</ele><time>1970-01-01T01:48:16.000Z</time></trkpt><trkpt lat="14.711697" lon="101.22693"><ele>209.5</ele><time>1970-01-01T01:48:17.000Z</time></trkpt><trkpt lat="14.711739" lon="101.226879"><ele>209.2</ele><time>1970-01-01T01:48:18.000Z</time></trkpt><trkpt lat="14.711776" lon="101.226824"><ele>209.1</ele><time>1970-01-01T01:48:19.000Z</time></trkpt><trkpt lat="14.711819" lon="101.226761"><ele>209.5</ele><time>1970-01-01T01:48:20.000Z</time></trkpt><trkpt lat="14.711865" lon="101.226696"><ele>210</ele><time>1970-01-01T01:48:21.000Z</time></trkpt><trkpt lat="14.711914" lon="101.226628"><ele>210.2</ele><time>1970-01-01T01:48:22.000Z</time></trkpt><trkpt lat="14.711964" lon="101.226553"><ele>210.2</ele><time>1970-01-01T01:48:23.000Z</time></trkpt><trkpt lat="14.712021" lon="101.226486"><ele>209.9</ele><time>1970-01-01T01:48:24.000Z</time></trkpt><trkpt lat="14.712076" lon="101.226414"><ele>209.3</ele><time>1970-01-01T01:48:25.000Z</time></trkpt><trkpt lat="14.712126" lon="101.22634"><ele>208.3</ele><time>1970-01-01T01:48:26.000Z</time></trkpt><trkpt lat="14.712165" lon="101.226257"><ele>207.8</ele><time>1970-01-01T01:48:27.000Z</time></trkpt><trkpt lat="14.712204" lon="101.226181"><ele>207.2</ele><time>1970-01-01T01:48:28.000Z</time></trkpt><trkpt lat="14.712249" lon="101.226108"><ele>206.6</ele><time>1970-01-01T01:48:29.000Z</time></trkpt><trkpt lat="14.71229" lon="101.226036"><ele>206.1</ele><time>1970-01-01T01:48:30.000Z</time></trkpt><trkpt lat="14.712326" lon="101.225957"><ele>205.8</ele><time>1970-01-01T01:48:31.000Z</time></trkpt><trkpt lat="14.712359" lon="101.225876"><ele>205.6</ele><time>1970-01-01T01:48:32.000Z</time></trkpt><trkpt lat="14.7124" lon="101.225809"><ele>205.8</ele><time>1970-01-01T01:48:33.000Z</time></trkpt><trkpt lat="14.712434" lon="101.225733"><ele>206.1</ele><time>1970-01-01T01:48:34.000Z</time></trkpt><trkpt lat="14.712464" lon="101.225651"><ele>206</ele><time>1970-01-01T01:48:35.000Z</time></trkpt><trkpt lat="14.712483" lon="101.225569"><ele>205.6</ele><time>1970-01-01T01:48:36.000Z</time></trkpt><trkpt lat="14.712493" lon="101.225499"><ele>205.2</ele><time>1970-01-01T01:48:37.000Z</time></trkpt><trkpt lat="14.712506" lon="101.225432"><ele>204.7</ele><time>1970-01-01T01:48:38.000Z</time></trkpt><trkpt lat="14.712513" lon="101.225353"><ele>204.5</ele><time>1970-01-01T01:48:39.000Z</time></trkpt><trkpt lat="14.71251" lon="101.225284"><ele>204.8</ele><time>1970-01-01T01:48:40.000Z</time></trkpt><trkpt lat="14.712498" lon="101.225218"><ele>205.1</ele><time>1970-01-01T01:48:41.000Z</time></trkpt><trkpt lat="14.712495" lon="101.225148"><ele>205.3</ele><time>1970-01-01T01:48:42.000Z</time></trkpt><trkpt lat="14.712495" lon="101.225062"><ele>205.2</ele><time>1970-01-01T01:48:43.000Z</time></trkpt><trkpt lat="14.712502" lon="101.224988"><ele>204.9</ele><time>1970-01-01T01:48:44.000Z</time></trkpt><trkpt lat="14.71251" lon="101.224913"><ele>204.4</ele><time>1970-01-01T01:48:45.000Z</time></trkpt><trkpt lat="14.712532" lon="101.224846"><ele>204.1</ele><time>1970-01-01T01:48:46.000Z</time></trkpt><trkpt lat="14.71256" lon="101.224782"><ele>204</ele><time>1970-01-01T01:48:47.000Z</time></trkpt><trkpt lat="14.712596" lon="101.22471"><ele>204.1</ele><time>1970-01-01T01:48:48.000Z</time></trkpt><trkpt lat="14.712635" lon="101.224647"><ele>204.3</ele><time>1970-01-01T01:48:49.000Z</time></trkpt><trkpt lat="14.712687" lon="101.224593"><ele>204.5</ele><time>1970-01-01T01:48:50.000Z</time></trkpt><trkpt lat="14.71274" lon="101.224534"><ele>204.8</ele><time>1970-01-01T01:48:51.000Z</time></trkpt><trkpt lat="14.712795" lon="101.224482"><ele>204.7</ele><time>1970-01-01T01:48:52.000Z</time></trkpt><trkpt lat="14.71285" lon="101.224428"><ele>205.4</ele><time>1970-01-01T01:48:53.000Z</time></trkpt><trkpt lat="14.712907" lon="101.224371"><ele>205.4</ele><time>1970-01-01T01:48:54.000Z</time></trkpt><trkpt lat="14.712965" lon="101.224317"><ele>205.5</ele><time>1970-01-01T01:48:55.000Z</time></trkpt><trkpt lat="14.713023" lon="101.224275"><ele>205.6</ele><time>1970-01-01T01:48:56.000Z</time></trkpt><trkpt lat="14.713088" lon="101.224228"><ele>205.9</ele><time>1970-01-01T01:48:57.000Z</time></trkpt><trkpt lat="14.713153" lon="101.224187"><ele>206.1</ele><time>1970-01-01T01:48:58.000Z</time></trkpt><trkpt lat="14.713225" lon="101.224174"><ele>206.1</ele><time>1970-01-01T01:48:59.000Z</time></trkpt><trkpt lat="14.71329" lon="101.224163"><ele>206.2</ele><time>1970-01-01T01:49:00.000Z</time></trkpt><trkpt lat="14.71336" lon="101.224125"><ele>206.2</ele><time>1970-01-01T01:49:01.000Z</time></trkpt><trkpt lat="14.713429" lon="101.22412"><ele>206.1</ele><time>1970-01-01T01:49:02.000Z</time></trkpt><trkpt lat="14.713504" lon="101.224091"><ele>206</ele><time>1970-01-01T01:49:03.000Z</time></trkpt><trkpt lat="14.713578" lon="101.224055"><ele>205.8</ele><time>1970-01-01T01:49:04.000Z</time></trkpt><trkpt lat="14.713651" lon="101.224014"><ele>206.1</ele><time>1970-01-01T01:49:05.000Z</time></trkpt><trkpt lat="14.713727" lon="101.223969"><ele>206.2</ele><time>1970-01-01T01:49:06.000Z</time></trkpt><trkpt lat="14.713789" lon="101.223942"><ele>206.1</ele><time>1970-01-01T01:49:07.000Z</time></trkpt><trkpt lat="14.713858" lon="101.223899"><ele>205.5</ele><time>1970-01-01T01:49:08.000Z</time></trkpt><trkpt lat="14.713918" lon="101.223855"><ele>204.7</ele><time>1970-01-01T01:49:09.000Z</time></trkpt><trkpt lat="14.713975" lon="101.223803"><ele>203.8</ele><time>1970-01-01T01:49:10.000Z</time></trkpt><trkpt lat="14.714038" lon="101.223755"><ele>203.2</ele><time>1970-01-01T01:49:11.000Z</time></trkpt><trkpt lat="14.714101" lon="101.223705"><ele>202.7</ele><time>1970-01-01T01:49:12.000Z</time></trkpt><trkpt lat="14.714168" lon="101.223676"><ele>202.2</ele><time>1970-01-01T01:49:13.000Z</time></trkpt><trkpt lat="14.714228" lon="101.223641"><ele>201.9</ele><time>1970-01-01T01:49:14.000Z</time></trkpt><trkpt lat="14.714291" lon="101.223605"><ele>201.8</ele><time>1970-01-01T01:49:15.000Z</time></trkpt><trkpt lat="14.714354" lon="101.223564"><ele>201.7</ele><time>1970-01-01T01:49:16.000Z</time></trkpt><trkpt lat="14.714424" lon="101.223531"><ele>201.5</ele><time>1970-01-01T01:49:17.000Z</time></trkpt><trkpt lat="14.714487" lon="101.223495"><ele>201.3</ele><time>1970-01-01T01:49:18.000Z</time></trkpt><trkpt lat="14.714555" lon="101.223467"><ele>201.2</ele><time>1970-01-01T01:49:19.000Z</time></trkpt><trkpt lat="14.714623" lon="101.223432"><ele>201.5</ele><time>1970-01-01T01:49:20.000Z</time></trkpt><trkpt lat="14.714694" lon="101.223399"><ele>202</ele><time>1970-01-01T01:49:21.000Z</time></trkpt><trkpt lat="14.714768" lon="101.223359"><ele>202.6</ele><time>1970-01-01T01:49:22.000Z</time></trkpt><trkpt lat="14.714844" lon="101.223323"><ele>203.3</ele><time>1970-01-01T01:49:23.000Z</time></trkpt><trkpt lat="14.714894" lon="101.223295"><ele>203.5</ele><time>1970-01-01T01:49:24.000Z</time></trkpt><trkpt lat="14.714964" lon="101.223255"><ele>203.2</ele><time>1970-01-01T01:49:25.000Z</time></trkpt><trkpt lat="14.71504" lon="101.223196"><ele>202.3</ele><time>1970-01-01T01:49:26.000Z</time></trkpt><trkpt lat="14.715113" lon="101.22315"><ele>201.8</ele><time>1970-01-01T01:49:27.000Z</time></trkpt><trkpt lat="14.715195" lon="101.223089"><ele>201.3</ele><time>1970-01-01T01:49:28.000Z</time></trkpt><trkpt lat="14.715265" lon="101.223042"><ele>200.7</ele><time>1970-01-01T01:49:29.000Z</time></trkpt><trkpt lat="14.715339" lon="101.222994"><ele>199.8</ele><time>1970-01-01T01:49:30.000Z</time></trkpt><trkpt lat="14.715411" lon="101.222949"><ele>199.6</ele><time>1970-01-01T01:49:31.000Z</time></trkpt><trkpt lat="14.715474" lon="101.222913"><ele>199.9</ele><time>1970-01-01T01:49:32.000Z</time></trkpt><trkpt lat="14.715543" lon="101.22286"><ele>200.2</ele><time>1970-01-01T01:49:33.000Z</time></trkpt><trkpt lat="14.715625" lon="101.22279"><ele>199.8</ele><time>1970-01-01T01:49:34.000Z</time></trkpt><trkpt lat="14.715685" lon="101.222766"><ele>199.4</ele><time>1970-01-01T01:49:35.000Z</time></trkpt><trkpt lat="14.715744" lon="101.222729"><ele>198.8</ele><time>1970-01-01T01:49:36.000Z</time></trkpt><trkpt lat="14.715812" lon="101.222698"><ele>198.4</ele><time>1970-01-01T01:49:37.000Z</time></trkpt><trkpt lat="14.715881" lon="101.222649"><ele>198.7</ele><time>1970-01-01T01:49:38.000Z</time></trkpt><trkpt lat="14.715947" lon="101.222605"><ele>199.1</ele><time>1970-01-01T01:49:39.000Z</time></trkpt><trkpt lat="14.716013" lon="101.222548"><ele>199.7</ele><time>1970-01-01T01:49:40.000Z</time></trkpt><trkpt lat="14.716072" lon="101.22249"><ele>200.3</ele><time>1970-01-01T01:49:41.000Z</time></trkpt><trkpt lat="14.716118" lon="101.222423"><ele>201.7</ele><time>1970-01-01T01:49:42.000Z</time></trkpt><trkpt lat="14.716159" lon="101.222351"><ele>203</ele><time>1970-01-01T01:49:43.000Z</time></trkpt><trkpt lat="14.716179" lon="101.222269"><ele>204.9</ele><time>1970-01-01T01:49:44.000Z</time></trkpt><trkpt lat="14.716194" lon="101.222189"><ele>205.5</ele><time>1970-01-01T01:49:45.000Z</time></trkpt><trkpt lat="14.716209" lon="101.222119"><ele>206</ele><time>1970-01-01T01:49:46.000Z</time></trkpt><trkpt lat="14.716217" lon="101.222044"><ele>205.8</ele><time>1970-01-01T01:49:47.000Z</time></trkpt><trkpt lat="14.716221" lon="101.221962"><ele>205</ele><time>1970-01-01T01:49:48.000Z</time></trkpt><trkpt lat="14.71621" lon="101.221884"><ele>204.5</ele><time>1970-01-01T01:49:49.000Z</time></trkpt><trkpt lat="14.716196" lon="101.221796"><ele>204.1</ele><time>1970-01-01T01:49:50.000Z</time></trkpt><trkpt lat="14.716177" lon="101.221707"><ele>203.6</ele><time>1970-01-01T01:49:51.000Z</time></trkpt><trkpt lat="14.71614" lon="101.221671"><ele>203.5</ele><time>1970-01-01T01:49:52.000Z</time></trkpt><trkpt lat="14.716107" lon="101.221601"><ele>203</ele><time>1970-01-01T01:49:53.000Z</time></trkpt><trkpt lat="14.716071" lon="101.221539"><ele>203.4</ele><time>1970-01-01T01:49:54.000Z</time></trkpt><trkpt lat="14.716035" lon="101.221461"><ele>204.2</ele><time>1970-01-01T01:49:55.000Z</time></trkpt><trkpt lat="14.716003" lon="101.221408"><ele>203.8</ele><time>1970-01-01T01:49:56.000Z</time></trkpt><trkpt lat="14.715976" lon="101.221334"><ele>203.5</ele><time>1970-01-01T01:49:57.000Z</time></trkpt><trkpt lat="14.715939" lon="101.22127"><ele>203.7</ele><time>1970-01-01T01:49:58.000Z</time></trkpt><trkpt lat="14.715897" lon="101.221209"><ele>203.9</ele><time>1970-01-01T01:49:59.000Z</time></trkpt><trkpt lat="14.715856" lon="101.22114"><ele>204.3</ele><time>1970-01-01T01:50:00.000Z</time></trkpt><trkpt lat="14.715814" lon="101.221084"><ele>204.4</ele><time>1970-01-01T01:50:01.000Z</time></trkpt><trkpt lat="14.715779" lon="101.221017"><ele>204.3</ele><time>1970-01-01T01:50:02.000Z</time></trkpt><trkpt lat="14.71573" lon="101.22096"><ele>204.6</ele><time>1970-01-01T01:50:03.000Z</time></trkpt><trkpt lat="14.715676" lon="101.220905"><ele>205.1</ele><time>1970-01-01T01:50:04.000Z</time></trkpt><trkpt lat="14.715629" lon="101.220856"><ele>205.8</ele><time>1970-01-01T01:50:05.000Z</time></trkpt><trkpt lat="14.715583" lon="101.220811"><ele>206.4</ele><time>1970-01-01T01:50:06.000Z</time></trkpt><trkpt lat="14.715535" lon="101.220746"><ele>206.7</ele><time>1970-01-01T01:50:07.000Z</time></trkpt><trkpt lat="14.715486" lon="101.220707"><ele>207.7</ele><time>1970-01-01T01:50:08.000Z</time></trkpt><trkpt lat="14.715441" lon="101.220659"><ele>206.8</ele><time>1970-01-01T01:50:09.000Z</time></trkpt><trkpt lat="14.715398" lon="101.220612"><ele>206.6</ele><time>1970-01-01T01:50:10.000Z</time></trkpt><trkpt lat="14.715336" lon="101.22058"><ele>206.9</ele><time>1970-01-01T01:50:11.000Z</time></trkpt><trkpt lat="14.715292" lon="101.220537"><ele>206.2</ele><time>1970-01-01T01:50:12.000Z</time></trkpt><trkpt lat="14.715251" lon="101.220472"><ele>205.5</ele><time>1970-01-01T01:50:13.000Z</time></trkpt><trkpt lat="14.715203" lon="101.220447"><ele>205.1</ele><time>1970-01-01T01:50:14.000Z</time></trkpt><trkpt lat="14.715161" lon="101.220385"><ele>205.1</ele><time>1970-01-01T01:50:15.000Z</time></trkpt><trkpt lat="14.715114" lon="101.220339"><ele>205.2</ele><time>1970-01-01T01:50:16.000Z</time></trkpt><trkpt lat="14.715065" lon="101.220281"><ele>204.6</ele><time>1970-01-01T01:50:17.000Z</time></trkpt><trkpt lat="14.715029" lon="101.220249"><ele>204.2</ele><time>1970-01-01T01:50:18.000Z</time></trkpt><trkpt lat="14.714983" lon="101.220206"><ele>203.7</ele><time>1970-01-01T01:50:19.000Z</time></trkpt><trkpt lat="14.714925" lon="101.220198"><ele>203.2</ele><time>1970-01-01T01:50:20.000Z</time></trkpt><trkpt lat="14.714917" lon="101.220115"><ele>202.4</ele><time>1970-01-01T01:50:21.000Z</time></trkpt><trkpt lat="14.714886" lon="101.220079"><ele>202.1</ele><time>1970-01-01T01:50:22.000Z</time></trkpt><trkpt lat="14.714857" lon="101.220073"><ele>201.9</ele><time>1970-01-01T01:50:23.000Z</time></trkpt><trkpt lat="14.714809" lon="101.220034"><ele>201.8</ele><time>1970-01-01T01:50:25.000Z</time></trkpt><trkpt lat="14.714782" lon="101.220009"><ele>201.6</ele><time>1970-01-01T01:50:26.000Z</time></trkpt><trkpt lat="14.714756" lon="101.219965"><ele>201.3</ele><time>1970-01-01T01:50:27.000Z</time></trkpt><trkpt lat="14.71474" lon="101.21988"><ele>200.6</ele><time>1970-01-01T01:50:28.000Z</time></trkpt><trkpt lat="14.714707" lon="101.219853"><ele>200.4</ele><time>1970-01-01T01:50:29.000Z</time></trkpt><trkpt lat="14.714685" lon="101.219788"><ele>200.1</ele><time>1970-01-01T01:50:30.000Z</time></trkpt><trkpt lat="14.71466" lon="101.219735"><ele>200.2</ele><time>1970-01-01T01:50:31.000Z</time></trkpt><trkpt lat="14.714623" lon="101.2197"><ele>200.3</ele><time>1970-01-01T01:50:32.000Z</time></trkpt><trkpt lat="14.714588" lon="101.219707"><ele>200.2</ele><time>1970-01-01T01:50:33.000Z</time></trkpt><trkpt lat="14.714563" lon="101.21965"><ele>199.9</ele><time>1970-01-01T01:50:34.000Z</time></trkpt><trkpt lat="14.714532" lon="101.21964"><ele>199.7</ele><time>1970-01-01T01:50:35.000Z</time></trkpt><trkpt lat="14.714501" lon="101.219624"><ele>199.5</ele><time>1970-01-01T01:50:36.000Z</time></trkpt><trkpt lat="14.71448" lon="101.219592"><ele>199.3</ele><time>1970-01-01T01:50:37.000Z</time></trkpt><trkpt lat="14.714448" lon="101.219564"><ele>199</ele><time>1970-01-01T01:50:38.000Z</time></trkpt><trkpt lat="14.71441" lon="101.219523"><ele>198.8</ele><time>1970-01-01T01:50:39.000Z</time></trkpt><trkpt lat="14.714377" lon="101.219486"><ele>198.6</ele><time>1970-01-01T01:50:40.000Z</time></trkpt><trkpt lat="14.714334" lon="101.21946"><ele>198.4</ele><time>1970-01-01T01:50:41.000Z</time></trkpt><trkpt lat="14.714309" lon="101.219434"><ele>198.6</ele><time>1970-01-01T01:50:42.000Z</time></trkpt><trkpt lat="14.714307" lon="101.219374"><ele>198.9</ele><time>1970-01-01T01:50:43.000Z</time></trkpt><trkpt lat="14.714304" lon="101.219333"><ele>199</ele><time>1970-01-01T01:50:44.000Z</time></trkpt><trkpt lat="14.714334" lon="101.219265"><ele>199.3</ele><time>1970-01-01T01:50:45.000Z</time></trkpt><trkpt lat="14.71435" lon="101.219235"><ele>199.4</ele><time>1970-01-01T01:50:46.000Z</time></trkpt><trkpt lat="14.714374" lon="101.219169"><ele>199.4</ele><time>1970-01-01T01:50:47.000Z</time></trkpt><trkpt lat="14.714403" lon="101.219123"><ele>199.3</ele><time>1970-01-01T01:50:48.000Z</time></trkpt><trkpt lat="14.714426" lon="101.219038"><ele>198.8</ele><time>1970-01-01T01:50:49.000Z</time></trkpt><trkpt lat="14.714434" lon="101.218947"><ele>198.2</ele><time>1970-01-01T01:50:50.000Z</time></trkpt><trkpt lat="14.714451" lon="101.218888"><ele>197.8</ele><time>1970-01-01T01:50:51.000Z</time></trkpt><trkpt lat="14.714474" lon="101.218835"><ele>197.5</ele><time>1970-01-01T01:50:52.000Z</time></trkpt><trkpt lat="14.714494" lon="101.218783"><ele>197.2</ele><time>1970-01-01T01:50:53.000Z</time></trkpt><trkpt lat="14.714513" lon="101.21872"><ele>196.8</ele><time>1970-01-01T01:50:54.000Z</time></trkpt><trkpt lat="14.714528" lon="101.218668"><ele>196.5</ele><time>1970-01-01T01:50:55.000Z</time></trkpt><trkpt lat="14.714541" lon="101.218623"><ele>196.2</ele><time>1970-01-01T01:50:56.000Z</time></trkpt><trkpt lat="14.714547" lon="101.218544"><ele>196.1</ele><time>1970-01-01T01:50:57.000Z</time></trkpt><trkpt lat="14.714564" lon="101.218476"><ele>196.2</ele><time>1970-01-01T01:50:58.000Z</time></trkpt><trkpt lat="14.71457" lon="101.218424"><ele>196.1</ele><time>1970-01-01T01:50:59.000Z</time></trkpt><trkpt lat="14.714599" lon="101.218377"><ele>195.8</ele><time>1970-01-01T01:51:00.000Z</time></trkpt><trkpt lat="14.714636" lon="101.218336"><ele>195.4</ele><time>1970-01-01T01:51:01.000Z</time></trkpt><trkpt lat="14.714677" lon="101.218288"><ele>194.8</ele><time>1970-01-01T01:51:02.000Z</time></trkpt><trkpt lat="14.714727" lon="101.218256"><ele>194.6</ele><time>1970-01-01T01:51:03.000Z</time></trkpt><trkpt lat="14.714764" lon="101.218202"><ele>194.4</ele><time>1970-01-01T01:51:04.000Z</time></trkpt><trkpt lat="14.714789" lon="101.218151"><ele>194.2</ele><time>1970-01-01T01:51:05.000Z</time></trkpt><trkpt lat="14.714814" lon="101.2181"><ele>194.2</ele><time>1970-01-01T01:51:06.000Z</time></trkpt><trkpt lat="14.714845" lon="101.218047"><ele>194.4</ele><time>1970-01-01T01:51:07.000Z</time></trkpt><trkpt lat="14.714867" lon="101.217996"><ele>194.6</ele><time>1970-01-01T01:51:08.000Z</time></trkpt><trkpt lat="14.714886" lon="101.217943"><ele>194.7</ele><time>1970-01-01T01:51:09.000Z</time></trkpt><trkpt lat="14.714912" lon="101.217897"><ele>194.8</ele><time>1970-01-01T01:51:10.000Z</time></trkpt><trkpt lat="14.714931" lon="101.217841"><ele>194.7</ele><time>1970-01-01T01:51:11.000Z</time></trkpt><trkpt lat="14.714964" lon="101.217777"><ele>194.9</ele><time>1970-01-01T01:51:12.000Z</time></trkpt><trkpt lat="14.714987" lon="101.217733"><ele>195.2</ele><time>1970-01-01T01:51:13.000Z</time></trkpt><trkpt lat="14.715009" lon="101.21769"><ele>195.4</ele><time>1970-01-01T01:51:14.000Z</time></trkpt><trkpt lat="14.715029" lon="101.217625"><ele>195.8</ele><time>1970-01-01T01:51:15.000Z</time></trkpt><trkpt lat="14.715048" lon="101.217562"><ele>196.3</ele><time>1970-01-01T01:51:16.000Z</time></trkpt><trkpt lat="14.715061" lon="101.21751"><ele>196.4</ele><time>1970-01-01T01:51:17.000Z</time></trkpt><trkpt lat="14.715085" lon="101.217453"><ele>196.5</ele><time>1970-01-01T01:51:18.000Z</time></trkpt><trkpt lat="14.715109" lon="101.217393"><ele>196.7</ele><time>1970-01-01T01:51:19.000Z</time></trkpt><trkpt lat="14.715132" lon="101.217335"><ele>197.2</ele><time>1970-01-01T01:51:20.000Z</time></trkpt><trkpt lat="14.715161" lon="101.217268"><ele>197.8</ele><time>1970-01-01T01:51:21.000Z</time></trkpt><trkpt lat="14.715185" lon="101.217206"><ele>198.4</ele><time>1970-01-01T01:51:22.000Z</time></trkpt><trkpt lat="14.715209" lon="101.21716"><ele>198.3</ele><time>1970-01-01T01:51:23.000Z</time></trkpt><trkpt lat="14.715233" lon="101.217114"><ele>198.2</ele><time>1970-01-01T01:51:24.000Z</time></trkpt><trkpt lat="14.715245" lon="101.217057"><ele>197.8</ele><time>1970-01-01T01:51:25.000Z</time></trkpt><trkpt lat="14.715254" lon="101.216987"><ele>197.7</ele><time>1970-01-01T01:51:26.000Z</time></trkpt><trkpt lat="14.715282" lon="101.216956"><ele>197.7</ele><time>1970-01-01T01:51:27.000Z</time></trkpt><trkpt lat="14.715307" lon="101.216922"><ele>197.8</ele><time>1970-01-01T01:51:28.000Z</time></trkpt><trkpt lat="14.715326" lon="101.216892"><ele>197.8</ele><time>1970-01-01T01:51:29.000Z</time></trkpt><trkpt lat="14.715344" lon="101.216863"><ele>197.8</ele><time>1970-01-01T01:51:30.000Z</time></trkpt><trkpt lat="14.715356" lon="101.216822"><ele>197.6</ele><time>1970-01-01T01:51:31.000Z</time></trkpt><trkpt lat="14.715368" lon="101.216788"><ele>197.5</ele><time>1970-01-01T01:51:33.000Z</time></trkpt><trkpt lat="14.715398" lon="101.216771"><ele>197.5</ele><time>1970-01-01T01:51:36.000Z</time></trkpt><trkpt lat="14.715427" lon="101.21677"><ele>197.5</ele><time>1970-01-01T01:51:38.000Z</time></trkpt><trkpt lat="14.715453" lon="101.216755"><ele>197.5</ele><time>1970-01-01T01:51:41.000Z</time></trkpt><trkpt lat="14.715476" lon="101.216737"><ele>197.6</ele><time>1970-01-01T01:51:44.000Z</time></trkpt><trkpt lat="14.71551" lon="101.216716"><ele>197.6</ele><time>1970-01-01T01:51:46.000Z</time></trkpt><trkpt lat="14.715551" lon="101.216693"><ele>197.7</ele><time>1970-01-01T01:51:48.000Z</time></trkpt><trkpt lat="14.71558" lon="101.216685"><ele>197.8</ele><time>1970-01-01T01:51:49.000Z</time></trkpt><trkpt lat="14.715613" lon="101.216681"><ele>197.8</ele><time>1970-01-01T01:51:50.000Z</time></trkpt><trkpt lat="14.715648" lon="101.21668"><ele>197.9</ele><time>1970-01-01T01:51:51.000Z</time></trkpt><trkpt lat="14.715684" lon="101.216683"><ele>197.8</ele><time>1970-01-01T01:51:52.000Z</time></trkpt><trkpt lat="14.715722" lon="101.216689"><ele>197.7</ele><time>1970-01-01T01:51:53.000Z</time></trkpt><trkpt lat="14.715761" lon="101.216694"><ele>197.5</ele><time>1970-01-01T01:51:54.000Z</time></trkpt><trkpt lat="14.715802" lon="101.216703"><ele>197.4</ele><time>1970-01-01T01:51:55.000Z</time></trkpt><trkpt lat="14.715846" lon="101.216711"><ele>197.2</ele><time>1970-01-01T01:51:56.000Z</time></trkpt><trkpt lat="14.715889" lon="101.216727"><ele>196.9</ele><time>1970-01-01T01:51:57.000Z</time></trkpt><trkpt lat="14.715924" lon="101.216784"><ele>196.5</ele><time>1970-01-01T01:51:58.000Z</time></trkpt><trkpt lat="14.715969" lon="101.216807"><ele>196.3</ele><time>1970-01-01T01:51:59.000Z</time></trkpt><trkpt lat="14.716017" lon="101.216829"><ele>196.1</ele><time>1970-01-01T01:52:00.000Z</time></trkpt><trkpt lat="14.71606" lon="101.21685"><ele>195.9</ele><time>1970-01-01T01:52:01.000Z</time></trkpt><trkpt lat="14.716109" lon="101.216869"><ele>195.9</ele><time>1970-01-01T01:52:02.000Z</time></trkpt><trkpt lat="14.716158" lon="101.216884"><ele>196</ele><time>1970-01-01T01:52:03.000Z</time></trkpt><trkpt lat="14.716206" lon="101.216914"><ele>196.1</ele><time>1970-01-01T01:52:04.000Z</time></trkpt><trkpt lat="14.71625" lon="101.216935"><ele>196.3</ele><time>1970-01-01T01:52:05.000Z</time></trkpt><trkpt lat="14.716296" lon="101.216954"><ele>196.5</ele><time>1970-01-01T01:52:06.000Z</time></trkpt><trkpt lat="14.716345" lon="101.216976"><ele>196.6</ele><time>1970-01-01T01:52:07.000Z</time></trkpt><trkpt lat="14.716388" lon="101.216995"><ele>196.6</ele><time>1970-01-01T01:52:08.000Z</time></trkpt><trkpt lat="14.716438" lon="101.217008"><ele>196.7</ele><time>1970-01-01T01:52:09.000Z</time></trkpt><trkpt lat="14.716486" lon="101.217015"><ele>196.8</ele><time>1970-01-01T01:52:10.000Z</time></trkpt><trkpt lat="14.716534" lon="101.21703"><ele>196.8</ele><time>1970-01-01T01:52:11.000Z</time></trkpt><trkpt lat="14.716577" lon="101.21705"><ele>196.8</ele><time>1970-01-01T01:52:12.000Z</time></trkpt><trkpt lat="14.716617" lon="101.217064"><ele>196.8</ele><time>1970-01-01T01:52:13.000Z</time></trkpt><trkpt lat="14.71666" lon="101.217081"><ele>196.8</ele><time>1970-01-01T01:52:14.000Z</time></trkpt><trkpt lat="14.716709" lon="101.217094"><ele>196.8</ele><time>1970-01-01T01:52:15.000Z</time></trkpt><trkpt lat="14.716753" lon="101.21711"><ele>196.8</ele><time>1970-01-01T01:52:16.000Z</time></trkpt><trkpt lat="14.716803" lon="101.217118"><ele>196.8</ele><time>1970-01-01T01:52:17.000Z</time></trkpt><trkpt lat="14.716855" lon="101.217134"><ele>196.7</ele><time>1970-01-01T01:52:18.000Z</time></trkpt><trkpt lat="14.716909" lon="101.217143"><ele>196.7</ele><time>1970-01-01T01:52:19.000Z</time></trkpt><trkpt lat="14.716962" lon="101.21716"><ele>196.7</ele><time>1970-01-01T01:52:20.000Z</time></trkpt><trkpt lat="14.71701" lon="101.21718"><ele>196.7</ele><time>1970-01-01T01:52:21.000Z</time></trkpt><trkpt lat="14.717064" lon="101.217196"><ele>196.7</ele><time>1970-01-01T01:52:22.000Z</time></trkpt><trkpt lat="14.71712" lon="101.21721"><ele>196.7</ele><time>1970-01-01T01:52:23.000Z</time></trkpt><trkpt lat="14.717171" lon="101.217223"><ele>196.6</ele><time>1970-01-01T01:52:24.000Z</time></trkpt><trkpt lat="14.717219" lon="101.217238"><ele>196.5</ele><time>1970-01-01T01:52:25.000Z</time></trkpt><trkpt lat="14.717264" lon="101.217256"><ele>196.1</ele><time>1970-01-01T01:52:26.000Z</time></trkpt><trkpt lat="14.717312" lon="101.217284"><ele>195.8</ele><time>1970-01-01T01:52:27.000Z</time></trkpt><trkpt lat="14.717361" lon="101.217308"><ele>195.6</ele><time>1970-01-01T01:52:28.000Z</time></trkpt><trkpt lat="14.717402" lon="101.217334"><ele>195.6</ele><time>1970-01-01T01:52:29.000Z</time></trkpt><trkpt lat="14.71745" lon="101.217364"><ele>195.6</ele><time>1970-01-01T01:52:30.000Z</time></trkpt><trkpt lat="14.717496" lon="101.217388"><ele>195.6</ele><time>1970-01-01T01:52:31.000Z</time></trkpt><trkpt lat="14.717539" lon="101.217384"><ele>195.7</ele><time>1970-01-01T01:52:32.000Z</time></trkpt><trkpt lat="14.717584" lon="101.217357"><ele>195.8</ele><time>1970-01-01T01:52:33.000Z</time></trkpt><trkpt lat="14.717598" lon="101.217326"><ele>196</ele><time>1970-01-01T01:52:34.000Z</time></trkpt><trkpt lat="14.717616" lon="101.217268"><ele>196.1</ele><time>1970-01-01T01:52:36.000Z</time></trkpt><trkpt lat="14.717637" lon="101.217218"><ele>196.1</ele><time>1970-01-01T01:52:37.000Z</time></trkpt><trkpt lat="14.717655" lon="101.217151"><ele>196.1</ele><time>1970-01-01T01:52:38.000Z</time></trkpt><trkpt lat="14.717677" lon="101.217101"><ele>196.2</ele><time>1970-01-01T01:52:39.000Z</time></trkpt><trkpt lat="14.717702" lon="101.217066"><ele>196.4</ele><time>1970-01-01T01:52:40.000Z</time></trkpt><trkpt lat="14.717722" lon="101.217043"><ele>196.4</ele><time>1970-01-01T01:52:41.000Z</time></trkpt><trkpt lat="14.717736" lon="101.216974"><ele>196.4</ele><time>1970-01-01T01:52:42.000Z</time></trkpt><trkpt lat="14.717736" lon="101.216917"><ele>196.2</ele><time>1970-01-01T01:52:43.000Z</time></trkpt><trkpt lat="14.717745" lon="101.216857"><ele>196</ele><time>1970-01-01T01:52:44.000Z</time></trkpt><trkpt lat="14.717732" lon="101.216815"><ele>195.8</ele><time>1970-01-01T01:52:45.000Z</time></trkpt><trkpt lat="14.71773" lon="101.21675"><ele>195.9</ele><time>1970-01-01T01:52:46.000Z</time></trkpt><trkpt lat="14.717722" lon="101.216719"><ele>196.1</ele><time>1970-01-01T01:52:47.000Z</time></trkpt><trkpt lat="14.717714" lon="101.216639"><ele>196.5</ele><time>1970-01-01T01:52:48.000Z</time></trkpt><trkpt lat="14.717706" lon="101.216587"><ele>196.7</ele><time>1970-01-01T01:52:49.000Z</time></trkpt><trkpt lat="14.717704" lon="101.216554"><ele>197</ele><time>1970-01-01T01:52:50.000Z</time></trkpt><trkpt lat="14.71771" lon="101.216489"><ele>197.5</ele><time>1970-01-01T01:52:52.000Z</time></trkpt><trkpt lat="14.717717" lon="101.216439"><ele>198.1</ele><time>1970-01-01T01:52:53.000Z</time></trkpt><trkpt lat="14.717721" lon="101.216399"><ele>198.3</ele><time>1970-01-01T01:52:54.000Z</time></trkpt><trkpt lat="14.717734" lon="101.216362"><ele>198.5</ele><time>1970-01-01T01:52:55.000Z</time></trkpt><trkpt lat="14.717754" lon="101.216333"><ele>198.7</ele><time>1970-01-01T01:52:56.000Z</time></trkpt><trkpt lat="14.717775" lon="101.216305"><ele>198.9</ele><time>1970-01-01T01:52:57.000Z</time></trkpt><trkpt lat="14.717798" lon="101.216277"><ele>199.1</ele><time>1970-01-01T01:52:58.000Z</time></trkpt><trkpt lat="14.717821" lon="101.216249"><ele>199.1</ele><time>1970-01-01T01:52:59.000Z</time></trkpt><trkpt lat="14.717844" lon="101.21622"><ele>199.1</ele><time>1970-01-01T01:53:00.000Z</time></trkpt><trkpt lat="14.717867" lon="101.216191"><ele>199.2</ele><time>1970-01-01T01:53:01.000Z</time></trkpt><trkpt lat="14.717889" lon="101.216164"><ele>199.4</ele><time>1970-01-01T01:53:02.000Z</time></trkpt><trkpt lat="14.717905" lon="101.216128"><ele>199.8</ele><time>1970-01-01T01:53:03.000Z</time></trkpt><trkpt lat="14.717912" lon="101.216081"><ele>200.3</ele><time>1970-01-01T01:53:04.000Z</time></trkpt><trkpt lat="14.717907" lon="101.216033"><ele>201.3</ele><time>1970-01-01T01:53:05.000Z</time></trkpt><trkpt lat="14.717895" lon="101.215987"><ele>202.4</ele><time>1970-01-01T01:53:06.000Z</time></trkpt><trkpt lat="14.717879" lon="101.215942"><ele>202.4</ele><time>1970-01-01T01:53:07.000Z</time></trkpt><trkpt lat="14.717857" lon="101.215907"><ele>202.3</ele><time>1970-01-01T01:53:08.000Z</time></trkpt><trkpt lat="14.717828" lon="101.215878"><ele>202.3</ele><time>1970-01-01T01:53:09.000Z</time></trkpt><trkpt lat="14.717796" lon="101.215853"><ele>202.2</ele><time>1970-01-01T01:53:10.000Z</time></trkpt><trkpt lat="14.717759" lon="101.215827"><ele>202</ele><time>1970-01-01T01:53:11.000Z</time></trkpt><trkpt lat="14.717724" lon="101.215801"><ele>201.3</ele><time>1970-01-01T01:53:12.000Z</time></trkpt><trkpt lat="14.717693" lon="101.215772"><ele>200.6</ele><time>1970-01-01T01:53:13.000Z</time></trkpt><trkpt lat="14.717663" lon="101.215743"><ele>200.7</ele><time>1970-01-01T01:53:14.000Z</time></trkpt><trkpt lat="14.71763" lon="101.215717"><ele>200.8</ele><time>1970-01-01T01:53:15.000Z</time></trkpt><trkpt lat="14.717598" lon="101.215693"><ele>200.5</ele><time>1970-01-01T01:53:16.000Z</time></trkpt><trkpt lat="14.717565" lon="101.215666"><ele>200.2</ele><time>1970-01-01T01:53:17.000Z</time></trkpt><trkpt lat="14.71753" lon="101.215638"><ele>200.3</ele><time>1970-01-01T01:53:18.000Z</time></trkpt><trkpt lat="14.717494" lon="101.215604"><ele>200.2</ele><time>1970-01-01T01:53:19.000Z</time></trkpt><trkpt lat="14.717459" lon="101.215566"><ele>200.1</ele><time>1970-01-01T01:53:20.000Z</time></trkpt><trkpt lat="14.717429" lon="101.215526"><ele>200.7</ele><time>1970-01-01T01:53:21.000Z</time></trkpt><trkpt lat="14.717404" lon="101.215488"><ele>201.5</ele><time>1970-01-01T01:53:22.000Z</time></trkpt><trkpt lat="14.717383" lon="101.215438"><ele>202</ele><time>1970-01-01T01:53:23.000Z</time></trkpt><trkpt lat="14.717364" lon="101.21539"><ele>202.8</ele><time>1970-01-01T01:53:24.000Z</time></trkpt><trkpt lat="14.717348" lon="101.215344"><ele>204</ele><time>1970-01-01T01:53:25.000Z</time></trkpt><trkpt lat="14.717338" lon="101.215305"><ele>205</ele><time>1970-01-01T01:53:26.000Z</time></trkpt><trkpt lat="14.717331" lon="101.215269"><ele>205.9</ele><time>1970-01-01T01:53:27.000Z</time></trkpt><trkpt lat="14.717325" lon="101.215238"><ele>206.7</ele><time>1970-01-01T01:53:28.000Z</time></trkpt><trkpt lat="14.717313" lon="101.215185"><ele>207.7</ele><time>1970-01-01T01:53:30.000Z</time></trkpt><trkpt lat="14.717307" lon="101.215157"><ele>208.2</ele><time>1970-01-01T01:53:31.000Z</time></trkpt><trkpt lat="14.717303" lon="101.215129"><ele>209.1</ele><time>1970-01-01T01:53:32.000Z</time></trkpt><trkpt lat="14.717299" lon="101.215099"><ele>210</ele><time>1970-01-01T01:53:33.000Z</time></trkpt><trkpt lat="14.717298" lon="101.215062"><ele>211.1</ele><time>1970-01-01T01:53:34.000Z</time></trkpt><trkpt lat="14.717296" lon="101.215026"><ele>212</ele><time>1970-01-01T01:53:35.000Z</time></trkpt><trkpt lat="14.717301" lon="101.214992"><ele>212.9</ele><time>1970-01-01T01:53:36.000Z</time></trkpt><trkpt lat="14.717308" lon="101.214957"><ele>213.7</ele><time>1970-01-01T01:53:37.000Z</time></trkpt><trkpt lat="14.717316" lon="101.214923"><ele>214.4</ele><time>1970-01-01T01:53:38.000Z</time></trkpt><trkpt lat="14.717324" lon="101.214878"><ele>215.3</ele><time>1970-01-01T01:53:39.000Z</time></trkpt><trkpt lat="14.717327" lon="101.214832"><ele>216.1</ele><time>1970-01-01T01:53:40.000Z</time></trkpt><trkpt lat="14.71733" lon="101.214787"><ele>216.8</ele><time>1970-01-01T01:53:41.000Z</time></trkpt><trkpt lat="14.717329" lon="101.214757"><ele>217.3</ele><time>1970-01-01T01:53:42.000Z</time></trkpt><trkpt lat="14.717324" lon="101.214719"><ele>217.9</ele><time>1970-01-01T01:53:44.000Z</time></trkpt><trkpt lat="14.717321" lon="101.214678"><ele>218.2</ele><time>1970-01-01T01:53:46.000Z</time></trkpt><trkpt lat="14.717313" lon="101.214634"><ele>218.6</ele><time>1970-01-01T01:53:48.000Z</time></trkpt><trkpt lat="14.717305" lon="101.21459"><ele>218.8</ele><time>1970-01-01T01:53:50.000Z</time></trkpt><trkpt lat="14.717305" lon="101.214551"><ele>218.9</ele><time>1970-01-01T01:53:52.000Z</time></trkpt><trkpt lat="14.717309" lon="101.214507"><ele>219.1</ele><time>1970-01-01T01:53:55.000Z</time></trkpt><trkpt lat="14.717307" lon="101.214458"><ele>219.3</ele><time>1970-01-01T01:53:58.000Z</time></trkpt><trkpt lat="14.7173" lon="101.214405"><ele>219.3</ele><time>1970-01-01T01:54:00.000Z</time></trkpt><trkpt lat="14.717281" lon="101.214358"><ele>219.4</ele><time>1970-01-01T01:54:02.000Z</time></trkpt><trkpt lat="14.717254" lon="101.214316"><ele>219.5</ele><time>1970-01-01T01:54:04.000Z</time></trkpt><trkpt lat="14.71723" lon="101.214271"><ele>219.4</ele><time>1970-01-01T01:54:06.000Z</time></trkpt><trkpt lat="14.717222" lon="101.214244"><ele>219.3</ele><time>1970-01-01T01:54:07.000Z</time></trkpt><trkpt lat="14.717211" lon="101.214217"><ele>219.2</ele><time>1970-01-01T01:54:08.000Z</time></trkpt><trkpt lat="14.717193" lon="101.214192"><ele>219.1</ele><time>1970-01-01T01:54:09.000Z</time></trkpt><trkpt lat="14.717147" lon="101.214162"><ele>218.8</ele><time>1970-01-01T01:54:11.000Z</time></trkpt><trkpt lat="14.717118" lon="101.21415"><ele>218.6</ele><time>1970-01-01T01:54:12.000Z</time></trkpt><trkpt lat="14.717089" lon="101.214136"><ele>218.2</ele><time>1970-01-01T01:54:13.000Z</time></trkpt><trkpt lat="14.717055" lon="101.214115"><ele>217.6</ele><time>1970-01-01T01:54:14.000Z</time></trkpt><trkpt lat="14.717016" lon="101.214089"><ele>216.9</ele><time>1970-01-01T01:54:15.000Z</time></trkpt><trkpt lat="14.716946" lon="101.21403"><ele>215.5</ele><time>1970-01-01T01:54:16.000Z</time></trkpt><trkpt lat="14.716893" lon="101.213987"><ele>214.3</ele><time>1970-01-01T01:54:17.000Z</time></trkpt><trkpt lat="14.716834" lon="101.213944"><ele>213.1</ele><time>1970-01-01T01:54:18.000Z</time></trkpt><trkpt lat="14.716774" lon="101.213897"><ele>212</ele><time>1970-01-01T01:54:19.000Z</time></trkpt><trkpt lat="14.716717" lon="101.213851"><ele>211.3</ele><time>1970-01-01T01:54:20.000Z</time></trkpt><trkpt lat="14.716663" lon="101.213795"><ele>210.6</ele><time>1970-01-01T01:54:21.000Z</time></trkpt><trkpt lat="14.716618" lon="101.213736"><ele>210.2</ele><time>1970-01-01T01:54:22.000Z</time></trkpt><trkpt lat="14.716577" lon="101.213664"><ele>209.2</ele><time>1970-01-01T01:54:23.000Z</time></trkpt><trkpt lat="14.716535" lon="101.213593"><ele>209.2</ele><time>1970-01-01T01:54:24.000Z</time></trkpt><trkpt lat="14.716505" lon="101.213518"><ele>208.7</ele><time>1970-01-01T01:54:25.000Z</time></trkpt><trkpt lat="14.716469" lon="101.213462"><ele>208.2</ele><time>1970-01-01T01:54:26.000Z</time></trkpt><trkpt lat="14.71644" lon="101.213393"><ele>208.3</ele><time>1970-01-01T01:54:27.000Z</time></trkpt><trkpt lat="14.716403" lon="101.213325"><ele>208.2</ele><time>1970-01-01T01:54:28.000Z</time></trkpt><trkpt lat="14.716375" lon="101.213274"><ele>207.7</ele><time>1970-01-01T01:54:29.000Z</time></trkpt><trkpt lat="14.716355" lon="101.213194"><ele>206.7</ele><time>1970-01-01T01:54:30.000Z</time></trkpt><trkpt lat="14.716328" lon="101.213109"><ele>206.3</ele><time>1970-01-01T01:54:31.000Z</time></trkpt><trkpt lat="14.7163" lon="101.213012"><ele>206.5</ele><time>1970-01-01T01:54:32.000Z</time></trkpt><trkpt lat="14.716258" lon="101.212943"><ele>207.9</ele><time>1970-01-01T01:54:33.000Z</time></trkpt><trkpt lat="14.716195" lon="101.212892"><ele>208.1</ele><time>1970-01-01T01:54:34.000Z</time></trkpt><trkpt lat="14.716123" lon="101.212836"><ele>208.1</ele><time>1970-01-01T01:54:35.000Z</time></trkpt><trkpt lat="14.716054" lon="101.212768"><ele>207.3</ele><time>1970-01-01T01:54:36.000Z</time></trkpt><trkpt lat="14.715993" lon="101.212696"><ele>207.1</ele><time>1970-01-01T01:54:37.000Z</time></trkpt><trkpt lat="14.715936" lon="101.212634"><ele>206.5</ele><time>1970-01-01T01:54:38.000Z</time></trkpt><trkpt lat="14.715865" lon="101.212555"><ele>206.3</ele><time>1970-01-01T01:54:39.000Z</time></trkpt><trkpt lat="14.715803" lon="101.212493"><ele>205.6</ele><time>1970-01-01T01:54:40.000Z</time></trkpt><trkpt lat="14.715757" lon="101.21244"><ele>204.9</ele><time>1970-01-01T01:54:41.000Z</time></trkpt><trkpt lat="14.715703" lon="101.212422"><ele>204.7</ele><time>1970-01-01T01:54:42.000Z</time></trkpt><trkpt lat="14.715653" lon="101.212377"><ele>204.7</ele><time>1970-01-01T01:54:43.000Z</time></trkpt><trkpt lat="14.715622" lon="101.212337"><ele>204.8</ele><time>1970-01-01T01:54:44.000Z</time></trkpt><trkpt lat="14.715593" lon="101.212282"><ele>204.8</ele><time>1970-01-01T01:54:45.000Z</time></trkpt><trkpt lat="14.715615" lon="101.212222"><ele>205.5</ele><time>1970-01-01T01:54:46.000Z</time></trkpt><trkpt lat="14.715617" lon="101.212132"><ele>206.5</ele><time>1970-01-01T01:54:47.000Z</time></trkpt><trkpt lat="14.715601" lon="101.212081"><ele>206.8</ele><time>1970-01-01T01:54:48.000Z</time></trkpt><trkpt lat="14.715567" lon="101.212027"><ele>207.3</ele><time>1970-01-01T01:54:49.000Z</time></trkpt><trkpt lat="14.715525" lon="101.211959"><ele>207.7</ele><time>1970-01-01T01:54:50.000Z</time></trkpt><trkpt lat="14.715481" lon="101.211904"><ele>207.7</ele><time>1970-01-01T01:54:51.000Z</time></trkpt><trkpt lat="14.715447" lon="101.211869"><ele>207.5</ele><time>1970-01-01T01:54:52.000Z</time></trkpt><trkpt lat="14.715415" lon="101.211837"><ele>207.7</ele><time>1970-01-01T01:54:53.000Z</time></trkpt><trkpt lat="14.715379" lon="101.211862"><ele>208</ele><time>1970-01-01T01:54:54.000Z</time></trkpt><trkpt lat="14.715353" lon="101.211806"><ele>208.2</ele><time>1970-01-01T01:54:56.000Z</time></trkpt><trkpt lat="14.71535" lon="101.211767"><ele>208.3</ele><time>1970-01-01T01:54:57.000Z</time></trkpt><trkpt lat="14.715347" lon="101.211711"><ele>207.9</ele><time>1970-01-01T01:54:58.000Z</time></trkpt><trkpt lat="14.715347" lon="101.211616"><ele>207.7</ele><time>1970-01-01T01:54:59.000Z</time></trkpt><trkpt lat="14.715366" lon="101.211583"><ele>207.7</ele><time>1970-01-01T01:55:00.000Z</time></trkpt><trkpt lat="14.715345" lon="101.211556"><ele>207.8</ele><time>1970-01-01T01:55:02.000Z</time></trkpt><trkpt lat="14.715352" lon="101.211518"><ele>207.8</ele><time>1970-01-01T01:55:03.000Z</time></trkpt><trkpt lat="14.715348" lon="101.21147"><ele>207.7</ele><time>1970-01-01T01:55:04.000Z</time></trkpt><trkpt lat="14.71534" lon="101.21141"><ele>207.7</ele><time>1970-01-01T01:55:05.000Z</time></trkpt><trkpt lat="14.715329" lon="101.211384"><ele>207.7</ele><time>1970-01-01T01:55:06.000Z</time></trkpt><trkpt lat="14.715314" lon="101.21134"><ele>207.8</ele><time>1970-01-01T01:55:08.000Z</time></trkpt><trkpt lat="14.715305" lon="101.211303"><ele>207.9</ele><time>1970-01-01T01:55:09.000Z</time></trkpt><trkpt lat="14.715297" lon="101.211265"><ele>208</ele><time>1970-01-01T01:55:10.000Z</time></trkpt><trkpt lat="14.715288" lon="101.211222"><ele>208.1</ele><time>1970-01-01T01:55:12.000Z</time></trkpt><trkpt lat="14.715285" lon="101.211188"><ele>208.1</ele><time>1970-01-01T01:55:13.000Z</time></trkpt><trkpt lat="14.715281" lon="101.211149"><ele>208.2</ele><time>1970-01-01T01:55:14.000Z</time></trkpt><trkpt lat="14.715277" lon="101.211107"><ele>208.2</ele><time>1970-01-01T01:55:15.000Z</time></trkpt><trkpt lat="14.715272" lon="101.211061"><ele>208.2</ele><time>1970-01-01T01:55:16.000Z</time></trkpt><trkpt lat="14.715265" lon="101.211016"><ele>208.1</ele><time>1970-01-01T01:55:17.000Z</time></trkpt><trkpt lat="14.715259" lon="101.21097"><ele>208</ele><time>1970-01-01T01:55:18.000Z</time></trkpt><trkpt lat="14.715251" lon="101.210925"><ele>208</ele><time>1970-01-01T01:55:19.000Z</time></trkpt><trkpt lat="14.71524" lon="101.210884"><ele>208.2</ele><time>1970-01-01T01:55:20.000Z</time></trkpt><trkpt lat="14.715226" lon="101.210844"><ele>208.3</ele><time>1970-01-01T01:55:21.000Z</time></trkpt><trkpt lat="14.715213" lon="101.210809"><ele>208.5</ele><time>1970-01-01T01:55:22.000Z</time></trkpt><trkpt lat="14.715199" lon="101.210776"><ele>208.8</ele><time>1970-01-01T01:55:23.000Z</time></trkpt><trkpt lat="14.715186" lon="101.210746"><ele>209.1</ele><time>1970-01-01T01:55:24.000Z</time></trkpt><trkpt lat="14.715168" lon="101.210703"><ele>209.9</ele><time>1970-01-01T01:55:26.000Z</time></trkpt><trkpt lat="14.715159" lon="101.210668"><ele>210.8</ele><time>1970-01-01T01:55:28.000Z</time></trkpt><trkpt lat="14.715158" lon="101.210619"><ele>211.4</ele><time>1970-01-01T01:55:30.000Z</time></trkpt><trkpt lat="14.715169" lon="101.210566"><ele>212.3</ele><time>1970-01-01T01:55:32.000Z</time></trkpt><trkpt lat="14.715191" lon="101.210521"><ele>213.3</ele><time>1970-01-01T01:55:34.000Z</time></trkpt><trkpt lat="14.715225" lon="101.210482"><ele>214.4</ele><time>1970-01-01T01:55:36.000Z</time></trkpt><trkpt lat="14.715256" lon="101.21044"><ele>215</ele><time>1970-01-01T01:55:38.000Z</time></trkpt><trkpt lat="14.715288" lon="101.2104"><ele>215.6</ele><time>1970-01-01T01:55:40.000Z</time></trkpt><trkpt lat="14.715309" lon="101.210374"><ele>216</ele><time>1970-01-01T01:55:42.000Z</time></trkpt><trkpt lat="14.715295" lon="101.210348"><ele>216.3</ele><time>1970-01-01T01:55:45.000Z</time></trkpt><trkpt lat="14.715265" lon="101.210342"><ele>216.7</ele><time>1970-01-01T01:55:48.000Z</time></trkpt><trkpt lat="14.715255" lon="101.210315"><ele>217</ele><time>1970-01-01T01:55:50.000Z</time></trkpt><trkpt lat="14.715255" lon="101.210281"><ele>217.4</ele><time>1970-01-01T01:55:52.000Z</time></trkpt><trkpt lat="14.715258" lon="101.210244"><ele>217.8</ele><time>1970-01-01T01:55:54.000Z</time></trkpt><trkpt lat="14.715262" lon="101.210196"><ele>218.8</ele><time>1970-01-01T01:55:56.000Z</time></trkpt><trkpt lat="14.715268" lon="101.210164"><ele>219</ele><time>1970-01-01T01:55:58.000Z</time></trkpt><trkpt lat="14.715264" lon="101.21013"><ele>219.2</ele><time>1970-01-01T01:56:01.000Z</time></trkpt><trkpt lat="14.715281" lon="101.21009"><ele>219.5</ele><time>1970-01-01T01:56:06.000Z</time></trkpt><trkpt lat="14.715278" lon="101.210058"><ele>219.9</ele><time>1970-01-01T01:56:09.000Z</time></trkpt><trkpt lat="14.715251" lon="101.210058"><ele>220.2</ele><time>1970-01-01T01:56:14.000Z</time></trkpt><trkpt lat="14.715244" lon="101.210027"><ele>220.6</ele><time>1970-01-01T01:56:25.000Z</time></trkpt><trkpt lat="14.715249" lon="101.209976"><ele>221.1</ele><time>1970-01-01T01:56:27.000Z</time></trkpt><trkpt lat="14.715243" lon="101.209944"><ele>221.5</ele><time>1970-01-01T01:56:28.000Z</time></trkpt><trkpt lat="14.715226" lon="101.209895"><ele>222.1</ele><time>1970-01-01T01:56:30.000Z</time></trkpt><trkpt lat="14.715214" lon="101.209849"><ele>222.8</ele><time>1970-01-01T01:56:32.000Z</time></trkpt><trkpt lat="14.715212" lon="101.209809"><ele>223.1</ele><time>1970-01-01T01:56:34.000Z</time></trkpt><trkpt lat="14.715206" lon="101.209755"><ele>223.3</ele><time>1970-01-01T01:56:36.000Z</time></trkpt><trkpt lat="14.715197" lon="101.209718"><ele>223.5</ele><time>1970-01-01T01:56:37.000Z</time></trkpt><trkpt lat="14.715186" lon="101.209686"><ele>223.8</ele><time>1970-01-01T01:56:38.000Z</time></trkpt><trkpt lat="14.715175" lon="101.209659"><ele>224.1</ele><time>1970-01-01T01:56:39.000Z</time></trkpt><trkpt lat="14.715163" lon="101.20963"><ele>224.4</ele><time>1970-01-01T01:56:40.000Z</time></trkpt><trkpt lat="14.715148" lon="101.209604"><ele>224.9</ele><time>1970-01-01T01:56:41.000Z</time></trkpt><trkpt lat="14.715113" lon="101.209563"><ele>225.8</ele><time>1970-01-01T01:56:43.000Z</time></trkpt><trkpt lat="14.715088" lon="101.209533"><ele>226.2</ele><time>1970-01-01T01:56:45.000Z</time></trkpt><trkpt lat="14.715087" lon="101.2095"><ele>226.5</ele><time>1970-01-01T01:56:47.000Z</time></trkpt><trkpt lat="14.715085" lon="101.209463"><ele>226.8</ele><time>1970-01-01T01:56:49.000Z</time></trkpt><trkpt lat="14.715075" lon="101.209409"><ele>227.1</ele><time>1970-01-01T01:56:51.000Z</time></trkpt><trkpt lat="14.715069" lon="101.209381"><ele>227.3</ele><time>1970-01-01T01:56:52.000Z</time></trkpt><trkpt lat="14.715059" lon="101.209342"><ele>227.7</ele><time>1970-01-01T01:56:54.000Z</time></trkpt><trkpt lat="14.715054" lon="101.209302"><ele>228.2</ele><time>1970-01-01T01:56:56.000Z</time></trkpt><trkpt lat="14.715048" lon="101.209266"><ele>228.7</ele><time>1970-01-01T01:56:58.000Z</time></trkpt><trkpt lat="14.715032" lon="101.209231"><ele>229.1</ele><time>1970-01-01T01:57:00.000Z</time></trkpt><trkpt lat="14.714999" lon="101.209195"><ele>229.6</ele><time>1970-01-01T01:57:02.000Z</time></trkpt><trkpt lat="14.714956" lon="101.209168"><ele>230.2</ele><time>1970-01-01T01:57:04.000Z</time></trkpt><trkpt lat="14.714903" lon="101.20915"><ele>230.8</ele><time>1970-01-01T01:57:06.000Z</time></trkpt><trkpt lat="14.714872" lon="101.209138"><ele>231</ele><time>1970-01-01T01:57:07.000Z</time></trkpt><trkpt lat="14.714838" lon="101.209126"><ele>228.9</ele><time>1970-01-01T01:57:08.000Z</time></trkpt><trkpt lat="14.714802" lon="101.209113"><ele>227.8</ele><time>1970-01-01T01:57:09.000Z</time></trkpt><trkpt lat="14.714763" lon="101.209103"><ele>226.9</ele><time>1970-01-01T01:57:10.000Z</time></trkpt><trkpt lat="14.714724" lon="101.209096"><ele>226.4</ele><time>1970-01-01T01:57:11.000Z</time></trkpt><trkpt lat="14.714679" lon="101.209092"><ele>226.2</ele><time>1970-01-01T01:57:12.000Z</time></trkpt><trkpt lat="14.714627" lon="101.209087"><ele>226.1</ele><time>1970-01-01T01:57:13.000Z</time></trkpt><trkpt lat="14.71453" lon="101.209027"><ele>225.6</ele><time>1970-01-01T01:57:14.000Z</time></trkpt><trkpt lat="14.714473" lon="101.208997"><ele>225.1</ele><time>1970-01-01T01:57:15.000Z</time></trkpt><trkpt lat="14.714414" lon="101.208964"><ele>224.6</ele><time>1970-01-01T01:57:16.000Z</time></trkpt><trkpt lat="14.714355" lon="101.208938"><ele>224.2</ele><time>1970-01-01T01:57:17.000Z</time></trkpt><trkpt lat="14.714298" lon="101.208886"><ele>223.4</ele><time>1970-01-01T01:57:18.000Z</time></trkpt><trkpt lat="14.714254" lon="101.208848"><ele>222.9</ele><time>1970-01-01T01:57:19.000Z</time></trkpt><trkpt lat="14.714213" lon="101.208787"><ele>222.4</ele><time>1970-01-01T01:57:20.000Z</time></trkpt><trkpt lat="14.71417" lon="101.208737"><ele>223</ele><time>1970-01-01T01:57:21.000Z</time></trkpt><trkpt lat="14.714123" lon="101.208682"><ele>223.3</ele><time>1970-01-01T01:57:22.000Z</time></trkpt><trkpt lat="14.714081" lon="101.208633"><ele>223.1</ele><time>1970-01-01T01:57:23.000Z</time></trkpt><trkpt lat="14.714041" lon="101.208587"><ele>222.6</ele><time>1970-01-01T01:57:24.000Z</time></trkpt><trkpt lat="14.714001" lon="101.20854"><ele>222.5</ele><time>1970-01-01T01:57:25.000Z</time></trkpt><trkpt lat="14.713961" lon="101.20849"><ele>222.1</ele><time>1970-01-01T01:57:26.000Z</time></trkpt><trkpt lat="14.713928" lon="101.20844"><ele>221.8</ele><time>1970-01-01T01:57:27.000Z</time></trkpt><trkpt lat="14.713898" lon="101.208384"><ele>221.8</ele><time>1970-01-01T01:57:28.000Z</time></trkpt><trkpt lat="14.713869" lon="101.20836"><ele>221.6</ele><time>1970-01-01T01:57:29.000Z</time></trkpt><trkpt lat="14.713849" lon="101.20832"><ele>221.3</ele><time>1970-01-01T01:57:30.000Z</time></trkpt><trkpt lat="14.713832" lon="101.208277"><ele>221.7</ele><time>1970-01-01T01:57:31.000Z</time></trkpt><trkpt lat="14.713818" lon="101.208218"><ele>222.6</ele><time>1970-01-01T01:57:32.000Z</time></trkpt><trkpt lat="14.713799" lon="101.20818"><ele>222.6</ele><time>1970-01-01T01:57:33.000Z</time></trkpt><trkpt lat="14.713785" lon="101.208139"><ele>222.6</ele><time>1970-01-01T01:57:34.000Z</time></trkpt><trkpt lat="14.713774" lon="101.208105"><ele>222.9</ele><time>1970-01-01T01:57:35.000Z</time></trkpt><trkpt lat="14.71376" lon="101.208079"><ele>223.2</ele><time>1970-01-01T01:57:36.000Z</time></trkpt><trkpt lat="14.713749" lon="101.208038"><ele>223.5</ele><time>1970-01-01T01:57:37.000Z</time></trkpt><trkpt lat="14.713739" lon="101.207994"><ele>223.6</ele><time>1970-01-01T01:57:38.000Z</time></trkpt><trkpt lat="14.71373" lon="101.207953"><ele>223.7</ele><time>1970-01-01T01:57:39.000Z</time></trkpt><trkpt lat="14.713723" lon="101.207925"><ele>224.1</ele><time>1970-01-01T01:57:40.000Z</time></trkpt><trkpt lat="14.713712" lon="101.207894"><ele>224.6</ele><time>1970-01-01T01:57:41.000Z</time></trkpt><trkpt lat="14.713701" lon="101.207862"><ele>225</ele><time>1970-01-01T01:57:42.000Z</time></trkpt><trkpt lat="14.71369" lon="101.207833"><ele>225.3</ele><time>1970-01-01T01:57:43.000Z</time></trkpt><trkpt lat="14.713681" lon="101.207803"><ele>225.6</ele><time>1970-01-01T01:57:44.000Z</time></trkpt><trkpt lat="14.713674" lon="101.207773"><ele>226</ele><time>1970-01-01T01:57:45.000Z</time></trkpt><trkpt lat="14.713668" lon="101.207741"><ele>226.5</ele><time>1970-01-01T01:57:46.000Z</time></trkpt><trkpt lat="14.713664" lon="101.207712"><ele>227.1</ele><time>1970-01-01T01:57:47.000Z</time></trkpt><trkpt lat="14.713659" lon="101.207684"><ele>227.5</ele><time>1970-01-01T01:57:48.000Z</time></trkpt><trkpt lat="14.713649" lon="101.207656"><ele>227.7</ele><time>1970-01-01T01:57:49.000Z</time></trkpt><trkpt lat="14.713634" lon="101.207629"><ele>227.9</ele><time>1970-01-01T01:57:50.000Z</time></trkpt><trkpt lat="14.713619" lon="101.207604"><ele>228.1</ele><time>1970-01-01T01:57:51.000Z</time></trkpt><trkpt lat="14.713606" lon="101.207579"><ele>228.2</ele><time>1970-01-01T01:57:52.000Z</time></trkpt><trkpt lat="14.713594" lon="101.207554"><ele>228.3</ele><time>1970-01-01T01:57:53.000Z</time></trkpt><trkpt lat="14.713565" lon="101.207505"><ele>228.4</ele><time>1970-01-01T01:57:55.000Z</time></trkpt><trkpt lat="14.713548" lon="101.207481"><ele>228.4</ele><time>1970-01-01T01:57:56.000Z</time></trkpt><trkpt lat="14.713529" lon="101.207452"><ele>228.7</ele><time>1970-01-01T01:57:57.000Z</time></trkpt><trkpt lat="14.713509" lon="101.20742"><ele>229</ele><time>1970-01-01T01:57:58.000Z</time></trkpt><trkpt lat="14.713484" lon="101.207381"><ele>229.3</ele><time>1970-01-01T01:57:59.000Z</time></trkpt><trkpt lat="14.713424" lon="101.207325"><ele>229.6</ele><time>1970-01-01T01:58:00.000Z</time></trkpt><trkpt lat="14.713388" lon="101.20729"><ele>229.5</ele><time>1970-01-01T01:58:01.000Z</time></trkpt><trkpt lat="14.713353" lon="101.207252"><ele>229.3</ele><time>1970-01-01T01:58:02.000Z</time></trkpt><trkpt lat="14.713313" lon="101.207215"><ele>228.9</ele><time>1970-01-01T01:58:03.000Z</time></trkpt><trkpt lat="14.713275" lon="101.207186"><ele>228.5</ele><time>1970-01-01T01:58:04.000Z</time></trkpt><trkpt lat="14.713222" lon="101.207149"><ele>228</ele><time>1970-01-01T01:58:05.000Z</time></trkpt><trkpt lat="14.713153" lon="101.207162"><ele>227.4</ele><time>1970-01-01T01:58:06.000Z</time></trkpt><trkpt lat="14.713106" lon="101.207145"><ele>226.7</ele><time>1970-01-01T01:58:07.000Z</time></trkpt><trkpt lat="14.713061" lon="101.207156"><ele>226</ele><time>1970-01-01T01:58:08.000Z</time></trkpt><trkpt lat="14.713021" lon="101.207155"><ele>225.3</ele><time>1970-01-01T01:58:09.000Z</time></trkpt><trkpt lat="14.712975" lon="101.207157"><ele>224.5</ele><time>1970-01-01T01:58:10.000Z</time></trkpt><trkpt lat="14.712926" lon="101.207144"><ele>223.6</ele><time>1970-01-01T01:58:11.000Z</time></trkpt><trkpt lat="14.712881" lon="101.207153"><ele>222.8</ele><time>1970-01-01T01:58:12.000Z</time></trkpt><trkpt lat="14.712835" lon="101.207158"><ele>222.4</ele><time>1970-01-01T01:58:13.000Z</time></trkpt><trkpt lat="14.712783" lon="101.207168"><ele>221.9</ele><time>1970-01-01T01:58:14.000Z</time></trkpt><trkpt lat="14.712728" lon="101.207192"><ele>221.3</ele><time>1970-01-01T01:58:15.000Z</time></trkpt><trkpt lat="14.71267" lon="101.207222"><ele>220.5</ele><time>1970-01-01T01:58:16.000Z</time></trkpt><trkpt lat="14.712632" lon="101.207284"><ele>219.3</ele><time>1970-01-01T01:58:17.000Z</time></trkpt><trkpt lat="14.712604" lon="101.207336"><ele>218.1</ele><time>1970-01-01T01:58:18.000Z</time></trkpt><trkpt lat="14.712565" lon="101.207392"><ele>217</ele><time>1970-01-01T01:58:19.000Z</time></trkpt><trkpt lat="14.712535" lon="101.207446"><ele>216.3</ele><time>1970-01-01T01:58:20.000Z</time></trkpt><trkpt lat="14.712516" lon="101.207493"><ele>215.9</ele><time>1970-01-01T01:58:21.000Z</time></trkpt><trkpt lat="14.712496" lon="101.207546"><ele>215.6</ele><time>1970-01-01T01:58:22.000Z</time></trkpt><trkpt lat="14.712474" lon="101.2076"><ele>215.4</ele><time>1970-01-01T01:58:23.000Z</time></trkpt><trkpt lat="14.712442" lon="101.207654"><ele>215.2</ele><time>1970-01-01T01:58:24.000Z</time></trkpt><trkpt lat="14.71242" lon="101.207721"><ele>214.6</ele><time>1970-01-01T01:58:25.000Z</time></trkpt><trkpt lat="14.712404" lon="101.207788"><ele>214.1</ele><time>1970-01-01T01:58:26.000Z</time></trkpt><trkpt lat="14.712383" lon="101.207862"><ele>214.1</ele><time>1970-01-01T01:58:27.000Z</time></trkpt><trkpt lat="14.712359" lon="101.207935"><ele>214.3</ele><time>1970-01-01T01:58:28.000Z</time></trkpt><trkpt lat="14.712344" lon="101.208011"><ele>214.7</ele><time>1970-01-01T01:58:29.000Z</time></trkpt><trkpt lat="14.712326" lon="101.208096"><ele>215.1</ele><time>1970-01-01T01:58:30.000Z</time></trkpt><trkpt lat="14.71232" lon="101.208165"><ele>215</ele><time>1970-01-01T01:58:31.000Z</time></trkpt><trkpt lat="14.712329" lon="101.208234"><ele>214.8</ele><time>1970-01-01T01:58:32.000Z</time></trkpt><trkpt lat="14.712356" lon="101.208304"><ele>215.1</ele><time>1970-01-01T01:58:33.000Z</time></trkpt><trkpt lat="14.71238" lon="101.208355"><ele>215.3</ele><time>1970-01-01T01:58:34.000Z</time></trkpt><trkpt lat="14.712421" lon="101.208372"><ele>215.4</ele><time>1970-01-01T01:58:35.000Z</time></trkpt><trkpt lat="14.712453" lon="101.208402"><ele>215.4</ele><time>1970-01-01T01:58:36.000Z</time></trkpt><trkpt lat="14.712484" lon="101.208433"><ele>215.2</ele><time>1970-01-01T01:58:37.000Z</time></trkpt><trkpt lat="14.712522" lon="101.208468"><ele>214.8</ele><time>1970-01-01T01:58:38.000Z</time></trkpt><trkpt lat="14.71254" lon="101.208519"><ele>214.4</ele><time>1970-01-01T01:58:39.000Z</time></trkpt><trkpt lat="14.712552" lon="101.208564"><ele>214.3</ele><time>1970-01-01T01:58:40.000Z</time></trkpt><trkpt lat="14.712588" lon="101.208568"><ele>214.4</ele><time>1970-01-01T01:58:41.000Z</time></trkpt><trkpt lat="14.712605" lon="101.208606"><ele>214.5</ele><time>1970-01-01T01:58:42.000Z</time></trkpt><trkpt lat="14.712631" lon="101.208639"><ele>214.8</ele><time>1970-01-01T01:58:43.000Z</time></trkpt><trkpt lat="14.712635" lon="101.208675"><ele>215</ele><time>1970-01-01T01:58:44.000Z</time></trkpt><trkpt lat="14.712649" lon="101.20871"><ele>215.2</ele><time>1970-01-01T01:58:45.000Z</time></trkpt><trkpt lat="14.712658" lon="101.208753"><ele>215.6</ele><time>1970-01-01T01:58:46.000Z</time></trkpt><trkpt lat="14.712716" lon="101.208772"><ele>216.2</ele><time>1970-01-01T01:58:48.000Z</time></trkpt><trkpt lat="14.712754" lon="101.208797"><ele>216.6</ele><time>1970-01-01T01:58:49.000Z</time></trkpt><trkpt lat="14.712786" lon="101.208818"><ele>217</ele><time>1970-01-01T01:58:50.000Z</time></trkpt><trkpt lat="14.712816" lon="101.208846"><ele>217.3</ele><time>1970-01-01T01:58:51.000Z</time></trkpt><trkpt lat="14.712846" lon="101.208867"><ele>217.6</ele><time>1970-01-01T01:58:52.000Z</time></trkpt><trkpt lat="14.712876" lon="101.208886"><ele>217.8</ele><time>1970-01-01T01:58:53.000Z</time></trkpt><trkpt lat="14.712902" lon="101.208915"><ele>217.9</ele><time>1970-01-01T01:58:54.000Z</time></trkpt><trkpt lat="14.712927" lon="101.208947"><ele>217.8</ele><time>1970-01-01T01:58:55.000Z</time></trkpt><trkpt lat="14.712954" lon="101.208975"><ele>217.6</ele><time>1970-01-01T01:58:56.000Z</time></trkpt><trkpt lat="14.712981" lon="101.209002"><ele>217.4</ele><time>1970-01-01T01:58:57.000Z</time></trkpt><trkpt lat="14.713011" lon="101.209022"><ele>217.4</ele><time>1970-01-01T01:58:58.000Z</time></trkpt><trkpt lat="14.713037" lon="101.209053"><ele>217.4</ele><time>1970-01-01T01:58:59.000Z</time></trkpt><trkpt lat="14.713061" lon="101.20909"><ele>217.5</ele><time>1970-01-01T01:59:00.000Z</time></trkpt><trkpt lat="14.713083" lon="101.209127"><ele>217.7</ele><time>1970-01-01T01:59:01.000Z</time></trkpt><trkpt lat="14.713111" lon="101.209197"><ele>218.3</ele><time>1970-01-01T01:59:02.000Z</time></trkpt><trkpt lat="14.713139" lon="101.209231"><ele>218.8</ele><time>1970-01-01T01:59:03.000Z</time></trkpt><trkpt lat="14.713147" lon="101.209293"><ele>219.1</ele><time>1970-01-01T01:59:04.000Z</time></trkpt><trkpt lat="14.713169" lon="101.209328"><ele>219.2</ele><time>1970-01-01T01:59:05.000Z</time></trkpt><trkpt lat="14.71319" lon="101.209375"><ele>219.3</ele><time>1970-01-01T01:59:06.000Z</time></trkpt><trkpt lat="14.713189" lon="101.209415"><ele>219.4</ele><time>1970-01-01T01:59:07.000Z</time></trkpt><trkpt lat="14.713196" lon="101.209493"><ele>219.8</ele><time>1970-01-01T01:59:08.000Z</time></trkpt><trkpt lat="14.713184" lon="101.209584"><ele>220</ele><time>1970-01-01T01:59:09.000Z</time></trkpt><trkpt lat="14.713189" lon="101.209612"><ele>220</ele><time>1970-01-01T01:59:10.000Z</time></trkpt><trkpt lat="14.713188" lon="101.209651"><ele>219.9</ele><time>1970-01-01T01:59:11.000Z</time></trkpt><trkpt lat="14.713191" lon="101.209692"><ele>219.7</ele><time>1970-01-01T01:59:12.000Z</time></trkpt><trkpt lat="14.713167" lon="101.209769"><ele>218.8</ele><time>1970-01-01T01:59:13.000Z</time></trkpt><trkpt lat="14.71317" lon="101.209813"><ele>217.9</ele><time>1970-01-01T01:59:14.000Z</time></trkpt><trkpt lat="14.713173" lon="101.209875"><ele>217</ele><time>1970-01-01T01:59:15.000Z</time></trkpt><trkpt lat="14.713186" lon="101.209928"><ele>216.2</ele><time>1970-01-01T01:59:16.000Z</time></trkpt><trkpt lat="14.713199" lon="101.209988"><ele>214.9</ele><time>1970-01-01T01:59:17.000Z</time></trkpt><trkpt lat="14.713223" lon="101.210034"><ele>214.5</ele><time>1970-01-01T01:59:18.000Z</time></trkpt><trkpt lat="14.713249" lon="101.210073"><ele>214.2</ele><time>1970-01-01T01:59:19.000Z</time></trkpt><trkpt lat="14.71329" lon="101.210092"><ele>214.1</ele><time>1970-01-01T01:59:20.000Z</time></trkpt><trkpt lat="14.713327" lon="101.210106"><ele>214.1</ele><time>1970-01-01T01:59:21.000Z</time></trkpt><trkpt lat="14.713369" lon="101.210127"><ele>214.1</ele><time>1970-01-01T01:59:22.000Z</time></trkpt><trkpt lat="14.713413" lon="101.210136"><ele>214.4</ele><time>1970-01-01T01:59:23.000Z</time></trkpt><trkpt lat="14.713478" lon="101.210042"><ele>215.2</ele><time>1970-01-01T01:59:24.000Z</time></trkpt><trkpt lat="14.713501" lon="101.210073"><ele>215.4</ele><time>1970-01-01T01:59:25.000Z</time></trkpt><trkpt lat="14.71353" lon="101.210088"><ele>215.6</ele><time>1970-01-01T01:59:26.000Z</time></trkpt><trkpt lat="14.713556" lon="101.210103"><ele>215.8</ele><time>1970-01-01T01:59:27.000Z</time></trkpt><trkpt lat="14.71359" lon="101.2101"><ele>216</ele><time>1970-01-01T01:59:28.000Z</time></trkpt><trkpt lat="14.713634" lon="101.210086"><ele>216.2</ele><time>1970-01-01T01:59:29.000Z</time></trkpt><trkpt lat="14.713668" lon="101.210084"><ele>216.3</ele><time>1970-01-01T01:59:30.000Z</time></trkpt><trkpt lat="14.713707" lon="101.210096"><ele>216.5</ele><time>1970-01-01T01:59:31.000Z</time></trkpt><trkpt lat="14.713758" lon="101.210093"><ele>216.4</ele><time>1970-01-01T01:59:32.000Z</time></trkpt><trkpt lat="14.713793" lon="101.210086"><ele>216.4</ele><time>1970-01-01T01:59:33.000Z</time></trkpt><trkpt lat="14.713825" lon="101.210069"><ele>216.3</ele><time>1970-01-01T01:59:34.000Z</time></trkpt><trkpt lat="14.713856" lon="101.210049"><ele>216.3</ele><time>1970-01-01T01:59:35.000Z</time></trkpt><trkpt lat="14.713883" lon="101.210024"><ele>216.3</ele><time>1970-01-01T01:59:36.000Z</time></trkpt><trkpt lat="14.713907" lon="101.209989"><ele>216.6</ele><time>1970-01-01T01:59:37.000Z</time></trkpt><trkpt lat="14.713932" lon="101.209956"><ele>217</ele><time>1970-01-01T01:59:38.000Z</time></trkpt><trkpt lat="14.713956" lon="101.209922"><ele>217.3</ele><time>1970-01-01T01:59:39.000Z</time></trkpt><trkpt lat="14.713983" lon="101.209887"><ele>217.5</ele><time>1970-01-01T01:59:40.000Z</time></trkpt><trkpt lat="14.714009" lon="101.209855"><ele>217.8</ele><time>1970-01-01T01:59:41.000Z</time></trkpt><trkpt lat="14.714036" lon="101.209827"><ele>218</ele><time>1970-01-01T01:59:42.000Z</time></trkpt><trkpt lat="14.714067" lon="101.209805"><ele>218.3</ele><time>1970-01-01T01:59:43.000Z</time></trkpt><trkpt lat="14.714103" lon="101.209785"><ele>218.6</ele><time>1970-01-01T01:59:44.000Z</time></trkpt><trkpt lat="14.714139" lon="101.209765"><ele>218.7</ele><time>1970-01-01T01:59:45.000Z</time></trkpt><trkpt lat="14.714175" lon="101.20975"><ele>219</ele><time>1970-01-01T01:59:46.000Z</time></trkpt><trkpt lat="14.714215" lon="101.209736"><ele>219.4</ele><time>1970-01-01T01:59:47.000Z</time></trkpt><trkpt lat="14.714259" lon="101.209725"><ele>220.1</ele><time>1970-01-01T01:59:48.000Z</time></trkpt><trkpt lat="14.714322" lon="101.209754"><ele>220.8</ele><time>1970-01-01T01:59:49.000Z</time></trkpt><trkpt lat="14.714357" lon="101.209744"><ele>221</ele><time>1970-01-01T01:59:50.000Z</time></trkpt><trkpt lat="14.714396" lon="101.209765"><ele>221</ele><time>1970-01-01T01:59:51.000Z</time></trkpt><trkpt lat="14.714425" lon="101.209801"><ele>220.9</ele><time>1970-01-01T01:59:52.000Z</time></trkpt><trkpt lat="14.714464" lon="101.209829"><ele>220.6</ele><time>1970-01-01T01:59:53.000Z</time></trkpt><trkpt lat="14.714484" lon="101.209874"><ele>220.3</ele><time>1970-01-01T01:59:54.000Z</time></trkpt><trkpt lat="14.714528" lon="101.209877"><ele>220.2</ele><time>1970-01-01T01:59:55.000Z</time></trkpt><trkpt lat="14.71458" lon="101.209913"><ele>219.7</ele><time>1970-01-01T01:59:56.000Z</time></trkpt><trkpt lat="14.714619" lon="101.209943"><ele>219.3</ele><time>1970-01-01T01:59:57.000Z</time></trkpt><trkpt lat="14.714662" lon="101.209969"><ele>219</ele><time>1970-01-01T01:59:58.000Z</time></trkpt><trkpt lat="14.714725" lon="101.209974"><ele>218.5</ele><time>1970-01-01T01:59:59.000Z</time></trkpt><trkpt lat="14.714768" lon="101.210004"><ele>218</ele><time>1970-01-01T02:00:00.000Z</time></trkpt><trkpt lat="14.714819" lon="101.210027"><ele>217.6</ele><time>1970-01-01T02:00:01.000Z</time></trkpt><trkpt lat="14.714876" lon="101.210046"><ele>217.3</ele><time>1970-01-01T02:00:02.000Z</time></trkpt><trkpt lat="14.714923" lon="101.210065"><ele>217.1</ele><time>1970-01-01T02:00:03.000Z</time></trkpt><trkpt lat="14.714972" lon="101.210095"><ele>217.3</ele><time>1970-01-01T02:00:04.000Z</time></trkpt><trkpt lat="14.715008" lon="101.210129"><ele>217.7</ele><time>1970-01-01T02:00:05.000Z</time></trkpt><trkpt lat="14.715047" lon="101.210151"><ele>218.2</ele><time>1970-01-01T02:00:06.000Z</time></trkpt><trkpt lat="14.715091" lon="101.210179"><ele>218.8</ele><time>1970-01-01T02:00:07.000Z</time></trkpt><trkpt lat="14.715131" lon="101.210187"><ele>218.8</ele><time>1970-01-01T02:00:08.000Z</time></trkpt><trkpt lat="14.715166" lon="101.210193"><ele>218.8</ele><time>1970-01-01T02:00:09.000Z</time></trkpt><trkpt lat="14.715209" lon="101.210193"><ele>218.7</ele><time>1970-01-01T02:00:11.000Z</time></trkpt><trkpt lat="14.71521" lon="101.210222"><ele>218.2</ele><time>1970-01-01T02:00:14.000Z</time></trkpt><trkpt lat="14.715221" lon="101.210248"><ele>217.7</ele><time>1970-01-01T02:00:25.000Z</time></trkpt><trkpt lat="14.715223" lon="101.210283"><ele>217</ele><time>1970-01-01T02:00:28.000Z</time></trkpt><trkpt lat="14.715224" lon="101.210343"><ele>215.9</ele><time>1970-01-01T02:00:30.000Z</time></trkpt><trkpt lat="14.715227" lon="101.21038"><ele>215.3</ele><time>1970-01-01T02:00:31.000Z</time></trkpt><trkpt lat="14.715232" lon="101.210412"><ele>215</ele><time>1970-01-01T02:00:32.000Z</time></trkpt><trkpt lat="14.715238" lon="101.210443"><ele>214.7</ele><time>1970-01-01T02:00:33.000Z</time></trkpt><trkpt lat="14.715246" lon="101.210474"><ele>214.4</ele><time>1970-01-01T02:00:34.000Z</time></trkpt><trkpt lat="14.715253" lon="101.210502"><ele>213.9</ele><time>1970-01-01T02:00:35.000Z</time></trkpt><trkpt lat="14.715253" lon="101.210534"><ele>213.3</ele><time>1970-01-01T02:00:37.000Z</time></trkpt><trkpt lat="14.71526" lon="101.210504"><ele>212.8</ele><time>1970-01-01T02:00:40.000Z</time></trkpt><trkpt lat="14.715259" lon="101.210472"><ele>212.2</ele><time>1970-01-01T02:00:49.000Z</time></trkpt><trkpt lat="14.715237" lon="101.210448"><ele>211.7</ele><time>1970-01-01T02:00:51.000Z</time></trkpt><trkpt lat="14.715202" lon="101.210437"><ele>211.3</ele><time>1970-01-01T02:00:53.000Z</time></trkpt><trkpt lat="14.715167" lon="101.210464"><ele>210.8</ele><time>1970-01-01T02:00:55.000Z</time></trkpt><trkpt lat="14.71514" lon="101.210519"><ele>209.6</ele><time>1970-01-01T02:00:57.000Z</time></trkpt><trkpt lat="14.715128" lon="101.210562"><ele>209.1</ele><time>1970-01-01T02:00:58.000Z</time></trkpt><trkpt lat="14.715119" lon="101.210611"><ele>208.6</ele><time>1970-01-01T02:00:59.000Z</time></trkpt><trkpt lat="14.715111" lon="101.210662"><ele>208.4</ele><time>1970-01-01T02:01:00.000Z</time></trkpt><trkpt lat="14.715129" lon="101.210767"><ele>208.1</ele><time>1970-01-01T02:01:01.000Z</time></trkpt><trkpt lat="14.715142" lon="101.210818"><ele>207.9</ele><time>1970-01-01T02:01:02.000Z</time></trkpt><trkpt lat="14.715142" lon="101.210891"><ele>208.1</ele><time>1970-01-01T02:01:03.000Z</time></trkpt><trkpt lat="14.715151" lon="101.210946"><ele>208.2</ele><time>1970-01-01T02:01:04.000Z</time></trkpt><trkpt lat="14.715161" lon="101.210998"><ele>208.2</ele><time>1970-01-01T02:01:05.000Z</time></trkpt><trkpt lat="14.715171" lon="101.211036"><ele>208.2</ele><time>1970-01-01T02:01:06.000Z</time></trkpt><trkpt lat="14.715169" lon="101.2111"><ele>208.1</ele><time>1970-01-01T02:01:07.000Z</time></trkpt><trkpt lat="14.715178" lon="101.211162"><ele>208</ele><time>1970-01-01T02:01:08.000Z</time></trkpt><trkpt lat="14.715187" lon="101.211227"><ele>207.9</ele><time>1970-01-01T02:01:09.000Z</time></trkpt><trkpt lat="14.715203" lon="101.211292"><ele>207.7</ele><time>1970-01-01T02:01:10.000Z</time></trkpt><trkpt lat="14.715213" lon="101.211341"><ele>207.7</ele><time>1970-01-01T02:01:11.000Z</time></trkpt><trkpt lat="14.715216" lon="101.211416"><ele>207.7</ele><time>1970-01-01T02:01:12.000Z</time></trkpt><trkpt lat="14.715236" lon="101.211468"><ele>207.8</ele><time>1970-01-01T02:01:13.000Z</time></trkpt><trkpt lat="14.715245" lon="101.211537"><ele>207.8</ele><time>1970-01-01T02:01:14.000Z</time></trkpt><trkpt lat="14.715263" lon="101.211586"><ele>207.7</ele><time>1970-01-01T02:01:15.000Z</time></trkpt><trkpt lat="14.715273" lon="101.211654"><ele>207.8</ele><time>1970-01-01T02:01:16.000Z</time></trkpt><trkpt lat="14.715277" lon="101.211723"><ele>207.9</ele><time>1970-01-01T02:01:17.000Z</time></trkpt><trkpt lat="14.715296" lon="101.211752"><ele>208.1</ele><time>1970-01-01T02:01:18.000Z</time></trkpt><trkpt lat="14.715307" lon="101.211783"><ele>208.3</ele><time>1970-01-01T02:01:19.000Z</time></trkpt><trkpt lat="14.715306" lon="101.211828"><ele>208.2</ele><time>1970-01-01T02:01:20.000Z</time></trkpt><trkpt lat="14.715314" lon="101.211887"><ele>208</ele><time>1970-01-01T02:01:21.000Z</time></trkpt><trkpt lat="14.715321" lon="101.211916"><ele>207.9</ele><time>1970-01-01T02:01:22.000Z</time></trkpt><trkpt lat="14.715328" lon="101.211977"><ele>207.6</ele><time>1970-01-01T02:01:24.000Z</time></trkpt><trkpt lat="14.715344" lon="101.212029"><ele>207.6</ele><time>1970-01-01T02:01:26.000Z</time></trkpt><trkpt lat="14.715348" lon="101.212062"><ele>207.7</ele><time>1970-01-01T02:01:28.000Z</time></trkpt><trkpt lat="14.715366" lon="101.212084"><ele>207.8</ele><time>1970-01-01T02:01:30.000Z</time></trkpt><trkpt lat="14.715391" lon="101.212116"><ele>207.7</ele><time>1970-01-01T02:01:32.000Z</time></trkpt><trkpt lat="14.715431" lon="101.212152"><ele>207.6</ele><time>1970-01-01T02:01:34.000Z</time></trkpt><trkpt lat="14.715454" lon="101.212173"><ele>207.4</ele><time>1970-01-01T02:01:35.000Z</time></trkpt><trkpt lat="14.715476" lon="101.212192"><ele>207.2</ele><time>1970-01-01T02:01:36.000Z</time></trkpt><trkpt lat="14.715497" lon="101.212213"><ele>207</ele><time>1970-01-01T02:01:37.000Z</time></trkpt><trkpt lat="14.715515" lon="101.212239"><ele>206.9</ele><time>1970-01-01T02:01:38.000Z</time></trkpt><trkpt lat="14.715531" lon="101.212271"><ele>206.7</ele><time>1970-01-01T02:01:39.000Z</time></trkpt><trkpt lat="14.715547" lon="101.2123"><ele>206.5</ele><time>1970-01-01T02:01:40.000Z</time></trkpt><trkpt lat="14.715567" lon="101.21232"><ele>206.2</ele><time>1970-01-01T02:01:41.000Z</time></trkpt><trkpt lat="14.715585" lon="101.212344"><ele>205.9</ele><time>1970-01-01T02:01:42.000Z</time></trkpt><trkpt lat="14.715602" lon="101.212368"><ele>205.7</ele><time>1970-01-01T02:01:43.000Z</time></trkpt><trkpt lat="14.715612" lon="101.212405"><ele>205.3</ele><time>1970-01-01T02:01:44.000Z</time></trkpt><trkpt lat="14.715621" lon="101.21244"><ele>204.9</ele><time>1970-01-01T02:01:45.000Z</time></trkpt><trkpt lat="14.715628" lon="101.21248"><ele>204.8</ele><time>1970-01-01T02:01:46.000Z</time></trkpt><trkpt lat="14.715634" lon="101.212526"><ele>204.8</ele><time>1970-01-01T02:01:47.000Z</time></trkpt><trkpt lat="14.715647" lon="101.212562"><ele>204.7</ele><time>1970-01-01T02:01:48.000Z</time></trkpt><trkpt lat="14.715666" lon="101.212587"><ele>204.7</ele><time>1970-01-01T02:01:49.000Z</time></trkpt><trkpt lat="14.71569" lon="101.212603"><ele>204.7</ele><time>1970-01-01T02:01:50.000Z</time></trkpt><trkpt lat="14.71574" lon="101.212615"><ele>204.8</ele><time>1970-01-01T02:01:52.000Z</time></trkpt><trkpt lat="14.715783" lon="101.212628"><ele>204.9</ele><time>1970-01-01T02:01:54.000Z</time></trkpt><trkpt lat="14.715821" lon="101.212642"><ele>205.1</ele><time>1970-01-01T02:01:56.000Z</time></trkpt><trkpt lat="14.715856" lon="101.212678"><ele>205.6</ele><time>1970-01-01T02:01:58.000Z</time></trkpt><trkpt lat="14.715877" lon="101.212696"><ele>205.9</ele><time>1970-01-01T02:01:59.000Z</time></trkpt><trkpt lat="14.71591" lon="101.21274"><ele>206.2</ele><time>1970-01-01T02:02:01.000Z</time></trkpt><trkpt lat="14.715921" lon="101.212766"><ele>206.3</ele><time>1970-01-01T02:02:02.000Z</time></trkpt><trkpt lat="14.715934" lon="101.212805"><ele>206.5</ele><time>1970-01-01T02:02:04.000Z</time></trkpt><trkpt lat="14.715962" lon="101.212793"><ele>206.5</ele><time>1970-01-01T02:02:07.000Z</time></trkpt><trkpt lat="14.715986" lon="101.212778"><ele>206.5</ele><time>1970-01-01T02:02:10.000Z</time></trkpt><trkpt lat="14.716027" lon="101.212836"><ele>206.7</ele><time>1970-01-01T02:02:41.000Z</time></trkpt><trkpt lat="14.716055" lon="101.212855"><ele>207</ele><time>1970-01-01T02:02:43.000Z</time></trkpt><trkpt lat="14.716075" lon="101.212898"><ele>207.4</ele><time>1970-01-01T02:02:45.000Z</time></trkpt><trkpt lat="14.716088" lon="101.21295"><ele>207.3</ele><time>1970-01-01T02:02:47.000Z</time></trkpt><trkpt lat="14.716097" lon="101.212998"><ele>207.5</ele><time>1970-01-01T02:02:49.000Z</time></trkpt><trkpt lat="14.716115" lon="101.213027"><ele>207.8</ele><time>1970-01-01T02:02:52.000Z</time></trkpt><trkpt lat="14.716136" lon="101.212977"><ele>208.1</ele><time>1970-01-01T02:02:54.000Z</time></trkpt><trkpt lat="14.716148" lon="101.212933"><ele>208.1</ele><time>1970-01-01T02:02:55.000Z</time></trkpt><trkpt lat="14.716152" lon="101.212898"><ele>208.1</ele><time>1970-01-01T02:02:56.000Z</time></trkpt><trkpt lat="14.716156" lon="101.212862"><ele>208.3</ele><time>1970-01-01T02:02:57.000Z</time></trkpt><trkpt lat="14.716159" lon="101.212825"><ele>208.6</ele><time>1970-01-01T02:02:58.000Z</time></trkpt><trkpt lat="14.716162" lon="101.212792"><ele>209</ele><time>1970-01-01T02:02:59.000Z</time></trkpt><trkpt lat="14.716163" lon="101.212762"><ele>209.5</ele><time>1970-01-01T02:03:00.000Z</time></trkpt><trkpt lat="14.716168" lon="101.21273"><ele>210</ele><time>1970-01-01T02:03:01.000Z</time></trkpt><trkpt lat="14.716172" lon="101.2127"><ele>210.1</ele><time>1970-01-01T02:03:02.000Z</time></trkpt><trkpt lat="14.716178" lon="101.21267"><ele>210</ele><time>1970-01-01T02:03:03.000Z</time></trkpt><trkpt lat="14.716183" lon="101.212636"><ele>209.8</ele><time>1970-01-01T02:03:04.000Z</time></trkpt><trkpt lat="14.716186" lon="101.212597"><ele>209.5</ele><time>1970-01-01T02:03:05.000Z</time></trkpt><trkpt lat="14.71619" lon="101.212552"><ele>209</ele><time>1970-01-01T02:03:06.000Z</time></trkpt><trkpt lat="14.716194" lon="101.212509"><ele>208.8</ele><time>1970-01-01T02:03:07.000Z</time></trkpt><trkpt lat="14.716197" lon="101.21247"><ele>208.8</ele><time>1970-01-01T02:03:08.000Z</time></trkpt><trkpt lat="14.716197" lon="101.212436"><ele>208.8</ele><time>1970-01-01T02:03:09.000Z</time></trkpt><trkpt lat="14.716194" lon="101.212398"><ele>208.7</ele><time>1970-01-01T02:03:10.000Z</time></trkpt><trkpt lat="14.716185" lon="101.212362"><ele>208.6</ele><time>1970-01-01T02:03:11.000Z</time></trkpt><trkpt lat="14.716172" lon="101.21233"><ele>208.5</ele><time>1970-01-01T02:03:12.000Z</time></trkpt><trkpt lat="14.716157" lon="101.212298"><ele>208.5</ele><time>1970-01-01T02:03:13.000Z</time></trkpt><trkpt lat="14.716141" lon="101.21225"><ele>208.6</ele><time>1970-01-01T02:03:15.000Z</time></trkpt><trkpt lat="14.716135" lon="101.212219"><ele>208.8</ele><time>1970-01-01T02:03:16.000Z</time></trkpt><trkpt lat="14.716128" lon="101.212181"><ele>209</ele><time>1970-01-01T02:03:17.000Z</time></trkpt><trkpt lat="14.716116" lon="101.212147"><ele>209.1</ele><time>1970-01-01T02:03:18.000Z</time></trkpt><trkpt lat="14.716103" lon="101.212112"><ele>209.1</ele><time>1970-01-01T02:03:19.000Z</time></trkpt><trkpt lat="14.716089" lon="101.212079"><ele>209.3</ele><time>1970-01-01T02:03:20.000Z</time></trkpt><trkpt lat="14.716076" lon="101.212046"><ele>209.6</ele><time>1970-01-01T02:03:21.000Z</time></trkpt><trkpt lat="14.716062" lon="101.212014"><ele>209.9</ele><time>1970-01-01T02:03:22.000Z</time></trkpt><trkpt lat="14.71605" lon="101.211985"><ele>210</ele><time>1970-01-01T02:03:23.000Z</time></trkpt><trkpt lat="14.716037" lon="101.211959"><ele>210.1</ele><time>1970-01-01T02:03:24.000Z</time></trkpt><trkpt lat="14.716023" lon="101.211935"><ele>210.1</ele><time>1970-01-01T02:03:25.000Z</time></trkpt><trkpt lat="14.716007" lon="101.211911"><ele>210.5</ele><time>1970-01-01T02:03:26.000Z</time></trkpt><trkpt lat="14.715987" lon="101.211887"><ele>210.9</ele><time>1970-01-01T02:03:27.000Z</time></trkpt><trkpt lat="14.715968" lon="101.211862"><ele>211.3</ele><time>1970-01-01T02:03:28.000Z</time></trkpt><trkpt lat="14.71595" lon="101.211833"><ele>211.6</ele><time>1970-01-01T02:03:29.000Z</time></trkpt><trkpt lat="14.715933" lon="101.211798"><ele>211.8</ele><time>1970-01-01T02:03:30.000Z</time></trkpt><trkpt lat="14.715915" lon="101.211761"><ele>212.1</ele><time>1970-01-01T02:03:31.000Z</time></trkpt><trkpt lat="14.715897" lon="101.211724"><ele>212.3</ele><time>1970-01-01T02:03:32.000Z</time></trkpt><trkpt lat="14.71588" lon="101.211694"><ele>212.5</ele><time>1970-01-01T02:03:33.000Z</time></trkpt><trkpt lat="14.715864" lon="101.211664"><ele>212.4</ele><time>1970-01-01T02:03:34.000Z</time></trkpt><trkpt lat="14.715851" lon="101.21164"><ele>212.4</ele><time>1970-01-01T02:03:35.000Z</time></trkpt><trkpt lat="14.715841" lon="101.211612"><ele>212.4</ele><time>1970-01-01T02:03:36.000Z</time></trkpt><trkpt lat="14.715835" lon="101.211578"><ele>212.4</ele><time>1970-01-01T02:03:37.000Z</time></trkpt><trkpt lat="14.715827" lon="101.211514"><ele>212.3</ele><time>1970-01-01T02:03:39.000Z</time></trkpt><trkpt lat="14.715823" lon="101.211472"><ele>212.1</ele><time>1970-01-01T02:03:40.000Z</time></trkpt><trkpt lat="14.715816" lon="101.211435"><ele>212</ele><time>1970-01-01T02:03:41.000Z</time></trkpt><trkpt lat="14.715807" lon="101.211394"><ele>212.1</ele><time>1970-01-01T02:03:43.000Z</time></trkpt><trkpt lat="14.715791" lon="101.211346"><ele>212.4</ele><time>1970-01-01T02:03:48.000Z</time></trkpt><trkpt lat="14.715781" lon="101.211299"><ele>213</ele><time>1970-01-01T02:03:50.000Z</time></trkpt><trkpt lat="14.715777" lon="101.211271"><ele>213.4</ele><time>1970-01-01T02:03:51.000Z</time></trkpt><trkpt lat="14.715772" lon="101.211221"><ele>213.8</ele><time>1970-01-01T02:03:53.000Z</time></trkpt><trkpt lat="14.715775" lon="101.211191"><ele>214</ele><time>1970-01-01T02:03:55.000Z</time></trkpt><trkpt lat="14.715781" lon="101.211156"><ele>214.2</ele><time>1970-01-01T02:03:57.000Z</time></trkpt><trkpt lat="14.715777" lon="101.211124"><ele>214.3</ele><time>1970-01-01T02:03:59.000Z</time></trkpt><trkpt lat="14.71576" lon="101.211084"><ele>214.4</ele><time>1970-01-01T02:04:01.000Z</time></trkpt><trkpt lat="14.715741" lon="101.21106"><ele>214.7</ele><time>1970-01-01T02:04:02.000Z</time></trkpt><trkpt lat="14.715712" lon="101.211036"><ele>215</ele><time>1970-01-01T02:04:03.000Z</time></trkpt><trkpt lat="14.715682" lon="101.211012"><ele>215.1</ele><time>1970-01-01T02:04:04.000Z</time></trkpt><trkpt lat="14.715653" lon="101.210981"><ele>214.8</ele><time>1970-01-01T02:04:05.000Z</time></trkpt><trkpt lat="14.715628" lon="101.210938"><ele>214.5</ele><time>1970-01-01T02:04:06.000Z</time></trkpt><trkpt lat="14.715604" lon="101.210893"><ele>214.1</ele><time>1970-01-01T02:04:07.000Z</time></trkpt><trkpt lat="14.71558" lon="101.210847"><ele>213.7</ele><time>1970-01-01T02:04:08.000Z</time></trkpt><trkpt lat="14.715553" lon="101.210803"><ele>213.2</ele><time>1970-01-01T02:04:09.000Z</time></trkpt><trkpt lat="14.715522" lon="101.210757"><ele>213.1</ele><time>1970-01-01T02:04:10.000Z</time></trkpt><trkpt lat="14.715493" lon="101.210719"><ele>213</ele><time>1970-01-01T02:04:11.000Z</time></trkpt><trkpt lat="14.715467" lon="101.210689"><ele>212.9</ele><time>1970-01-01T02:04:12.000Z</time></trkpt><trkpt lat="14.715442" lon="101.210656"><ele>213.1</ele><time>1970-01-01T02:04:13.000Z</time></trkpt><trkpt lat="14.715417" lon="101.210618"><ele>213.6</ele><time>1970-01-01T02:04:14.000Z</time></trkpt><trkpt lat="14.715395" lon="101.21058"><ele>214.2</ele><time>1970-01-01T02:04:15.000Z</time></trkpt><trkpt lat="14.715375" lon="101.210545"><ele>214.7</ele><time>1970-01-01T02:04:16.000Z</time></trkpt><trkpt lat="14.715358" lon="101.21051"><ele>214.9</ele><time>1970-01-01T02:04:17.000Z</time></trkpt><trkpt lat="14.715344" lon="101.210478"><ele>215</ele><time>1970-01-01T02:04:18.000Z</time></trkpt><trkpt lat="14.71533" lon="101.210448"><ele>215</ele><time>1970-01-01T02:04:19.000Z</time></trkpt><trkpt lat="14.715314" lon="101.210424"><ele>215</ele><time>1970-01-01T02:04:20.000Z</time></trkpt><trkpt lat="14.715283" lon="101.21039"><ele>215</ele><time>1970-01-01T02:04:22.000Z</time></trkpt><trkpt lat="14.715252" lon="101.210367"><ele>215.5</ele><time>1970-01-01T02:04:24.000Z</time></trkpt><trkpt lat="14.715229" lon="101.21035"><ele>215.9</ele><time>1970-01-01T02:04:26.000Z</time></trkpt><trkpt lat="14.715228" lon="101.210378"><ele>216.3</ele><time>1970-01-01T02:04:30.000Z</time></trkpt><trkpt lat="14.715246" lon="101.21034"><ele>216.8</ele><time>1970-01-01T02:04:41.000Z</time></trkpt><trkpt lat="14.715246" lon="101.210289"><ele>217.5</ele><time>1970-01-01T02:04:43.000Z</time></trkpt><trkpt lat="14.715247" lon="101.210228"><ele>218.3</ele><time>1970-01-01T02:04:45.000Z</time></trkpt><trkpt lat="14.715249" lon="101.210193"><ele>218.7</ele><time>1970-01-01T02:04:46.000Z</time></trkpt><trkpt lat="14.715252" lon="101.210155"><ele>219</ele><time>1970-01-01T02:04:47.000Z</time></trkpt><trkpt lat="14.715259" lon="101.210119"><ele>219.1</ele><time>1970-01-01T02:04:48.000Z</time></trkpt><trkpt lat="14.715266" lon="101.21009"><ele>219.3</ele><time>1970-01-01T02:04:49.000Z</time></trkpt><trkpt lat="14.715273" lon="101.210037"><ele>219.6</ele><time>1970-01-01T02:04:51.000Z</time></trkpt><trkpt lat="14.715272" lon="101.210009"><ele>219.9</ele><time>1970-01-01T02:04:52.000Z</time></trkpt><trkpt lat="14.715273" lon="101.209981"><ele>220.1</ele><time>1970-01-01T02:04:53.000Z</time></trkpt><trkpt lat="14.715272" lon="101.209934"><ele>220.5</ele><time>1970-01-01T02:04:55.000Z</time></trkpt><trkpt lat="14.71526" lon="101.209978"><ele>220.9</ele><time>1970-01-01T02:05:02.000Z</time></trkpt><trkpt lat="14.715257" lon="101.210008"><ele>221.2</ele><time>1970-01-01T02:05:08.000Z</time></trkpt><trkpt lat="14.715257" lon="101.210061"><ele>221.6</ele><time>1970-01-01T02:05:19.000Z</time></trkpt><trkpt lat="14.715249" lon="101.210091"><ele>221.9</ele><time>1970-01-01T02:05:20.000Z</time></trkpt><trkpt lat="14.715246" lon="101.210121"><ele>222.2</ele><time>1970-01-01T02:05:21.000Z</time></trkpt><trkpt lat="14.715252" lon="101.210162"><ele>222.6</ele><time>1970-01-01T02:05:23.000Z</time></trkpt><trkpt lat="14.715265" lon="101.210123"><ele>223</ele><time>1970-01-01T02:05:26.000Z</time></trkpt><trkpt lat="14.715263" lon="101.210069"><ele>223.2</ele><time>1970-01-01T02:05:28.000Z</time></trkpt><trkpt lat="14.715261" lon="101.210039"><ele>223.2</ele><time>1970-01-01T02:05:29.000Z</time></trkpt><trkpt lat="14.715257" lon="101.210008"><ele>223.3</ele><time>1970-01-01T02:05:30.000Z</time></trkpt><trkpt lat="14.715253" lon="101.209977"><ele>223.4</ele><time>1970-01-01T02:05:31.000Z</time></trkpt><trkpt lat="14.715248" lon="101.209946"><ele>223.6</ele><time>1970-01-01T02:05:32.000Z</time></trkpt><trkpt lat="14.715243" lon="101.209911"><ele>223.8</ele><time>1970-01-01T02:05:33.000Z</time></trkpt><trkpt lat="14.715234" lon="101.209881"><ele>224</ele><time>1970-01-01T02:05:34.000Z</time></trkpt><trkpt lat="14.715209" lon="101.209836"><ele>224.5</ele><time>1970-01-01T02:05:36.000Z</time></trkpt><trkpt lat="14.715178" lon="101.209792"><ele>225.1</ele><time>1970-01-01T02:05:38.000Z</time></trkpt><trkpt lat="14.715145" lon="101.209751"><ele>225.8</ele><time>1970-01-01T02:05:40.000Z</time></trkpt><trkpt lat="14.715125" lon="101.209726"><ele>226.1</ele><time>1970-01-01T02:05:41.000Z</time></trkpt><trkpt lat="14.715106" lon="101.209702"><ele>226.3</ele><time>1970-01-01T02:05:42.000Z</time></trkpt><trkpt lat="14.715091" lon="101.209675"><ele>226.5</ele><time>1970-01-01T02:05:43.000Z</time></trkpt><trkpt lat="14.715078" lon="101.209648"><ele>226.6</ele><time>1970-01-01T02:05:44.000Z</time></trkpt><trkpt lat="14.715057" lon="101.209615"><ele>226.8</ele><time>1970-01-01T02:05:46.000Z</time></trkpt><trkpt lat="14.715033" lon="101.209591"><ele>227</ele><time>1970-01-01T02:05:48.000Z</time></trkpt><trkpt lat="14.71501" lon="101.209556"><ele>227.2</ele><time>1970-01-01T02:05:50.000Z</time></trkpt><trkpt lat="14.715001" lon="101.209529"><ele>227.3</ele><time>1970-01-01T02:05:51.000Z</time></trkpt><trkpt lat="14.714992" lon="101.209502"><ele>227.5</ele><time>1970-01-01T02:05:52.000Z</time></trkpt><trkpt lat="14.714982" lon="101.209475"><ele>227.8</ele><time>1970-01-01T02:05:53.000Z</time></trkpt><trkpt lat="14.714972" lon="101.209445"><ele>228.1</ele><time>1970-01-01T02:05:54.000Z</time></trkpt><trkpt lat="14.714963" lon="101.209417"><ele>228.4</ele><time>1970-01-01T02:05:55.000Z</time></trkpt><trkpt lat="14.714948" lon="101.209369"><ele>228.9</ele><time>1970-01-01T02:05:57.000Z</time></trkpt><trkpt lat="14.714946" lon="101.209331"><ele>229.2</ele><time>1970-01-01T02:05:59.000Z</time></trkpt><trkpt lat="14.714949" lon="101.209299"><ele>229.4</ele><time>1970-01-01T02:06:00.000Z</time></trkpt><trkpt lat="14.714958" lon="101.209246"><ele>229.8</ele><time>1970-01-01T02:06:02.000Z</time></trkpt><trkpt lat="14.714964" lon="101.209204"><ele>230.1</ele><time>1970-01-01T02:06:04.000Z</time></trkpt><trkpt lat="14.714974" lon="101.209169"><ele>230.4</ele><time>1970-01-01T02:06:06.000Z</time></trkpt><trkpt lat="14.714991" lon="101.209137"><ele>230.7</ele><time>1970-01-01T02:06:08.000Z</time></trkpt><trkpt lat="14.715013" lon="101.20911"><ele>233.2</ele><time>1970-01-01T02:06:10.000Z</time></trkpt><trkpt lat="14.715043" lon="101.209086"><ele>234.7</ele><time>1970-01-01T02:06:12.000Z</time></trkpt><trkpt lat="14.71508" lon="101.209071"><ele>236.1</ele><time>1970-01-01T02:06:15.000Z</time></trkpt><trkpt lat="14.715115" lon="101.209035"><ele>237.4</ele><time>1970-01-01T02:06:17.000Z</time></trkpt><trkpt lat="14.715131" lon="101.20901"><ele>237.7</ele><time>1970-01-01T02:06:18.000Z</time></trkpt><trkpt lat="14.71516" lon="101.208968"><ele>238.3</ele><time>1970-01-01T02:06:20.000Z</time></trkpt><trkpt lat="14.715184" lon="101.208939"><ele>238.9</ele><time>1970-01-01T02:06:22.000Z</time></trkpt><trkpt lat="14.715207" lon="101.208914"><ele>239.3</ele><time>1970-01-01T02:06:24.000Z</time></trkpt><trkpt lat="14.715246" lon="101.208878"><ele>238.5</ele><time>1970-01-01T02:06:26.000Z</time></trkpt><trkpt lat="14.715271" lon="101.208865"><ele>238.1</ele><time>1970-01-01T02:06:27.000Z</time></trkpt><trkpt lat="14.715297" lon="101.208855"><ele>238.2</ele><time>1970-01-01T02:06:28.000Z</time></trkpt><trkpt lat="14.715324" lon="101.208846"><ele>238.2</ele><time>1970-01-01T02:06:29.000Z</time></trkpt><trkpt lat="14.715355" lon="101.208829"><ele>238.2</ele><time>1970-01-01T02:06:30.000Z</time></trkpt><trkpt lat="14.715385" lon="101.208819"><ele>238</ele><time>1970-01-01T02:06:31.000Z</time></trkpt><trkpt lat="14.71543" lon="101.208824"><ele>237.8</ele><time>1970-01-01T02:06:33.000Z</time></trkpt><trkpt lat="14.715475" lon="101.208838"><ele>237.7</ele><time>1970-01-01T02:06:35.000Z</time></trkpt><trkpt lat="14.715531" lon="101.20884"><ele>237.5</ele><time>1970-01-01T02:06:37.000Z</time></trkpt><trkpt lat="14.715562" lon="101.208836"><ele>237.2</ele><time>1970-01-01T02:06:38.000Z</time></trkpt><trkpt lat="14.715593" lon="101.20883"><ele>236.9</ele><time>1970-01-01T02:06:39.000Z</time></trkpt><trkpt lat="14.715627" lon="101.208818"><ele>236.9</ele><time>1970-01-01T02:06:40.000Z</time></trkpt><trkpt lat="14.715668" lon="101.208798"><ele>236.8</ele><time>1970-01-01T02:06:41.000Z</time></trkpt><trkpt lat="14.715734" lon="101.208732"><ele>236.4</ele><time>1970-01-01T02:06:42.000Z</time></trkpt><trkpt lat="14.715769" lon="101.208691"><ele>236.4</ele><time>1970-01-01T02:06:43.000Z</time></trkpt><trkpt lat="14.715812" lon="101.20862"><ele>236.1</ele><time>1970-01-01T02:06:44.000Z</time></trkpt><trkpt lat="14.715827" lon="101.208572"><ele>236</ele><time>1970-01-01T02:06:45.000Z</time></trkpt><trkpt lat="14.715839" lon="101.208521"><ele>235.9</ele><time>1970-01-01T02:06:46.000Z</time></trkpt><trkpt lat="14.715841" lon="101.208483"><ele>235.8</ele><time>1970-01-01T02:06:47.000Z</time></trkpt><trkpt lat="14.715844" lon="101.208454"><ele>235.6</ele><time>1970-01-01T02:06:48.000Z</time></trkpt><trkpt lat="14.715849" lon="101.208411"><ele>235.4</ele><time>1970-01-01T02:06:50.000Z</time></trkpt><trkpt lat="14.715836" lon="101.208362"><ele>235.1</ele><time>1970-01-01T02:06:51.000Z</time></trkpt><trkpt lat="14.715826" lon="101.208324"><ele>234.8</ele><time>1970-01-01T02:06:52.000Z</time></trkpt><trkpt lat="14.715793" lon="101.208273"><ele>234.3</ele><time>1970-01-01T02:06:54.000Z</time></trkpt><trkpt lat="14.715775" lon="101.208236"><ele>234</ele><time>1970-01-01T02:06:55.000Z</time></trkpt><trkpt lat="14.715762" lon="101.208198"><ele>233.8</ele><time>1970-01-01T02:06:56.000Z</time></trkpt><trkpt lat="14.71575" lon="101.208167"><ele>233.8</ele><time>1970-01-01T02:06:57.000Z</time></trkpt><trkpt lat="14.715725" lon="101.208123"><ele>233.8</ele><time>1970-01-01T02:06:59.000Z</time></trkpt><trkpt lat="14.715708" lon="101.2081"><ele>234.8</ele><time>1970-01-01T02:07:00.000Z</time></trkpt><trkpt lat="14.715689" lon="101.208077"><ele>235.4</ele><time>1970-01-01T02:07:01.000Z</time></trkpt><trkpt lat="14.715671" lon="101.208055"><ele>236.1</ele><time>1970-01-01T02:07:02.000Z</time></trkpt><trkpt lat="14.715653" lon="101.20803"><ele>236.9</ele><time>1970-01-01T02:07:03.000Z</time></trkpt><trkpt lat="14.715635" lon="101.208003"><ele>237.2</ele><time>1970-01-01T02:07:04.000Z</time></trkpt><trkpt lat="14.71562" lon="101.207977"><ele>237.2</ele><time>1970-01-01T02:07:05.000Z</time></trkpt><trkpt lat="14.715606" lon="101.207948"><ele>237.2</ele><time>1970-01-01T02:07:06.000Z</time></trkpt><trkpt lat="14.715591" lon="101.207918"><ele>237.4</ele><time>1970-01-01T02:07:07.000Z</time></trkpt><trkpt lat="14.715576" lon="101.207889"><ele>237.6</ele><time>1970-01-01T02:07:08.000Z</time></trkpt><trkpt lat="14.715559" lon="101.207861"><ele>237.8</ele><time>1970-01-01T02:07:09.000Z</time></trkpt><trkpt lat="14.715541" lon="101.207831"><ele>237.5</ele><time>1970-01-01T02:07:10.000Z</time></trkpt><trkpt lat="14.715522" lon="101.207802"><ele>237.1</ele><time>1970-01-01T02:07:11.000Z</time></trkpt><trkpt lat="14.715504" lon="101.207774"><ele>237.1</ele><time>1970-01-01T02:07:12.000Z</time></trkpt><trkpt lat="14.715487" lon="101.207745"><ele>237.5</ele><time>1970-01-01T02:07:13.000Z</time></trkpt><trkpt lat="14.71547" lon="101.207717"><ele>237.9</ele><time>1970-01-01T02:07:14.000Z</time></trkpt><trkpt lat="14.715455" lon="101.207689"><ele>238.1</ele><time>1970-01-01T02:07:15.000Z</time></trkpt><trkpt lat="14.715442" lon="101.207663"><ele>238.3</ele><time>1970-01-01T02:07:16.000Z</time></trkpt><trkpt lat="14.715428" lon="101.207637"><ele>238.5</ele><time>1970-01-01T02:07:17.000Z</time></trkpt><trkpt lat="14.715402" lon="101.207596"><ele>238.3</ele><time>1970-01-01T02:07:19.000Z</time></trkpt><trkpt lat="14.715372" lon="101.207552"><ele>238.2</ele><time>1970-01-01T02:07:21.000Z</time></trkpt><trkpt lat="14.715356" lon="101.207526"><ele>238.6</ele><time>1970-01-01T02:07:22.000Z</time></trkpt><trkpt lat="14.715342" lon="101.207501"><ele>239</ele><time>1970-01-01T02:07:23.000Z</time></trkpt><trkpt lat="14.715328" lon="101.207477"><ele>239.3</ele><time>1970-01-01T02:07:24.000Z</time></trkpt><trkpt lat="14.715315" lon="101.20745"><ele>239.5</ele><time>1970-01-01T02:07:25.000Z</time></trkpt><trkpt lat="14.7153" lon="101.207421"><ele>239.7</ele><time>1970-01-01T02:07:26.000Z</time></trkpt><trkpt lat="14.715283" lon="101.207392"><ele>239.8</ele><time>1970-01-01T02:07:27.000Z</time></trkpt><trkpt lat="14.715264" lon="101.207362"><ele>239.8</ele><time>1970-01-01T02:07:28.000Z</time></trkpt><trkpt lat="14.715244" lon="101.207333"><ele>239.8</ele><time>1970-01-01T02:07:29.000Z</time></trkpt><trkpt lat="14.715223" lon="101.207302"><ele>240.5</ele><time>1970-01-01T02:07:30.000Z</time></trkpt><trkpt lat="14.715201" lon="101.207271"><ele>241.3</ele><time>1970-01-01T02:07:31.000Z</time></trkpt><trkpt lat="14.715178" lon="101.20724"><ele>241.6</ele><time>1970-01-01T02:07:32.000Z</time></trkpt><trkpt lat="14.715153" lon="101.207207"><ele>241.4</ele><time>1970-01-01T02:07:33.000Z</time></trkpt><trkpt lat="14.715124" lon="101.207172"><ele>241.2</ele><time>1970-01-01T02:07:34.000Z</time></trkpt><trkpt lat="14.715091" lon="101.207133"><ele>241</ele><time>1970-01-01T02:07:35.000Z</time></trkpt><trkpt lat="14.715044" lon="101.207081"><ele>241.9</ele><time>1970-01-01T02:07:36.000Z</time></trkpt><trkpt lat="14.715011" lon="101.207041"><ele>242.5</ele><time>1970-01-01T02:07:37.000Z</time></trkpt><trkpt lat="14.714978" lon="101.206987"><ele>241.8</ele><time>1970-01-01T02:07:38.000Z</time></trkpt><trkpt lat="14.714948" lon="101.20693"><ele>241.8</ele><time>1970-01-01T02:07:39.000Z</time></trkpt><trkpt lat="14.714904" lon="101.206902"><ele>242</ele><time>1970-01-01T02:07:40.000Z</time></trkpt><trkpt lat="14.714855" lon="101.206864"><ele>242.6</ele><time>1970-01-01T02:07:41.000Z</time></trkpt><trkpt lat="14.714817" lon="101.206807"><ele>243.1</ele><time>1970-01-01T02:07:42.000Z</time></trkpt><trkpt lat="14.714785" lon="101.206772"><ele>243.3</ele><time>1970-01-01T02:07:43.000Z</time></trkpt><trkpt lat="14.714752" lon="101.206736"><ele>243.2</ele><time>1970-01-01T02:07:44.000Z</time></trkpt><trkpt lat="14.714712" lon="101.206659"><ele>242.8</ele><time>1970-01-01T02:07:46.000Z</time></trkpt><trkpt lat="14.714686" lon="101.20663"><ele>242.6</ele><time>1970-01-01T02:07:47.000Z</time></trkpt><trkpt lat="14.714658" lon="101.206595"><ele>242.4</ele><time>1970-01-01T02:07:48.000Z</time></trkpt><trkpt lat="14.71464" lon="101.206566"><ele>242.3</ele><time>1970-01-01T02:07:49.000Z</time></trkpt><trkpt lat="14.714622" lon="101.206532"><ele>242.3</ele><time>1970-01-01T02:07:50.000Z</time></trkpt><trkpt lat="14.714604" lon="101.206502"><ele>242.2</ele><time>1970-01-01T02:07:51.000Z</time></trkpt><trkpt lat="14.714575" lon="101.206453"><ele>241.6</ele><time>1970-01-01T02:07:52.000Z</time></trkpt><trkpt lat="14.714551" lon="101.206405"><ele>241.2</ele><time>1970-01-01T02:07:53.000Z</time></trkpt><trkpt lat="14.714524" lon="101.20635"><ele>241.2</ele><time>1970-01-01T02:07:55.000Z</time></trkpt><trkpt lat="14.714509" lon="101.206317"><ele>241.3</ele><time>1970-01-01T02:07:56.000Z</time></trkpt><trkpt lat="14.714495" lon="101.206285"><ele>241.3</ele><time>1970-01-01T02:07:57.000Z</time></trkpt><trkpt lat="14.714481" lon="101.206252"><ele>241.3</ele><time>1970-01-01T02:07:58.000Z</time></trkpt><trkpt lat="14.714469" lon="101.20622"><ele>241.3</ele><time>1970-01-01T02:07:59.000Z</time></trkpt><trkpt lat="14.714461" lon="101.20619"><ele>241.3</ele><time>1970-01-01T02:08:00.000Z</time></trkpt><trkpt lat="14.714452" lon="101.206161"><ele>241.3</ele><time>1970-01-01T02:08:01.000Z</time></trkpt><trkpt lat="14.714442" lon="101.206134"><ele>241.3</ele><time>1970-01-01T02:08:02.000Z</time></trkpt><trkpt lat="14.714431" lon="101.206107"><ele>241.3</ele><time>1970-01-01T02:08:03.000Z</time></trkpt><trkpt lat="14.714409" lon="101.206064"><ele>240.8</ele><time>1970-01-01T02:08:05.000Z</time></trkpt><trkpt lat="14.714387" lon="101.206006"><ele>240.4</ele><time>1970-01-01T02:08:07.000Z</time></trkpt><trkpt lat="14.714377" lon="101.205974"><ele>240.3</ele><time>1970-01-01T02:08:08.000Z</time></trkpt><trkpt lat="14.714368" lon="101.205944"><ele>240.2</ele><time>1970-01-01T02:08:09.000Z</time></trkpt><trkpt lat="14.714358" lon="101.205913"><ele>239.9</ele><time>1970-01-01T02:08:10.000Z</time></trkpt><trkpt lat="14.714347" lon="101.205881"><ele>239.6</ele><time>1970-01-01T02:08:11.000Z</time></trkpt><trkpt lat="14.714335" lon="101.20585"><ele>239.4</ele><time>1970-01-01T02:08:12.000Z</time></trkpt><trkpt lat="14.714323" lon="101.205817"><ele>239.7</ele><time>1970-01-01T02:08:13.000Z</time></trkpt><trkpt lat="14.714312" lon="101.205783"><ele>239.9</ele><time>1970-01-01T02:08:14.000Z</time></trkpt><trkpt lat="14.714302" lon="101.205752"><ele>240.2</ele><time>1970-01-01T02:08:15.000Z</time></trkpt><trkpt lat="14.714289" lon="101.205724"><ele>240.6</ele><time>1970-01-01T02:08:16.000Z</time></trkpt><trkpt lat="14.714274" lon="101.205692"><ele>241</ele><time>1970-01-01T02:08:17.000Z</time></trkpt><trkpt lat="14.714258" lon="101.205658"><ele>241.4</ele><time>1970-01-01T02:08:18.000Z</time></trkpt><trkpt lat="14.714242" lon="101.20563"><ele>241.7</ele><time>1970-01-01T02:08:19.000Z</time></trkpt><trkpt lat="14.714229" lon="101.205603"><ele>241.8</ele><time>1970-01-01T02:08:20.000Z</time></trkpt><trkpt lat="14.714214" lon="101.205572"><ele>241.7</ele><time>1970-01-01T02:08:21.000Z</time></trkpt><trkpt lat="14.714198" lon="101.205537"><ele>241.5</ele><time>1970-01-01T02:08:22.000Z</time></trkpt><trkpt lat="14.714185" lon="101.2055"><ele>241.5</ele><time>1970-01-01T02:08:23.000Z</time></trkpt><trkpt lat="14.714171" lon="101.205462"><ele>241.5</ele><time>1970-01-01T02:08:24.000Z</time></trkpt><trkpt lat="14.714157" lon="101.205426"><ele>242.2</ele><time>1970-01-01T02:08:25.000Z</time></trkpt><trkpt lat="14.714142" lon="101.205385"><ele>243</ele><time>1970-01-01T02:08:26.000Z</time></trkpt><trkpt lat="14.714125" lon="101.205346"><ele>243.7</ele><time>1970-01-01T02:08:27.000Z</time></trkpt><trkpt lat="14.714107" lon="101.205308"><ele>244.3</ele><time>1970-01-01T02:08:28.000Z</time></trkpt><trkpt lat="14.714091" lon="101.205274"><ele>244.4</ele><time>1970-01-01T02:08:29.000Z</time></trkpt><trkpt lat="14.714076" lon="101.205243"><ele>244.4</ele><time>1970-01-01T02:08:30.000Z</time></trkpt><trkpt lat="14.714061" lon="101.205218"><ele>244.2</ele><time>1970-01-01T02:08:31.000Z</time></trkpt><trkpt lat="14.714025" lon="101.205176"><ele>243.8</ele><time>1970-01-01T02:08:33.000Z</time></trkpt><trkpt lat="14.714005" lon="101.20515"><ele>243.5</ele><time>1970-01-01T02:08:34.000Z</time></trkpt><trkpt lat="14.713984" lon="101.205116"><ele>243.1</ele><time>1970-01-01T02:08:35.000Z</time></trkpt><trkpt lat="14.713966" lon="101.205083"><ele>243</ele><time>1970-01-01T02:08:36.000Z</time></trkpt><trkpt lat="14.713946" lon="101.205048"><ele>243.1</ele><time>1970-01-01T02:08:37.000Z</time></trkpt><trkpt lat="14.713923" lon="101.205013"><ele>243.1</ele><time>1970-01-01T02:08:38.000Z</time></trkpt><trkpt lat="14.713902" lon="101.204977"><ele>242.7</ele><time>1970-01-01T02:08:39.000Z</time></trkpt><trkpt lat="14.71388" lon="101.204943"><ele>242.3</ele><time>1970-01-01T02:08:40.000Z</time></trkpt><trkpt lat="14.713856" lon="101.204905"><ele>241.7</ele><time>1970-01-01T02:08:41.000Z</time></trkpt><trkpt lat="14.713805" lon="101.204819"><ele>241.3</ele><time>1970-01-01T02:08:42.000Z</time></trkpt><trkpt lat="14.713776" lon="101.204762"><ele>241.3</ele><time>1970-01-01T02:08:43.000Z</time></trkpt><trkpt lat="14.713737" lon="101.204693"><ele>241.2</ele><time>1970-01-01T02:08:44.000Z</time></trkpt><trkpt lat="14.713711" lon="101.204649"><ele>241</ele><time>1970-01-01T02:08:45.000Z</time></trkpt><trkpt lat="14.713665" lon="101.204604"><ele>239.9</ele><time>1970-01-01T02:08:46.000Z</time></trkpt><trkpt lat="14.713595" lon="101.204594"><ele>240.2</ele><time>1970-01-01T02:08:47.000Z</time></trkpt><trkpt lat="14.71353" lon="101.204568"><ele>240.2</ele><time>1970-01-01T02:08:48.000Z</time></trkpt><trkpt lat="14.71346" lon="101.20455"><ele>239.8</ele><time>1970-01-01T02:08:49.000Z</time></trkpt><trkpt lat="14.71338" lon="101.204526"><ele>238.9</ele><time>1970-01-01T02:08:50.000Z</time></trkpt><trkpt lat="14.713295" lon="101.204505"><ele>237.7</ele><time>1970-01-01T02:08:51.000Z</time></trkpt><trkpt lat="14.713219" lon="101.204448"><ele>236.7</ele><time>1970-01-01T02:08:52.000Z</time></trkpt><trkpt lat="14.713137" lon="101.20442"><ele>235.8</ele><time>1970-01-01T02:08:53.000Z</time></trkpt><trkpt lat="14.713055" lon="101.204398"><ele>235.7</ele><time>1970-01-01T02:08:54.000Z</time></trkpt><trkpt lat="14.712968" lon="101.204393"><ele>236.1</ele><time>1970-01-01T02:08:55.000Z</time></trkpt><trkpt lat="14.712894" lon="101.204402"><ele>236.1</ele><time>1970-01-01T02:08:56.000Z</time></trkpt><trkpt lat="14.712814" lon="101.204483"><ele>235.8</ele><time>1970-01-01T02:08:57.000Z</time></trkpt><trkpt lat="14.712737" lon="101.204526"><ele>236</ele><time>1970-01-01T02:08:58.000Z</time></trkpt><trkpt lat="14.712664" lon="101.204569"><ele>235.9</ele><time>1970-01-01T02:08:59.000Z</time></trkpt><trkpt lat="14.712589" lon="101.204601"><ele>235.6</ele><time>1970-01-01T02:09:00.000Z</time></trkpt><trkpt lat="14.71251" lon="101.204665"><ele>234.3</ele><time>1970-01-01T02:09:01.000Z</time></trkpt><trkpt lat="14.712427" lon="101.204721"><ele>232.6</ele><time>1970-01-01T02:09:02.000Z</time></trkpt><trkpt lat="14.712353" lon="101.204764"><ele>230.5</ele><time>1970-01-01T02:09:03.000Z</time></trkpt><trkpt lat="14.712278" lon="101.204802"><ele>228.7</ele><time>1970-01-01T02:09:04.000Z</time></trkpt><trkpt lat="14.712197" lon="101.204848"><ele>228</ele><time>1970-01-01T02:09:05.000Z</time></trkpt><trkpt lat="14.712119" lon="101.204885"><ele>227.5</ele><time>1970-01-01T02:09:06.000Z</time></trkpt><trkpt lat="14.712036" lon="101.204924"><ele>227</ele><time>1970-01-01T02:09:07.000Z</time></trkpt><trkpt lat="14.711953" lon="101.204946"><ele>227</ele><time>1970-01-01T02:09:08.000Z</time></trkpt><trkpt lat="14.711861" lon="101.205096"><ele>227.8</ele><time>1970-01-01T02:09:09.000Z</time></trkpt><trkpt lat="14.711777" lon="101.205108"><ele>227.3</ele><time>1970-01-01T02:09:10.000Z</time></trkpt><trkpt lat="14.711696" lon="101.205094"><ele>226.8</ele><time>1970-01-01T02:09:11.000Z</time></trkpt><trkpt lat="14.711602" lon="101.205118"><ele>226.8</ele><time>1970-01-01T02:09:12.000Z</time></trkpt><trkpt lat="14.711519" lon="101.205149"><ele>225.9</ele><time>1970-01-01T02:09:13.000Z</time></trkpt><trkpt lat="14.711459" lon="101.205171"><ele>225.8</ele><time>1970-01-01T02:09:14.000Z</time></trkpt><trkpt lat="14.711423" lon="101.205183"><ele>225.7</ele><time>1970-01-01T02:09:15.000Z</time></trkpt><trkpt lat="14.711391" lon="101.205174"><ele>225.7</ele><time>1970-01-01T02:09:16.000Z</time></trkpt><trkpt lat="14.711389" lon="101.205131"><ele>225.7</ele><time>1970-01-01T02:09:17.000Z</time></trkpt><trkpt lat="14.711421" lon="101.205052"><ele>225.7</ele><time>1970-01-01T02:09:20.000Z</time></trkpt><trkpt lat="14.711463" lon="101.204998"><ele>225.4</ele><time>1970-01-01T02:09:22.000Z</time></trkpt><trkpt lat="14.71149" lon="101.204974"><ele>225.5</ele><time>1970-01-01T02:09:23.000Z</time></trkpt><trkpt lat="14.711519" lon="101.204945"><ele>225.6</ele><time>1970-01-01T02:09:24.000Z</time></trkpt><trkpt lat="14.71155" lon="101.204922"><ele>226</ele><time>1970-01-01T02:09:25.000Z</time></trkpt><trkpt lat="14.711578" lon="101.204905"><ele>226.4</ele><time>1970-01-01T02:09:26.000Z</time></trkpt><trkpt lat="14.711621" lon="101.204883"><ele>227</ele><time>1970-01-01T02:09:28.000Z</time></trkpt><trkpt lat="14.711666" lon="101.204854"><ele>227.7</ele><time>1970-01-01T02:09:30.000Z</time></trkpt><trkpt lat="14.711691" lon="101.204835"><ele>228</ele><time>1970-01-01T02:09:31.000Z</time></trkpt><trkpt lat="14.711718" lon="101.204815"><ele>228.3</ele><time>1970-01-01T02:09:32.000Z</time></trkpt><trkpt lat="14.711747" lon="101.204796"><ele>228.7</ele><time>1970-01-01T02:09:33.000Z</time></trkpt><trkpt lat="14.711775" lon="101.20478"><ele>229.1</ele><time>1970-01-01T02:09:34.000Z</time></trkpt><trkpt lat="14.711799" lon="101.204765"><ele>229.4</ele><time>1970-01-01T02:09:35.000Z</time></trkpt><trkpt lat="14.711838" lon="101.204735"><ele>229.6</ele><time>1970-01-01T02:09:37.000Z</time></trkpt><trkpt lat="14.711881" lon="101.204697"><ele>230.1</ele><time>1970-01-01T02:09:39.000Z</time></trkpt><trkpt lat="14.711906" lon="101.204676"><ele>230.6</ele><time>1970-01-01T02:09:40.000Z</time></trkpt><trkpt lat="14.711926" lon="101.204655"><ele>231.1</ele><time>1970-01-01T02:09:41.000Z</time></trkpt><trkpt lat="14.711961" lon="101.204614"><ele>232.6</ele><time>1970-01-01T02:09:43.000Z</time></trkpt><trkpt lat="14.711987" lon="101.204564"><ele>234.2</ele><time>1970-01-01T02:09:45.000Z</time></trkpt><trkpt lat="14.712004" lon="101.204516"><ele>235.6</ele><time>1970-01-01T02:09:47.000Z</time></trkpt><trkpt lat="14.712017" lon="101.204465"><ele>236.8</ele><time>1970-01-01T02:09:49.000Z</time></trkpt><trkpt lat="14.712027" lon="101.204422"><ele>237.8</ele><time>1970-01-01T02:09:51.000Z</time></trkpt><trkpt lat="14.712038" lon="101.20438"><ele>238.9</ele><time>1970-01-01T02:09:53.000Z</time></trkpt><trkpt lat="14.712048" lon="101.204343"><ele>240</ele><time>1970-01-01T02:09:55.000Z</time></trkpt><trkpt lat="14.712062" lon="101.204319"><ele>240.7</ele><time>1970-01-01T02:09:57.000Z</time></trkpt><trkpt lat="14.712086" lon="101.20429"><ele>241.5</ele><time>1970-01-01T02:09:59.000Z</time></trkpt><trkpt lat="14.712105" lon="101.204261"><ele>242.2</ele><time>1970-01-01T02:10:01.000Z</time></trkpt><trkpt lat="14.712126" lon="101.204216"><ele>243.4</ele><time>1970-01-01T02:10:03.000Z</time></trkpt><trkpt lat="14.712144" lon="101.204172"><ele>244.7</ele><time>1970-01-01T02:10:05.000Z</time></trkpt><trkpt lat="14.712162" lon="101.204124"><ele>245.2</ele><time>1970-01-01T02:10:07.000Z</time></trkpt><trkpt lat="14.712172" lon="101.204094"><ele>245.5</ele><time>1970-01-01T02:10:08.000Z</time></trkpt><trkpt lat="14.712185" lon="101.204068"><ele>246.2</ele><time>1970-01-01T02:10:09.000Z</time></trkpt><trkpt lat="14.71221" lon="101.204031"><ele>247.5</ele><time>1970-01-01T02:10:11.000Z</time></trkpt><trkpt lat="14.712237" lon="101.204004"><ele>248.1</ele><time>1970-01-01T02:10:13.000Z</time></trkpt><trkpt lat="14.712262" lon="101.203982"><ele>248.4</ele><time>1970-01-01T02:10:15.000Z</time></trkpt><trkpt lat="14.712289" lon="101.203955"><ele>248.5</ele><time>1970-01-01T02:10:17.000Z</time></trkpt><trkpt lat="14.712313" lon="101.203926"><ele>248.1</ele><time>1970-01-01T02:10:19.000Z</time></trkpt><trkpt lat="14.712337" lon="101.2039"><ele>247.9</ele><time>1970-01-01T02:10:21.000Z</time></trkpt><trkpt lat="14.712359" lon="101.203869"><ele>248.1</ele><time>1970-01-01T02:10:23.000Z</time></trkpt><trkpt lat="14.71238" lon="101.203838"><ele>248.3</ele><time>1970-01-01T02:10:25.000Z</time></trkpt><trkpt lat="14.712401" lon="101.203805"><ele>248.1</ele><time>1970-01-01T02:10:27.000Z</time></trkpt><trkpt lat="14.712422" lon="101.203775"><ele>247.9</ele><time>1970-01-01T02:10:29.000Z</time></trkpt><trkpt lat="14.712447" lon="101.203748"><ele>248.4</ele><time>1970-01-01T02:10:31.000Z</time></trkpt><trkpt lat="14.712472" lon="101.203715"><ele>249.2</ele><time>1970-01-01T02:10:33.000Z</time></trkpt><trkpt lat="14.712485" lon="101.20369"><ele>249.8</ele><time>1970-01-01T02:10:34.000Z</time></trkpt><trkpt lat="14.712495" lon="101.20366"><ele>250.3</ele><time>1970-01-01T02:10:35.000Z</time></trkpt><trkpt lat="14.712502" lon="101.203631"><ele>250.9</ele><time>1970-01-01T02:10:36.000Z</time></trkpt><trkpt lat="14.712507" lon="101.2036"><ele>251.4</ele><time>1970-01-01T02:10:37.000Z</time></trkpt><trkpt lat="14.712512" lon="101.20357"><ele>252.1</ele><time>1970-01-01T02:10:38.000Z</time></trkpt><trkpt lat="14.712516" lon="101.203541"><ele>252.7</ele><time>1970-01-01T02:10:39.000Z</time></trkpt><trkpt lat="14.712522" lon="101.203491"><ele>253.3</ele><time>1970-01-01T02:10:41.000Z</time></trkpt><trkpt lat="14.71252" lon="101.203432"><ele>253.3</ele><time>1970-01-01T02:10:43.000Z</time></trkpt><trkpt lat="14.712517" lon="101.203393"><ele>253.8</ele><time>1970-01-01T02:10:44.000Z</time></trkpt><trkpt lat="14.712516" lon="101.20335"><ele>254.5</ele><time>1970-01-01T02:10:45.000Z</time></trkpt><trkpt lat="14.712517" lon="101.203308"><ele>254.8</ele><time>1970-01-01T02:10:46.000Z</time></trkpt><trkpt lat="14.712519" lon="101.203267"><ele>254.6</ele><time>1970-01-01T02:10:47.000Z</time></trkpt><trkpt lat="14.712523" lon="101.203225"><ele>254.5</ele><time>1970-01-01T02:10:48.000Z</time></trkpt><trkpt lat="14.712526" lon="101.203177"><ele>254.7</ele><time>1970-01-01T02:10:49.000Z</time></trkpt><trkpt lat="14.712531" lon="101.203129"><ele>254.9</ele><time>1970-01-01T02:10:50.000Z</time></trkpt><trkpt lat="14.712537" lon="101.203083"><ele>255.1</ele><time>1970-01-01T02:10:51.000Z</time></trkpt><trkpt lat="14.712555" lon="101.203014"><ele>254.5</ele><time>1970-01-01T02:10:52.000Z</time></trkpt><trkpt lat="14.712575" lon="101.20296"><ele>251.5</ele><time>1970-01-01T02:10:53.000Z</time></trkpt><trkpt lat="14.712609" lon="101.202917"><ele>249</ele><time>1970-01-01T02:10:54.000Z</time></trkpt><trkpt lat="14.712632" lon="101.202873"><ele>247.4</ele><time>1970-01-01T02:10:55.000Z</time></trkpt><trkpt lat="14.712667" lon="101.202807"><ele>244.4</ele><time>1970-01-01T02:10:56.000Z</time></trkpt><trkpt lat="14.712718" lon="101.202746"><ele>241.4</ele><time>1970-01-01T02:10:57.000Z</time></trkpt><trkpt lat="14.71276" lon="101.202687"><ele>239.1</ele><time>1970-01-01T02:10:58.000Z</time></trkpt><trkpt lat="14.712803" lon="101.202587"><ele>236.3</ele><time>1970-01-01T02:10:59.000Z</time></trkpt><trkpt lat="14.712844" lon="101.202495"><ele>234.4</ele><time>1970-01-01T02:11:00.000Z</time></trkpt><trkpt lat="14.712884" lon="101.202388"><ele>230.3</ele><time>1970-01-01T02:11:01.000Z</time></trkpt><trkpt lat="14.712915" lon="101.202274"><ele>227.1</ele><time>1970-01-01T02:11:02.000Z</time></trkpt><trkpt lat="14.71291" lon="101.202186"><ele>224.9</ele><time>1970-01-01T02:11:03.000Z</time></trkpt><trkpt lat="14.712897" lon="101.202085"><ele>222.6</ele><time>1970-01-01T02:11:04.000Z</time></trkpt><trkpt lat="14.712891" lon="101.201995"><ele>220.9</ele><time>1970-01-01T02:11:05.000Z</time></trkpt><trkpt lat="14.712888" lon="101.201907"><ele>220.1</ele><time>1970-01-01T02:11:06.000Z</time></trkpt><trkpt lat="14.712882" lon="101.201817"><ele>220.1</ele><time>1970-01-01T02:11:07.000Z</time></trkpt><trkpt lat="14.712879" lon="101.20174"><ele>220.1</ele><time>1970-01-01T02:11:08.000Z</time></trkpt><trkpt lat="14.712855" lon="101.201658"><ele>220.1</ele><time>1970-01-01T02:11:09.000Z</time></trkpt><trkpt lat="14.71282" lon="101.201593"><ele>220</ele><time>1970-01-01T02:11:10.000Z</time></trkpt><trkpt lat="14.712789" lon="101.201525"><ele>219.8</ele><time>1970-01-01T02:11:11.000Z</time></trkpt><trkpt lat="14.712737" lon="101.201459"><ele>219.7</ele><time>1970-01-01T02:11:12.000Z</time></trkpt><trkpt lat="14.71268" lon="101.201411"><ele>219.6</ele><time>1970-01-01T02:11:13.000Z</time></trkpt><trkpt lat="14.712647" lon="101.201344"><ele>219.3</ele><time>1970-01-01T02:11:14.000Z</time></trkpt><trkpt lat="14.712604" lon="101.201302"><ele>218.8</ele><time>1970-01-01T02:11:15.000Z</time></trkpt><trkpt lat="14.712583" lon="101.201235"><ele>217.9</ele><time>1970-01-01T02:11:16.000Z</time></trkpt><trkpt lat="14.712559" lon="101.20117"><ele>217.5</ele><time>1970-01-01T02:11:17.000Z</time></trkpt><trkpt lat="14.712529" lon="101.201107"><ele>217.1</ele><time>1970-01-01T02:11:18.000Z</time></trkpt><trkpt lat="14.712485" lon="101.201078"><ele>216.8</ele><time>1970-01-01T02:11:19.000Z</time></trkpt><trkpt lat="14.712442" lon="101.201035"><ele>217.4</ele><time>1970-01-01T02:11:20.000Z</time></trkpt><trkpt lat="14.712387" lon="101.20099"><ele>217.8</ele><time>1970-01-01T02:11:21.000Z</time></trkpt><trkpt lat="14.712333" lon="101.200921"><ele>218.2</ele><time>1970-01-01T02:11:22.000Z</time></trkpt><trkpt lat="14.712299" lon="101.200866"><ele>218.9</ele><time>1970-01-01T02:11:23.000Z</time></trkpt><trkpt lat="14.712281" lon="101.200819"><ele>219.9</ele><time>1970-01-01T02:11:24.000Z</time></trkpt><trkpt lat="14.71224" lon="101.200784"><ele>221</ele><time>1970-01-01T02:11:25.000Z</time></trkpt><trkpt lat="14.712191" lon="101.200724"><ele>222.5</ele><time>1970-01-01T02:11:26.000Z</time></trkpt><trkpt lat="14.712154" lon="101.200684"><ele>223.1</ele><time>1970-01-01T02:11:27.000Z</time></trkpt><trkpt lat="14.712118" lon="101.200638"><ele>223.8</ele><time>1970-01-01T02:11:28.000Z</time></trkpt><trkpt lat="14.712082" lon="101.200587"><ele>224.6</ele><time>1970-01-01T02:11:29.000Z</time></trkpt><trkpt lat="14.712058" lon="101.20053"><ele>225.5</ele><time>1970-01-01T02:11:30.000Z</time></trkpt><trkpt lat="14.712031" lon="101.200494"><ele>226.1</ele><time>1970-01-01T02:11:31.000Z</time></trkpt><trkpt lat="14.712023" lon="101.200453"><ele>226.1</ele><time>1970-01-01T02:11:32.000Z</time></trkpt><trkpt lat="14.71198" lon="101.200397"><ele>226.2</ele><time>1970-01-01T02:11:33.000Z</time></trkpt><trkpt lat="14.711935" lon="101.200346"><ele>226.3</ele><time>1970-01-01T02:11:34.000Z</time></trkpt><trkpt lat="14.71188" lon="101.200305"><ele>226.3</ele><time>1970-01-01T02:11:35.000Z</time></trkpt><trkpt lat="14.711835" lon="101.200277"><ele>226</ele><time>1970-01-01T02:11:36.000Z</time></trkpt><trkpt lat="14.711847" lon="101.200243"><ele>225.8</ele><time>1970-01-01T02:11:37.000Z</time></trkpt><trkpt lat="14.711818" lon="101.200205"><ele>225.6</ele><time>1970-01-01T02:11:38.000Z</time></trkpt><trkpt lat="14.711801" lon="101.200172"><ele>225.4</ele><time>1970-01-01T02:11:39.000Z</time></trkpt><trkpt lat="14.711793" lon="101.200066"><ele>224.4</ele><time>1970-01-01T02:11:40.000Z</time></trkpt><trkpt lat="14.71178" lon="101.199995"><ele>224.1</ele><time>1970-01-01T02:11:41.000Z</time></trkpt><trkpt lat="14.711763" lon="101.199968"><ele>224</ele><time>1970-01-01T02:11:42.000Z</time></trkpt><trkpt lat="14.711729" lon="101.199938"><ele>224</ele><time>1970-01-01T02:11:43.000Z</time></trkpt><trkpt lat="14.711695" lon="101.199838"><ele>223.6</ele><time>1970-01-01T02:11:44.000Z</time></trkpt><trkpt lat="14.711675" lon="101.199768"><ele>223</ele><time>1970-01-01T02:11:45.000Z</time></trkpt><trkpt lat="14.711646" lon="101.199704"><ele>222</ele><time>1970-01-01T02:11:46.000Z</time></trkpt><trkpt lat="14.711587" lon="101.199653"><ele>221.1</ele><time>1970-01-01T02:11:47.000Z</time></trkpt><trkpt lat="14.711558" lon="101.199656"><ele>220.7</ele><time>1970-01-01T02:11:48.000Z</time></trkpt><trkpt lat="14.711533" lon="101.199632"><ele>220.3</ele><time>1970-01-01T02:11:49.000Z</time></trkpt><trkpt lat="14.711512" lon="101.199596"><ele>219.7</ele><time>1970-01-01T02:11:50.000Z</time></trkpt><trkpt lat="14.711486" lon="101.199556"><ele>218.9</ele><time>1970-01-01T02:11:51.000Z</time></trkpt><trkpt lat="14.711466" lon="101.199501"><ele>217.9</ele><time>1970-01-01T02:11:52.000Z</time></trkpt><trkpt lat="14.711439" lon="101.199448"><ele>216.8</ele><time>1970-01-01T02:11:53.000Z</time></trkpt><trkpt lat="14.711418" lon="101.199408"><ele>216.1</ele><time>1970-01-01T02:11:54.000Z</time></trkpt><trkpt lat="14.711389" lon="101.199369"><ele>215.4</ele><time>1970-01-01T02:11:55.000Z</time></trkpt><trkpt lat="14.711359" lon="101.199313"><ele>214.9</ele><time>1970-01-01T02:11:56.000Z</time></trkpt><trkpt lat="14.71134" lon="101.199263"><ele>214.6</ele><time>1970-01-01T02:11:57.000Z</time></trkpt><trkpt lat="14.711321" lon="101.199217"><ele>214.3</ele><time>1970-01-01T02:11:58.000Z</time></trkpt><trkpt lat="14.711316" lon="101.199171"><ele>214.1</ele><time>1970-01-01T02:11:59.000Z</time></trkpt><trkpt lat="14.711314" lon="101.199136"><ele>214</ele><time>1970-01-01T02:12:00.000Z</time></trkpt><trkpt lat="14.711304" lon="101.199093"><ele>213.8</ele><time>1970-01-01T02:12:01.000Z</time></trkpt><trkpt lat="14.7113" lon="101.199042"><ele>213.6</ele><time>1970-01-01T02:12:02.000Z</time></trkpt><trkpt lat="14.711285" lon="101.198991"><ele>213.4</ele><time>1970-01-01T02:12:03.000Z</time></trkpt><trkpt lat="14.711267" lon="101.198949"><ele>213.1</ele><time>1970-01-01T02:12:04.000Z</time></trkpt><trkpt lat="14.711244" lon="101.198914"><ele>212.6</ele><time>1970-01-01T02:12:05.000Z</time></trkpt><trkpt lat="14.711214" lon="101.198855"><ele>211.9</ele><time>1970-01-01T02:12:06.000Z</time></trkpt><trkpt lat="14.711177" lon="101.198816"><ele>211.9</ele><time>1970-01-01T02:12:07.000Z</time></trkpt><trkpt lat="14.711138" lon="101.198762"><ele>212.1</ele><time>1970-01-01T02:12:08.000Z</time></trkpt><trkpt lat="14.711104" lon="101.198719"><ele>212.2</ele><time>1970-01-01T02:12:09.000Z</time></trkpt><trkpt lat="14.711067" lon="101.19866"><ele>212</ele><time>1970-01-01T02:12:10.000Z</time></trkpt><trkpt lat="14.711031" lon="101.198625"><ele>211.8</ele><time>1970-01-01T02:12:11.000Z</time></trkpt><trkpt lat="14.710994" lon="101.198588"><ele>211.4</ele><time>1970-01-01T02:12:12.000Z</time></trkpt><trkpt lat="14.71096" lon="101.198533"><ele>210.3</ele><time>1970-01-01T02:12:13.000Z</time></trkpt><trkpt lat="14.710937" lon="101.198498"><ele>209.7</ele><time>1970-01-01T02:12:14.000Z</time></trkpt><trkpt lat="14.710906" lon="101.198444"><ele>208.9</ele><time>1970-01-01T02:12:15.000Z</time></trkpt><trkpt lat="14.710875" lon="101.198395"><ele>208.6</ele><time>1970-01-01T02:12:16.000Z</time></trkpt><trkpt lat="14.710849" lon="101.198353"><ele>208.3</ele><time>1970-01-01T02:12:17.000Z</time></trkpt><trkpt lat="14.71082" lon="101.198316"><ele>207.9</ele><time>1970-01-01T02:12:18.000Z</time></trkpt><trkpt lat="14.710797" lon="101.198275"><ele>207.3</ele><time>1970-01-01T02:12:19.000Z</time></trkpt><trkpt lat="14.710769" lon="101.198233"><ele>206.4</ele><time>1970-01-01T02:12:20.000Z</time></trkpt><trkpt lat="14.710748" lon="101.198193"><ele>205.9</ele><time>1970-01-01T02:12:21.000Z</time></trkpt><trkpt lat="14.710723" lon="101.198133"><ele>205.4</ele><time>1970-01-01T02:12:22.000Z</time></trkpt><trkpt lat="14.710701" lon="101.198096"><ele>204.9</ele><time>1970-01-01T02:12:23.000Z</time></trkpt><trkpt lat="14.710676" lon="101.198038"><ele>204.4</ele><time>1970-01-01T02:12:24.000Z</time></trkpt><trkpt lat="14.71065" lon="101.197978"><ele>204.9</ele><time>1970-01-01T02:12:25.000Z</time></trkpt><trkpt lat="14.710632" lon="101.197928"><ele>204.5</ele><time>1970-01-01T02:12:26.000Z</time></trkpt><trkpt lat="14.710609" lon="101.197876"><ele>203.8</ele><time>1970-01-01T02:12:27.000Z</time></trkpt><trkpt lat="14.710588" lon="101.197829"><ele>203.1</ele><time>1970-01-01T02:12:28.000Z</time></trkpt><trkpt lat="14.710558" lon="101.197781"><ele>202.5</ele><time>1970-01-01T02:12:29.000Z</time></trkpt><trkpt lat="14.710527" lon="101.19772"><ele>202</ele><time>1970-01-01T02:12:30.000Z</time></trkpt><trkpt lat="14.710501" lon="101.197665"><ele>201.5</ele><time>1970-01-01T02:12:31.000Z</time></trkpt><trkpt lat="14.710483" lon="101.197588"><ele>201.1</ele><time>1970-01-01T02:12:32.000Z</time></trkpt><trkpt lat="14.710455" lon="101.197532"><ele>201</ele><time>1970-01-01T02:12:33.000Z</time></trkpt><trkpt lat="14.710447" lon="101.197501"><ele>200.8</ele><time>1970-01-01T02:12:34.000Z</time></trkpt><trkpt lat="14.710424" lon="101.197441"><ele>200.3</ele><time>1970-01-01T02:12:35.000Z</time></trkpt><trkpt lat="14.710401" lon="101.197379"><ele>199.4</ele><time>1970-01-01T02:12:36.000Z</time></trkpt><trkpt lat="14.710374" lon="101.197307"><ele>198.2</ele><time>1970-01-01T02:12:37.000Z</time></trkpt><trkpt lat="14.710343" lon="101.197235"><ele>197.4</ele><time>1970-01-01T02:12:38.000Z</time></trkpt><trkpt lat="14.710321" lon="101.197185"><ele>197.4</ele><time>1970-01-01T02:12:39.000Z</time></trkpt><trkpt lat="14.710293" lon="101.197113"><ele>198</ele><time>1970-01-01T02:12:40.000Z</time></trkpt><trkpt lat="14.710285" lon="101.197028"><ele>199.1</ele><time>1970-01-01T02:12:41.000Z</time></trkpt><trkpt lat="14.710264" lon="101.196971"><ele>199.6</ele><time>1970-01-01T02:12:42.000Z</time></trkpt><trkpt lat="14.710233" lon="101.196886"><ele>200.2</ele><time>1970-01-01T02:12:43.000Z</time></trkpt><trkpt lat="14.710228" lon="101.196839"><ele>200.3</ele><time>1970-01-01T02:12:44.000Z</time></trkpt><trkpt lat="14.7102" lon="101.196765"><ele>199.9</ele><time>1970-01-01T02:12:46.000Z</time></trkpt><trkpt lat="14.710177" lon="101.196688"><ele>199</ele><time>1970-01-01T02:12:47.000Z</time></trkpt><trkpt lat="14.710162" lon="101.196617"><ele>198.3</ele><time>1970-01-01T02:12:48.000Z</time></trkpt><trkpt lat="14.710143" lon="101.196548"><ele>197.7</ele><time>1970-01-01T02:12:49.000Z</time></trkpt><trkpt lat="14.710125" lon="101.196483"><ele>197.3</ele><time>1970-01-01T02:12:50.000Z</time></trkpt><trkpt lat="14.7101" lon="101.196418"><ele>197.1</ele><time>1970-01-01T02:12:51.000Z</time></trkpt><trkpt lat="14.710072" lon="101.19636"><ele>197.2</ele><time>1970-01-01T02:12:52.000Z</time></trkpt><trkpt lat="14.71005" lon="101.196294"><ele>197.5</ele><time>1970-01-01T02:12:53.000Z</time></trkpt><trkpt lat="14.710025" lon="101.196238"><ele>197.7</ele><time>1970-01-01T02:12:54.000Z</time></trkpt><trkpt lat="14.710015" lon="101.196192"><ele>197.9</ele><time>1970-01-01T02:12:55.000Z</time></trkpt><trkpt lat="14.709987" lon="101.196127"><ele>198.1</ele><time>1970-01-01T02:12:56.000Z</time></trkpt><trkpt lat="14.709958" lon="101.196076"><ele>198.2</ele><time>1970-01-01T02:12:57.000Z</time></trkpt><trkpt lat="14.709931" lon="101.196002"><ele>198.2</ele><time>1970-01-01T02:12:58.000Z</time></trkpt><trkpt lat="14.709905" lon="101.195931"><ele>198</ele><time>1970-01-01T02:12:59.000Z</time></trkpt><trkpt lat="14.709876" lon="101.195869"><ele>197.8</ele><time>1970-01-01T02:13:00.000Z</time></trkpt><trkpt lat="14.709856" lon="101.195823"><ele>198</ele><time>1970-01-01T02:13:01.000Z</time></trkpt><trkpt lat="14.709828" lon="101.195748"><ele>198.2</ele><time>1970-01-01T02:13:02.000Z</time></trkpt><trkpt lat="14.709802" lon="101.195681"><ele>198.3</ele><time>1970-01-01T02:13:03.000Z</time></trkpt><trkpt lat="14.70978" lon="101.195618"><ele>198.2</ele><time>1970-01-01T02:13:04.000Z</time></trkpt><trkpt lat="14.709749" lon="101.195568"><ele>197.9</ele><time>1970-01-01T02:13:05.000Z</time></trkpt><trkpt lat="14.709721" lon="101.195505"><ele>197.3</ele><time>1970-01-01T02:13:06.000Z</time></trkpt><trkpt lat="14.709683" lon="101.195458"><ele>196.7</ele><time>1970-01-01T02:13:07.000Z</time></trkpt><trkpt lat="14.709652" lon="101.195415"><ele>196.7</ele><time>1970-01-01T02:13:08.000Z</time></trkpt><trkpt lat="14.709626" lon="101.195346"><ele>196.6</ele><time>1970-01-01T02:13:09.000Z</time></trkpt><trkpt lat="14.709598" lon="101.195287"><ele>196.4</ele><time>1970-01-01T02:13:10.000Z</time></trkpt><trkpt lat="14.709574" lon="101.195224"><ele>196.3</ele><time>1970-01-01T02:13:11.000Z</time></trkpt><trkpt lat="14.709549" lon="101.19518"><ele>196.3</ele><time>1970-01-01T02:13:12.000Z</time></trkpt><trkpt lat="14.709523" lon="101.195111"><ele>196.4</ele><time>1970-01-01T02:13:13.000Z</time></trkpt><trkpt lat="14.709496" lon="101.195058"><ele>196.6</ele><time>1970-01-01T02:13:14.000Z</time></trkpt><trkpt lat="14.709481" lon="101.194982"><ele>197.1</ele><time>1970-01-01T02:13:15.000Z</time></trkpt><trkpt lat="14.709455" lon="101.194944"><ele>197.6</ele><time>1970-01-01T02:13:16.000Z</time></trkpt><trkpt lat="14.70942" lon="101.194886"><ele>197.9</ele><time>1970-01-01T02:13:17.000Z</time></trkpt><trkpt lat="14.709397" lon="101.194843"><ele>198.1</ele><time>1970-01-01T02:13:18.000Z</time></trkpt><trkpt lat="14.709375" lon="101.194789"><ele>198.1</ele><time>1970-01-01T02:13:19.000Z</time></trkpt><trkpt lat="14.709356" lon="101.194749"><ele>198.1</ele><time>1970-01-01T02:13:20.000Z</time></trkpt><trkpt lat="14.709336" lon="101.194696"><ele>198</ele><time>1970-01-01T02:13:21.000Z</time></trkpt><trkpt lat="14.709317" lon="101.194644"><ele>197.9</ele><time>1970-01-01T02:13:22.000Z</time></trkpt><trkpt lat="14.709294" lon="101.194586"><ele>197.7</ele><time>1970-01-01T02:13:23.000Z</time></trkpt><trkpt lat="14.709272" lon="101.19453"><ele>197.4</ele><time>1970-01-01T02:13:24.000Z</time></trkpt><trkpt lat="14.709252" lon="101.194475"><ele>197</ele><time>1970-01-01T02:13:25.000Z</time></trkpt><trkpt lat="14.709235" lon="101.194418"><ele>196.7</ele><time>1970-01-01T02:13:26.000Z</time></trkpt><trkpt lat="14.709214" lon="101.194346"><ele>196.2</ele><time>1970-01-01T02:13:27.000Z</time></trkpt><trkpt lat="14.709196" lon="101.194283"><ele>195.7</ele><time>1970-01-01T02:13:28.000Z</time></trkpt><trkpt lat="14.709175" lon="101.19422"><ele>195.3</ele><time>1970-01-01T02:13:29.000Z</time></trkpt><trkpt lat="14.709154" lon="101.194159"><ele>195.1</ele><time>1970-01-01T02:13:30.000Z</time></trkpt><trkpt lat="14.709135" lon="101.194097"><ele>195.4</ele><time>1970-01-01T02:13:31.000Z</time></trkpt><trkpt lat="14.709118" lon="101.194039"><ele>195.8</ele><time>1970-01-01T02:13:32.000Z</time></trkpt><trkpt lat="14.709103" lon="101.193985"><ele>196.1</ele><time>1970-01-01T02:13:33.000Z</time></trkpt><trkpt lat="14.709088" lon="101.19393"><ele>196.5</ele><time>1970-01-01T02:13:34.000Z</time></trkpt><trkpt lat="14.709075" lon="101.193873"><ele>196.8</ele><time>1970-01-01T02:13:35.000Z</time></trkpt><trkpt lat="14.709067" lon="101.193814"><ele>197</ele><time>1970-01-01T02:13:36.000Z</time></trkpt><trkpt lat="14.709053" lon="101.193769"><ele>197.2</ele><time>1970-01-01T02:13:37.000Z</time></trkpt><trkpt lat="14.709042" lon="101.193702"><ele>197.2</ele><time>1970-01-01T02:13:38.000Z</time></trkpt><trkpt lat="14.709036" lon="101.193638"><ele>197.1</ele><time>1970-01-01T02:13:39.000Z</time></trkpt><trkpt lat="14.709021" lon="101.193574"><ele>196.7</ele><time>1970-01-01T02:13:40.000Z</time></trkpt><trkpt lat="14.709013" lon="101.193531"><ele>196.4</ele><time>1970-01-01T02:13:41.000Z</time></trkpt><trkpt lat="14.708991" lon="101.193431"><ele>195.9</ele><time>1970-01-01T02:13:42.000Z</time></trkpt><trkpt lat="14.708976" lon="101.193344"><ele>195.4</ele><time>1970-01-01T02:13:43.000Z</time></trkpt><trkpt lat="14.708972" lon="101.193292"><ele>195.1</ele><time>1970-01-01T02:13:44.000Z</time></trkpt><trkpt lat="14.708957" lon="101.193227"><ele>194.3</ele><time>1970-01-01T02:13:45.000Z</time></trkpt><trkpt lat="14.708948" lon="101.193173"><ele>193.6</ele><time>1970-01-01T02:13:46.000Z</time></trkpt><trkpt lat="14.708941" lon="101.193102"><ele>192.9</ele><time>1970-01-01T02:13:47.000Z</time></trkpt><trkpt lat="14.708929" lon="101.193018"><ele>192.2</ele><time>1970-01-01T02:13:48.000Z</time></trkpt><trkpt lat="14.708925" lon="101.192945"><ele>191.8</ele><time>1970-01-01T02:13:49.000Z</time></trkpt><trkpt lat="14.708913" lon="101.19287"><ele>191.7</ele><time>1970-01-01T02:13:50.000Z</time></trkpt><trkpt lat="14.708907" lon="101.192815"><ele>191.7</ele><time>1970-01-01T02:13:51.000Z</time></trkpt><trkpt lat="14.70891" lon="101.192741"><ele>191.7</ele><time>1970-01-01T02:13:52.000Z</time></trkpt><trkpt lat="14.708904" lon="101.192691"><ele>191.7</ele><time>1970-01-01T02:13:53.000Z</time></trkpt><trkpt lat="14.708889" lon="101.192629"><ele>191.8</ele><time>1970-01-01T02:13:54.000Z</time></trkpt><trkpt lat="14.708883" lon="101.19258"><ele>192</ele><time>1970-01-01T02:13:55.000Z</time></trkpt><trkpt lat="14.70887" lon="101.192538"><ele>192.3</ele><time>1970-01-01T02:13:56.000Z</time></trkpt><trkpt lat="14.708868" lon="101.192499"><ele>192.5</ele><time>1970-01-01T02:13:57.000Z</time></trkpt><trkpt lat="14.708878" lon="101.192431"><ele>192.6</ele><time>1970-01-01T02:13:58.000Z</time></trkpt><trkpt lat="14.708878" lon="101.192377"><ele>192.8</ele><time>1970-01-01T02:13:59.000Z</time></trkpt><trkpt lat="14.708887" lon="101.192332"><ele>192.9</ele><time>1970-01-01T02:14:00.000Z</time></trkpt><trkpt lat="14.708871" lon="101.192277"><ele>193.1</ele><time>1970-01-01T02:14:01.000Z</time></trkpt><trkpt lat="14.708864" lon="101.192163"><ele>193.2</ele><time>1970-01-01T02:14:02.000Z</time></trkpt><trkpt lat="14.708837" lon="101.192117"><ele>193.1</ele><time>1970-01-01T02:14:03.000Z</time></trkpt><trkpt lat="14.70883" lon="101.192037"><ele>192.8</ele><time>1970-01-01T02:14:04.000Z</time></trkpt><trkpt lat="14.708819" lon="101.191974"><ele>192.4</ele><time>1970-01-01T02:14:05.000Z</time></trkpt><trkpt lat="14.708808" lon="101.191916"><ele>192.1</ele><time>1970-01-01T02:14:06.000Z</time></trkpt><trkpt lat="14.708825" lon="101.191828"><ele>192</ele><time>1970-01-01T02:14:07.000Z</time></trkpt><trkpt lat="14.708855" lon="101.191722"><ele>192.1</ele><time>1970-01-01T02:14:08.000Z</time></trkpt><trkpt lat="14.70891" lon="101.19171"><ele>191.9</ele><time>1970-01-01T02:14:09.000Z</time></trkpt><trkpt lat="14.70896" lon="101.191666"><ele>191.7</ele><time>1970-01-01T02:14:10.000Z</time></trkpt><trkpt lat="14.709045" lon="101.191674"><ele>191.5</ele><time>1970-01-01T02:14:12.000Z</time></trkpt><trkpt lat="14.709103" lon="101.191651"><ele>191.4</ele><time>1970-01-01T02:14:13.000Z</time></trkpt><trkpt lat="14.709156" lon="101.191642"><ele>191.7</ele><time>1970-01-01T02:14:14.000Z</time></trkpt><trkpt lat="14.709209" lon="101.191635"><ele>192</ele><time>1970-01-01T02:14:15.000Z</time></trkpt><trkpt lat="14.709253" lon="101.191601"><ele>192.3</ele><time>1970-01-01T02:14:16.000Z</time></trkpt><trkpt lat="14.709303" lon="101.191576"><ele>192.3</ele><time>1970-01-01T02:14:17.000Z</time></trkpt><trkpt lat="14.709328" lon="101.191543"><ele>192.4</ele><time>1970-01-01T02:14:18.000Z</time></trkpt><trkpt lat="14.70937" lon="101.191516"><ele>192.5</ele><time>1970-01-01T02:14:19.000Z</time></trkpt><trkpt lat="14.709427" lon="101.191475"><ele>192.5</ele><time>1970-01-01T02:14:20.000Z</time></trkpt><trkpt lat="14.709483" lon="101.191452"><ele>192.3</ele><time>1970-01-01T02:14:21.000Z</time></trkpt><trkpt lat="14.709534" lon="101.191426"><ele>191.9</ele><time>1970-01-01T02:14:22.000Z</time></trkpt><trkpt lat="14.709588" lon="101.191386"><ele>191.1</ele><time>1970-01-01T02:14:23.000Z</time></trkpt><trkpt lat="14.709626" lon="101.191377"><ele>190.7</ele><time>1970-01-01T02:14:24.000Z</time></trkpt><trkpt lat="14.709681" lon="101.191347"><ele>190.6</ele><time>1970-01-01T02:14:25.000Z</time></trkpt><trkpt lat="14.709732" lon="101.191313"><ele>190.6</ele><time>1970-01-01T02:14:26.000Z</time></trkpt><trkpt lat="14.709782" lon="101.191284"><ele>190.5</ele><time>1970-01-01T02:14:27.000Z</time></trkpt><trkpt lat="14.709824" lon="101.191254"><ele>190.4</ele><time>1970-01-01T02:14:28.000Z</time></trkpt><trkpt lat="14.709851" lon="101.19122"><ele>190.5</ele><time>1970-01-01T02:14:29.000Z</time></trkpt><trkpt lat="14.709884" lon="101.191186"><ele>190.5</ele><time>1970-01-01T02:14:30.000Z</time></trkpt><trkpt lat="14.709923" lon="101.191123"><ele>191</ele><time>1970-01-01T02:14:31.000Z</time></trkpt><trkpt lat="14.709952" lon="101.191101"><ele>191.2</ele><time>1970-01-01T02:14:32.000Z</time></trkpt><trkpt lat="14.709984" lon="101.191059"><ele>191.2</ele><time>1970-01-01T02:14:33.000Z</time></trkpt><trkpt lat="14.710027" lon="101.191003"><ele>190.7</ele><time>1970-01-01T02:14:34.000Z</time></trkpt><trkpt lat="14.710059" lon="101.190961"><ele>190.4</ele><time>1970-01-01T02:14:35.000Z</time></trkpt><trkpt lat="14.710084" lon="101.19092"><ele>190</ele><time>1970-01-01T02:14:36.000Z</time></trkpt><trkpt lat="14.710046" lon="101.190865"><ele>189.8</ele><time>1970-01-01T02:14:38.000Z</time></trkpt><trkpt lat="14.710017" lon="101.190828"><ele>189.9</ele><time>1970-01-01T02:14:39.000Z</time></trkpt><trkpt lat="14.709993" lon="101.190764"><ele>190</ele><time>1970-01-01T02:14:40.000Z</time></trkpt><trkpt lat="14.709954" lon="101.19074"><ele>190.4</ele><time>1970-01-01T02:14:41.000Z</time></trkpt><trkpt lat="14.709925" lon="101.190711"><ele>190.6</ele><time>1970-01-01T02:14:42.000Z</time></trkpt><trkpt lat="14.709858" lon="101.190722"><ele>190.8</ele><time>1970-01-01T02:14:43.000Z</time></trkpt><trkpt lat="14.709805" lon="101.190826"><ele>191</ele><time>1970-01-01T02:14:44.000Z</time></trkpt><trkpt lat="14.709765" lon="101.19085"><ele>191</ele><time>1970-01-01T02:14:45.000Z</time></trkpt><trkpt lat="14.709724" lon="101.190876"><ele>191</ele><time>1970-01-01T02:14:46.000Z</time></trkpt><trkpt lat="14.709674" lon="101.190902"><ele>191</ele><time>1970-01-01T02:14:47.000Z</time></trkpt><trkpt lat="14.70963" lon="101.190927"><ele>191</ele><time>1970-01-01T02:14:48.000Z</time></trkpt><trkpt lat="14.709573" lon="101.191"><ele>191.2</ele><time>1970-01-01T02:14:49.000Z</time></trkpt><trkpt lat="14.709545" lon="101.19105"><ele>191.2</ele><time>1970-01-01T02:14:50.000Z</time></trkpt><trkpt lat="14.709514" lon="101.191109"><ele>191.1</ele><time>1970-01-01T02:14:51.000Z</time></trkpt><trkpt lat="14.709482" lon="101.191173"><ele>191.2</ele><time>1970-01-01T02:14:52.000Z</time></trkpt><trkpt lat="14.709454" lon="101.191216"><ele>191.3</ele><time>1970-01-01T02:14:53.000Z</time></trkpt><trkpt lat="14.709418" lon="101.191264"><ele>191.5</ele><time>1970-01-01T02:14:54.000Z</time></trkpt><trkpt lat="14.709376" lon="101.191298"><ele>191.7</ele><time>1970-01-01T02:14:55.000Z</time></trkpt><trkpt lat="14.709355" lon="101.191328"><ele>191.8</ele><time>1970-01-01T02:14:56.000Z</time></trkpt><trkpt lat="14.709337" lon="101.191358"><ele>192</ele><time>1970-01-01T02:14:57.000Z</time></trkpt><trkpt lat="14.709322" lon="101.191389"><ele>192.2</ele><time>1970-01-01T02:14:58.000Z</time></trkpt><trkpt lat="14.709299" lon="101.191453"><ele>192.6</ele><time>1970-01-01T02:15:00.000Z</time></trkpt><trkpt lat="14.709263" lon="101.191528"><ele>192.4</ele><time>1970-01-01T02:15:01.000Z</time></trkpt><trkpt lat="14.70923" lon="101.191552"><ele>192.3</ele><time>1970-01-01T02:15:02.000Z</time></trkpt><trkpt lat="14.709196" lon="101.191611"><ele>192.2</ele><time>1970-01-01T02:15:03.000Z</time></trkpt><trkpt lat="14.709154" lon="101.191669"><ele>192.1</ele><time>1970-01-01T02:15:04.000Z</time></trkpt><trkpt lat="14.709111" lon="101.191687"><ele>192.1</ele><time>1970-01-01T02:15:05.000Z</time></trkpt><trkpt lat="14.70906" lon="101.191722"><ele>192.3</ele><time>1970-01-01T02:15:06.000Z</time></trkpt><trkpt lat="14.709007" lon="101.191756"><ele>193.1</ele><time>1970-01-01T02:15:07.000Z</time></trkpt><trkpt lat="14.70896" lon="101.191808"><ele>193.5</ele><time>1970-01-01T02:15:08.000Z</time></trkpt><trkpt lat="14.708909" lon="101.191829"><ele>193.7</ele><time>1970-01-01T02:15:09.000Z</time></trkpt><trkpt lat="14.708856" lon="101.191857"><ele>193.5</ele><time>1970-01-01T02:15:10.000Z</time></trkpt><trkpt lat="14.70881" lon="101.191863"><ele>193.5</ele><time>1970-01-01T02:15:11.000Z</time></trkpt><trkpt lat="14.708766" lon="101.191884"><ele>193.5</ele><time>1970-01-01T02:15:12.000Z</time></trkpt><trkpt lat="14.708715" lon="101.191914"><ele>193.4</ele><time>1970-01-01T02:15:13.000Z</time></trkpt><trkpt lat="14.708657" lon="101.191904"><ele>193.7</ele><time>1970-01-01T02:15:14.000Z</time></trkpt><trkpt lat="14.708597" lon="101.191904"><ele>194.2</ele><time>1970-01-01T02:15:15.000Z</time></trkpt><trkpt lat="14.708547" lon="101.191895"><ele>194.3</ele><time>1970-01-01T02:15:16.000Z</time></trkpt><trkpt lat="14.708493" lon="101.191887"><ele>194.7</ele><time>1970-01-01T02:15:17.000Z</time></trkpt><trkpt lat="14.708442" lon="101.191904"><ele>194.2</ele><time>1970-01-01T02:15:18.000Z</time></trkpt><trkpt lat="14.708388" lon="101.191902"><ele>194.3</ele><time>1970-01-01T02:15:19.000Z</time></trkpt><trkpt lat="14.70834" lon="101.191879"><ele>195</ele><time>1970-01-01T02:15:20.000Z</time></trkpt><trkpt lat="14.708289" lon="101.191858"><ele>195.4</ele><time>1970-01-01T02:15:21.000Z</time></trkpt><trkpt lat="14.708238" lon="101.191811"><ele>196.2</ele><time>1970-01-01T02:15:22.000Z</time></trkpt><trkpt lat="14.70819" lon="101.191809"><ele>196.4</ele><time>1970-01-01T02:15:23.000Z</time></trkpt><trkpt lat="14.708155" lon="101.191824"><ele>196.5</ele><time>1970-01-01T02:15:24.000Z</time></trkpt><trkpt lat="14.708139" lon="101.191903"><ele>195.2</ele><time>1970-01-01T02:15:25.000Z</time></trkpt><trkpt lat="14.708131" lon="101.191935"><ele>195.2</ele><time>1970-01-01T02:15:26.000Z</time></trkpt><trkpt lat="14.708102" lon="101.192001"><ele>193.9</ele><time>1970-01-01T02:15:28.000Z</time></trkpt><trkpt lat="14.708085" lon="101.191954"><ele>194.5</ele><time>1970-01-01T02:15:29.000Z</time></trkpt><trkpt lat="14.708065" lon="101.191986"><ele>193.9</ele><time>1970-01-01T02:15:30.000Z</time></trkpt><trkpt lat="14.708045" lon="101.192017"><ele>194</ele><time>1970-01-01T02:15:31.000Z</time></trkpt><trkpt lat="14.708019" lon="101.192075"><ele>193.7</ele><time>1970-01-01T02:15:32.000Z</time></trkpt><trkpt lat="14.707984" lon="101.192143"><ele>193.6</ele><time>1970-01-01T02:15:33.000Z</time></trkpt><trkpt lat="14.707957" lon="101.192221"><ele>193.5</ele><time>1970-01-01T02:15:34.000Z</time></trkpt><trkpt lat="14.707941" lon="101.192267"><ele>193.3</ele><time>1970-01-01T02:15:35.000Z</time></trkpt><trkpt lat="14.707952" lon="101.192237"><ele>193.3</ele><time>1970-01-01T02:15:37.000Z</time></trkpt></trkseg></trk></gpx>